| State | Iowa | Latest | Unknown (404 cfs) | |
| River | North Skunk River | Rating | Observed | Estimated |
| Updated | 2026-05-10 9:30 (1 hour ago) | Flood - The river is flooding. Obstacles can be treacherous or deadly. The river should be avoided at this stage for casual trips and definitely for the inexperienced. Trips should be attempted only with protective gear and equipment.Flood | (none) | (none) |
| Discharge | 404 cfs (median: 557 cfs) | High - The river is high and potentially dangerous, especially for the young and / or inexperienced. Normal stream obstacles are sometimes difficult to navigate. Extended distances can be attempted, but canoe travel may not be advisable.High | (none) | (none) |
| Height | 5.98 feet | Good - Conditions are ideal for a canoe or kayak. Boats typically will drag on fewer than one-quarter of riffles, if at all, and portages are unnecessary or rare. Normal float lengths can be attempted without a problem.Good | (none) | (none) |
| Trend | Rising (falling over 24 hours) | Low - River is low but can still be floated. Some riffles are okay but most come with significant dragging and might need a portage. Float lengths should be reduced to accommodate low flow, dragging, and portages.Low | (none) | (none) |
| USGS | USGS Site ( Duck Duck Go Maps) | Poor - River is too low to float comfortably. Most or all riffles will drag or must be portaged and some obstacles (such as slick shelf rock) cause undue problems. Avoid the river at this stage for casual paddling trips.Poor | (none) | (none) |
A total of 1 rows are displayed.
| Miles | 0 |
| Trips | 1 |
| People | 3 |
| Dates | 1 |
| Years | 1 |
| Months | 1 |
| Rows | 1 |
| Sources | 1 |
BLG - Bluegill
CCF - Channel Catfish
CP - Chain Pickerel
FWD - Freshwater Drum
GSF - Green Sunfish
KSB - Kentucky Spotted Bass
LMB - Largemouth Bass
LSF - Longear Sunfish
RB - Rock Bass / Goggle Eye
RSF - Redear Sunfish
RT - Rainbow Trout
SMB - Smallmouth Bass
WB - White Bass
WF - Whitefish
WL - WalleyeThe classic River Trips application is still available for use. It is updated with the new system using a data retrofit. It is no longer maintained. The original River Trips application is no longer updated (as of 1 Dec 2016) but can be checked for errors or for the condition of the data before it was converted to the new system.
| Observation | Height | Discharge | Maximum Discharge | Minimum Discharge | Mean Discharge | P05 | P10 | P20 | P25 | P50 (Median) | P75 | P80 | P90 | P95 |
|---|---|---|---|---|---|---|---|---|---|---|---|---|---|---|
| 2026-05-10 09:30 | 5.98 | 404 | 7880 (1996) | 19 (1956) | 896 | 54 | 88 | 210 | 236 | 557 | 955 | 1070 | 2040 | 3790 |
| 2026-05-10 08:30 | 5.96 | 400 | 7880 (1996) | 19 (1956) | 896 | 54 | 88 | 210 | 236 | 557 | 955 | 1070 | 2040 | 3790 |
| 2026-05-10 07:30 | 5.97 | 402 | 7880 (1996) | 19 (1956) | 896 | 54 | 88 | 210 | 236 | 557 | 955 | 1070 | 2040 | 3790 |
| 2026-05-10 06:30 | 5.98 | 404 | 7880 (1996) | 19 (1956) | 896 | 54 | 88 | 210 | 236 | 557 | 955 | 1070 | 2040 | 3790 |
| 2026-05-10 05:30 | 5.98 | 404 | 7880 (1996) | 19 (1956) | 896 | 54 | 88 | 210 | 236 | 557 | 955 | 1070 | 2040 | 3790 |
| 2026-05-10 04:30 | 5.99 | 406 | 7880 (1996) | 19 (1956) | 896 | 54 | 88 | 210 | 236 | 557 | 955 | 1070 | 2040 | 3790 |
| 2026-05-10 03:30 | 6.01 | 410 | 7880 (1996) | 19 (1956) | 896 | 54 | 88 | 210 | 236 | 557 | 955 | 1070 | 2040 | 3790 |
| 2026-05-10 02:30 | 6.00 | 408 | 7880 (1996) | 19 (1956) | 896 | 54 | 88 | 210 | 236 | 557 | 955 | 1070 | 2040 | 3790 |
| 2026-05-10 01:30 | 6.02 | 412 | 7880 (1996) | 19 (1956) | 896 | 54 | 88 | 210 | 236 | 557 | 955 | 1070 | 2040 | 3790 |
| 2026-05-10 00:30 | 6.05 | 418 | 7880 (1996) | 19 (1956) | 896 | 54 | 88 | 210 | 236 | 557 | 955 | 1070 | 2040 | 3790 |
| 2026-05-09 23:30 | 6.06 | 420 | 7880 (1996) | 19 (1956) | 896 | 54 | 88 | 210 | 236 | 557 | 955 | 1070 | 2040 | 3790 |
| 2026-05-09 22:30 | 6.05 | 418 | 6220 (2007) | 8 (1957) | 876 | 56 | 95 | 200 | 232 | 544 | 943 | 1110 | 2300 | 3500 |
| 2026-05-09 21:30 | 6.06 | 420 | 6220 (2007) | 8 (1957) | 876 | 56 | 95 | 200 | 232 | 544 | 943 | 1110 | 2300 | 3500 |
| 2026-05-09 20:30 | 6.07 | 422 | 6220 (2007) | 8 (1957) | 876 | 56 | 95 | 200 | 232 | 544 | 943 | 1110 | 2300 | 3500 |
| 2026-05-09 19:30 | 6.07 | 422 | 6220 (2007) | 8 (1957) | 876 | 56 | 95 | 200 | 232 | 544 | 943 | 1110 | 2300 | 3500 |
| 2026-05-09 18:30 | 6.08 | 425 | 6220 (2007) | 8 (1957) | 876 | 56 | 95 | 200 | 232 | 544 | 943 | 1110 | 2300 | 3500 |
| 2026-05-09 17:30 | 6.07 | 422 | 6220 (2007) | 8 (1957) | 876 | 56 | 95 | 200 | 232 | 544 | 943 | 1110 | 2300 | 3500 |
| 2026-05-09 16:30 | 6.07 | 422 | 6220 (2007) | 8 (1957) | 876 | 56 | 95 | 200 | 232 | 544 | 943 | 1110 | 2300 | 3500 |
| 2026-05-09 15:30 | 6.09 | 427 | 6220 (2007) | 8 (1957) | 876 | 56 | 95 | 200 | 232 | 544 | 943 | 1110 | 2300 | 3500 |
| 2026-05-09 14:30 | 6.09 | 427 | 6220 (2007) | 8 (1957) | 876 | 56 | 95 | 200 | 232 | 544 | 943 | 1110 | 2300 | 3500 |
| 2026-05-09 13:30 | 6.10 | 429 | 6220 (2007) | 8 (1957) | 876 | 56 | 95 | 200 | 232 | 544 | 943 | 1110 | 2300 | 3500 |
| 2026-05-09 12:30 | 6.10 | 429 | 6220 (2007) | 8 (1957) | 876 | 56 | 95 | 200 | 232 | 544 | 943 | 1110 | 2300 | 3500 |
| 2026-05-09 11:30 | 6.11 | 431 | 6220 (2007) | 8 (1957) | 876 | 56 | 95 | 200 | 232 | 544 | 943 | 1110 | 2300 | 3500 |
| 2026-05-09 10:30 | 6.11 | 431 | 6220 (2007) | 8 (1957) | 876 | 56 | 95 | 200 | 232 | 544 | 943 | 1110 | 2300 | 3500 |
| 2026-05-09 09:30 | 6.09 | 427 | 6220 (2007) | 8 (1957) | 876 | 56 | 95 | 200 | 232 | 544 | 943 | 1110 | 2300 | 3500 |
| 2026-05-09 08:30 | 6.10 | 429 | 6220 (2007) | 8 (1957) | 876 | 56 | 95 | 200 | 232 | 544 | 943 | 1110 | 2300 | 3500 |
| 2026-05-09 07:30 | 6.10 | 429 | 6220 (2007) | 8 (1957) | 876 | 56 | 95 | 200 | 232 | 544 | 943 | 1110 | 2300 | 3500 |
| 2026-05-09 06:30 | 6.13 | 435 | 6220 (2007) | 8 (1957) | 876 | 56 | 95 | 200 | 232 | 544 | 943 | 1110 | 2300 | 3500 |
| 2026-05-09 05:30 | 6.09 | 427 | 6220 (2007) | 8 (1957) | 876 | 56 | 95 | 200 | 232 | 544 | 943 | 1110 | 2300 | 3500 |
| 2026-05-09 04:30 | 6.09 | 427 | 6220 (2007) | 8 (1957) | 876 | 56 | 95 | 200 | 232 | 544 | 943 | 1110 | 2300 | 3500 |
| 2026-05-09 03:30 | 6.09 | 427 | 6220 (2007) | 8 (1957) | 876 | 56 | 95 | 200 | 232 | 544 | 943 | 1110 | 2300 | 3500 |
| 2026-05-09 02:30 | 6.09 | 427 | 6220 (2007) | 8 (1957) | 876 | 56 | 95 | 200 | 232 | 544 | 943 | 1110 | 2300 | 3500 |
| 2026-05-09 01:30 | 6.11 | 431 | 6220 (2007) | 8 (1957) | 876 | 56 | 95 | 200 | 232 | 544 | 943 | 1110 | 2300 | 3500 |
| 2026-05-09 00:30 | 6.11 | 431 | 6220 (2007) | 8 (1957) | 876 | 56 | 95 | 200 | 232 | 544 | 943 | 1110 | 2300 | 3500 |
| 2026-05-08 23:30 | 6.12 | 433 | 6220 (2007) | 8 (1957) | 876 | 56 | 95 | 200 | 232 | 544 | 943 | 1110 | 2300 | 3500 |
| 2026-05-08 22:30 | 6.12 | 433 | 4900 (2007) | 7 (1957) | 857 | 59 | 104 | 195 | 225 | 475 | 951 | 1090 | 2510 | 3580 |
| 2026-05-08 21:30 | 6.11 | 431 | 4900 (2007) | 7 (1957) | 857 | 59 | 104 | 195 | 225 | 475 | 951 | 1090 | 2510 | 3580 |
| 2026-05-08 20:30 | 6.11 | 431 | 4900 (2007) | 7 (1957) | 857 | 59 | 104 | 195 | 225 | 475 | 951 | 1090 | 2510 | 3580 |
| 2026-05-08 19:30 | 6.11 | 431 | 4900 (2007) | 7 (1957) | 857 | 59 | 104 | 195 | 225 | 475 | 951 | 1090 | 2510 | 3580 |
| 2026-05-08 18:30 | 6.11 | 431 | 4900 (2007) | 7 (1957) | 857 | 59 | 104 | 195 | 225 | 475 | 951 | 1090 | 2510 | 3580 |
| 2026-05-08 17:30 | 6.12 | 433 | 4900 (2007) | 7 (1957) | 857 | 59 | 104 | 195 | 225 | 475 | 951 | 1090 | 2510 | 3580 |
| 2026-05-08 16:30 | 6.12 | 433 | 4900 (2007) | 7 (1957) | 857 | 59 | 104 | 195 | 225 | 475 | 951 | 1090 | 2510 | 3580 |
| 2026-05-08 15:30 | 6.12 | 433 | 4900 (2007) | 7 (1957) | 857 | 59 | 104 | 195 | 225 | 475 | 951 | 1090 | 2510 | 3580 |
| 2026-05-08 14:30 | 6.13 | 435 | 4900 (2007) | 7 (1957) | 857 | 59 | 104 | 195 | 225 | 475 | 951 | 1090 | 2510 | 3580 |
| 2026-05-08 13:30 | 6.14 | 437 | 4900 (2007) | 7 (1957) | 857 | 59 | 104 | 195 | 225 | 475 | 951 | 1090 | 2510 | 3580 |
| 2026-05-08 12:30 | 6.14 | 437 | 4900 (2007) | 7 (1957) | 857 | 59 | 104 | 195 | 225 | 475 | 951 | 1090 | 2510 | 3580 |
| 2026-05-08 11:30 | 6.15 | 439 | 4900 (2007) | 7 (1957) | 857 | 59 | 104 | 195 | 225 | 475 | 951 | 1090 | 2510 | 3580 |
| 2026-05-08 10:30 | 6.15 | 439 | 4900 (2007) | 7 (1957) | 857 | 59 | 104 | 195 | 225 | 475 | 951 | 1090 | 2510 | 3580 |
| 2026-05-08 09:30 | 6.14 | 437 | 4900 (2007) | 7 (1957) | 857 | 59 | 104 | 195 | 225 | 475 | 951 | 1090 | 2510 | 3580 |
| 2026-05-08 08:30 | 6.13 | 435 | 4900 (2007) | 7 (1957) | 857 | 59 | 104 | 195 | 225 | 475 | 951 | 1090 | 2510 | 3580 |
| 2026-05-08 07:30 | 6.13 | 435 | 4900 (2007) | 7 (1957) | 857 | 59 | 104 | 195 | 225 | 475 | 951 | 1090 | 2510 | 3580 |
| 2026-05-08 06:30 | 6.14 | 437 | 4900 (2007) | 7 (1957) | 857 | 59 | 104 | 195 | 225 | 475 | 951 | 1090 | 2510 | 3580 |
| 2026-05-08 05:30 | 6.14 | 437 | 4900 (2007) | 7 (1957) | 857 | 59 | 104 | 195 | 225 | 475 | 951 | 1090 | 2510 | 3580 |
| 2026-05-08 04:30 | 6.17 | 444 | 4900 (2007) | 7 (1957) | 857 | 59 | 104 | 195 | 225 | 475 | 951 | 1090 | 2510 | 3580 |
| 2026-05-08 03:30 | 6.18 | 446 | 4900 (2007) | 7 (1957) | 857 | 59 | 104 | 195 | 225 | 475 | 951 | 1090 | 2510 | 3580 |
| 2026-05-08 02:30 | 6.18 | 446 | 4900 (2007) | 7 (1957) | 857 | 59 | 104 | 195 | 225 | 475 | 951 | 1090 | 2510 | 3580 |
| 2026-05-08 01:30 | 6.19 | 448 | 4900 (2007) | 7 (1957) | 857 | 59 | 104 | 195 | 225 | 475 | 951 | 1090 | 2510 | 3580 |
| 2026-05-08 00:30 | 6.19 | 448 | 4900 (2007) | 7 (1957) | 857 | 59 | 104 | 195 | 225 | 475 | 951 | 1090 | 2510 | 3580 |
| 2026-05-07 23:30 | 6.19 | 448 | 4900 (2007) | 7 (1957) | 857 | 59 | 104 | 195 | 225 | 475 | 951 | 1090 | 2510 | 3580 |
| 2026-05-07 22:30 | 6.18 | 446 | 4420 (1960) | 8 (1957) | 789 | 65 | 113 | 174 | 212 | 482 | 886 | 1100 | 1970 | 3500 |
| 2026-05-07 21:30 | 6.18 | 446 | 4420 (1960) | 8 (1957) | 789 | 65 | 113 | 174 | 212 | 482 | 886 | 1100 | 1970 | 3500 |
| 2026-05-07 20:30 | 6.18 | 446 | 4420 (1960) | 8 (1957) | 789 | 65 | 113 | 174 | 212 | 482 | 886 | 1100 | 1970 | 3500 |
| 2026-05-07 19:30 | 6.19 | 448 | 4420 (1960) | 8 (1957) | 789 | 65 | 113 | 174 | 212 | 482 | 886 | 1100 | 1970 | 3500 |
| 2026-05-07 18:30 | 6.19 | 448 | 4420 (1960) | 8 (1957) | 789 | 65 | 113 | 174 | 212 | 482 | 886 | 1100 | 1970 | 3500 |
| 2026-05-07 17:30 | 6.19 | 448 | 4420 (1960) | 8 (1957) | 789 | 65 | 113 | 174 | 212 | 482 | 886 | 1100 | 1970 | 3500 |
| 2026-05-07 16:30 | 6.19 | 448 | 4420 (1960) | 8 (1957) | 789 | 65 | 113 | 174 | 212 | 482 | 886 | 1100 | 1970 | 3500 |
| 2026-05-07 15:30 | 6.21 | 452 | 4420 (1960) | 8 (1957) | 789 | 65 | 113 | 174 | 212 | 482 | 886 | 1100 | 1970 | 3500 |
| 2026-05-07 14:30 | 6.20 | 450 | 4420 (1960) | 8 (1957) | 789 | 65 | 113 | 174 | 212 | 482 | 886 | 1100 | 1970 | 3500 |
| 2026-05-07 13:30 | 6.20 | 450 | 4420 (1960) | 8 (1957) | 789 | 65 | 113 | 174 | 212 | 482 | 886 | 1100 | 1970 | 3500 |
| 2026-05-07 12:30 | 6.21 | 452 | 4420 (1960) | 8 (1957) | 789 | 65 | 113 | 174 | 212 | 482 | 886 | 1100 | 1970 | 3500 |
| 2026-05-07 11:30 | 6.22 | 454 | 4420 (1960) | 8 (1957) | 789 | 65 | 113 | 174 | 212 | 482 | 886 | 1100 | 1970 | 3500 |
| 2026-05-07 10:30 | 6.25 | 461 | 4420 (1960) | 8 (1957) | 789 | 65 | 113 | 174 | 212 | 482 | 886 | 1100 | 1970 | 3500 |
| 2026-05-07 09:30 | 6.24 | 459 | 4420 (1960) | 8 (1957) | 789 | 65 | 113 | 174 | 212 | 482 | 886 | 1100 | 1970 | 3500 |
| 2026-05-07 08:30 | 6.24 | 459 | 4420 (1960) | 8 (1957) | 789 | 65 | 113 | 174 | 212 | 482 | 886 | 1100 | 1970 | 3500 |
| 2026-05-07 07:30 | 6.25 | 461 | 4420 (1960) | 8 (1957) | 789 | 65 | 113 | 174 | 212 | 482 | 886 | 1100 | 1970 | 3500 |
| 2026-05-07 06:30 | 6.26 | 463 | 4420 (1960) | 8 (1957) | 789 | 65 | 113 | 174 | 212 | 482 | 886 | 1100 | 1970 | 3500 |
| 2026-05-07 05:30 | 6.27 | 465 | 4420 (1960) | 8 (1957) | 789 | 65 | 113 | 174 | 212 | 482 | 886 | 1100 | 1970 | 3500 |
| 2026-05-07 04:30 | 6.27 | 465 | 4420 (1960) | 8 (1957) | 789 | 65 | 113 | 174 | 212 | 482 | 886 | 1100 | 1970 | 3500 |
| 2026-05-07 03:30 | 6.28 | 468 | 4420 (1960) | 8 (1957) | 789 | 65 | 113 | 174 | 212 | 482 | 886 | 1100 | 1970 | 3500 |
| 2026-05-07 02:30 | 6.29 | 470 | 4420 (1960) | 8 (1957) | 789 | 65 | 113 | 174 | 212 | 482 | 886 | 1100 | 1970 | 3500 |
| 2026-05-07 01:30 | 6.27 | 465 | 4420 (1960) | 8 (1957) | 789 | 65 | 113 | 174 | 212 | 482 | 886 | 1100 | 1970 | 3500 |
| 2026-05-07 00:30 | 6.28 | 468 | 4420 (1960) | 8 (1957) | 789 | 65 | 113 | 174 | 212 | 482 | 886 | 1100 | 1970 | 3500 |
| 2026-05-06 23:30 | 6.28 | 468 | 4420 (1960) | 8 (1957) | 789 | 65 | 113 | 174 | 212 | 482 | 886 | 1100 | 1970 | 3500 |
| 2026-05-06 22:30 | 6.29 | 470 | 3840 (2013) | 10 (1957) | 690 | 69 | 112 | 159 | 215 | 489 | 917 | 1030 | 1700 | 2210 |
| 2026-05-06 21:30 | 6.32 | 476 | 3840 (2013) | 10 (1957) | 690 | 69 | 112 | 159 | 215 | 489 | 917 | 1030 | 1700 | 2210 |
| 2026-05-06 20:30 | 6.32 | 476 | 3840 (2013) | 10 (1957) | 690 | 69 | 112 | 159 | 215 | 489 | 917 | 1030 | 1700 | 2210 |
| 2026-05-06 19:30 | 6.33 | 479 | 3840 (2013) | 10 (1957) | 690 | 69 | 112 | 159 | 215 | 489 | 917 | 1030 | 1700 | 2210 |
| 2026-05-06 18:30 | 6.34 | 481 | 3840 (2013) | 10 (1957) | 690 | 69 | 112 | 159 | 215 | 489 | 917 | 1030 | 1700 | 2210 |
| 2026-05-06 17:30 | 6.34 | 481 | 3840 (2013) | 10 (1957) | 690 | 69 | 112 | 159 | 215 | 489 | 917 | 1030 | 1700 | 2210 |
| 2026-05-06 16:30 | 6.35 | 483 | 3840 (2013) | 10 (1957) | 690 | 69 | 112 | 159 | 215 | 489 | 917 | 1030 | 1700 | 2210 |
| 2026-05-06 15:30 | 6.36 | 485 | 3840 (2013) | 10 (1957) | 690 | 69 | 112 | 159 | 215 | 489 | 917 | 1030 | 1700 | 2210 |
| 2026-05-06 14:30 | 6.36 | 485 | 3840 (2013) | 10 (1957) | 690 | 69 | 112 | 159 | 215 | 489 | 917 | 1030 | 1700 | 2210 |
| 2026-05-06 13:30 | 6.37 | 487 | 3840 (2013) | 10 (1957) | 690 | 69 | 112 | 159 | 215 | 489 | 917 | 1030 | 1700 | 2210 |
| 2026-05-06 12:30 | 6.39 | 492 | 3840 (2013) | 10 (1957) | 690 | 69 | 112 | 159 | 215 | 489 | 917 | 1030 | 1700 | 2210 |
| 2026-05-06 11:30 | 6.38 | 490 | 3840 (2013) | 10 (1957) | 690 | 69 | 112 | 159 | 215 | 489 | 917 | 1030 | 1700 | 2210 |
| 2026-05-06 10:30 | 6.40 | 494 | 3840 (2013) | 10 (1957) | 690 | 69 | 112 | 159 | 215 | 489 | 917 | 1030 | 1700 | 2210 |
| 2026-05-06 09:30 | 6.38 | 490 | 3840 (2013) | 10 (1957) | 690 | 69 | 112 | 159 | 215 | 489 | 917 | 1030 | 1700 | 2210 |
| 2026-05-06 08:30 | 6.40 | 494 | 3840 (2013) | 10 (1957) | 690 | 69 | 112 | 159 | 215 | 489 | 917 | 1030 | 1700 | 2210 |
| 2026-05-06 07:30 | 6.41 | 496 | 3840 (2013) | 10 (1957) | 690 | 69 | 112 | 159 | 215 | 489 | 917 | 1030 | 1700 | 2210 |
| 2026-05-06 06:30 | 6.45 | 505 | 3840 (2013) | 10 (1957) | 690 | 69 | 112 | 159 | 215 | 489 | 917 | 1030 | 1700 | 2210 |
| 2026-05-06 05:30 | 6.45 | 505 | 3840 (2013) | 10 (1957) | 690 | 69 | 112 | 159 | 215 | 489 | 917 | 1030 | 1700 | 2210 |
| 2026-05-06 04:30 | 6.45 | 505 | 3840 (2013) | 10 (1957) | 690 | 69 | 112 | 159 | 215 | 489 | 917 | 1030 | 1700 | 2210 |
| 2026-05-06 03:30 | 6.42 | 499 | 3840 (2013) | 10 (1957) | 690 | 69 | 112 | 159 | 215 | 489 | 917 | 1030 | 1700 | 2210 |
| 2026-05-06 02:30 | 6.44 | 503 | 3840 (2013) | 10 (1957) | 690 | 69 | 112 | 159 | 215 | 489 | 917 | 1030 | 1700 | 2210 |
| 2026-05-06 01:30 | 6.44 | 503 | 3840 (2013) | 10 (1957) | 690 | 69 | 112 | 159 | 215 | 489 | 917 | 1030 | 1700 | 2210 |
| 2026-05-06 00:30 | 6.44 | 503 | 3840 (2013) | 10 (1957) | 690 | 69 | 112 | 159 | 215 | 489 | 917 | 1030 | 1700 | 2210 |
| 2026-05-05 23:30 | 6.45 | 505 | 3840 (2013) | 10 (1957) | 690 | 69 | 112 | 159 | 215 | 489 | 917 | 1030 | 1700 | 2210 |
| 2026-05-05 22:30 | 6.50 | 517 | 4030 (2013) | 12 (1957) | 746 | 57 | 116 | 161 | 236 | 453 | 938 | 1030 | 1840 | 2790 |
| 2026-05-05 21:30 | 6.49 | 514 | 4030 (2013) | 12 (1957) | 746 | 57 | 116 | 161 | 236 | 453 | 938 | 1030 | 1840 | 2790 |
| 2026-05-05 20:30 | 6.49 | 514 | 4030 (2013) | 12 (1957) | 746 | 57 | 116 | 161 | 236 | 453 | 938 | 1030 | 1840 | 2790 |
| 2026-05-05 19:30 | 6.51 | 519 | 4030 (2013) | 12 (1957) | 746 | 57 | 116 | 161 | 236 | 453 | 938 | 1030 | 1840 | 2790 |
| 2026-05-05 18:30 | 6.51 | 519 | 4030 (2013) | 12 (1957) | 746 | 57 | 116 | 161 | 236 | 453 | 938 | 1030 | 1840 | 2790 |
| 2026-05-05 17:30 | 6.51 | 519 | 4030 (2013) | 12 (1957) | 746 | 57 | 116 | 161 | 236 | 453 | 938 | 1030 | 1840 | 2790 |
| 2026-05-05 16:30 | 6.52 | 521 | 4030 (2013) | 12 (1957) | 746 | 57 | 116 | 161 | 236 | 453 | 938 | 1030 | 1840 | 2790 |
| 2026-05-05 15:30 | 6.54 | 526 | 4030 (2013) | 12 (1957) | 746 | 57 | 116 | 161 | 236 | 453 | 938 | 1030 | 1840 | 2790 |
| 2026-05-05 14:30 | 6.54 | 526 | 4030 (2013) | 12 (1957) | 746 | 57 | 116 | 161 | 236 | 453 | 938 | 1030 | 1840 | 2790 |
| 2026-05-05 13:30 | 6.56 | 531 | 4030 (2013) | 12 (1957) | 746 | 57 | 116 | 161 | 236 | 453 | 938 | 1030 | 1840 | 2790 |
| 2026-05-05 12:30 | 6.56 | 531 | 4030 (2013) | 12 (1957) | 746 | 57 | 116 | 161 | 236 | 453 | 938 | 1030 | 1840 | 2790 |
| 2026-05-05 11:30 | 6.54 | 526 | 4030 (2013) | 12 (1957) | 746 | 57 | 116 | 161 | 236 | 453 | 938 | 1030 | 1840 | 2790 |
| 2026-05-05 10:30 | 6.55 | 528 | 4030 (2013) | 12 (1957) | 746 | 57 | 116 | 161 | 236 | 453 | 938 | 1030 | 1840 | 2790 |
| 2026-05-05 09:30 | 6.58 | 535 | 4030 (2013) | 12 (1957) | 746 | 57 | 116 | 161 | 236 | 453 | 938 | 1030 | 1840 | 2790 |
| 2026-05-05 08:30 | 6.56 | 531 | 4030 (2013) | 12 (1957) | 746 | 57 | 116 | 161 | 236 | 453 | 938 | 1030 | 1840 | 2790 |
| 2026-05-05 07:30 | 6.57 | 533 | 4030 (2013) | 12 (1957) | 746 | 57 | 116 | 161 | 236 | 453 | 938 | 1030 | 1840 | 2790 |
| 2026-05-05 06:30 | 6.59 | 537 | 4030 (2013) | 12 (1957) | 746 | 57 | 116 | 161 | 236 | 453 | 938 | 1030 | 1840 | 2790 |
| 2026-05-05 05:15 | 6.58 | 535 | 4030 (2013) | 12 (1957) | 746 | 57 | 116 | 161 | 236 | 453 | 938 | 1030 | 1840 | 2790 |
| 2026-05-05 04:15 | 6.55 | 528 | 4030 (2013) | 12 (1957) | 746 | 57 | 116 | 161 | 236 | 453 | 938 | 1030 | 1840 | 2790 |
| 2026-05-05 03:30 | 6.65 | 552 | 4030 (2013) | 12 (1957) | 746 | 57 | 116 | 161 | 236 | 453 | 938 | 1030 | 1840 | 2790 |
| 2026-05-05 02:30 | 6.65 | 552 | 4030 (2013) | 12 (1957) | 746 | 57 | 116 | 161 | 236 | 453 | 938 | 1030 | 1840 | 2790 |
| 2026-05-05 01:30 | 6.67 | 556 | 4030 (2013) | 12 (1957) | 746 | 57 | 116 | 161 | 236 | 453 | 938 | 1030 | 1840 | 2790 |
| 2026-05-05 00:30 | 6.66 | 554 | 4030 (2013) | 12 (1957) | 746 | 57 | 116 | 161 | 236 | 453 | 938 | 1030 | 1840 | 2790 |
| 2026-05-04 23:30 | 6.67 | 556 | 4030 (2013) | 12 (1957) | 746 | 57 | 116 | 161 | 236 | 453 | 938 | 1030 | 1840 | 2790 |
| 2026-05-04 22:30 | 6.65 | 552 | 4680 (1993) | 15 (1957) | 791 | 65 | 118 | 155 | 247 | 474 | 971 | 1170 | 1800 | 2950 |
| 2026-05-04 21:30 | 6.68 | 559 | 4680 (1993) | 15 (1957) | 791 | 65 | 118 | 155 | 247 | 474 | 971 | 1170 | 1800 | 2950 |
| 2026-05-04 20:30 | 6.68 | 559 | 4680 (1993) | 15 (1957) | 791 | 65 | 118 | 155 | 247 | 474 | 971 | 1170 | 1800 | 2950 |
| 2026-05-04 19:30 | 6.68 | 559 | 4680 (1993) | 15 (1957) | 791 | 65 | 118 | 155 | 247 | 474 | 971 | 1170 | 1800 | 2950 |
| 2026-05-04 18:30 | 6.69 | 561 | 4680 (1993) | 15 (1957) | 791 | 65 | 118 | 155 | 247 | 474 | 971 | 1170 | 1800 | 2950 |
| 2026-05-04 17:30 | 6.69 | 561 | 4680 (1993) | 15 (1957) | 791 | 65 | 118 | 155 | 247 | 474 | 971 | 1170 | 1800 | 2950 |
| 2026-05-04 16:30 | 6.69 | 561 | 4680 (1993) | 15 (1957) | 791 | 65 | 118 | 155 | 247 | 474 | 971 | 1170 | 1800 | 2950 |
| 2026-05-04 15:30 | 6.71 | 566 | 4680 (1993) | 15 (1957) | 791 | 65 | 118 | 155 | 247 | 474 | 971 | 1170 | 1800 | 2950 |
| 2026-05-04 14:30 | 6.71 | 566 | 4680 (1993) | 15 (1957) | 791 | 65 | 118 | 155 | 247 | 474 | 971 | 1170 | 1800 | 2950 |
| 2026-05-04 13:30 | 6.72 | 568 | 4680 (1993) | 15 (1957) | 791 | 65 | 118 | 155 | 247 | 474 | 971 | 1170 | 1800 | 2950 |
| 2026-05-04 12:30 | 6.71 | 566 | 4680 (1993) | 15 (1957) | 791 | 65 | 118 | 155 | 247 | 474 | 971 | 1170 | 1800 | 2950 |
| 2026-05-04 11:30 | 6.73 | 570 | 4680 (1993) | 15 (1957) | 791 | 65 | 118 | 155 | 247 | 474 | 971 | 1170 | 1800 | 2950 |
| 2026-05-04 10:30 | 6.72 | 568 | 4680 (1993) | 15 (1957) | 791 | 65 | 118 | 155 | 247 | 474 | 971 | 1170 | 1800 | 2950 |
| 2026-05-04 09:30 | 6.74 | 573 | 4680 (1993) | 15 (1957) | 791 | 65 | 118 | 155 | 247 | 474 | 971 | 1170 | 1800 | 2950 |
| 2026-05-04 08:30 | 6.74 | 573 | 4680 (1993) | 15 (1957) | 791 | 65 | 118 | 155 | 247 | 474 | 971 | 1170 | 1800 | 2950 |
| 2026-05-04 07:30 | 6.74 | 573 | 4680 (1993) | 15 (1957) | 791 | 65 | 118 | 155 | 247 | 474 | 971 | 1170 | 1800 | 2950 |
| 2026-05-04 06:30 | 6.75 | 575 | 4680 (1993) | 15 (1957) | 791 | 65 | 118 | 155 | 247 | 474 | 971 | 1170 | 1800 | 2950 |
| 2026-05-04 05:30 | 6.75 | 575 | 4680 (1993) | 15 (1957) | 791 | 65 | 118 | 155 | 247 | 474 | 971 | 1170 | 1800 | 2950 |
| 2026-05-04 04:30 | 6.77 | 580 | 4680 (1993) | 15 (1957) | 791 | 65 | 118 | 155 | 247 | 474 | 971 | 1170 | 1800 | 2950 |
| 2026-05-04 03:30 | 6.76 | 578 | 4680 (1993) | 15 (1957) | 791 | 65 | 118 | 155 | 247 | 474 | 971 | 1170 | 1800 | 2950 |
| 2026-05-04 02:30 | 6.81 | 590 | 4680 (1993) | 15 (1957) | 791 | 65 | 118 | 155 | 247 | 474 | 971 | 1170 | 1800 | 2950 |
| 2026-05-04 01:30 | 6.82 | 592 | 4680 (1993) | 15 (1957) | 791 | 65 | 118 | 155 | 247 | 474 | 971 | 1170 | 1800 | 2950 |
| 2026-05-04 00:30 | 6.81 | 590 | 4680 (1993) | 15 (1957) | 791 | 65 | 118 | 155 | 247 | 474 | 971 | 1170 | 1800 | 2950 |
| 2026-05-03 23:30 | 6.82 | 592 | 4680 (1993) | 15 (1957) | 791 | 65 | 118 | 155 | 247 | 474 | 971 | 1170 | 1800 | 2950 |
| 2026-05-03 22:30 | 6.82 | 592 | 7360 (1993) | 19 (1956) | 873 | 64 | 121 | 176 | 259 | 466 | 1010 | 1140 | 1940 | 3700 |
| 2026-05-03 21:30 | 6.82 | 592 | 7360 (1993) | 19 (1956) | 873 | 64 | 121 | 176 | 259 | 466 | 1010 | 1140 | 1940 | 3700 |
| 2026-05-03 20:30 | 6.83 | 594 | 7360 (1993) | 19 (1956) | 873 | 64 | 121 | 176 | 259 | 466 | 1010 | 1140 | 1940 | 3700 |
| 2026-05-03 19:30 | 6.84 | 597 | 7360 (1993) | 19 (1956) | 873 | 64 | 121 | 176 | 259 | 466 | 1010 | 1140 | 1940 | 3700 |
| 2026-05-03 18:30 | 6.85 | 599 | 7360 (1993) | 19 (1956) | 873 | 64 | 121 | 176 | 259 | 466 | 1010 | 1140 | 1940 | 3700 |
| 2026-05-03 17:30 | 6.86 | 602 | 7360 (1993) | 19 (1956) | 873 | 64 | 121 | 176 | 259 | 466 | 1010 | 1140 | 1940 | 3700 |
| 2026-05-03 16:30 | 6.86 | 602 | 7360 (1993) | 19 (1956) | 873 | 64 | 121 | 176 | 259 | 466 | 1010 | 1140 | 1940 | 3700 |
| 2026-05-03 15:30 | 6.86 | 602 | 7360 (1993) | 19 (1956) | 873 | 64 | 121 | 176 | 259 | 466 | 1010 | 1140 | 1940 | 3700 |
| 2026-05-03 14:30 | 6.88 | 607 | 7360 (1993) | 19 (1956) | 873 | 64 | 121 | 176 | 259 | 466 | 1010 | 1140 | 1940 | 3700 |
| 2026-05-03 13:30 | 6.87 | 604 | 7360 (1993) | 19 (1956) | 873 | 64 | 121 | 176 | 259 | 466 | 1010 | 1140 | 1940 | 3700 |
| 2026-05-03 12:30 | 6.88 | 607 | 7360 (1993) | 19 (1956) | 873 | 64 | 121 | 176 | 259 | 466 | 1010 | 1140 | 1940 | 3700 |
| 2026-05-03 11:30 | 6.89 | 609 | 7360 (1993) | 19 (1956) | 873 | 64 | 121 | 176 | 259 | 466 | 1010 | 1140 | 1940 | 3700 |
| 2026-05-03 10:30 | 6.89 | 609 | 7360 (1993) | 19 (1956) | 873 | 64 | 121 | 176 | 259 | 466 | 1010 | 1140 | 1940 | 3700 |
| 2026-05-03 09:30 | 6.91 | 614 | 7360 (1993) | 19 (1956) | 873 | 64 | 121 | 176 | 259 | 466 | 1010 | 1140 | 1940 | 3700 |
| 2026-05-03 08:30 | 6.92 | 616 | 7360 (1993) | 19 (1956) | 873 | 64 | 121 | 176 | 259 | 466 | 1010 | 1140 | 1940 | 3700 |
| 2026-05-03 07:30 | 6.92 | 616 | 7360 (1993) | 19 (1956) | 873 | 64 | 121 | 176 | 259 | 466 | 1010 | 1140 | 1940 | 3700 |
| 2026-05-03 06:30 | 6.92 | 616 | 7360 (1993) | 19 (1956) | 873 | 64 | 121 | 176 | 259 | 466 | 1010 | 1140 | 1940 | 3700 |
| 2026-05-03 05:30 | 6.95 | 624 | 7360 (1993) | 19 (1956) | 873 | 64 | 121 | 176 | 259 | 466 | 1010 | 1140 | 1940 | 3700 |
| 2026-05-03 04:30 | 6.96 | 626 | 7360 (1993) | 19 (1956) | 873 | 64 | 121 | 176 | 259 | 466 | 1010 | 1140 | 1940 | 3700 |
| 2026-05-03 03:30 | 6.96 | 626 | 7360 (1993) | 19 (1956) | 873 | 64 | 121 | 176 | 259 | 466 | 1010 | 1140 | 1940 | 3700 |
| 2026-05-03 02:30 | 6.97 | 629 | 7360 (1993) | 19 (1956) | 873 | 64 | 121 | 176 | 259 | 466 | 1010 | 1140 | 1940 | 3700 |
| 2026-05-03 01:30 | 6.99 | 634 | 7360 (1993) | 19 (1956) | 873 | 64 | 121 | 176 | 259 | 466 | 1010 | 1140 | 1940 | 3700 |
| 2026-05-03 00:30 | 7.02 | 641 | 7360 (1993) | 19 (1956) | 873 | 64 | 121 | 176 | 259 | 466 | 1010 | 1140 | 1940 | 3700 |
| 2026-05-02 23:30 | 7.02 | 641 | 7360 (1993) | 19 (1956) | 873 | 64 | 121 | 176 | 259 | 466 | 1010 | 1140 | 1940 | 3700 |
| 2026-05-02 22:30 | 7.02 | 641 | 6230 (1991) | 14 (1956) | 890 | 56 | 127 | 166 | 213 | 490 | 1140 | 1310 | 1880 | 3980 |
| 2026-05-02 21:30 | 7.03 | 644 | 6230 (1991) | 14 (1956) | 890 | 56 | 127 | 166 | 213 | 490 | 1140 | 1310 | 1880 | 3980 |
| 2026-05-02 20:30 | 7.04 | 646 | 6230 (1991) | 14 (1956) | 890 | 56 | 127 | 166 | 213 | 490 | 1140 | 1310 | 1880 | 3980 |
| 2026-05-02 19:30 | 7.05 | 649 | 6230 (1991) | 14 (1956) | 890 | 56 | 127 | 166 | 213 | 490 | 1140 | 1310 | 1880 | 3980 |
| 2026-05-02 18:30 | 7.07 | 654 | 6230 (1991) | 14 (1956) | 890 | 56 | 127 | 166 | 213 | 490 | 1140 | 1310 | 1880 | 3980 |
| 2026-05-02 17:30 | 7.08 | 656 | 6230 (1991) | 14 (1956) | 890 | 56 | 127 | 166 | 213 | 490 | 1140 | 1310 | 1880 | 3980 |
| 2026-05-02 16:30 | 7.09 | 659 | 6230 (1991) | 14 (1956) | 890 | 56 | 127 | 166 | 213 | 490 | 1140 | 1310 | 1880 | 3980 |
| 2026-05-02 15:30 | 7.11 | 664 | 6230 (1991) | 14 (1956) | 890 | 56 | 127 | 166 | 213 | 490 | 1140 | 1310 | 1880 | 3980 |
| 2026-05-02 14:30 | 7.09 | 659 | 6230 (1991) | 14 (1956) | 890 | 56 | 127 | 166 | 213 | 490 | 1140 | 1310 | 1880 | 3980 |
| 2026-05-02 13:30 | 7.11 | 664 | 6230 (1991) | 14 (1956) | 890 | 56 | 127 | 166 | 213 | 490 | 1140 | 1310 | 1880 | 3980 |
| 2026-05-02 12:30 | 7.13 | 669 | 6230 (1991) | 14 (1956) | 890 | 56 | 127 | 166 | 213 | 490 | 1140 | 1310 | 1880 | 3980 |
| 2026-05-02 11:30 | 7.12 | 666 | 6230 (1991) | 14 (1956) | 890 | 56 | 127 | 166 | 213 | 490 | 1140 | 1310 | 1880 | 3980 |
| 2026-05-02 10:30 | 7.15 | 674 | 6230 (1991) | 14 (1956) | 890 | 56 | 127 | 166 | 213 | 490 | 1140 | 1310 | 1880 | 3980 |
| 2026-05-02 09:30 | 7.15 | 674 | 6230 (1991) | 14 (1956) | 890 | 56 | 127 | 166 | 213 | 490 | 1140 | 1310 | 1880 | 3980 |
| 2026-05-02 08:30 | 7.15 | 674 | 6230 (1991) | 14 (1956) | 890 | 56 | 127 | 166 | 213 | 490 | 1140 | 1310 | 1880 | 3980 |
| 2026-05-02 07:30 | 7.16 | 677 | 6230 (1991) | 14 (1956) | 890 | 56 | 127 | 166 | 213 | 490 | 1140 | 1310 | 1880 | 3980 |
| 2026-05-02 06:30 | 7.18 | 682 | 6230 (1991) | 14 (1956) | 890 | 56 | 127 | 166 | 213 | 490 | 1140 | 1310 | 1880 | 3980 |
| 2026-05-02 05:30 | 7.18 | 682 | 6230 (1991) | 14 (1956) | 890 | 56 | 127 | 166 | 213 | 490 | 1140 | 1310 | 1880 | 3980 |
| 2026-05-02 04:30 | 7.18 | 682 | 6230 (1991) | 14 (1956) | 890 | 56 | 127 | 166 | 213 | 490 | 1140 | 1310 | 1880 | 3980 |
| 2026-05-02 03:30 | 7.19 | 684 | 6230 (1991) | 14 (1956) | 890 | 56 | 127 | 166 | 213 | 490 | 1140 | 1310 | 1880 | 3980 |
| 2026-05-02 02:30 | 7.20 | 687 | 6230 (1991) | 14 (1956) | 890 | 56 | 127 | 166 | 213 | 490 | 1140 | 1310 | 1880 | 3980 |
| 2026-05-02 01:30 | 7.20 | 687 | 6230 (1991) | 14 (1956) | 890 | 56 | 127 | 166 | 213 | 490 | 1140 | 1310 | 1880 | 3980 |
| 2026-05-02 00:30 | 7.22 | 692 | 6230 (1991) | 14 (1956) | 890 | 56 | 127 | 166 | 213 | 490 | 1140 | 1310 | 1880 | 3980 |
| 2026-05-01 23:30 | 7.23 | 695 | 6230 (1991) | 14 (1956) | 890 | 56 | 127 | 166 | 213 | 490 | 1140 | 1310 | 1880 | 3980 |
| 2026-05-01 22:30 | 7.22 | 692 | 9450 (1974) | 14 (1956) | 917 | 56 | 124 | 167 | 215 | 483 | 1070 | 1250 | 2030 | 2940 |
| 2026-05-01 21:30 | 7.25 | 700 | 9450 (1974) | 14 (1956) | 917 | 56 | 124 | 167 | 215 | 483 | 1070 | 1250 | 2030 | 2940 |
| 2026-05-01 20:30 | 7.26 | 702 | 9450 (1974) | 14 (1956) | 917 | 56 | 124 | 167 | 215 | 483 | 1070 | 1250 | 2030 | 2940 |
| 2026-05-01 19:30 | 7.26 | 702 | 9450 (1974) | 14 (1956) | 917 | 56 | 124 | 167 | 215 | 483 | 1070 | 1250 | 2030 | 2940 |
| 2026-05-01 18:30 | 7.26 | 702 | 9450 (1974) | 14 (1956) | 917 | 56 | 124 | 167 | 215 | 483 | 1070 | 1250 | 2030 | 2940 |
| 2026-05-01 17:30 | 7.27 | 705 | 9450 (1974) | 14 (1956) | 917 | 56 | 124 | 167 | 215 | 483 | 1070 | 1250 | 2030 | 2940 |
| 2026-05-01 16:30 | 7.29 | 710 | 9450 (1974) | 14 (1956) | 917 | 56 | 124 | 167 | 215 | 483 | 1070 | 1250 | 2030 | 2940 |
| 2026-05-01 15:30 | 7.30 | 713 | 9450 (1974) | 14 (1956) | 917 | 56 | 124 | 167 | 215 | 483 | 1070 | 1250 | 2030 | 2940 |
| 2026-05-01 14:30 | 7.31 | 715 | 9450 (1974) | 14 (1956) | 917 | 56 | 124 | 167 | 215 | 483 | 1070 | 1250 | 2030 | 2940 |
| 2026-05-01 13:30 | 7.31 | 715 | 9450 (1974) | 14 (1956) | 917 | 56 | 124 | 167 | 215 | 483 | 1070 | 1250 | 2030 | 2940 |
| 2026-05-01 12:30 | 7.33 | 721 | 9450 (1974) | 14 (1956) | 917 | 56 | 124 | 167 | 215 | 483 | 1070 | 1250 | 2030 | 2940 |
| 2026-05-01 11:30 | 7.32 | 718 | 9450 (1974) | 14 (1956) | 917 | 56 | 124 | 167 | 215 | 483 | 1070 | 1250 | 2030 | 2940 |
| 2026-05-01 10:30 | 7.33 | 721 | 9450 (1974) | 14 (1956) | 917 | 56 | 124 | 167 | 215 | 483 | 1070 | 1250 | 2030 | 2940 |
| 2026-05-01 09:30 | 7.35 | 726 | 9450 (1974) | 14 (1956) | 917 | 56 | 124 | 167 | 215 | 483 | 1070 | 1250 | 2030 | 2940 |
| 2026-05-01 08:30 | 7.37 | 731 | 9450 (1974) | 14 (1956) | 917 | 56 | 124 | 167 | 215 | 483 | 1070 | 1250 | 2030 | 2940 |
| 2026-05-01 07:30 | 7.37 | 731 | 9450 (1974) | 14 (1956) | 917 | 56 | 124 | 167 | 215 | 483 | 1070 | 1250 | 2030 | 2940 |
| 2026-05-01 06:30 | 7.37 | 731 | 9450 (1974) | 14 (1956) | 917 | 56 | 124 | 167 | 215 | 483 | 1070 | 1250 | 2030 | 2940 |
| 2026-05-01 05:30 | 7.41 | 742 | 9450 (1974) | 14 (1956) | 917 | 56 | 124 | 167 | 215 | 483 | 1070 | 1250 | 2030 | 2940 |
| 2026-05-01 04:30 | 7.42 | 745 | 9450 (1974) | 14 (1956) | 917 | 56 | 124 | 167 | 215 | 483 | 1070 | 1250 | 2030 | 2940 |
| 2026-05-01 03:30 | 7.42 | 745 | 9450 (1974) | 14 (1956) | 917 | 56 | 124 | 167 | 215 | 483 | 1070 | 1250 | 2030 | 2940 |
| 2026-05-01 02:30 | 7.44 | 750 | 9450 (1974) | 14 (1956) | 917 | 56 | 124 | 167 | 215 | 483 | 1070 | 1250 | 2030 | 2940 |
| 2026-05-01 01:30 | 7.43 | 747 | 9450 (1974) | 14 (1956) | 917 | 56 | 124 | 167 | 215 | 483 | 1070 | 1250 | 2030 | 2940 |
| 2026-05-01 00:30 | 7.44 | 750 | 9450 (1974) | 14 (1956) | 917 | 56 | 124 | 167 | 215 | 483 | 1070 | 1250 | 2030 | 2940 |
| 2026-04-30 23:30 | 7.45 | 753 | 9450 (1974) | 14 (1956) | 917 | 56 | 124 | 167 | 215 | 483 | 1070 | 1250 | 2030 | 2940 |
| 2026-04-30 22:30 | 7.50 | 766 | 8720 (1974) | 16 (1956) | 903 | 57 | 120 | 175 | 249 | 495 | 973 | 1190 | 1850 | 4290 |
| 2026-04-30 21:30 | 7.48 | 761 | 8720 (1974) | 16 (1956) | 903 | 57 | 120 | 175 | 249 | 495 | 973 | 1190 | 1850 | 4290 |
| 2026-04-30 20:30 | 7.51 | 769 | 8720 (1974) | 16 (1956) | 903 | 57 | 120 | 175 | 249 | 495 | 973 | 1190 | 1850 | 4290 |
| 2026-04-30 19:30 | 7.51 | 769 | 8720 (1974) | 16 (1956) | 903 | 57 | 120 | 175 | 249 | 495 | 973 | 1190 | 1850 | 4290 |
| 2026-04-30 18:30 | 7.53 | 774 | 8720 (1974) | 16 (1956) | 903 | 57 | 120 | 175 | 249 | 495 | 973 | 1190 | 1850 | 4290 |
| 2026-04-30 17:30 | 7.54 | 777 | 8720 (1974) | 16 (1956) | 903 | 57 | 120 | 175 | 249 | 495 | 973 | 1190 | 1850 | 4290 |
| 2026-04-30 16:30 | 7.55 | 779 | 8720 (1974) | 16 (1956) | 903 | 57 | 120 | 175 | 249 | 495 | 973 | 1190 | 1850 | 4290 |
| 2026-04-30 15:30 | 7.57 | 785 | 8720 (1974) | 16 (1956) | 903 | 57 | 120 | 175 | 249 | 495 | 973 | 1190 | 1850 | 4290 |
| 2026-04-30 14:30 | 7.59 | 790 | 8720 (1974) | 16 (1956) | 903 | 57 | 120 | 175 | 249 | 495 | 973 | 1190 | 1850 | 4290 |
| 2026-04-30 13:30 | 7.59 | 790 | 8720 (1974) | 16 (1956) | 903 | 57 | 120 | 175 | 249 | 495 | 973 | 1190 | 1850 | 4290 |
| 2026-04-30 12:30 | 7.60 | 793 | 8720 (1974) | 16 (1956) | 903 | 57 | 120 | 175 | 249 | 495 | 973 | 1190 | 1850 | 4290 |
| 2026-04-30 11:30 | 7.61 | 796 | 8720 (1974) | 16 (1956) | 903 | 57 | 120 | 175 | 249 | 495 | 973 | 1190 | 1850 | 4290 |
| 2026-04-30 10:30 | 7.63 | 801 | 8720 (1974) | 16 (1956) | 903 | 57 | 120 | 175 | 249 | 495 | 973 | 1190 | 1850 | 4290 |
| 2026-04-30 09:30 | 7.65 | 807 | 8720 (1974) | 16 (1956) | 903 | 57 | 120 | 175 | 249 | 495 | 973 | 1190 | 1850 | 4290 |
| 2026-04-30 08:30 | 7.65 | 807 | 8720 (1974) | 16 (1956) | 903 | 57 | 120 | 175 | 249 | 495 | 973 | 1190 | 1850 | 4290 |
| 2026-04-30 07:30 | 7.67 | 812 | 8720 (1974) | 16 (1956) | 903 | 57 | 120 | 175 | 249 | 495 | 973 | 1190 | 1850 | 4290 |
| 2026-04-30 06:30 | 7.71 | 823 | 8720 (1974) | 16 (1956) | 903 | 57 | 120 | 175 | 249 | 495 | 973 | 1190 | 1850 | 4290 |
| 2026-04-30 05:30 | 7.71 | 823 | 8720 (1974) | 16 (1956) | 903 | 57 | 120 | 175 | 249 | 495 | 973 | 1190 | 1850 | 4290 |
| 2026-04-30 04:30 | 7.72 | 826 | 8720 (1974) | 16 (1956) | 903 | 57 | 120 | 175 | 249 | 495 | 973 | 1190 | 1850 | 4290 |
| 2026-04-30 03:30 | 7.74 | 832 | 8720 (1974) | 16 (1956) | 903 | 57 | 120 | 175 | 249 | 495 | 973 | 1190 | 1850 | 4290 |
| 2026-04-30 02:30 | 7.76 | 837 | 8720 (1974) | 16 (1956) | 903 | 57 | 120 | 175 | 249 | 495 | 973 | 1190 | 1850 | 4290 |
| 2026-04-30 01:30 | 7.78 | 843 | 8720 (1974) | 16 (1956) | 903 | 57 | 120 | 175 | 249 | 495 | 973 | 1190 | 1850 | 4290 |
| 2026-04-30 00:30 | 7.80 | 848 | 8720 (1974) | 16 (1956) | 903 | 57 | 120 | 175 | 249 | 495 | 973 | 1190 | 1850 | 4290 |
| 2026-04-29 23:30 | 7.81 | 851 | 8720 (1974) | 16 (1956) | 903 | 57 | 120 | 175 | 249 | 495 | 973 | 1190 | 1850 | 4290 |
| 2026-04-29 22:30 | 7.86 | 865 | 5520 (2007) | 16 (1956) | 834 | 57 | 118 | 168 | 209 | 502 | 929 | 1020 | 2090 | 3320 |
| 2026-04-29 21:30 | 7.87 | 868 | 5520 (2007) | 16 (1956) | 834 | 57 | 118 | 168 | 209 | 502 | 929 | 1020 | 2090 | 3320 |
| 2026-04-29 20:30 | 7.89 | 874 | 5520 (2007) | 16 (1956) | 834 | 57 | 118 | 168 | 209 | 502 | 929 | 1020 | 2090 | 3320 |
| 2026-04-29 19:30 | 7.91 | 880 | 5520 (2007) | 16 (1956) | 834 | 57 | 118 | 168 | 209 | 502 | 929 | 1020 | 2090 | 3320 |
| 2026-04-29 18:30 | 7.92 | 883 | 5520 (2007) | 16 (1956) | 834 | 57 | 118 | 168 | 209 | 502 | 929 | 1020 | 2090 | 3320 |
| 2026-04-29 17:30 | 7.93 | 885 | 5520 (2007) | 16 (1956) | 834 | 57 | 118 | 168 | 209 | 502 | 929 | 1020 | 2090 | 3320 |
| 2026-04-29 16:30 | 7.95 | 891 | 5520 (2007) | 16 (1956) | 834 | 57 | 118 | 168 | 209 | 502 | 929 | 1020 | 2090 | 3320 |
| 2026-04-29 15:30 | 7.97 | 897 | 5520 (2007) | 16 (1956) | 834 | 57 | 118 | 168 | 209 | 502 | 929 | 1020 | 2090 | 3320 |
| 2026-04-29 14:30 | 8.00 | 905 | 5520 (2007) | 16 (1956) | 834 | 57 | 118 | 168 | 209 | 502 | 929 | 1020 | 2090 | 3320 |
| 2026-04-29 13:30 | 8.00 | 905 | 5520 (2007) | 16 (1956) | 834 | 57 | 118 | 168 | 209 | 502 | 929 | 1020 | 2090 | 3320 |
| 2026-04-29 12:30 | 8.02 | 911 | 5520 (2007) | 16 (1956) | 834 | 57 | 118 | 168 | 209 | 502 | 929 | 1020 | 2090 | 3320 |
| 2026-04-29 11:30 | 8.03 | 914 | 5520 (2007) | 16 (1956) | 834 | 57 | 118 | 168 | 209 | 502 | 929 | 1020 | 2090 | 3320 |
| 2026-04-29 10:30 | 8.03 | 914 | 5520 (2007) | 16 (1956) | 834 | 57 | 118 | 168 | 209 | 502 | 929 | 1020 | 2090 | 3320 |
| 2026-04-29 09:30 | 8.04 | 917 | 5520 (2007) | 16 (1956) | 834 | 57 | 118 | 168 | 209 | 502 | 929 | 1020 | 2090 | 3320 |
| 2026-04-29 08:30 | 8.06 | 923 | 5520 (2007) | 16 (1956) | 834 | 57 | 118 | 168 | 209 | 502 | 929 | 1020 | 2090 | 3320 |
| 2026-04-29 07:30 | 8.04 | 917 | 5520 (2007) | 16 (1956) | 834 | 57 | 118 | 168 | 209 | 502 | 929 | 1020 | 2090 | 3320 |
| 2026-04-29 06:30 | 8.05 | 920 | 5520 (2007) | 16 (1956) | 834 | 57 | 118 | 168 | 209 | 502 | 929 | 1020 | 2090 | 3320 |
| 2026-04-29 05:30 | 8.05 | 920 | 5520 (2007) | 16 (1956) | 834 | 57 | 118 | 168 | 209 | 502 | 929 | 1020 | 2090 | 3320 |
| 2026-04-29 04:30 | 8.05 | 920 | 5520 (2007) | 16 (1956) | 834 | 57 | 118 | 168 | 209 | 502 | 929 | 1020 | 2090 | 3320 |
| 2026-04-29 03:30 | 8.05 | 920 | 5520 (2007) | 16 (1956) | 834 | 57 | 118 | 168 | 209 | 502 | 929 | 1020 | 2090 | 3320 |
| 2026-04-29 02:30 | 8.07 | 926 | 5520 (2007) | 16 (1956) | 834 | 57 | 118 | 168 | 209 | 502 | 929 | 1020 | 2090 | 3320 |
| 2026-04-29 01:30 | 8.07 | 926 | 5520 (2007) | 16 (1956) | 834 | 57 | 118 | 168 | 209 | 502 | 929 | 1020 | 2090 | 3320 |
| 2026-04-29 00:30 | 8.04 | 917 | 5520 (2007) | 16 (1956) | 834 | 57 | 118 | 168 | 209 | 502 | 929 | 1020 | 2090 | 3320 |
| 2026-04-28 23:30 | 8.05 | 920 | 5520 (2007) | 16 (1956) | 834 | 57 | 118 | 168 | 209 | 502 | 929 | 1020 | 2090 | 3320 |
| 2026-04-28 22:30 | 8.07 | 926 | 5220 (2008) | 9 (1956) | 880 | 63 | 118 | 170 | 209 | 487 | 929 | 1040 | 2460 | 4310 |
| 2026-04-28 21:30 | 8.05 | 920 | 5220 (2008) | 9 (1956) | 880 | 63 | 118 | 170 | 209 | 487 | 929 | 1040 | 2460 | 4310 |
| 2026-04-28 20:30 | 8.06 | 923 | 5220 (2008) | 9 (1956) | 880 | 63 | 118 | 170 | 209 | 487 | 929 | 1040 | 2460 | 4310 |
| 2026-04-28 19:30 | 8.06 | 923 | 5220 (2008) | 9 (1956) | 880 | 63 | 118 | 170 | 209 | 487 | 929 | 1040 | 2460 | 4310 |
| 2026-04-28 18:30 | 8.10 | 935 | 5220 (2008) | 9 (1956) | 880 | 63 | 118 | 170 | 209 | 487 | 929 | 1040 | 2460 | 4310 |
| 2026-04-28 17:30 | 8.11 | 937 | 5220 (2008) | 9 (1956) | 880 | 63 | 118 | 170 | 209 | 487 | 929 | 1040 | 2460 | 4310 |
| 2026-04-28 16:30 | 8.11 | 937 | 5220 (2008) | 9 (1956) | 880 | 63 | 118 | 170 | 209 | 487 | 929 | 1040 | 2460 | 4310 |
| 2026-04-28 15:30 | 8.09 | 932 | 5220 (2008) | 9 (1956) | 880 | 63 | 118 | 170 | 209 | 487 | 929 | 1040 | 2460 | 4310 |
| 2026-04-28 14:30 | 8.11 | 937 | 5220 (2008) | 9 (1956) | 880 | 63 | 118 | 170 | 209 | 487 | 929 | 1040 | 2460 | 4310 |
| 2026-04-28 13:30 | 8.13 | 943 | 5220 (2008) | 9 (1956) | 880 | 63 | 118 | 170 | 209 | 487 | 929 | 1040 | 2460 | 4310 |
| 2026-04-28 12:30 | 8.12 | 940 | 5220 (2008) | 9 (1956) | 880 | 63 | 118 | 170 | 209 | 487 | 929 | 1040 | 2460 | 4310 |
| 2026-04-28 11:30 | 8.15 | 949 | 5220 (2008) | 9 (1956) | 880 | 63 | 118 | 170 | 209 | 487 | 929 | 1040 | 2460 | 4310 |
| 2026-04-28 10:30 | 8.16 | 952 | 5220 (2008) | 9 (1956) | 880 | 63 | 118 | 170 | 209 | 487 | 929 | 1040 | 2460 | 4310 |
| 2026-04-28 09:30 | 8.17 | 955 | 5220 (2008) | 9 (1956) | 880 | 63 | 118 | 170 | 209 | 487 | 929 | 1040 | 2460 | 4310 |
| 2026-04-28 08:30 | 8.18 | 958 | 5220 (2008) | 9 (1956) | 880 | 63 | 118 | 170 | 209 | 487 | 929 | 1040 | 2460 | 4310 |
| 2026-04-28 07:30 | 8.18 | 958 | 5220 (2008) | 9 (1956) | 880 | 63 | 118 | 170 | 209 | 487 | 929 | 1040 | 2460 | 4310 |
| 2026-04-28 06:30 | 8.19 | 961 | 5220 (2008) | 9 (1956) | 880 | 63 | 118 | 170 | 209 | 487 | 929 | 1040 | 2460 | 4310 |
| 2026-04-28 05:30 | 8.23 | 973 | 5220 (2008) | 9 (1956) | 880 | 63 | 118 | 170 | 209 | 487 | 929 | 1040 | 2460 | 4310 |
| 2026-04-28 04:30 | 8.22 | 970 | 5220 (2008) | 9 (1956) | 880 | 63 | 118 | 170 | 209 | 487 | 929 | 1040 | 2460 | 4310 |
| 2026-04-28 03:30 | 8.27 | 985 | 5220 (2008) | 9 (1956) | 880 | 63 | 118 | 170 | 209 | 487 | 929 | 1040 | 2460 | 4310 |
| 2026-04-28 02:30 | 8.31 | 997 | 5220 (2008) | 9 (1956) | 880 | 63 | 118 | 170 | 209 | 487 | 929 | 1040 | 2460 | 4310 |
| 2026-04-28 01:30 | 8.34 | 1010 | 5220 (2008) | 9 (1956) | 880 | 63 | 118 | 170 | 209 | 487 | 929 | 1040 | 2460 | 4310 |
| 2026-04-28 00:30 | 8.36 | 1010 | 5220 (2008) | 9 (1956) | 880 | 63 | 118 | 170 | 209 | 487 | 929 | 1040 | 2460 | 4310 |
| 2026-04-27 23:30 | 8.41 | 1030 | 5220 (2008) | 9 (1956) | 880 | 63 | 118 | 170 | 209 | 487 | 929 | 1040 | 2460 | 4310 |
| 2026-04-27 22:30 | 8.44 | 1040 | 6250 (1976) | 7 (1956) | 865 | 68 | 120 | 177 | 219 | 485 | 832 | 1180 | 2160 | 3900 |
| 2026-04-27 21:30 | 8.51 | 1060 | 6250 (1976) | 7 (1956) | 865 | 68 | 120 | 177 | 219 | 485 | 832 | 1180 | 2160 | 3900 |
| 2026-04-27 20:30 | 8.55 | 1070 | 6250 (1976) | 7 (1956) | 865 | 68 | 120 | 177 | 219 | 485 | 832 | 1180 | 2160 | 3900 |
| 2026-04-27 19:30 | 8.58 | 1080 | 6250 (1976) | 7 (1956) | 865 | 68 | 120 | 177 | 219 | 485 | 832 | 1180 | 2160 | 3900 |
| 2026-04-27 18:30 | 8.59 | 1080 | 6250 (1976) | 7 (1956) | 865 | 68 | 120 | 177 | 219 | 485 | 832 | 1180 | 2160 | 3900 |
| 2026-04-27 17:30 | 8.63 | 1090 | 6250 (1976) | 7 (1956) | 865 | 68 | 120 | 177 | 219 | 485 | 832 | 1180 | 2160 | 3900 |
| 2026-04-27 16:30 | 8.65 | 1100 | 6250 (1976) | 7 (1956) | 865 | 68 | 120 | 177 | 219 | 485 | 832 | 1180 | 2160 | 3900 |
| 2026-04-27 15:30 | 8.65 | 1100 | 6250 (1976) | 7 (1956) | 865 | 68 | 120 | 177 | 219 | 485 | 832 | 1180 | 2160 | 3900 |
| 2026-04-27 14:30 | 8.64 | 1100 | 6250 (1976) | 7 (1956) | 865 | 68 | 120 | 177 | 219 | 485 | 832 | 1180 | 2160 | 3900 |
| 2026-04-27 13:30 | 8.64 | 1100 | 6250 (1976) | 7 (1956) | 865 | 68 | 120 | 177 | 219 | 485 | 832 | 1180 | 2160 | 3900 |
| 2026-04-27 12:30 | 8.55 | 1070 | 6250 (1976) | 7 (1956) | 865 | 68 | 120 | 177 | 219 | 485 | 832 | 1180 | 2160 | 3900 |
| 2026-04-27 11:30 | 8.38 | 1020 | 6250 (1976) | 7 (1956) | 865 | 68 | 120 | 177 | 219 | 485 | 832 | 1180 | 2160 | 3900 |
| 2026-04-27 10:30 | 8.17 | 955 | 6250 (1976) | 7 (1956) | 865 | 68 | 120 | 177 | 219 | 485 | 832 | 1180 | 2160 | 3900 |
| 2026-04-27 09:30 | 7.97 | 897 | 6250 (1976) | 7 (1956) | 865 | 68 | 120 | 177 | 219 | 485 | 832 | 1180 | 2160 | 3900 |
| 2026-04-27 08:30 | 7.82 | 854 | 6250 (1976) | 7 (1956) | 865 | 68 | 120 | 177 | 219 | 485 | 832 | 1180 | 2160 | 3900 |
| 2026-04-27 07:30 | 7.76 | 837 | 6250 (1976) | 7 (1956) | 865 | 68 | 120 | 177 | 219 | 485 | 832 | 1180 | 2160 | 3900 |
| 2026-04-27 06:30 | 7.75 | 834 | 6250 (1976) | 7 (1956) | 865 | 68 | 120 | 177 | 219 | 485 | 832 | 1180 | 2160 | 3900 |
| 2026-04-27 05:30 | 7.80 | 848 | 6250 (1976) | 7 (1956) | 865 | 68 | 120 | 177 | 219 | 485 | 832 | 1180 | 2160 | 3900 |
| 2026-04-27 04:30 | 7.80 | 848 | 6250 (1976) | 7 (1956) | 865 | 68 | 120 | 177 | 219 | 485 | 832 | 1180 | 2160 | 3900 |
| 2026-04-27 03:30 | 7.81 | 851 | 6250 (1976) | 7 (1956) | 865 | 68 | 120 | 177 | 219 | 485 | 832 | 1180 | 2160 | 3900 |
| 2026-04-27 02:30 | 7.83 | 857 | 6250 (1976) | 7 (1956) | 865 | 68 | 120 | 177 | 219 | 485 | 832 | 1180 | 2160 | 3900 |
| 2026-04-27 01:30 | 7.84 | 860 | 6250 (1976) | 7 (1956) | 865 | 68 | 120 | 177 | 219 | 485 | 832 | 1180 | 2160 | 3900 |
| 2026-04-27 00:30 | 7.84 | 860 | 6250 (1976) | 7 (1956) | 865 | 68 | 120 | 177 | 219 | 485 | 832 | 1180 | 2160 | 3900 |
| 2026-04-26 23:30 | 7.86 | 865 | 6250 (1976) | 7 (1956) | 865 | 68 | 120 | 177 | 219 | 485 | 832 | 1180 | 2160 | 3900 |
| 2026-04-26 22:30 | 7.87 | 868 | 9480 (1976) | 7 (1956) | 816 | 48 | 119 | 180 | 195 | 464 | 847 | 1040 | 1580 | 3210 |
| 2026-04-26 21:30 | 7.88 | 871 | 9480 (1976) | 7 (1956) | 816 | 48 | 119 | 180 | 195 | 464 | 847 | 1040 | 1580 | 3210 |
| 2026-04-26 20:30 | 7.89 | 874 | 9480 (1976) | 7 (1956) | 816 | 48 | 119 | 180 | 195 | 464 | 847 | 1040 | 1580 | 3210 |
| 2026-04-26 19:30 | 7.91 | 880 | 9480 (1976) | 7 (1956) | 816 | 48 | 119 | 180 | 195 | 464 | 847 | 1040 | 1580 | 3210 |
| 2026-04-26 18:30 | 7.93 | 885 | 9480 (1976) | 7 (1956) | 816 | 48 | 119 | 180 | 195 | 464 | 847 | 1040 | 1580 | 3210 |
| 2026-04-26 17:30 | 7.95 | 891 | 9480 (1976) | 7 (1956) | 816 | 48 | 119 | 180 | 195 | 464 | 847 | 1040 | 1580 | 3210 |
| 2026-04-26 16:30 | 7.96 | 894 | 9480 (1976) | 7 (1956) | 816 | 48 | 119 | 180 | 195 | 464 | 847 | 1040 | 1580 | 3210 |
| 2026-04-26 15:30 | 7.99 | 903 | 9480 (1976) | 7 (1956) | 816 | 48 | 119 | 180 | 195 | 464 | 847 | 1040 | 1580 | 3210 |
| 2026-04-26 14:30 | 8.01 | 908 | 9480 (1976) | 7 (1956) | 816 | 48 | 119 | 180 | 195 | 464 | 847 | 1040 | 1580 | 3210 |
| 2026-04-26 13:30 | 8.03 | 914 | 9480 (1976) | 7 (1956) | 816 | 48 | 119 | 180 | 195 | 464 | 847 | 1040 | 1580 | 3210 |
| 2026-04-26 12:30 | 8.03 | 914 | 9480 (1976) | 7 (1956) | 816 | 48 | 119 | 180 | 195 | 464 | 847 | 1040 | 1580 | 3210 |
| 2026-04-26 11:30 | 8.04 | 917 | 9480 (1976) | 7 (1956) | 816 | 48 | 119 | 180 | 195 | 464 | 847 | 1040 | 1580 | 3210 |
| 2026-04-26 10:30 | 8.08 | 929 | 9480 (1976) | 7 (1956) | 816 | 48 | 119 | 180 | 195 | 464 | 847 | 1040 | 1580 | 3210 |
| 2026-04-26 09:30 | 8.12 | 940 | 9480 (1976) | 7 (1956) | 816 | 48 | 119 | 180 | 195 | 464 | 847 | 1040 | 1580 | 3210 |
| 2026-04-26 08:30 | 8.13 | 943 | 9480 (1976) | 7 (1956) | 816 | 48 | 119 | 180 | 195 | 464 | 847 | 1040 | 1580 | 3210 |
| 2026-04-26 07:30 | 8.16 | 952 | 9480 (1976) | 7 (1956) | 816 | 48 | 119 | 180 | 195 | 464 | 847 | 1040 | 1580 | 3210 |
| 2026-04-26 06:30 | 8.20 | 964 | 9480 (1976) | 7 (1956) | 816 | 48 | 119 | 180 | 195 | 464 | 847 | 1040 | 1580 | 3210 |
| 2026-04-26 05:30 | 8.20 | 964 | 9480 (1976) | 7 (1956) | 816 | 48 | 119 | 180 | 195 | 464 | 847 | 1040 | 1580 | 3210 |
| 2026-04-26 04:30 | 8.23 | 973 | 9480 (1976) | 7 (1956) | 816 | 48 | 119 | 180 | 195 | 464 | 847 | 1040 | 1580 | 3210 |
| 2026-04-26 03:30 | 8.26 | 982 | 9480 (1976) | 7 (1956) | 816 | 48 | 119 | 180 | 195 | 464 | 847 | 1040 | 1580 | 3210 |
| 2026-04-26 02:30 | 8.29 | 991 | 9480 (1976) | 7 (1956) | 816 | 48 | 119 | 180 | 195 | 464 | 847 | 1040 | 1580 | 3210 |
| 2026-04-26 01:30 | 8.34 | 1010 | 9480 (1976) | 7 (1956) | 816 | 48 | 119 | 180 | 195 | 464 | 847 | 1040 | 1580 | 3210 |
| 2026-04-26 00:30 | 8.37 | 1010 | 9480 (1976) | 7 (1956) | 816 | 48 | 119 | 180 | 195 | 464 | 847 | 1040 | 1580 | 3210 |
| 2026-04-25 23:30 | 8.37 | 1010 | 9480 (1976) | 7 (1956) | 816 | 48 | 119 | 180 | 195 | 464 | 847 | 1040 | 1580 | 3210 |
| 2026-04-25 22:30 | 8.41 | 1030 | 14000 (1976) | 6 (1956) | 871 | 36 | 130 | 188 | 222 | 482 | 895 | 1080 | 1910 | 2630 |
| 2026-04-25 21:30 | 8.42 | 1030 | 14000 (1976) | 6 (1956) | 871 | 36 | 130 | 188 | 222 | 482 | 895 | 1080 | 1910 | 2630 |
| 2026-04-25 20:30 | 8.42 | 1030 | 14000 (1976) | 6 (1956) | 871 | 36 | 130 | 188 | 222 | 482 | 895 | 1080 | 1910 | 2630 |
| 2026-04-25 19:30 | 8.45 | 1040 | 14000 (1976) | 6 (1956) | 871 | 36 | 130 | 188 | 222 | 482 | 895 | 1080 | 1910 | 2630 |
| 2026-04-25 18:30 | 8.45 | 1040 | 14000 (1976) | 6 (1956) | 871 | 36 | 130 | 188 | 222 | 482 | 895 | 1080 | 1910 | 2630 |
| 2026-04-25 17:30 | 8.47 | 1050 | 14000 (1976) | 6 (1956) | 871 | 36 | 130 | 188 | 222 | 482 | 895 | 1080 | 1910 | 2630 |
| 2026-04-25 16:30 | 8.47 | 1050 | 14000 (1976) | 6 (1956) | 871 | 36 | 130 | 188 | 222 | 482 | 895 | 1080 | 1910 | 2630 |
| 2026-04-25 15:30 | 8.47 | 1050 | 14000 (1976) | 6 (1956) | 871 | 36 | 130 | 188 | 222 | 482 | 895 | 1080 | 1910 | 2630 |
| 2026-04-25 14:30 | 8.49 | 1050 | 14000 (1976) | 6 (1956) | 871 | 36 | 130 | 188 | 222 | 482 | 895 | 1080 | 1910 | 2630 |
| 2026-04-25 13:30 | 8.48 | 1050 | 14000 (1976) | 6 (1956) | 871 | 36 | 130 | 188 | 222 | 482 | 895 | 1080 | 1910 | 2630 |
| 2026-04-25 12:30 | 8.49 | 1050 | 14000 (1976) | 6 (1956) | 871 | 36 | 130 | 188 | 222 | 482 | 895 | 1080 | 1910 | 2630 |
| 2026-04-25 11:30 | 8.48 | 1050 | 14000 (1976) | 6 (1956) | 871 | 36 | 130 | 188 | 222 | 482 | 895 | 1080 | 1910 | 2630 |
| 2026-04-25 10:30 | 8.49 | 1050 | 14000 (1976) | 6 (1956) | 871 | 36 | 130 | 188 | 222 | 482 | 895 | 1080 | 1910 | 2630 |
| 2026-04-25 09:30 | 8.49 | 1050 | 14000 (1976) | 6 (1956) | 871 | 36 | 130 | 188 | 222 | 482 | 895 | 1080 | 1910 | 2630 |
| 2026-04-25 08:30 | 8.46 | 1040 | 14000 (1976) | 6 (1956) | 871 | 36 | 130 | 188 | 222 | 482 | 895 | 1080 | 1910 | 2630 |
| 2026-04-25 07:30 | 8.46 | 1040 | 14000 (1976) | 6 (1956) | 871 | 36 | 130 | 188 | 222 | 482 | 895 | 1080 | 1910 | 2630 |
| 2026-04-25 06:30 | 8.47 | 1050 | 14000 (1976) | 6 (1956) | 871 | 36 | 130 | 188 | 222 | 482 | 895 | 1080 | 1910 | 2630 |
| 2026-04-25 05:30 | 8.45 | 1040 | 14000 (1976) | 6 (1956) | 871 | 36 | 130 | 188 | 222 | 482 | 895 | 1080 | 1910 | 2630 |
| 2026-04-25 04:30 | 8.45 | 1040 | 14000 (1976) | 6 (1956) | 871 | 36 | 130 | 188 | 222 | 482 | 895 | 1080 | 1910 | 2630 |
| 2026-04-25 03:30 | 8.47 | 1050 | 14000 (1976) | 6 (1956) | 871 | 36 | 130 | 188 | 222 | 482 | 895 | 1080 | 1910 | 2630 |
| 2026-04-25 02:30 | 8.49 | 1050 | 14000 (1976) | 6 (1956) | 871 | 36 | 130 | 188 | 222 | 482 | 895 | 1080 | 1910 | 2630 |
| 2026-04-25 01:30 | 8.48 | 1050 | 14000 (1976) | 6 (1956) | 871 | 36 | 130 | 188 | 222 | 482 | 895 | 1080 | 1910 | 2630 |
| 2026-04-25 00:30 | 8.50 | 1050 | 14000 (1976) | 6 (1956) | 871 | 36 | 130 | 188 | 222 | 482 | 895 | 1080 | 1910 | 2630 |
| 2026-04-24 23:30 | 8.48 | 1050 | 14000 (1976) | 6 (1956) | 871 | 36 | 130 | 188 | 222 | 482 | 895 | 1080 | 1910 | 2630 |
| 2026-04-24 22:30 | 8.52 | 1060 | 11300 (1976) | 6 (1956) | 889 | 41 | 138 | 204 | 236 | 450 | 917 | 1040 | 2330 | 3220 |
| 2026-04-24 21:30 | 8.49 | 1050 | 11300 (1976) | 6 (1956) | 889 | 41 | 138 | 204 | 236 | 450 | 917 | 1040 | 2330 | 3220 |
| 2026-04-24 20:30 | 8.50 | 1050 | 11300 (1976) | 6 (1956) | 889 | 41 | 138 | 204 | 236 | 450 | 917 | 1040 | 2330 | 3220 |
| 2026-04-24 19:30 | 8.52 | 1060 | 11300 (1976) | 6 (1956) | 889 | 41 | 138 | 204 | 236 | 450 | 917 | 1040 | 2330 | 3220 |
| 2026-04-24 18:30 | 8.54 | 1070 | 11300 (1976) | 6 (1956) | 889 | 41 | 138 | 204 | 236 | 450 | 917 | 1040 | 2330 | 3220 |
| 2026-04-24 17:30 | 8.55 | 1070 | 11300 (1976) | 6 (1956) | 889 | 41 | 138 | 204 | 236 | 450 | 917 | 1040 | 2330 | 3220 |
| 2026-04-24 16:30 | 8.56 | 1070 | 11300 (1976) | 6 (1956) | 889 | 41 | 138 | 204 | 236 | 450 | 917 | 1040 | 2330 | 3220 |
| 2026-04-24 15:30 | 8.55 | 1070 | 11300 (1976) | 6 (1956) | 889 | 41 | 138 | 204 | 236 | 450 | 917 | 1040 | 2330 | 3220 |
| 2026-04-24 14:30 | 8.53 | 1060 | 11300 (1976) | 6 (1956) | 889 | 41 | 138 | 204 | 236 | 450 | 917 | 1040 | 2330 | 3220 |
| 2026-04-24 13:30 | 8.54 | 1070 | 11300 (1976) | 6 (1956) | 889 | 41 | 138 | 204 | 236 | 450 | 917 | 1040 | 2330 | 3220 |
| 2026-04-24 12:30 | 8.47 | 1050 | 11300 (1976) | 6 (1956) | 889 | 41 | 138 | 204 | 236 | 450 | 917 | 1040 | 2330 | 3220 |
| 2026-04-24 11:30 | 8.42 | 1030 | 11300 (1976) | 6 (1956) | 889 | 41 | 138 | 204 | 236 | 450 | 917 | 1040 | 2330 | 3220 |
| 2026-04-24 10:30 | 8.38 | 1020 | 11300 (1976) | 6 (1956) | 889 | 41 | 138 | 204 | 236 | 450 | 917 | 1040 | 2330 | 3220 |
| 2026-04-24 09:30 | 8.31 | 997 | 11300 (1976) | 6 (1956) | 889 | 41 | 138 | 204 | 236 | 450 | 917 | 1040 | 2330 | 3220 |
| 2026-04-24 08:30 | 8.28 | 988 | 11300 (1976) | 6 (1956) | 889 | 41 | 138 | 204 | 236 | 450 | 917 | 1040 | 2330 | 3220 |
| 2026-04-24 07:30 | 8.28 | 988 | 11300 (1976) | 6 (1956) | 889 | 41 | 138 | 204 | 236 | 450 | 917 | 1040 | 2330 | 3220 |
| 2026-04-24 06:30 | 8.21 | 967 | 11300 (1976) | 6 (1956) | 889 | 41 | 138 | 204 | 236 | 450 | 917 | 1040 | 2330 | 3220 |
| 2026-04-24 05:30 | 8.18 | 958 | 11300 (1976) | 6 (1956) | 889 | 41 | 138 | 204 | 236 | 450 | 917 | 1040 | 2330 | 3220 |
| 2026-04-24 04:30 | 8.17 | 955 | 11300 (1976) | 6 (1956) | 889 | 41 | 138 | 204 | 236 | 450 | 917 | 1040 | 2330 | 3220 |
| 2026-04-24 03:30 | 8.15 | 949 | 11300 (1976) | 6 (1956) | 889 | 41 | 138 | 204 | 236 | 450 | 917 | 1040 | 2330 | 3220 |
| 2026-04-24 02:30 | 8.14 | 946 | 11300 (1976) | 6 (1956) | 889 | 41 | 138 | 204 | 236 | 450 | 917 | 1040 | 2330 | 3220 |
| 2026-04-24 01:30 | 8.12 | 940 | 11300 (1976) | 6 (1956) | 889 | 41 | 138 | 204 | 236 | 450 | 917 | 1040 | 2330 | 3220 |
| 2026-04-24 00:30 | 8.10 | 935 | 11300 (1976) | 6 (1956) | 889 | 41 | 138 | 204 | 236 | 450 | 917 | 1040 | 2330 | 3220 |
| 2026-04-23 23:30 | 8.11 | 937 | 11300 (1976) | 6 (1956) | 889 | 41 | 138 | 204 | 236 | 450 | 917 | 1040 | 2330 | 3220 |
| 2026-04-23 22:30 | 8.09 | 932 | 5280 (1993) | 6 (1956) | 880 | 49 | 120 | 204 | 232 | 480 | 890 | 1100 | 2590 | 3650 |
| 2026-04-23 21:30 | 8.10 | 935 | 5280 (1993) | 6 (1956) | 880 | 49 | 120 | 204 | 232 | 480 | 890 | 1100 | 2590 | 3650 |
| 2026-04-23 20:30 | 8.10 | 935 | 5280 (1993) | 6 (1956) | 880 | 49 | 120 | 204 | 232 | 480 | 890 | 1100 | 2590 | 3650 |
| 2026-04-23 19:30 | 8.11 | 937 | 5280 (1993) | 6 (1956) | 880 | 49 | 120 | 204 | 232 | 480 | 890 | 1100 | 2590 | 3650 |
| 2026-04-23 18:30 | 8.13 | 943 | 5280 (1993) | 6 (1956) | 880 | 49 | 120 | 204 | 232 | 480 | 890 | 1100 | 2590 | 3650 |
| 2026-04-23 17:30 | 8.14 | 946 | 5280 (1993) | 6 (1956) | 880 | 49 | 120 | 204 | 232 | 480 | 890 | 1100 | 2590 | 3650 |
| 2026-04-23 16:30 | 8.15 | 949 | 5280 (1993) | 6 (1956) | 880 | 49 | 120 | 204 | 232 | 480 | 890 | 1100 | 2590 | 3650 |
| 2026-04-23 15:30 | 8.19 | 961 | 5280 (1993) | 6 (1956) | 880 | 49 | 120 | 204 | 232 | 480 | 890 | 1100 | 2590 | 3650 |
| 2026-04-23 14:30 | 8.21 | 967 | 5280 (1993) | 6 (1956) | 880 | 49 | 120 | 204 | 232 | 480 | 890 | 1100 | 2590 | 3650 |
| 2026-04-23 13:30 | 8.21 | 967 | 5280 (1993) | 6 (1956) | 880 | 49 | 120 | 204 | 232 | 480 | 890 | 1100 | 2590 | 3650 |
| 2026-04-23 12:30 | 8.23 | 973 | 5280 (1993) | 6 (1956) | 880 | 49 | 120 | 204 | 232 | 480 | 890 | 1100 | 2590 | 3650 |
| 2026-04-23 11:30 | 8.25 | 979 | 5280 (1993) | 6 (1956) | 880 | 49 | 120 | 204 | 232 | 480 | 890 | 1100 | 2590 | 3650 |
| 2026-04-23 10:30 | 8.27 | 985 | 5280 (1993) | 6 (1956) | 880 | 49 | 120 | 204 | 232 | 480 | 890 | 1100 | 2590 | 3650 |
| 2026-04-23 09:30 | 8.29 | 991 | 5280 (1993) | 6 (1956) | 880 | 49 | 120 | 204 | 232 | 480 | 890 | 1100 | 2590 | 3650 |
| 2026-04-23 08:30 | 8.32 | 1000 | 5280 (1993) | 6 (1956) | 880 | 49 | 120 | 204 | 232 | 480 | 890 | 1100 | 2590 | 3650 |
| 2026-04-23 07:30 | 8.35 | 1010 | 5280 (1993) | 6 (1956) | 880 | 49 | 120 | 204 | 232 | 480 | 890 | 1100 | 2590 | 3650 |
| 2026-04-23 06:30 | 8.35 | 1010 | 5280 (1993) | 6 (1956) | 880 | 49 | 120 | 204 | 232 | 480 | 890 | 1100 | 2590 | 3650 |
| 2026-04-23 05:30 | 8.37 | 1010 | 5280 (1993) | 6 (1956) | 880 | 49 | 120 | 204 | 232 | 480 | 890 | 1100 | 2590 | 3650 |
| 2026-04-23 04:30 | 8.39 | 1020 | 5280 (1993) | 6 (1956) | 880 | 49 | 120 | 204 | 232 | 480 | 890 | 1100 | 2590 | 3650 |
| 2026-04-23 03:30 | 8.41 | 1030 | 5280 (1993) | 6 (1956) | 880 | 49 | 120 | 204 | 232 | 480 | 890 | 1100 | 2590 | 3650 |
| 2026-04-23 02:30 | 8.43 | 1030 | 5280 (1993) | 6 (1956) | 880 | 49 | 120 | 204 | 232 | 480 | 890 | 1100 | 2590 | 3650 |
| 2026-04-23 01:30 | 8.47 | 1050 | 5280 (1993) | 6 (1956) | 880 | 49 | 120 | 204 | 232 | 480 | 890 | 1100 | 2590 | 3650 |
| 2026-04-23 00:30 | 8.49 | 1050 | 5280 (1993) | 6 (1956) | 880 | 49 | 120 | 204 | 232 | 480 | 890 | 1100 | 2590 | 3650 |
| 2026-04-22 23:30 | 8.50 | 1050 | 5280 (1993) | 6 (1956) | 880 | 49 | 120 | 204 | 232 | 480 | 890 | 1100 | 2590 | 3650 |
| 2026-04-22 22:30 | 8.51 | 1060 | 6630 (1993) | 6 (1956) | 955 | 44 | 115 | 202 | 237 | 492 | 903 | 1080 | 2860 | 4420 |
| 2026-04-22 21:30 | 8.53 | 1060 | 6630 (1993) | 6 (1956) | 955 | 44 | 115 | 202 | 237 | 492 | 903 | 1080 | 2860 | 4420 |
| 2026-04-22 20:30 | 8.55 | 1070 | 6630 (1993) | 6 (1956) | 955 | 44 | 115 | 202 | 237 | 492 | 903 | 1080 | 2860 | 4420 |
| 2026-04-22 19:30 | 8.56 | 1070 | 6630 (1993) | 6 (1956) | 955 | 44 | 115 | 202 | 237 | 492 | 903 | 1080 | 2860 | 4420 |
| 2026-04-22 18:30 | 8.58 | 1080 | 6630 (1993) | 6 (1956) | 955 | 44 | 115 | 202 | 237 | 492 | 903 | 1080 | 2860 | 4420 |
| 2026-04-22 17:30 | 8.60 | 1090 | 6630 (1993) | 6 (1956) | 955 | 44 | 115 | 202 | 237 | 492 | 903 | 1080 | 2860 | 4420 |
| 2026-04-22 16:30 | 8.63 | 1090 | 6630 (1993) | 6 (1956) | 955 | 44 | 115 | 202 | 237 | 492 | 903 | 1080 | 2860 | 4420 |
| 2026-04-22 15:30 | 8.64 | 1100 | 6630 (1993) | 6 (1956) | 955 | 44 | 115 | 202 | 237 | 492 | 903 | 1080 | 2860 | 4420 |
| 2026-04-22 14:30 | 8.67 | 1110 | 6630 (1993) | 6 (1956) | 955 | 44 | 115 | 202 | 237 | 492 | 903 | 1080 | 2860 | 4420 |
| 2026-04-22 13:30 | 8.67 | 1110 | 6630 (1993) | 6 (1956) | 955 | 44 | 115 | 202 | 237 | 492 | 903 | 1080 | 2860 | 4420 |
| 2026-04-22 12:30 | 8.71 | 1120 | 6630 (1993) | 6 (1956) | 955 | 44 | 115 | 202 | 237 | 492 | 903 | 1080 | 2860 | 4420 |
| 2026-04-22 11:30 | 8.72 | 1120 | 6630 (1993) | 6 (1956) | 955 | 44 | 115 | 202 | 237 | 492 | 903 | 1080 | 2860 | 4420 |
| 2026-04-22 10:30 | 8.75 | 1130 | 6630 (1993) | 6 (1956) | 955 | 44 | 115 | 202 | 237 | 492 | 903 | 1080 | 2860 | 4420 |
| 2026-04-22 09:30 | 8.77 | 1140 | 6630 (1993) | 6 (1956) | 955 | 44 | 115 | 202 | 237 | 492 | 903 | 1080 | 2860 | 4420 |
| 2026-04-22 08:30 | 8.78 | 1140 | 6630 (1993) | 6 (1956) | 955 | 44 | 115 | 202 | 237 | 492 | 903 | 1080 | 2860 | 4420 |
| 2026-04-22 07:30 | 8.82 | 1160 | 6630 (1993) | 6 (1956) | 955 | 44 | 115 | 202 | 237 | 492 | 903 | 1080 | 2860 | 4420 |
| 2026-04-22 06:30 | 8.80 | 1150 | 6630 (1993) | 6 (1956) | 955 | 44 | 115 | 202 | 237 | 492 | 903 | 1080 | 2860 | 4420 |
| 2026-04-22 05:30 | 8.83 | 1160 | 6630 (1993) | 6 (1956) | 955 | 44 | 115 | 202 | 237 | 492 | 903 | 1080 | 2860 | 4420 |
| 2026-04-22 04:30 | 8.87 | 1170 | 6630 (1993) | 6 (1956) | 955 | 44 | 115 | 202 | 237 | 492 | 903 | 1080 | 2860 | 4420 |
| 2026-04-22 03:30 | 8.89 | 1180 | 6630 (1993) | 6 (1956) | 955 | 44 | 115 | 202 | 237 | 492 | 903 | 1080 | 2860 | 4420 |
| 2026-04-22 02:30 | 8.91 | 1180 | 6630 (1993) | 6 (1956) | 955 | 44 | 115 | 202 | 237 | 492 | 903 | 1080 | 2860 | 4420 |
| 2026-04-22 01:30 | 8.94 | 1190 | 6630 (1993) | 6 (1956) | 955 | 44 | 115 | 202 | 237 | 492 | 903 | 1080 | 2860 | 4420 |
| 2026-04-22 00:30 | 8.97 | 1200 | 6630 (1993) | 6 (1956) | 955 | 44 | 115 | 202 | 237 | 492 | 903 | 1080 | 2860 | 4420 |
| 2026-04-21 23:30 | 8.98 | 1210 | 6630 (1993) | 6 (1956) | 955 | 44 | 115 | 202 | 237 | 492 | 903 | 1080 | 2860 | 4420 |
| 2026-04-21 22:30 | 8.99 | 1210 | 7850 (1993) | 6 (1956) | 1020 | 37 | 112 | 215 | 232 | 524 | 937 | 1090 | 3540 | 4650 |
| 2026-04-21 21:30 | 9.01 | 1220 | 7850 (1993) | 6 (1956) | 1020 | 37 | 112 | 215 | 232 | 524 | 937 | 1090 | 3540 | 4650 |
| 2026-04-21 20:30 | 9.04 | 1230 | 7850 (1993) | 6 (1956) | 1020 | 37 | 112 | 215 | 232 | 524 | 937 | 1090 | 3540 | 4650 |
| 2026-04-21 19:30 | 9.07 | 1240 | 7850 (1993) | 6 (1956) | 1020 | 37 | 112 | 215 | 232 | 524 | 937 | 1090 | 3540 | 4650 |
| 2026-04-21 18:30 | 9.10 | 1250 | 7850 (1993) | 6 (1956) | 1020 | 37 | 112 | 215 | 232 | 524 | 937 | 1090 | 3540 | 4650 |
| 2026-04-21 17:30 | 9.10 | 1250 | 7850 (1993) | 6 (1956) | 1020 | 37 | 112 | 215 | 232 | 524 | 937 | 1090 | 3540 | 4650 |
| 2026-04-21 16:30 | 9.11 | 1250 | 7850 (1993) | 6 (1956) | 1020 | 37 | 112 | 215 | 232 | 524 | 937 | 1090 | 3540 | 4650 |
| 2026-04-21 15:30 | 9.13 | 1260 | 7850 (1993) | 6 (1956) | 1020 | 37 | 112 | 215 | 232 | 524 | 937 | 1090 | 3540 | 4650 |
| 2026-04-21 14:30 | 9.16 | 1270 | 7850 (1993) | 6 (1956) | 1020 | 37 | 112 | 215 | 232 | 524 | 937 | 1090 | 3540 | 4650 |
| 2026-04-21 13:30 | 9.18 | 1270 | 7850 (1993) | 6 (1956) | 1020 | 37 | 112 | 215 | 232 | 524 | 937 | 1090 | 3540 | 4650 |
| 2026-04-21 12:30 | 9.23 | 1290 | 7850 (1993) | 6 (1956) | 1020 | 37 | 112 | 215 | 232 | 524 | 937 | 1090 | 3540 | 4650 |
| 2026-04-21 11:30 | 9.23 | 1290 | 7850 (1993) | 6 (1956) | 1020 | 37 | 112 | 215 | 232 | 524 | 937 | 1090 | 3540 | 4650 |
| 2026-04-21 10:30 | 9.27 | 1300 | 7850 (1993) | 6 (1956) | 1020 | 37 | 112 | 215 | 232 | 524 | 937 | 1090 | 3540 | 4650 |
| 2026-04-21 09:30 | 9.28 | 1310 | 7850 (1993) | 6 (1956) | 1020 | 37 | 112 | 215 | 232 | 524 | 937 | 1090 | 3540 | 4650 |
| 2026-04-21 08:30 | 9.32 | 1320 | 7850 (1993) | 6 (1956) | 1020 | 37 | 112 | 215 | 232 | 524 | 937 | 1090 | 3540 | 4650 |
| 2026-04-21 07:30 | 9.35 | 1330 | 7850 (1993) | 6 (1956) | 1020 | 37 | 112 | 215 | 232 | 524 | 937 | 1090 | 3540 | 4650 |
| 2026-04-21 06:30 | 9.37 | 1340 | 7850 (1993) | 6 (1956) | 1020 | 37 | 112 | 215 | 232 | 524 | 937 | 1090 | 3540 | 4650 |
| 2026-04-21 05:30 | 9.40 | 1350 | 7850 (1993) | 6 (1956) | 1020 | 37 | 112 | 215 | 232 | 524 | 937 | 1090 | 3540 | 4650 |
| 2026-04-21 04:30 | 9.40 | 1350 | 7850 (1993) | 6 (1956) | 1020 | 37 | 112 | 215 | 232 | 524 | 937 | 1090 | 3540 | 4650 |
| 2026-04-21 03:30 | 9.45 | 1360 | 7850 (1993) | 6 (1956) | 1020 | 37 | 112 | 215 | 232 | 524 | 937 | 1090 | 3540 | 4650 |
| 2026-04-21 02:30 | 9.48 | 1370 | 7850 (1993) | 6 (1956) | 1020 | 37 | 112 | 215 | 232 | 524 | 937 | 1090 | 3540 | 4650 |
| 2026-04-21 01:30 | 9.52 | 1390 | 7850 (1993) | 6 (1956) | 1020 | 37 | 112 | 215 | 232 | 524 | 937 | 1090 | 3540 | 4650 |
| 2026-04-21 00:30 | 9.55 | 1400 | 7850 (1993) | 6 (1956) | 1020 | 37 | 112 | 215 | 232 | 524 | 937 | 1090 | 3540 | 4650 |
| 2026-04-20 23:30 | 9.62 | 1420 | 7850 (1993) | 6 (1956) | 1020 | 37 | 112 | 215 | 232 | 524 | 937 | 1090 | 3540 | 4650 |
| 2026-04-20 22:30 | 9.64 | 1430 | 10100 (2013) | 7 (1956) | 960 | 32 | 99 | 214 | 234 | 410 | 912 | 1080 | 2200 | 4350 |
| 2026-04-20 21:30 | 9.68 | 1440 | 10100 (2013) | 7 (1956) | 960 | 32 | 99 | 214 | 234 | 410 | 912 | 1080 | 2200 | 4350 |
| 2026-04-20 20:30 | 9.70 | 1450 | 10100 (2013) | 7 (1956) | 960 | 32 | 99 | 214 | 234 | 410 | 912 | 1080 | 2200 | 4350 |
| 2026-04-20 19:30 | 9.72 | 1450 | 10100 (2013) | 7 (1956) | 960 | 32 | 99 | 214 | 234 | 410 | 912 | 1080 | 2200 | 4350 |
| 2026-04-20 18:30 | 9.78 | 1470 | 10100 (2013) | 7 (1956) | 960 | 32 | 99 | 214 | 234 | 410 | 912 | 1080 | 2200 | 4350 |
| 2026-04-20 17:30 | 9.82 | 1490 | 10100 (2013) | 7 (1956) | 960 | 32 | 99 | 214 | 234 | 410 | 912 | 1080 | 2200 | 4350 |
| 2026-04-20 16:30 | 9.86 | 1500 | 10100 (2013) | 7 (1956) | 960 | 32 | 99 | 214 | 234 | 410 | 912 | 1080 | 2200 | 4350 |
| 2026-04-20 15:30 | 9.90 | 1510 | 10100 (2013) | 7 (1956) | 960 | 32 | 99 | 214 | 234 | 410 | 912 | 1080 | 2200 | 4350 |
| 2026-04-20 14:30 | 9.95 | 1530 | 10100 (2013) | 7 (1956) | 960 | 32 | 99 | 214 | 234 | 410 | 912 | 1080 | 2200 | 4350 |
| 2026-04-20 13:30 | 10.01 | 1550 | 10100 (2013) | 7 (1956) | 960 | 32 | 99 | 214 | 234 | 410 | 912 | 1080 | 2200 | 4350 |
| 2026-04-20 12:30 | 10.03 | 1560 | 10100 (2013) | 7 (1956) | 960 | 32 | 99 | 214 | 234 | 410 | 912 | 1080 | 2200 | 4350 |
| 2026-04-20 11:30 | 10.09 | 1580 | 10100 (2013) | 7 (1956) | 960 | 32 | 99 | 214 | 234 | 410 | 912 | 1080 | 2200 | 4350 |
| 2026-04-20 10:30 | 10.11 | 1590 | 10100 (2013) | 7 (1956) | 960 | 32 | 99 | 214 | 234 | 410 | 912 | 1080 | 2200 | 4350 |
| 2026-04-20 09:30 | 10.16 | 1600 | 10100 (2013) | 7 (1956) | 960 | 32 | 99 | 214 | 234 | 410 | 912 | 1080 | 2200 | 4350 |
| 2026-04-20 08:30 | 10.21 | 1620 | 10100 (2013) | 7 (1956) | 960 | 32 | 99 | 214 | 234 | 410 | 912 | 1080 | 2200 | 4350 |
| 2026-04-20 07:30 | 10.27 | 1640 | 10100 (2013) | 7 (1956) | 960 | 32 | 99 | 214 | 234 | 410 | 912 | 1080 | 2200 | 4350 |
| 2026-04-20 05:30 | 10.38 | 1680 | 10100 (2013) | 7 (1956) | 960 | 32 | 99 | 214 | 234 | 410 | 912 | 1080 | 2200 | 4350 |
| 2026-04-20 04:30 | 10.46 | 1710 | 10100 (2013) | 7 (1956) | 960 | 32 | 99 | 214 | 234 | 410 | 912 | 1080 | 2200 | 4350 |
| 2026-04-20 03:30 | 10.51 | 1730 | 10100 (2013) | 7 (1956) | 960 | 32 | 99 | 214 | 234 | 410 | 912 | 1080 | 2200 | 4350 |
| 2026-04-20 02:30 | 10.59 | 1760 | 10100 (2013) | 7 (1956) | 960 | 32 | 99 | 214 | 234 | 410 | 912 | 1080 | 2200 | 4350 |
| 2026-04-20 01:30 | 10.63 | 1770 | 10100 (2013) | 7 (1956) | 960 | 32 | 99 | 214 | 234 | 410 | 912 | 1080 | 2200 | 4350 |
| 2026-04-20 00:30 | 10.69 | 1790 | 10100 (2013) | 7 (1956) | 960 | 32 | 99 | 214 | 234 | 410 | 912 | 1080 | 2200 | 4350 |
| 2026-04-19 23:30 | 10.74 | 1810 | 10100 (2013) | 7 (1956) | 960 | 32 | 99 | 214 | 234 | 410 | 912 | 1080 | 2200 | 4350 |
| 2026-04-19 22:30 | 10.83 | 1840 | 12900 (2013) | 7 (1956) | 875 | 32 | 76 | 177 | 221 | 374 | 868 | 994 | 1770 | 3160 |
| 2026-04-19 21:30 | 10.91 | 1870 | 12900 (2013) | 7 (1956) | 875 | 32 | 76 | 177 | 221 | 374 | 868 | 994 | 1770 | 3160 |
| 2026-04-19 20:30 | 10.98 | 1900 | 12900 (2013) | 7 (1956) | 875 | 32 | 76 | 177 | 221 | 374 | 868 | 994 | 1770 | 3160 |
| 2026-04-19 19:30 | 11.05 | 1930 | 12900 (2013) | 7 (1956) | 875 | 32 | 76 | 177 | 221 | 374 | 868 | 994 | 1770 | 3160 |
| 2026-04-19 18:30 | 11.14 | 1960 | 12900 (2013) | 7 (1956) | 875 | 32 | 76 | 177 | 221 | 374 | 868 | 994 | 1770 | 3160 |
| 2026-04-19 17:30 | 11.19 | 1980 | 12900 (2013) | 7 (1956) | 875 | 32 | 76 | 177 | 221 | 374 | 868 | 994 | 1770 | 3160 |
| 2026-04-19 16:30 | 11.29 | 2020 | 12900 (2013) | 7 (1956) | 875 | 32 | 76 | 177 | 221 | 374 | 868 | 994 | 1770 | 3160 |
| 2026-04-19 15:30 | 11.38 | 2050 | 12900 (2013) | 7 (1956) | 875 | 32 | 76 | 177 | 221 | 374 | 868 | 994 | 1770 | 3160 |
| 2026-04-19 14:30 | 11.46 | 2080 | 12900 (2013) | 7 (1956) | 875 | 32 | 76 | 177 | 221 | 374 | 868 | 994 | 1770 | 3160 |
| 2026-04-19 13:30 | 11.50 | 2100 | 12900 (2013) | 7 (1956) | 875 | 32 | 76 | 177 | 221 | 374 | 868 | 994 | 1770 | 3160 |
| 2026-04-19 12:30 | 11.58 | 2130 | 12900 (2013) | 7 (1956) | 875 | 32 | 76 | 177 | 221 | 374 | 868 | 994 | 1770 | 3160 |
| 2026-04-19 11:30 | 11.65 | 2160 | 12900 (2013) | 7 (1956) | 875 | 32 | 76 | 177 | 221 | 374 | 868 | 994 | 1770 | 3160 |
| 2026-04-19 10:30 | 11.72 | 2180 | 12900 (2013) | 7 (1956) | 875 | 32 | 76 | 177 | 221 | 374 | 868 | 994 | 1770 | 3160 |
| 2026-04-19 09:30 | 11.78 | 2210 | 12900 (2013) | 7 (1956) | 875 | 32 | 76 | 177 | 221 | 374 | 868 | 994 | 1770 | 3160 |
| 2026-04-19 08:30 | 11.86 | 2240 | 12900 (2013) | 7 (1956) | 875 | 32 | 76 | 177 | 221 | 374 | 868 | 994 | 1770 | 3160 |
| 2026-04-19 07:30 | 11.94 | 2270 | 12900 (2013) | 7 (1956) | 875 | 32 | 76 | 177 | 221 | 374 | 868 | 994 | 1770 | 3160 |
| 2026-04-19 06:30 | 12.01 | 2300 | 12900 (2013) | 7 (1956) | 875 | 32 | 76 | 177 | 221 | 374 | 868 | 994 | 1770 | 3160 |
| 2026-04-19 05:30 | 12.10 | 2340 | 12900 (2013) | 7 (1956) | 875 | 32 | 76 | 177 | 221 | 374 | 868 | 994 | 1770 | 3160 |
| 2026-04-19 04:30 | 12.15 | 2360 | 12900 (2013) | 7 (1956) | 875 | 32 | 76 | 177 | 221 | 374 | 868 | 994 | 1770 | 3160 |
| 2026-04-19 03:30 | 12.23 | 2390 | 12900 (2013) | 7 (1956) | 875 | 32 | 76 | 177 | 221 | 374 | 868 | 994 | 1770 | 3160 |
| 2026-04-19 02:30 | 12.30 | 2420 | 12900 (2013) | 7 (1956) | 875 | 32 | 76 | 177 | 221 | 374 | 868 | 994 | 1770 | 3160 |
| 2026-04-19 01:30 | 12.39 | 2460 | 12900 (2013) | 7 (1956) | 875 | 32 | 76 | 177 | 221 | 374 | 868 | 994 | 1770 | 3160 |
| 2026-04-19 00:30 | 12.50 | 2500 | 12900 (2013) | 7 (1956) | 875 | 32 | 76 | 177 | 221 | 374 | 868 | 994 | 1770 | 3160 |
| 2026-04-18 23:30 | 12.59 | 2540 | 12900 (2013) | 7 (1956) | 875 | 32 | 76 | 177 | 221 | 374 | 868 | 994 | 1770 | 3160 |
| 2026-04-18 22:30 | 12.73 | 2600 | 9520 (2013) | 7 (1956) | 803 | 33 | 81 | 171 | 198 | 380 | 823 | 1110 | 1650 | 3100 |
| 2026-04-18 21:30 | 12.81 | 2630 | 9520 (2013) | 7 (1956) | 803 | 33 | 81 | 171 | 198 | 380 | 823 | 1110 | 1650 | 3100 |
| 2026-04-18 20:30 | 12.96 | 2700 | 9520 (2013) | 7 (1956) | 803 | 33 | 81 | 171 | 198 | 380 | 823 | 1110 | 1650 | 3100 |
| 2026-04-18 19:30 | 13.07 | 2750 | 9520 (2013) | 7 (1956) | 803 | 33 | 81 | 171 | 198 | 380 | 823 | 1110 | 1650 | 3100 |
| 2026-04-18 18:30 | 13.23 | 2820 | 9520 (2013) | 7 (1956) | 803 | 33 | 81 | 171 | 198 | 380 | 823 | 1110 | 1650 | 3100 |
| 2026-04-18 17:30 | 13.39 | 2890 | 9520 (2013) | 7 (1956) | 803 | 33 | 81 | 171 | 198 | 380 | 823 | 1110 | 1650 | 3100 |
| 2026-04-18 16:30 | 13.54 | 2950 | 9520 (2013) | 7 (1956) | 803 | 33 | 81 | 171 | 198 | 380 | 823 | 1110 | 1650 | 3100 |
| 2026-04-18 15:30 | 13.73 | 3040 | 9520 (2013) | 7 (1956) | 803 | 33 | 81 | 171 | 198 | 380 | 823 | 1110 | 1650 | 3100 |
| 2026-04-18 14:30 | 13.88 | 3110 | 9520 (2013) | 7 (1956) | 803 | 33 | 81 | 171 | 198 | 380 | 823 | 1110 | 1650 | 3100 |
| 2026-04-18 13:30 | 14.04 | 3180 | 9520 (2013) | 7 (1956) | 803 | 33 | 81 | 171 | 198 | 380 | 823 | 1110 | 1650 | 3100 |
| 2026-04-18 12:30 | 14.21 | 3260 | 9520 (2013) | 7 (1956) | 803 | 33 | 81 | 171 | 198 | 380 | 823 | 1110 | 1650 | 3100 |
| 2026-04-18 11:30 | 14.35 | 3330 | 9520 (2013) | 7 (1956) | 803 | 33 | 81 | 171 | 198 | 380 | 823 | 1110 | 1650 | 3100 |
| 2026-04-18 10:30 | 14.48 | 3390 | 9520 (2013) | 7 (1956) | 803 | 33 | 81 | 171 | 198 | 380 | 823 | 1110 | 1650 | 3100 |
| 2026-04-18 09:30 | 14.62 | 3450 | 9520 (2013) | 7 (1956) | 803 | 33 | 81 | 171 | 198 | 380 | 823 | 1110 | 1650 | 3100 |
| 2026-04-18 08:30 | 14.72 | 3500 | 9520 (2013) | 7 (1956) | 803 | 33 | 81 | 171 | 198 | 380 | 823 | 1110 | 1650 | 3100 |
| 2026-04-18 07:30 | 14.82 | 3550 | 9520 (2013) | 7 (1956) | 803 | 33 | 81 | 171 | 198 | 380 | 823 | 1110 | 1650 | 3100 |
| 2026-04-18 06:30 | 14.91 | 3590 | 9520 (2013) | 7 (1956) | 803 | 33 | 81 | 171 | 198 | 380 | 823 | 1110 | 1650 | 3100 |
| 2026-04-18 05:30 | 14.98 | 3630 | 9520 (2013) | 7 (1956) | 803 | 33 | 81 | 171 | 198 | 380 | 823 | 1110 | 1650 | 3100 |
| 2026-04-18 04:30 | 15.00 | 3640 | 9520 (2013) | 7 (1956) | 803 | 33 | 81 | 171 | 198 | 380 | 823 | 1110 | 1650 | 3100 |
| 2026-04-18 03:30 | 15.07 | 3670 | 9520 (2013) | 7 (1956) | 803 | 33 | 81 | 171 | 198 | 380 | 823 | 1110 | 1650 | 3100 |
| 2026-04-18 02:30 | 15.08 | 3680 | 9520 (2013) | 7 (1956) | 803 | 33 | 81 | 171 | 198 | 380 | 823 | 1110 | 1650 | 3100 |
| 2026-04-18 01:30 | 15.12 | 3700 | 9520 (2013) | 7 (1956) | 803 | 33 | 81 | 171 | 198 | 380 | 823 | 1110 | 1650 | 3100 |
| 2026-04-18 00:30 | 15.13 | 3710 | 9520 (2013) | 7 (1956) | 803 | 33 | 81 | 171 | 198 | 380 | 823 | 1110 | 1650 | 3100 |
| 2026-04-17 23:30 | 15.14 | 3710 | 9520 (2013) | 7 (1956) | 803 | 33 | 81 | 171 | 198 | 380 | 823 | 1110 | 1650 | 3100 |
| 2026-04-17 22:30 | 15.13 | 3710 | 6380 (1973) | 8 (1956) | 712 | 26 | 83 | 175 | 200 | 390 | 864 | 1080 | 1810 | 2780 |
| 2026-04-17 21:30 | 15.14 | 3710 | 6380 (1973) | 8 (1956) | 712 | 26 | 83 | 175 | 200 | 390 | 864 | 1080 | 1810 | 2780 |
| 2026-04-17 20:30 | 15.14 | 3710 | 6380 (1973) | 8 (1956) | 712 | 26 | 83 | 175 | 200 | 390 | 864 | 1080 | 1810 | 2780 |
| 2026-04-17 19:30 | 15.14 | 3710 | 6380 (1973) | 8 (1956) | 712 | 26 | 83 | 175 | 200 | 390 | 864 | 1080 | 1810 | 2780 |
| 2026-04-17 18:30 | 15.07 | 3670 | 6380 (1973) | 8 (1956) | 712 | 26 | 83 | 175 | 200 | 390 | 864 | 1080 | 1810 | 2780 |
| 2026-04-17 17:30 | 15.06 | 3670 | 6380 (1973) | 8 (1956) | 712 | 26 | 83 | 175 | 200 | 390 | 864 | 1080 | 1810 | 2780 |
| 2026-04-17 16:30 | 15.01 | 3640 | 6380 (1973) | 8 (1956) | 712 | 26 | 83 | 175 | 200 | 390 | 864 | 1080 | 1810 | 2780 |
| 2026-04-17 15:30 | 15.01 | 3640 | 6380 (1973) | 8 (1956) | 712 | 26 | 83 | 175 | 200 | 390 | 864 | 1080 | 1810 | 2780 |
| 2026-04-17 14:30 | 15.01 | 3640 | 6380 (1973) | 8 (1956) | 712 | 26 | 83 | 175 | 200 | 390 | 864 | 1080 | 1810 | 2780 |
| 2026-04-17 13:30 | 15.00 | 3640 | 6380 (1973) | 8 (1956) | 712 | 26 | 83 | 175 | 200 | 390 | 864 | 1080 | 1810 | 2780 |
| 2026-04-17 12:30 | 15.00 | 3640 | 6380 (1973) | 8 (1956) | 712 | 26 | 83 | 175 | 200 | 390 | 864 | 1080 | 1810 | 2780 |
| 2026-04-17 11:30 | 14.98 | 3630 | 6380 (1973) | 8 (1956) | 712 | 26 | 83 | 175 | 200 | 390 | 864 | 1080 | 1810 | 2780 |
| 2026-04-17 10:30 | 15.01 | 3640 | 6380 (1973) | 8 (1956) | 712 | 26 | 83 | 175 | 200 | 390 | 864 | 1080 | 1810 | 2780 |
| 2026-04-17 09:30 | 15.01 | 3640 | 6380 (1973) | 8 (1956) | 712 | 26 | 83 | 175 | 200 | 390 | 864 | 1080 | 1810 | 2780 |
| 2026-04-17 08:30 | 14.99 | 3630 | 6380 (1973) | 8 (1956) | 712 | 26 | 83 | 175 | 200 | 390 | 864 | 1080 | 1810 | 2780 |
| 2026-04-17 07:30 | 15.01 | 3640 | 6380 (1973) | 8 (1956) | 712 | 26 | 83 | 175 | 200 | 390 | 864 | 1080 | 1810 | 2780 |
| 2026-04-17 06:30 | 15.01 | 3640 | 6380 (1973) | 8 (1956) | 712 | 26 | 83 | 175 | 200 | 390 | 864 | 1080 | 1810 | 2780 |
| 2026-04-17 05:30 | 14.99 | 3630 | 6380 (1973) | 8 (1956) | 712 | 26 | 83 | 175 | 200 | 390 | 864 | 1080 | 1810 | 2780 |
| 2026-04-17 04:30 | 15.00 | 3640 | 6380 (1973) | 8 (1956) | 712 | 26 | 83 | 175 | 200 | 390 | 864 | 1080 | 1810 | 2780 |
| 2026-04-17 03:30 | 15.00 | 3640 | 6380 (1973) | 8 (1956) | 712 | 26 | 83 | 175 | 200 | 390 | 864 | 1080 | 1810 | 2780 |
| 2026-04-17 02:30 | 15.00 | 3640 | 6380 (1973) | 8 (1956) | 712 | 26 | 83 | 175 | 200 | 390 | 864 | 1080 | 1810 | 2780 |
| 2026-04-17 01:30 | 14.99 | 3630 | 6380 (1973) | 8 (1956) | 712 | 26 | 83 | 175 | 200 | 390 | 864 | 1080 | 1810 | 2780 |
| 2026-04-17 00:30 | 14.99 | 3630 | 6380 (1973) | 8 (1956) | 712 | 26 | 83 | 175 | 200 | 390 | 864 | 1080 | 1810 | 2780 |
| 2026-04-16 23:30 | 15.02 | 3650 | 6380 (1973) | 8 (1956) | 712 | 26 | 83 | 175 | 200 | 390 | 864 | 1080 | 1810 | 2780 |
| 2026-04-16 22:30 | 15.02 | 3650 | 4810 (1973) | 9 (1956) | 704 | 26 | 87 | 161 | 190 | 433 | 824 | 945 | 1650 | 3030 |
| 2026-04-16 21:30 | 15.02 | 3650 | 4810 (1973) | 9 (1956) | 704 | 26 | 87 | 161 | 190 | 433 | 824 | 945 | 1650 | 3030 |
| 2026-04-16 20:30 | 15.03 | 3650 | 4810 (1973) | 9 (1956) | 704 | 26 | 87 | 161 | 190 | 433 | 824 | 945 | 1650 | 3030 |
| 2026-04-16 19:30 | 15.03 | 3650 | 4810 (1973) | 9 (1956) | 704 | 26 | 87 | 161 | 190 | 433 | 824 | 945 | 1650 | 3030 |
| 2026-04-16 18:30 | 15.07 | 3670 | 4810 (1973) | 9 (1956) | 704 | 26 | 87 | 161 | 190 | 433 | 824 | 945 | 1650 | 3030 |
| 2026-04-16 17:30 | 15.08 | 3680 | 4810 (1973) | 9 (1956) | 704 | 26 | 87 | 161 | 190 | 433 | 824 | 945 | 1650 | 3030 |
| 2026-04-16 16:30 | 15.10 | 3690 | 4810 (1973) | 9 (1956) | 704 | 26 | 87 | 161 | 190 | 433 | 824 | 945 | 1650 | 3030 |
| 2026-04-16 15:30 | 15.14 | 3710 | 4810 (1973) | 9 (1956) | 704 | 26 | 87 | 161 | 190 | 433 | 824 | 945 | 1650 | 3030 |
| 2026-04-16 14:30 | 15.17 | 3730 | 4810 (1973) | 9 (1956) | 704 | 26 | 87 | 161 | 190 | 433 | 824 | 945 | 1650 | 3030 |
| 2026-04-16 13:30 | 15.19 | 3740 | 4810 (1973) | 9 (1956) | 704 | 26 | 87 | 161 | 190 | 433 | 824 | 945 | 1650 | 3030 |
| 2026-04-16 12:30 | 15.23 | 3760 | 4810 (1973) | 9 (1956) | 704 | 26 | 87 | 161 | 190 | 433 | 824 | 945 | 1650 | 3030 |
| 2026-04-16 11:30 | 15.28 | 3780 | 4810 (1973) | 9 (1956) | 704 | 26 | 87 | 161 | 190 | 433 | 824 | 945 | 1650 | 3030 |
| 2026-04-16 10:30 | 15.26 | 3770 | 4810 (1973) | 9 (1956) | 704 | 26 | 87 | 161 | 190 | 433 | 824 | 945 | 1650 | 3030 |
| 2026-04-16 09:30 | 15.27 | 3780 | 4810 (1973) | 9 (1956) | 704 | 26 | 87 | 161 | 190 | 433 | 824 | 945 | 1650 | 3030 |
| 2026-04-16 08:30 | 15.26 | 3770 | 4810 (1973) | 9 (1956) | 704 | 26 | 87 | 161 | 190 | 433 | 824 | 945 | 1650 | 3030 |
| 2026-04-16 07:30 | 15.19 | 3740 | 4810 (1973) | 9 (1956) | 704 | 26 | 87 | 161 | 190 | 433 | 824 | 945 | 1650 | 3030 |
| 2026-04-16 06:30 | 15.04 | 3660 | 4810 (1973) | 9 (1956) | 704 | 26 | 87 | 161 | 190 | 433 | 824 | 945 | 1650 | 3030 |
| 2026-04-16 05:30 | 14.85 | 3570 | 4810 (1973) | 9 (1956) | 704 | 26 | 87 | 161 | 190 | 433 | 824 | 945 | 1650 | 3030 |
| 2026-04-16 04:30 | 14.64 | 3460 | 4810 (1973) | 9 (1956) | 704 | 26 | 87 | 161 | 190 | 433 | 824 | 945 | 1650 | 3030 |
| 2026-04-16 03:30 | 14.38 | 3340 | 4810 (1973) | 9 (1956) | 704 | 26 | 87 | 161 | 190 | 433 | 824 | 945 | 1650 | 3030 |
| 2026-04-16 02:30 | 14.10 | 3210 | 4810 (1973) | 9 (1956) | 704 | 26 | 87 | 161 | 190 | 433 | 824 | 945 | 1650 | 3030 |
| 2026-04-16 01:30 | 13.85 | 3090 | 4810 (1973) | 9 (1956) | 704 | 26 | 87 | 161 | 190 | 433 | 824 | 945 | 1650 | 3030 |
| 2026-04-16 00:30 | 13.55 | 2960 | 4810 (1973) | 9 (1956) | 704 | 26 | 87 | 161 | 190 | 433 | 824 | 945 | 1650 | 3030 |
| 2026-04-15 23:30 | 13.19 | 2800 | 4810 (1973) | 9 (1956) | 704 | 26 | 87 | 161 | 190 | 433 | 824 | 945 | 1650 | 3030 |
| 2026-04-15 22:30 | 12.66 | 2570 | 3540 (1973) | 9 (1956) | 686 | 27 | 91 | 139 | 192 | 414 | 846 | 1110 | 1560 | 2780 |
| 2026-04-15 21:30 | 11.89 | 2250 | 3540 (1973) | 9 (1956) | 686 | 27 | 91 | 139 | 192 | 414 | 846 | 1110 | 1560 | 2780 |
| 2026-04-15 20:30 | 11.06 | 1930 | 3540 (1973) | 9 (1956) | 686 | 27 | 91 | 139 | 192 | 414 | 846 | 1110 | 1560 | 2780 |
| 2026-04-15 19:30 | 10.34 | 1670 | 3540 (1973) | 9 (1956) | 686 | 27 | 91 | 139 | 192 | 414 | 846 | 1110 | 1560 | 2780 |
| 2026-04-15 18:30 | 9.79 | 1480 | 3540 (1973) | 9 (1956) | 686 | 27 | 91 | 139 | 192 | 414 | 846 | 1110 | 1560 | 2780 |
| 2026-04-15 17:30 | 9.49 | 1380 | 3540 (1973) | 9 (1956) | 686 | 27 | 91 | 139 | 192 | 414 | 846 | 1110 | 1560 | 2780 |
| 2026-04-15 16:30 | 9.33 | 1320 | 3540 (1973) | 9 (1956) | 686 | 27 | 91 | 139 | 192 | 414 | 846 | 1110 | 1560 | 2780 |
| 2026-04-15 15:30 | 9.24 | 1290 | 3540 (1973) | 9 (1956) | 686 | 27 | 91 | 139 | 192 | 414 | 846 | 1110 | 1560 | 2780 |
| 2026-04-15 14:30 | 9.18 | 1270 | 3540 (1973) | 9 (1956) | 686 | 27 | 91 | 139 | 192 | 414 | 846 | 1110 | 1560 | 2780 |
| 2026-04-15 13:30 | 9.17 | 1270 | 3540 (1973) | 9 (1956) | 686 | 27 | 91 | 139 | 192 | 414 | 846 | 1110 | 1560 | 2780 |
| 2026-04-15 12:30 | 9.16 | 1270 | 3540 (1973) | 9 (1956) | 686 | 27 | 91 | 139 | 192 | 414 | 846 | 1110 | 1560 | 2780 |
| 2026-04-15 11:30 | 9.17 | 1270 | 3540 (1973) | 9 (1956) | 686 | 27 | 91 | 139 | 192 | 414 | 846 | 1110 | 1560 | 2780 |
| 2026-04-15 10:30 | 9.16 | 1270 | 3540 (1973) | 9 (1956) | 686 | 27 | 91 | 139 | 192 | 414 | 846 | 1110 | 1560 | 2780 |
| 2026-04-15 09:30 | 9.19 | 1280 | 3540 (1973) | 9 (1956) | 686 | 27 | 91 | 139 | 192 | 414 | 846 | 1110 | 1560 | 2780 |
| 2026-04-15 08:30 | 9.21 | 1280 | 3540 (1973) | 9 (1956) | 686 | 27 | 91 | 139 | 192 | 414 | 846 | 1110 | 1560 | 2780 |
| 2026-04-15 07:30 | 9.24 | 1290 | 3540 (1973) | 9 (1956) | 686 | 27 | 91 | 139 | 192 | 414 | 846 | 1110 | 1560 | 2780 |
| 2026-04-15 06:30 | 9.27 | 1300 | 3540 (1973) | 9 (1956) | 686 | 27 | 91 | 139 | 192 | 414 | 846 | 1110 | 1560 | 2780 |
| 2026-04-15 05:30 | 9.27 | 1300 | 3540 (1973) | 9 (1956) | 686 | 27 | 91 | 139 | 192 | 414 | 846 | 1110 | 1560 | 2780 |
| 2026-04-15 04:30 | 9.30 | 1310 | 3540 (1973) | 9 (1956) | 686 | 27 | 91 | 139 | 192 | 414 | 846 | 1110 | 1560 | 2780 |
| 2026-04-15 03:30 | 9.33 | 1320 | 3540 (1973) | 9 (1956) | 686 | 27 | 91 | 139 | 192 | 414 | 846 | 1110 | 1560 | 2780 |
| 2026-04-15 02:30 | 9.33 | 1320 | 3540 (1973) | 9 (1956) | 686 | 27 | 91 | 139 | 192 | 414 | 846 | 1110 | 1560 | 2780 |
| 2026-04-15 01:30 | 9.36 | 1330 | 3540 (1973) | 9 (1956) | 686 | 27 | 91 | 139 | 192 | 414 | 846 | 1110 | 1560 | 2780 |
| 2026-04-15 00:30 | 9.41 | 1350 | 3540 (1973) | 9 (1956) | 686 | 27 | 91 | 139 | 192 | 414 | 846 | 1110 | 1560 | 2780 |
| 2026-04-14 23:30 | 9.44 | 1360 | 3540 (1973) | 9 (1956) | 686 | 27 | 91 | 139 | 192 | 414 | 846 | 1110 | 1560 | 2780 |
| 2026-04-14 22:30 | 9.47 | 1370 | 3940 (1947) | 9 (1956) | 699 | 29 | 95 | 134 | 193 | 399 | 967 | 1070 | 1570 | 2900 |
| 2026-04-14 21:30 | 9.50 | 1380 | 3940 (1947) | 9 (1956) | 699 | 29 | 95 | 134 | 193 | 399 | 967 | 1070 | 1570 | 2900 |
| 2026-04-14 20:30 | 9.54 | 1390 | 3940 (1947) | 9 (1956) | 699 | 29 | 95 | 134 | 193 | 399 | 967 | 1070 | 1570 | 2900 |
| 2026-04-14 19:30 | 9.58 | 1410 | 3940 (1947) | 9 (1956) | 699 | 29 | 95 | 134 | 193 | 399 | 967 | 1070 | 1570 | 2900 |
| 2026-04-14 18:30 | 9.60 | 1410 | 3940 (1947) | 9 (1956) | 699 | 29 | 95 | 134 | 193 | 399 | 967 | 1070 | 1570 | 2900 |
| 2026-04-14 17:30 | 9.64 | 1430 | 3940 (1947) | 9 (1956) | 699 | 29 | 95 | 134 | 193 | 399 | 967 | 1070 | 1570 | 2900 |
| 2026-04-14 16:30 | 9.69 | 1440 | 3940 (1947) | 9 (1956) | 699 | 29 | 95 | 134 | 193 | 399 | 967 | 1070 | 1570 | 2900 |
| 2026-04-14 15:30 | 9.72 | 1450 | 3940 (1947) | 9 (1956) | 699 | 29 | 95 | 134 | 193 | 399 | 967 | 1070 | 1570 | 2900 |
| 2026-04-14 14:30 | 9.75 | 1460 | 3940 (1947) | 9 (1956) | 699 | 29 | 95 | 134 | 193 | 399 | 967 | 1070 | 1570 | 2900 |
| 2026-04-14 13:30 | 9.79 | 1480 | 3940 (1947) | 9 (1956) | 699 | 29 | 95 | 134 | 193 | 399 | 967 | 1070 | 1570 | 2900 |
| 2026-04-14 12:30 | 9.82 | 1490 | 3940 (1947) | 9 (1956) | 699 | 29 | 95 | 134 | 193 | 399 | 967 | 1070 | 1570 | 2900 |
| 2026-04-14 11:30 | 9.86 | 1500 | 3940 (1947) | 9 (1956) | 699 | 29 | 95 | 134 | 193 | 399 | 967 | 1070 | 1570 | 2900 |
| 2026-04-14 09:30 | 9.92 | 1520 | 3940 (1947) | 9 (1956) | 699 | 29 | 95 | 134 | 193 | 399 | 967 | 1070 | 1570 | 2900 |
| 2026-04-14 08:30 | 9.94 | 1530 | 3940 (1947) | 9 (1956) | 699 | 29 | 95 | 134 | 193 | 399 | 967 | 1070 | 1570 | 2900 |
| 2026-04-14 07:30 | 9.98 | 1540 | 3940 (1947) | 9 (1956) | 699 | 29 | 95 | 134 | 193 | 399 | 967 | 1070 | 1570 | 2900 |
| 2026-04-14 06:30 | 1 | 1550 | 3940 (1947) | 9 (1956) | 699 | 29 | 95 | 134 | 193 | 399 | 967 | 1070 | 1570 | 2900 |
| 2026-04-14 05:30 | 10.02 | 1560 | 3940 (1947) | 9 (1956) | 699 | 29 | 95 | 134 | 193 | 399 | 967 | 1070 | 1570 | 2900 |
| 2026-04-14 04:30 | 10.04 | 1560 | 3940 (1947) | 9 (1956) | 699 | 29 | 95 | 134 | 193 | 399 | 967 | 1070 | 1570 | 2900 |
| 2026-04-14 03:30 | 10.07 | 1570 | 3940 (1947) | 9 (1956) | 699 | 29 | 95 | 134 | 193 | 399 | 967 | 1070 | 1570 | 2900 |
| 2026-04-14 02:30 | 10.08 | 1580 | 3940 (1947) | 9 (1956) | 699 | 29 | 95 | 134 | 193 | 399 | 967 | 1070 | 1570 | 2900 |
| 2026-04-14 01:30 | 10.13 | 1590 | 3940 (1947) | 9 (1956) | 699 | 29 | 95 | 134 | 193 | 399 | 967 | 1070 | 1570 | 2900 |
| 2026-04-14 00:30 | 10.14 | 1600 | 3940 (1947) | 9 (1956) | 699 | 29 | 95 | 134 | 193 | 399 | 967 | 1070 | 1570 | 2900 |
| 2026-04-13 23:30 | 10.17 | 1610 | 3940 (1947) | 9 (1956) | 699 | 29 | 95 | 134 | 193 | 399 | 967 | 1070 | 1570 | 2900 |
| 2026-04-13 22:30 | 10.19 | 1610 | 4440 (1947) | 10 (1956) | 701 | 35 | 82 | 131 | 177 | 395 | 920 | 1100 | 1730 | 2410 |
| 2026-04-13 21:30 | 10.21 | 1620 | 4440 (1947) | 10 (1956) | 701 | 35 | 82 | 131 | 177 | 395 | 920 | 1100 | 1730 | 2410 |
| 2026-04-13 20:30 | 10.23 | 1630 | 4440 (1947) | 10 (1956) | 701 | 35 | 82 | 131 | 177 | 395 | 920 | 1100 | 1730 | 2410 |
| 2026-04-13 19:30 | 10.24 | 1630 | 4440 (1947) | 10 (1956) | 701 | 35 | 82 | 131 | 177 | 395 | 920 | 1100 | 1730 | 2410 |
| 2026-04-13 18:30 | 10.28 | 1650 | 4440 (1947) | 10 (1956) | 701 | 35 | 82 | 131 | 177 | 395 | 920 | 1100 | 1730 | 2410 |
| 2026-04-13 17:30 | 10.28 | 1650 | 4440 (1947) | 10 (1956) | 701 | 35 | 82 | 131 | 177 | 395 | 920 | 1100 | 1730 | 2410 |
| 2026-04-13 16:30 | 10.28 | 1650 | 4440 (1947) | 10 (1956) | 701 | 35 | 82 | 131 | 177 | 395 | 920 | 1100 | 1730 | 2410 |
| 2026-04-13 15:30 | 10.32 | 1660 | 4440 (1947) | 10 (1956) | 701 | 35 | 82 | 131 | 177 | 395 | 920 | 1100 | 1730 | 2410 |
| 2026-04-13 14:30 | 10.33 | 1660 | 4440 (1947) | 10 (1956) | 701 | 35 | 82 | 131 | 177 | 395 | 920 | 1100 | 1730 | 2410 |
| 2026-04-13 13:30 | 10.33 | 1660 | 4440 (1947) | 10 (1956) | 701 | 35 | 82 | 131 | 177 | 395 | 920 | 1100 | 1730 | 2410 |
| 2026-04-13 12:30 | 10.36 | 1670 | 4440 (1947) | 10 (1956) | 701 | 35 | 82 | 131 | 177 | 395 | 920 | 1100 | 1730 | 2410 |
| 2026-04-13 11:30 | 10.35 | 1670 | 4440 (1947) | 10 (1956) | 701 | 35 | 82 | 131 | 177 | 395 | 920 | 1100 | 1730 | 2410 |
| 2026-04-13 10:30 | 10.38 | 1680 | 4440 (1947) | 10 (1956) | 701 | 35 | 82 | 131 | 177 | 395 | 920 | 1100 | 1730 | 2410 |
| 2026-04-13 09:30 | 10.41 | 1690 | 4440 (1947) | 10 (1956) | 701 | 35 | 82 | 131 | 177 | 395 | 920 | 1100 | 1730 | 2410 |
| 2026-04-13 08:30 | 10.45 | 1710 | 4440 (1947) | 10 (1956) | 701 | 35 | 82 | 131 | 177 | 395 | 920 | 1100 | 1730 | 2410 |
| 2026-04-13 07:30 | 10.46 | 1710 | 4440 (1947) | 10 (1956) | 701 | 35 | 82 | 131 | 177 | 395 | 920 | 1100 | 1730 | 2410 |
| 2026-04-13 06:30 | 10.52 | 1730 | 4440 (1947) | 10 (1956) | 701 | 35 | 82 | 131 | 177 | 395 | 920 | 1100 | 1730 | 2410 |
| 2026-04-13 05:30 | 10.57 | 1750 | 4440 (1947) | 10 (1956) | 701 | 35 | 82 | 131 | 177 | 395 | 920 | 1100 | 1730 | 2410 |
| 2026-04-13 04:30 | 10.62 | 1770 | 4440 (1947) | 10 (1956) | 701 | 35 | 82 | 131 | 177 | 395 | 920 | 1100 | 1730 | 2410 |
| 2026-04-13 03:30 | 10.67 | 1790 | 4440 (1947) | 10 (1956) | 701 | 35 | 82 | 131 | 177 | 395 | 920 | 1100 | 1730 | 2410 |
| 2026-04-13 02:30 | 10.73 | 1810 | 4440 (1947) | 10 (1956) | 701 | 35 | 82 | 131 | 177 | 395 | 920 | 1100 | 1730 | 2410 |
| 2026-04-13 01:30 | 10.79 | 1830 | 4440 (1947) | 10 (1956) | 701 | 35 | 82 | 131 | 177 | 395 | 920 | 1100 | 1730 | 2410 |
| 2026-04-13 00:30 | 10.86 | 1850 | 4440 (1947) | 10 (1956) | 701 | 35 | 82 | 131 | 177 | 395 | 920 | 1100 | 1730 | 2410 |
| 2026-04-12 23:30 | 10.89 | 1870 | 4440 (1947) | 10 (1956) | 701 | 35 | 82 | 131 | 177 | 395 | 920 | 1100 | 1730 | 2410 |
| 2026-04-12 22:30 | 10.92 | 1880 | 5430 (1981) | 11 (1956) | 705 | 40 | 79 | 130 | 155 | 403 | 980 | 1080 | 1730 | 2520 |
| 2026-04-12 21:30 | 10.90 | 1870 | 5430 (1981) | 11 (1956) | 705 | 40 | 79 | 130 | 155 | 403 | 980 | 1080 | 1730 | 2520 |
| 2026-04-12 20:30 | 10.85 | 1850 | 5430 (1981) | 11 (1956) | 705 | 40 | 79 | 130 | 155 | 403 | 980 | 1080 | 1730 | 2520 |
| 2026-04-12 19:30 | 10.79 | 1830 | 5430 (1981) | 11 (1956) | 705 | 40 | 79 | 130 | 155 | 403 | 980 | 1080 | 1730 | 2520 |
| 2026-04-12 18:30 | 10.75 | 1810 | 5430 (1981) | 11 (1956) | 705 | 40 | 79 | 130 | 155 | 403 | 980 | 1080 | 1730 | 2520 |
| 2026-04-12 17:30 | 10.74 | 1810 | 5430 (1981) | 11 (1956) | 705 | 40 | 79 | 130 | 155 | 403 | 980 | 1080 | 1730 | 2520 |
| 2026-04-12 16:30 | 10.78 | 1830 | 5430 (1981) | 11 (1956) | 705 | 40 | 79 | 130 | 155 | 403 | 980 | 1080 | 1730 | 2520 |
| 2026-04-12 15:30 | 10.82 | 1840 | 5430 (1981) | 11 (1956) | 705 | 40 | 79 | 130 | 155 | 403 | 980 | 1080 | 1730 | 2520 |
| 2026-04-12 14:30 | 10.89 | 1870 | 5430 (1981) | 11 (1956) | 705 | 40 | 79 | 130 | 155 | 403 | 980 | 1080 | 1730 | 2520 |
| 2026-04-12 13:30 | 10.97 | 1900 | 5430 (1981) | 11 (1956) | 705 | 40 | 79 | 130 | 155 | 403 | 980 | 1080 | 1730 | 2520 |
| 2026-04-12 12:30 | 11.06 | 1930 | 5430 (1981) | 11 (1956) | 705 | 40 | 79 | 130 | 155 | 403 | 980 | 1080 | 1730 | 2520 |
| 2026-04-12 11:30 | 11.15 | 1960 | 5430 (1981) | 11 (1956) | 705 | 40 | 79 | 130 | 155 | 403 | 980 | 1080 | 1730 | 2520 |
| 2026-04-12 10:30 | 11.26 | 2010 | 5430 (1981) | 11 (1956) | 705 | 40 | 79 | 130 | 155 | 403 | 980 | 1080 | 1730 | 2520 |
| 2026-04-12 09:30 | 11.33 | 2030 | 5430 (1981) | 11 (1956) | 705 | 40 | 79 | 130 | 155 | 403 | 980 | 1080 | 1730 | 2520 |
| 2026-04-12 08:30 | 11.47 | 2090 | 5430 (1981) | 11 (1956) | 705 | 40 | 79 | 130 | 155 | 403 | 980 | 1080 | 1730 | 2520 |
| 2026-04-12 07:30 | 11.58 | 2130 | 5430 (1981) | 11 (1956) | 705 | 40 | 79 | 130 | 155 | 403 | 980 | 1080 | 1730 | 2520 |
| 2026-04-12 06:30 | 11.68 | 2170 | 5430 (1981) | 11 (1956) | 705 | 40 | 79 | 130 | 155 | 403 | 980 | 1080 | 1730 | 2520 |
| 2026-04-12 05:30 | 11.78 | 2210 | 5430 (1981) | 11 (1956) | 705 | 40 | 79 | 130 | 155 | 403 | 980 | 1080 | 1730 | 2520 |
| 2026-04-12 04:30 | 11.90 | 2260 | 5430 (1981) | 11 (1956) | 705 | 40 | 79 | 130 | 155 | 403 | 980 | 1080 | 1730 | 2520 |
| 2026-04-12 03:30 | 12.02 | 2300 | 5430 (1981) | 11 (1956) | 705 | 40 | 79 | 130 | 155 | 403 | 980 | 1080 | 1730 | 2520 |
| 2026-04-12 02:30 | 12.12 | 2340 | 5430 (1981) | 11 (1956) | 705 | 40 | 79 | 130 | 155 | 403 | 980 | 1080 | 1730 | 2520 |
| 2026-04-12 01:30 | 12.25 | 2400 | 5430 (1981) | 11 (1956) | 705 | 40 | 79 | 130 | 155 | 403 | 980 | 1080 | 1730 | 2520 |
| 2026-04-12 00:30 | 12.34 | 2440 | 5430 (1981) | 11 (1956) | 705 | 40 | 79 | 130 | 155 | 403 | 980 | 1080 | 1730 | 2520 |
| 2026-04-11 23:30 | 12.43 | 2470 | 5430 (1981) | 11 (1956) | 705 | 40 | 79 | 130 | 155 | 403 | 980 | 1080 | 1730 | 2520 |
| 2026-04-11 22:30 | 12.51 | 2510 | 3780 (2008) | 13 (1956) | 649 | 46 | 87 | 138 | 163 | 413 | 968 | 1190 | 1380 | 2340 |
| 2026-04-11 21:30 | 12.60 | 2540 | 3780 (2008) | 13 (1956) | 649 | 46 | 87 | 138 | 163 | 413 | 968 | 1190 | 1380 | 2340 |
| 2026-04-11 20:30 | 12.66 | 2570 | 3780 (2008) | 13 (1956) | 649 | 46 | 87 | 138 | 163 | 413 | 968 | 1190 | 1380 | 2340 |
| 2026-04-11 19:30 | 12.70 | 2590 | 3780 (2008) | 13 (1956) | 649 | 46 | 87 | 138 | 163 | 413 | 968 | 1190 | 1380 | 2340 |
| 2026-04-11 18:30 | 12.73 | 2600 | 3780 (2008) | 13 (1956) | 649 | 46 | 87 | 138 | 163 | 413 | 968 | 1190 | 1380 | 2340 |
| 2026-04-11 17:30 | 12.79 | 2620 | 3780 (2008) | 13 (1956) | 649 | 46 | 87 | 138 | 163 | 413 | 968 | 1190 | 1380 | 2340 |
| 2026-04-11 16:30 | 12.76 | 2610 | 3780 (2008) | 13 (1956) | 649 | 46 | 87 | 138 | 163 | 413 | 968 | 1190 | 1380 | 2340 |
| 2026-04-11 15:30 | 12.76 | 2610 | 3780 (2008) | 13 (1956) | 649 | 46 | 87 | 138 | 163 | 413 | 968 | 1190 | 1380 | 2340 |
| 2026-04-11 14:30 | 12.69 | 2580 | 3780 (2008) | 13 (1956) | 649 | 46 | 87 | 138 | 163 | 413 | 968 | 1190 | 1380 | 2340 |
| 2026-04-11 13:30 | 12.65 | 2570 | 3780 (2008) | 13 (1956) | 649 | 46 | 87 | 138 | 163 | 413 | 968 | 1190 | 1380 | 2340 |
| 2026-04-11 12:30 | 12.58 | 2540 | 3780 (2008) | 13 (1956) | 649 | 46 | 87 | 138 | 163 | 413 | 968 | 1190 | 1380 | 2340 |
| 2026-04-11 11:30 | 12.49 | 2500 | 3780 (2008) | 13 (1956) | 649 | 46 | 87 | 138 | 163 | 413 | 968 | 1190 | 1380 | 2340 |
| 2026-04-11 10:30 | 12.37 | 2450 | 3780 (2008) | 13 (1956) | 649 | 46 | 87 | 138 | 163 | 413 | 968 | 1190 | 1380 | 2340 |
| 2026-04-11 09:30 | 12.24 | 2390 | 3780 (2008) | 13 (1956) | 649 | 46 | 87 | 138 | 163 | 413 | 968 | 1190 | 1380 | 2340 |
| 2026-04-11 08:30 | 12.09 | 2330 | 3780 (2008) | 13 (1956) | 649 | 46 | 87 | 138 | 163 | 413 | 968 | 1190 | 1380 | 2340 |
| 2026-04-11 07:30 | 11.92 | 2260 | 3780 (2008) | 13 (1956) | 649 | 46 | 87 | 138 | 163 | 413 | 968 | 1190 | 1380 | 2340 |
| 2026-04-11 06:30 | 11.73 | 2190 | 3780 (2008) | 13 (1956) | 649 | 46 | 87 | 138 | 163 | 413 | 968 | 1190 | 1380 | 2340 |
| 2026-04-11 05:30 | 11.51 | 2100 | 3780 (2008) | 13 (1956) | 649 | 46 | 87 | 138 | 163 | 413 | 968 | 1190 | 1380 | 2340 |
| 2026-04-11 04:30 | 11.29 | 2020 | 3780 (2008) | 13 (1956) | 649 | 46 | 87 | 138 | 163 | 413 | 968 | 1190 | 1380 | 2340 |
| 2026-04-11 03:30 | 11.06 | 1930 | 3780 (2008) | 13 (1956) | 649 | 46 | 87 | 138 | 163 | 413 | 968 | 1190 | 1380 | 2340 |
| 2026-04-11 02:30 | 10.86 | 1850 | 3780 (2008) | 13 (1956) | 649 | 46 | 87 | 138 | 163 | 413 | 968 | 1190 | 1380 | 2340 |
| 2026-04-11 01:30 | 10.58 | 1750 | 3780 (2008) | 13 (1956) | 649 | 46 | 87 | 138 | 163 | 413 | 968 | 1190 | 1380 | 2340 |
| 2026-04-11 00:30 | 10.40 | 1690 | 3780 (2008) | 13 (1956) | 649 | 46 | 87 | 138 | 163 | 413 | 968 | 1190 | 1380 | 2340 |
| 2026-04-10 23:30 | 10.13 | 1590 | 3780 (2008) | 13 (1956) | 649 | 46 | 87 | 138 | 163 | 413 | 968 | 1190 | 1380 | 2340 |
| 2026-04-10 22:30 | 9.90 | 1510 | 2870 (1983) | 14 (1956) | 559 | 45 | 88 | 139 | 165 | 427 | 696 | 849 | 1410 | 1650 |
| 2026-04-10 21:30 | 9.67 | 1440 | 2870 (1983) | 14 (1956) | 559 | 45 | 88 | 139 | 165 | 427 | 696 | 849 | 1410 | 1650 |
| 2026-04-10 20:30 | 9.45 | 1360 | 2870 (1983) | 14 (1956) | 559 | 45 | 88 | 139 | 165 | 427 | 696 | 849 | 1410 | 1650 |
| 2026-04-10 19:30 | 9.23 | 1290 | 2870 (1983) | 14 (1956) | 559 | 45 | 88 | 139 | 165 | 427 | 696 | 849 | 1410 | 1650 |
| 2026-04-10 18:30 | 9.03 | 1220 | 2870 (1983) | 14 (1956) | 559 | 45 | 88 | 139 | 165 | 427 | 696 | 849 | 1410 | 1650 |
| 2026-04-10 17:30 | 8.86 | 1170 | 2870 (1983) | 14 (1956) | 559 | 45 | 88 | 139 | 165 | 427 | 696 | 849 | 1410 | 1650 |
| 2026-04-10 16:30 | 8.65 | 1100 | 2870 (1983) | 14 (1956) | 559 | 45 | 88 | 139 | 165 | 427 | 696 | 849 | 1410 | 1650 |
| 2026-04-10 15:30 | 8.47 | 1050 | 2870 (1983) | 14 (1956) | 559 | 45 | 88 | 139 | 165 | 427 | 696 | 849 | 1410 | 1650 |
| 2026-04-10 14:30 | 8.29 | 991 | 2870 (1983) | 14 (1956) | 559 | 45 | 88 | 139 | 165 | 427 | 696 | 849 | 1410 | 1650 |
| 2026-04-10 13:30 | 8.13 | 943 | 2870 (1983) | 14 (1956) | 559 | 45 | 88 | 139 | 165 | 427 | 696 | 849 | 1410 | 1650 |
| 2026-04-10 12:30 | 7.93 | 885 | 2870 (1983) | 14 (1956) | 559 | 45 | 88 | 139 | 165 | 427 | 696 | 849 | 1410 | 1650 |
| 2026-04-10 11:30 | 7.72 | 826 | 2870 (1983) | 14 (1956) | 559 | 45 | 88 | 139 | 165 | 427 | 696 | 849 | 1410 | 1650 |
| 2026-04-10 10:30 | 7.54 | 777 | 2870 (1983) | 14 (1956) | 559 | 45 | 88 | 139 | 165 | 427 | 696 | 849 | 1410 | 1650 |
| 2026-04-10 09:30 | 7.40 | 739 | 2870 (1983) | 14 (1956) | 559 | 45 | 88 | 139 | 165 | 427 | 696 | 849 | 1410 | 1650 |
| 2026-04-10 08:30 | 7.33 | 721 | 2870 (1983) | 14 (1956) | 559 | 45 | 88 | 139 | 165 | 427 | 696 | 849 | 1410 | 1650 |
| 2026-04-10 07:30 | 7.31 | 715 | 2870 (1983) | 14 (1956) | 559 | 45 | 88 | 139 | 165 | 427 | 696 | 849 | 1410 | 1650 |
| 2026-04-10 06:30 | 7.30 | 713 | 2870 (1983) | 14 (1956) | 559 | 45 | 88 | 139 | 165 | 427 | 696 | 849 | 1410 | 1650 |
| 2026-04-10 05:30 | 7.27 | 705 | 2870 (1983) | 14 (1956) | 559 | 45 | 88 | 139 | 165 | 427 | 696 | 849 | 1410 | 1650 |
| 2026-04-10 04:30 | 7.25 | 700 | 2870 (1983) | 14 (1956) | 559 | 45 | 88 | 139 | 165 | 427 | 696 | 849 | 1410 | 1650 |
| 2026-04-10 03:30 | 7.20 | 687 | 2870 (1983) | 14 (1956) | 559 | 45 | 88 | 139 | 165 | 427 | 696 | 849 | 1410 | 1650 |
| 2026-04-10 02:30 | 7.16 | 677 | 2870 (1983) | 14 (1956) | 559 | 45 | 88 | 139 | 165 | 427 | 696 | 849 | 1410 | 1650 |
| 2026-04-10 01:30 | 7.14 | 672 | 2870 (1983) | 14 (1956) | 559 | 45 | 88 | 139 | 165 | 427 | 696 | 849 | 1410 | 1650 |
| 2026-04-10 00:30 | 7.09 | 659 | 2870 (1983) | 14 (1956) | 559 | 45 | 88 | 139 | 165 | 427 | 696 | 849 | 1410 | 1650 |
| 2026-04-09 23:30 | 7.05 | 649 | 2870 (1983) | 14 (1956) | 559 | 45 | 88 | 139 | 165 | 427 | 696 | 849 | 1410 | 1650 |
| 2026-04-09 22:30 | 7.02 | 641 | 2650 (1965) | 15 (1956) | 562 | 50 | 80 | 151 | 170 | 425 | 736 | 859 | 1390 | 1910 |
| 2026-04-09 21:30 | 7.05 | 649 | 2650 (1965) | 15 (1956) | 562 | 50 | 80 | 151 | 170 | 425 | 736 | 859 | 1390 | 1910 |
| 2026-04-09 20:30 | 7.04 | 646 | 2650 (1965) | 15 (1956) | 562 | 50 | 80 | 151 | 170 | 425 | 736 | 859 | 1390 | 1910 |
| 2026-04-09 19:30 | 7.05 | 649 | 2650 (1965) | 15 (1956) | 562 | 50 | 80 | 151 | 170 | 425 | 736 | 859 | 1390 | 1910 |
| 2026-04-09 18:30 | 7.05 | 649 | 2650 (1965) | 15 (1956) | 562 | 50 | 80 | 151 | 170 | 425 | 736 | 859 | 1390 | 1910 |
| 2026-04-09 17:30 | 7.08 | 656 | 2650 (1965) | 15 (1956) | 562 | 50 | 80 | 151 | 170 | 425 | 736 | 859 | 1390 | 1910 |
| 2026-04-09 16:30 | 7.10 | 661 | 2650 (1965) | 15 (1956) | 562 | 50 | 80 | 151 | 170 | 425 | 736 | 859 | 1390 | 1910 |
| 2026-04-09 15:30 | 7.09 | 659 | 2650 (1965) | 15 (1956) | 562 | 50 | 80 | 151 | 170 | 425 | 736 | 859 | 1390 | 1910 |
| 2026-04-09 14:30 | 7.13 | 669 | 2650 (1965) | 15 (1956) | 562 | 50 | 80 | 151 | 170 | 425 | 736 | 859 | 1390 | 1910 |
| 2026-04-09 13:30 | 7.11 | 664 | 2650 (1965) | 15 (1956) | 562 | 50 | 80 | 151 | 170 | 425 | 736 | 859 | 1390 | 1910 |
| 2026-04-09 12:30 | 7.12 | 666 | 2650 (1965) | 15 (1956) | 562 | 50 | 80 | 151 | 170 | 425 | 736 | 859 | 1390 | 1910 |
| 2026-04-09 11:30 | 7.15 | 674 | 2650 (1965) | 15 (1956) | 562 | 50 | 80 | 151 | 170 | 425 | 736 | 859 | 1390 | 1910 |
| 2026-04-09 10:30 | 7.19 | 684 | 2650 (1965) | 15 (1956) | 562 | 50 | 80 | 151 | 170 | 425 | 736 | 859 | 1390 | 1910 |
| 2026-04-09 09:30 | 7.17 | 679 | 2650 (1965) | 15 (1956) | 562 | 50 | 80 | 151 | 170 | 425 | 736 | 859 | 1390 | 1910 |
| 2026-04-09 08:30 | 7.18 | 682 | 2650 (1965) | 15 (1956) | 562 | 50 | 80 | 151 | 170 | 425 | 736 | 859 | 1390 | 1910 |
| 2026-04-09 07:30 | 7.20 | 687 | 2650 (1965) | 15 (1956) | 562 | 50 | 80 | 151 | 170 | 425 | 736 | 859 | 1390 | 1910 |
| 2026-04-09 06:30 | 7.21 | 689 | 2650 (1965) | 15 (1956) | 562 | 50 | 80 | 151 | 170 | 425 | 736 | 859 | 1390 | 1910 |
| 2026-04-09 05:30 | 7.23 | 695 | 2650 (1965) | 15 (1956) | 562 | 50 | 80 | 151 | 170 | 425 | 736 | 859 | 1390 | 1910 |
| 2026-04-09 04:30 | 7.23 | 695 | 2650 (1965) | 15 (1956) | 562 | 50 | 80 | 151 | 170 | 425 | 736 | 859 | 1390 | 1910 |
| 2026-04-09 03:30 | 7.26 | 702 | 2650 (1965) | 15 (1956) | 562 | 50 | 80 | 151 | 170 | 425 | 736 | 859 | 1390 | 1910 |
| 2026-04-09 02:30 | 7.29 | 710 | 2650 (1965) | 15 (1956) | 562 | 50 | 80 | 151 | 170 | 425 | 736 | 859 | 1390 | 1910 |
| 2026-04-09 01:30 | 7.28 | 708 | 2650 (1965) | 15 (1956) | 562 | 50 | 80 | 151 | 170 | 425 | 736 | 859 | 1390 | 1910 |
| 2026-04-09 00:30 | 7.32 | 718 | 2650 (1965) | 15 (1956) | 562 | 50 | 80 | 151 | 170 | 425 | 736 | 859 | 1390 | 1910 |
| 2026-04-08 23:30 | 7.33 | 721 | 2650 (1965) | 15 (1956) | 562 | 50 | 80 | 151 | 170 | 425 | 736 | 859 | 1390 | 1910 |
| 2026-04-08 22:30 | 7.35 | 726 | 4290 (1965) | 16 (1956) | 600 | 44 | 82 | 154 | 174 | 391 | 697 | 842 | 1260 | 1810 |
| 2026-04-08 21:30 | 7.37 | 731 | 4290 (1965) | 16 (1956) | 600 | 44 | 82 | 154 | 174 | 391 | 697 | 842 | 1260 | 1810 |
| 2026-04-08 20:30 | 7.37 | 731 | 4290 (1965) | 16 (1956) | 600 | 44 | 82 | 154 | 174 | 391 | 697 | 842 | 1260 | 1810 |
| 2026-04-08 19:30 | 7.38 | 734 | 4290 (1965) | 16 (1956) | 600 | 44 | 82 | 154 | 174 | 391 | 697 | 842 | 1260 | 1810 |
| 2026-04-08 18:30 | 7.42 | 745 | 4290 (1965) | 16 (1956) | 600 | 44 | 82 | 154 | 174 | 391 | 697 | 842 | 1260 | 1810 |
| 2026-04-08 17:30 | 7.43 | 747 | 4290 (1965) | 16 (1956) | 600 | 44 | 82 | 154 | 174 | 391 | 697 | 842 | 1260 | 1810 |
| 2026-04-08 16:30 | 7.44 | 750 | 4290 (1965) | 16 (1956) | 600 | 44 | 82 | 154 | 174 | 391 | 697 | 842 | 1260 | 1810 |
| 2026-04-08 15:30 | 7.48 | 761 | 4290 (1965) | 16 (1956) | 600 | 44 | 82 | 154 | 174 | 391 | 697 | 842 | 1260 | 1810 |
| 2026-04-08 14:30 | 7.47 | 758 | 4290 (1965) | 16 (1956) | 600 | 44 | 82 | 154 | 174 | 391 | 697 | 842 | 1260 | 1810 |
| 2026-04-08 13:30 | 7.50 | 766 | 4290 (1965) | 16 (1956) | 600 | 44 | 82 | 154 | 174 | 391 | 697 | 842 | 1260 | 1810 |
| 2026-04-08 12:30 | 7.52 | 771 | 4290 (1965) | 16 (1956) | 600 | 44 | 82 | 154 | 174 | 391 | 697 | 842 | 1260 | 1810 |
| 2026-04-08 11:30 | 7.55 | 779 | 4290 (1965) | 16 (1956) | 600 | 44 | 82 | 154 | 174 | 391 | 697 | 842 | 1260 | 1810 |
| 2026-04-08 10:30 | 7.55 | 779 | 4290 (1965) | 16 (1956) | 600 | 44 | 82 | 154 | 174 | 391 | 697 | 842 | 1260 | 1810 |
| 2026-04-08 09:30 | 7.60 | 793 | 4290 (1965) | 16 (1956) | 600 | 44 | 82 | 154 | 174 | 391 | 697 | 842 | 1260 | 1810 |
| 2026-04-08 08:30 | 7.61 | 796 | 4290 (1965) | 16 (1956) | 600 | 44 | 82 | 154 | 174 | 391 | 697 | 842 | 1260 | 1810 |
| 2026-04-08 07:30 | 7.63 | 801 | 4290 (1965) | 16 (1956) | 600 | 44 | 82 | 154 | 174 | 391 | 697 | 842 | 1260 | 1810 |
| 2026-04-08 06:30 | 7.67 | 812 | 4290 (1965) | 16 (1956) | 600 | 44 | 82 | 154 | 174 | 391 | 697 | 842 | 1260 | 1810 |
| 2026-04-08 05:30 | 7.69 | 818 | 4290 (1965) | 16 (1956) | 600 | 44 | 82 | 154 | 174 | 391 | 697 | 842 | 1260 | 1810 |
| 2026-04-08 04:30 | 7.72 | 826 | 4290 (1965) | 16 (1956) | 600 | 44 | 82 | 154 | 174 | 391 | 697 | 842 | 1260 | 1810 |
| 2026-04-08 03:30 | 7.75 | 834 | 4290 (1965) | 16 (1956) | 600 | 44 | 82 | 154 | 174 | 391 | 697 | 842 | 1260 | 1810 |
| 2026-04-08 02:30 | 7.79 | 846 | 4290 (1965) | 16 (1956) | 600 | 44 | 82 | 154 | 174 | 391 | 697 | 842 | 1260 | 1810 |
| 2026-04-08 01:30 | 7.81 | 851 | 4290 (1965) | 16 (1956) | 600 | 44 | 82 | 154 | 174 | 391 | 697 | 842 | 1260 | 1810 |
| 2026-04-08 00:30 | 7.81 | 851 | 4290 (1965) | 16 (1956) | 600 | 44 | 82 | 154 | 174 | 391 | 697 | 842 | 1260 | 1810 |
| 2026-04-07 23:30 | 7.85 | 863 | 4290 (1965) | 16 (1956) | 600 | 44 | 82 | 154 | 174 | 391 | 697 | 842 | 1260 | 1810 |
| 2026-04-07 22:30 | 7.88 | 871 | 4420 (1947) | 17 (1956) | 622 | 44 | 90 | 166 | 192 | 394 | 742 | 869 | 1340 | 2780 |
| 2026-04-07 21:30 | 7.91 | 880 | 4420 (1947) | 17 (1956) | 622 | 44 | 90 | 166 | 192 | 394 | 742 | 869 | 1340 | 2780 |
| 2026-04-07 20:30 | 7.92 | 883 | 4420 (1947) | 17 (1956) | 622 | 44 | 90 | 166 | 192 | 394 | 742 | 869 | 1340 | 2780 |
| 2026-04-07 19:30 | 7.99 | 903 | 4420 (1947) | 17 (1956) | 622 | 44 | 90 | 166 | 192 | 394 | 742 | 869 | 1340 | 2780 |
| 2026-04-07 18:30 | 8.00 | 905 | 4420 (1947) | 17 (1956) | 622 | 44 | 90 | 166 | 192 | 394 | 742 | 869 | 1340 | 2780 |
| 2026-04-07 17:30 | 8.03 | 914 | 4420 (1947) | 17 (1956) | 622 | 44 | 90 | 166 | 192 | 394 | 742 | 869 | 1340 | 2780 |
| 2026-04-07 16:30 | 8.07 | 926 | 4420 (1947) | 17 (1956) | 622 | 44 | 90 | 166 | 192 | 394 | 742 | 869 | 1340 | 2780 |
| 2026-04-07 15:30 | 8.10 | 935 | 4420 (1947) | 17 (1956) | 622 | 44 | 90 | 166 | 192 | 394 | 742 | 869 | 1340 | 2780 |
| 2026-04-07 14:30 | 8.13 | 943 | 4420 (1947) | 17 (1956) | 622 | 44 | 90 | 166 | 192 | 394 | 742 | 869 | 1340 | 2780 |
| 2026-04-07 13:30 | 8.18 | 958 | 4420 (1947) | 17 (1956) | 622 | 44 | 90 | 166 | 192 | 394 | 742 | 869 | 1340 | 2780 |
| 2026-04-07 12:30 | 8.21 | 967 | 4420 (1947) | 17 (1956) | 622 | 44 | 90 | 166 | 192 | 394 | 742 | 869 | 1340 | 2780 |
| 2026-04-07 11:30 | 8.25 | 979 | 4420 (1947) | 17 (1956) | 622 | 44 | 90 | 166 | 192 | 394 | 742 | 869 | 1340 | 2780 |
| 2026-04-07 10:30 | 8.26 | 982 | 4420 (1947) | 17 (1956) | 622 | 44 | 90 | 166 | 192 | 394 | 742 | 869 | 1340 | 2780 |
| 2026-04-07 09:30 | 8.31 | 997 | 4420 (1947) | 17 (1956) | 622 | 44 | 90 | 166 | 192 | 394 | 742 | 869 | 1340 | 2780 |
| 2026-04-07 08:30 | 8.35 | 1010 | 4420 (1947) | 17 (1956) | 622 | 44 | 90 | 166 | 192 | 394 | 742 | 869 | 1340 | 2780 |
| 2026-04-07 07:30 | 8.39 | 1020 | 4420 (1947) | 17 (1956) | 622 | 44 | 90 | 166 | 192 | 394 | 742 | 869 | 1340 | 2780 |
| 2026-04-07 06:30 | 8.43 | 1030 | 4420 (1947) | 17 (1956) | 622 | 44 | 90 | 166 | 192 | 394 | 742 | 869 | 1340 | 2780 |
| 2026-04-07 05:30 | 8.47 | 1050 | 4420 (1947) | 17 (1956) | 622 | 44 | 90 | 166 | 192 | 394 | 742 | 869 | 1340 | 2780 |
| 2026-04-07 04:30 | 8.52 | 1060 | 4420 (1947) | 17 (1956) | 622 | 44 | 90 | 166 | 192 | 394 | 742 | 869 | 1340 | 2780 |
| 2026-04-07 03:30 | 8.58 | 1080 | 4420 (1947) | 17 (1956) | 622 | 44 | 90 | 166 | 192 | 394 | 742 | 869 | 1340 | 2780 |
| 2026-04-07 02:30 | 8.63 | 1090 | 4420 (1947) | 17 (1956) | 622 | 44 | 90 | 166 | 192 | 394 | 742 | 869 | 1340 | 2780 |
| 2026-04-07 01:30 | 8.68 | 1110 | 4420 (1947) | 17 (1956) | 622 | 44 | 90 | 166 | 192 | 394 | 742 | 869 | 1340 | 2780 |
| 2026-04-07 00:30 | 8.71 | 1120 | 4420 (1947) | 17 (1956) | 622 | 44 | 90 | 166 | 192 | 394 | 742 | 869 | 1340 | 2780 |
| 2026-04-06 23:30 | 8.76 | 1140 | 4420 (1947) | 17 (1956) | 622 | 44 | 90 | 166 | 192 | 394 | 742 | 869 | 1340 | 2780 |
| 2026-04-06 22:30 | 8.83 | 1160 | 5000 (1947) | 16 (1956) | 696 | 63 | 94 | 168 | 197 | 418 | 781 | 1010 | 1620 | 3170 |
| 2026-04-06 21:30 | 8.87 | 1170 | 5000 (1947) | 16 (1956) | 696 | 63 | 94 | 168 | 197 | 418 | 781 | 1010 | 1620 | 3170 |
| 2026-04-06 20:30 | 8.94 | 1190 | 5000 (1947) | 16 (1956) | 696 | 63 | 94 | 168 | 197 | 418 | 781 | 1010 | 1620 | 3170 |
| 2026-04-06 19:30 | 8.99 | 1210 | 5000 (1947) | 16 (1956) | 696 | 63 | 94 | 168 | 197 | 418 | 781 | 1010 | 1620 | 3170 |
| 2026-04-06 18:30 | 9.02 | 1220 | 5000 (1947) | 16 (1956) | 696 | 63 | 94 | 168 | 197 | 418 | 781 | 1010 | 1620 | 3170 |
| 2026-04-06 17:30 | 9.09 | 1240 | 5000 (1947) | 16 (1956) | 696 | 63 | 94 | 168 | 197 | 418 | 781 | 1010 | 1620 | 3170 |
| 2026-04-06 16:30 | 9.16 | 1270 | 5000 (1947) | 16 (1956) | 696 | 63 | 94 | 168 | 197 | 418 | 781 | 1010 | 1620 | 3170 |
| 2026-04-06 15:30 | 9.24 | 1290 | 5000 (1947) | 16 (1956) | 696 | 63 | 94 | 168 | 197 | 418 | 781 | 1010 | 1620 | 3170 |
| 2026-04-06 14:30 | 9.31 | 1320 | 5000 (1947) | 16 (1956) | 696 | 63 | 94 | 168 | 197 | 418 | 781 | 1010 | 1620 | 3170 |
| 2026-04-06 13:30 | 9.35 | 1330 | 5000 (1947) | 16 (1956) | 696 | 63 | 94 | 168 | 197 | 418 | 781 | 1010 | 1620 | 3170 |
| 2026-04-06 12:30 | 9.43 | 1360 | 5000 (1947) | 16 (1956) | 696 | 63 | 94 | 168 | 197 | 418 | 781 | 1010 | 1620 | 3170 |
| 2026-04-06 11:30 | 9.50 | 1380 | 5000 (1947) | 16 (1956) | 696 | 63 | 94 | 168 | 197 | 418 | 781 | 1010 | 1620 | 3170 |
| 2026-04-06 10:30 | 9.58 | 1410 | 5000 (1947) | 16 (1956) | 696 | 63 | 94 | 168 | 197 | 418 | 781 | 1010 | 1620 | 3170 |
| 2026-04-06 09:30 | 9.65 | 1430 | 5000 (1947) | 16 (1956) | 696 | 63 | 94 | 168 | 197 | 418 | 781 | 1010 | 1620 | 3170 |
| 2026-04-06 08:30 | 9.71 | 1450 | 5000 (1947) | 16 (1956) | 696 | 63 | 94 | 168 | 197 | 418 | 781 | 1010 | 1620 | 3170 |
| 2026-04-06 07:30 | 9.78 | 1470 | 5000 (1947) | 16 (1956) | 696 | 63 | 94 | 168 | 197 | 418 | 781 | 1010 | 1620 | 3170 |
| 2026-04-06 06:30 | 9.87 | 1500 | 5000 (1947) | 16 (1956) | 696 | 63 | 94 | 168 | 197 | 418 | 781 | 1010 | 1620 | 3170 |
| 2026-04-06 05:30 | 9.94 | 1530 | 5000 (1947) | 16 (1956) | 696 | 63 | 94 | 168 | 197 | 418 | 781 | 1010 | 1620 | 3170 |
| 2026-04-06 04:30 | 10.01 | 1550 | 5000 (1947) | 16 (1956) | 696 | 63 | 94 | 168 | 197 | 418 | 781 | 1010 | 1620 | 3170 |
| 2026-04-06 03:30 | 10.09 | 1580 | 5000 (1947) | 16 (1956) | 696 | 63 | 94 | 168 | 197 | 418 | 781 | 1010 | 1620 | 3170 |
| 2026-04-06 02:30 | 10.18 | 1610 | 5000 (1947) | 16 (1956) | 696 | 63 | 94 | 168 | 197 | 418 | 781 | 1010 | 1620 | 3170 |
| 2026-04-06 01:30 | 10.22 | 1620 | 5000 (1947) | 16 (1956) | 696 | 63 | 94 | 168 | 197 | 418 | 781 | 1010 | 1620 | 3170 |
| 2026-04-06 00:30 | 10.28 | 1650 | 5000 (1947) | 16 (1956) | 696 | 63 | 94 | 168 | 197 | 418 | 781 | 1010 | 1620 | 3170 |
| 2026-04-05 23:30 | 10.35 | 1670 | 5000 (1947) | 16 (1956) | 696 | 63 | 94 | 168 | 197 | 418 | 781 | 1010 | 1620 | 3170 |
| 2026-04-05 22:30 | 10.37 | 1680 | 4180 (1983) | 14 (1956) | 719 | 47 | 94 | 170 | 191 | 413 | 814 | 1090 | 1850 | 3250 |
| 2026-04-05 21:30 | 10.42 | 1700 | 4180 (1983) | 14 (1956) | 719 | 47 | 94 | 170 | 191 | 413 | 814 | 1090 | 1850 | 3250 |
| 2026-04-05 20:30 | 10.45 | 1710 | 4180 (1983) | 14 (1956) | 719 | 47 | 94 | 170 | 191 | 413 | 814 | 1090 | 1850 | 3250 |
| 2026-04-05 19:30 | 10.47 | 1710 | 4180 (1983) | 14 (1956) | 719 | 47 | 94 | 170 | 191 | 413 | 814 | 1090 | 1850 | 3250 |
| 2026-04-05 18:30 | 10.49 | 1720 | 4180 (1983) | 14 (1956) | 719 | 47 | 94 | 170 | 191 | 413 | 814 | 1090 | 1850 | 3250 |
| 2026-04-05 17:30 | 10.48 | 1720 | 4180 (1983) | 14 (1956) | 719 | 47 | 94 | 170 | 191 | 413 | 814 | 1090 | 1850 | 3250 |
| 2026-04-05 16:30 | 10.46 | 1710 | 4180 (1983) | 14 (1956) | 719 | 47 | 94 | 170 | 191 | 413 | 814 | 1090 | 1850 | 3250 |
| 2026-04-05 15:30 | 10.45 | 1710 | 4180 (1983) | 14 (1956) | 719 | 47 | 94 | 170 | 191 | 413 | 814 | 1090 | 1850 | 3250 |
| 2026-04-05 14:30 | 10.41 | 1690 | 4180 (1983) | 14 (1956) | 719 | 47 | 94 | 170 | 191 | 413 | 814 | 1090 | 1850 | 3250 |
| 2026-04-05 13:30 | 10.36 | 1670 | 4180 (1983) | 14 (1956) | 719 | 47 | 94 | 170 | 191 | 413 | 814 | 1090 | 1850 | 3250 |
| 2026-04-05 12:30 | 10.27 | 1640 | 4180 (1983) | 14 (1956) | 719 | 47 | 94 | 170 | 191 | 413 | 814 | 1090 | 1850 | 3250 |
| 2026-04-05 11:30 | 10.15 | 1600 | 4180 (1983) | 14 (1956) | 719 | 47 | 94 | 170 | 191 | 413 | 814 | 1090 | 1850 | 3250 |
| 2026-04-05 10:30 | 10.02 | 1560 | 4180 (1983) | 14 (1956) | 719 | 47 | 94 | 170 | 191 | 413 | 814 | 1090 | 1850 | 3250 |
| 2026-04-05 09:30 | 9.91 | 1520 | 4180 (1983) | 14 (1956) | 719 | 47 | 94 | 170 | 191 | 413 | 814 | 1090 | 1850 | 3250 |
| 2026-04-05 08:30 | 9.76 | 1470 | 4180 (1983) | 14 (1956) | 719 | 47 | 94 | 170 | 191 | 413 | 814 | 1090 | 1850 | 3250 |
| 2026-04-05 07:30 | 9.57 | 1400 | 4180 (1983) | 14 (1956) | 719 | 47 | 94 | 170 | 191 | 413 | 814 | 1090 | 1850 | 3250 |
| 2026-04-05 06:30 | 9.40 | 1350 | 4180 (1983) | 14 (1956) | 719 | 47 | 94 | 170 | 191 | 413 | 814 | 1090 | 1850 | 3250 |
| 2026-04-05 05:30 | 9.21 | 1280 | 4180 (1983) | 14 (1956) | 719 | 47 | 94 | 170 | 191 | 413 | 814 | 1090 | 1850 | 3250 |
| 2026-04-05 04:30 | 9.02 | 1220 | 4180 (1983) | 14 (1956) | 719 | 47 | 94 | 170 | 191 | 413 | 814 | 1090 | 1850 | 3250 |
| 2026-04-05 03:30 | 8.82 | 1160 | 4180 (1983) | 14 (1956) | 719 | 47 | 94 | 170 | 191 | 413 | 814 | 1090 | 1850 | 3250 |
| 2026-04-05 02:30 | 8.64 | 1100 | 4180 (1983) | 14 (1956) | 719 | 47 | 94 | 170 | 191 | 413 | 814 | 1090 | 1850 | 3250 |
| 2026-04-05 01:30 | 8.51 | 1060 | 4180 (1983) | 14 (1956) | 719 | 47 | 94 | 170 | 191 | 413 | 814 | 1090 | 1850 | 3250 |
| 2026-04-05 00:30 | 8.39 | 1020 | 4180 (1983) | 14 (1956) | 719 | 47 | 94 | 170 | 191 | 413 | 814 | 1090 | 1850 | 3250 |
| 2026-04-04 23:30 | 8.29 | 991 | 4180 (1983) | 14 (1956) | 719 | 47 | 94 | 170 | 191 | 413 | 814 | 1090 | 1850 | 3250 |
| 2026-04-04 22:30 | 8.21 | 967 | 4750 (1993) | 15 (1956) | 742 | 47 | 94 | 167 | 195 | 419 | 825 | 1040 | 1650 | 3810 |
| 2026-04-04 21:30 | 8.17 | 955 | 4750 (1993) | 15 (1956) | 742 | 47 | 94 | 167 | 195 | 419 | 825 | 1040 | 1650 | 3810 |
| 2026-04-04 20:30 | 8.14 | 946 | 4750 (1993) | 15 (1956) | 742 | 47 | 94 | 167 | 195 | 419 | 825 | 1040 | 1650 | 3810 |
| 2026-04-04 19:30 | 8.14 | 946 | 4750 (1993) | 15 (1956) | 742 | 47 | 94 | 167 | 195 | 419 | 825 | 1040 | 1650 | 3810 |
| 2026-04-04 18:30 | 8.11 | 937 | 4750 (1993) | 15 (1956) | 742 | 47 | 94 | 167 | 195 | 419 | 825 | 1040 | 1650 | 3810 |
| 2026-04-04 17:30 | 8.11 | 937 | 4750 (1993) | 15 (1956) | 742 | 47 | 94 | 167 | 195 | 419 | 825 | 1040 | 1650 | 3810 |
| 2026-04-04 16:30 | 8.12 | 940 | 4750 (1993) | 15 (1956) | 742 | 47 | 94 | 167 | 195 | 419 | 825 | 1040 | 1650 | 3810 |
| 2026-04-04 15:30 | 8.10 | 935 | 4750 (1993) | 15 (1956) | 742 | 47 | 94 | 167 | 195 | 419 | 825 | 1040 | 1650 | 3810 |
| 2026-04-04 14:30 | 8.10 | 935 | 4750 (1993) | 15 (1956) | 742 | 47 | 94 | 167 | 195 | 419 | 825 | 1040 | 1650 | 3810 |
| 2026-04-04 13:30 | 8.09 | 932 | 4750 (1993) | 15 (1956) | 742 | 47 | 94 | 167 | 195 | 419 | 825 | 1040 | 1650 | 3810 |
| 2026-04-04 12:30 | 8.08 | 929 | 4750 (1993) | 15 (1956) | 742 | 47 | 94 | 167 | 195 | 419 | 825 | 1040 | 1650 | 3810 |
| 2026-04-04 11:30 | 8.06 | 923 | 4750 (1993) | 15 (1956) | 742 | 47 | 94 | 167 | 195 | 419 | 825 | 1040 | 1650 | 3810 |
| 2026-04-04 10:30 | 8.06 | 923 | 4750 (1993) | 15 (1956) | 742 | 47 | 94 | 167 | 195 | 419 | 825 | 1040 | 1650 | 3810 |
| 2026-04-04 09:30 | 8.01 | 908 | 4750 (1993) | 15 (1956) | 742 | 47 | 94 | 167 | 195 | 419 | 825 | 1040 | 1650 | 3810 |
| 2026-04-04 08:30 | 7.95 | 891 | 4750 (1993) | 15 (1956) | 742 | 47 | 94 | 167 | 195 | 419 | 825 | 1040 | 1650 | 3810 |
| 2026-04-04 07:30 | 7.90 | 877 | 4750 (1993) | 15 (1956) | 742 | 47 | 94 | 167 | 195 | 419 | 825 | 1040 | 1650 | 3810 |
| 2026-04-04 06:30 | 7.83 | 857 | 4750 (1993) | 15 (1956) | 742 | 47 | 94 | 167 | 195 | 419 | 825 | 1040 | 1650 | 3810 |
| 2026-04-04 05:30 | 7.77 | 840 | 4750 (1993) | 15 (1956) | 742 | 47 | 94 | 167 | 195 | 419 | 825 | 1040 | 1650 | 3810 |
| 2026-04-04 04:30 | 7.68 | 815 | 4750 (1993) | 15 (1956) | 742 | 47 | 94 | 167 | 195 | 419 | 825 | 1040 | 1650 | 3810 |
| 2026-04-04 03:30 | 7.60 | 793 | 4750 (1993) | 15 (1956) | 742 | 47 | 94 | 167 | 195 | 419 | 825 | 1040 | 1650 | 3810 |
| 2026-04-04 02:30 | 7.53 | 774 | 4750 (1993) | 15 (1956) | 742 | 47 | 94 | 167 | 195 | 419 | 825 | 1040 | 1650 | 3810 |
| 2026-04-04 01:30 | 7.42 | 745 | 4750 (1993) | 15 (1956) | 742 | 47 | 94 | 167 | 195 | 419 | 825 | 1040 | 1650 | 3810 |
| 2026-04-04 00:30 | 7.36 | 729 | 4750 (1993) | 15 (1956) | 742 | 47 | 94 | 167 | 195 | 419 | 825 | 1040 | 1650 | 3810 |
| 2026-04-03 23:30 | 7.27 | 705 | 4750 (1993) | 15 (1956) | 742 | 47 | 94 | 167 | 195 | 419 | 825 | 1040 | 1650 | 3810 |
| 2026-04-03 22:30 | 7.25 | 700 | 7040 (1993) | 16 (1956) | 779 | 54 | 89 | 175 | 195 | 443 | 801 | 878 | 1370 | 3790 |
| 2026-04-03 21:30 | 7.19 | 684 | 7040 (1993) | 16 (1956) | 779 | 54 | 89 | 175 | 195 | 443 | 801 | 878 | 1370 | 3790 |
| 2026-04-03 20:30 | 7.16 | 677 | 7040 (1993) | 16 (1956) | 779 | 54 | 89 | 175 | 195 | 443 | 801 | 878 | 1370 | 3790 |
| 2026-04-03 19:30 | 7.13 | 669 | 7040 (1993) | 16 (1956) | 779 | 54 | 89 | 175 | 195 | 443 | 801 | 878 | 1370 | 3790 |
| 2026-04-03 18:30 | 7.10 | 661 | 7040 (1993) | 16 (1956) | 779 | 54 | 89 | 175 | 195 | 443 | 801 | 878 | 1370 | 3790 |
| 2026-04-03 17:30 | 7.06 | 651 | 7040 (1993) | 16 (1956) | 779 | 54 | 89 | 175 | 195 | 443 | 801 | 878 | 1370 | 3790 |
| 2026-04-03 16:30 | 7.03 | 644 | 7040 (1993) | 16 (1956) | 779 | 54 | 89 | 175 | 195 | 443 | 801 | 878 | 1370 | 3790 |
| 2026-04-03 15:30 | 6.98 | 631 | 7040 (1993) | 16 (1956) | 779 | 54 | 89 | 175 | 195 | 443 | 801 | 878 | 1370 | 3790 |
| 2026-04-03 14:30 | 6.91 | 614 | 7040 (1993) | 16 (1956) | 779 | 54 | 89 | 175 | 195 | 443 | 801 | 878 | 1370 | 3790 |
| 2026-04-03 13:30 | 6.85 | 599 | 7040 (1993) | 16 (1956) | 779 | 54 | 89 | 175 | 195 | 443 | 801 | 878 | 1370 | 3790 |
| 2026-04-03 12:30 | 6.79 | 585 | 7040 (1993) | 16 (1956) | 779 | 54 | 89 | 175 | 195 | 443 | 801 | 878 | 1370 | 3790 |
| 2026-04-03 11:30 | 6.71 | 566 | 7040 (1993) | 16 (1956) | 779 | 54 | 89 | 175 | 195 | 443 | 801 | 878 | 1370 | 3790 |
| 2026-04-03 10:30 | 6.64 | 549 | 7040 (1993) | 16 (1956) | 779 | 54 | 89 | 175 | 195 | 443 | 801 | 878 | 1370 | 3790 |
| 2026-04-03 09:30 | 6.56 | 531 | 7040 (1993) | 16 (1956) | 779 | 54 | 89 | 175 | 195 | 443 | 801 | 878 | 1370 | 3790 |
| 2026-04-03 08:30 | 6.49 | 514 | 7040 (1993) | 16 (1956) | 779 | 54 | 89 | 175 | 195 | 443 | 801 | 878 | 1370 | 3790 |
| 2026-04-03 07:30 | 6.43 | 501 | 7040 (1993) | 16 (1956) | 779 | 54 | 89 | 175 | 195 | 443 | 801 | 878 | 1370 | 3790 |
| 2026-04-03 06:30 | 6.36 | 485 | 7040 (1993) | 16 (1956) | 779 | 54 | 89 | 175 | 195 | 443 | 801 | 878 | 1370 | 3790 |
| 2026-04-03 05:30 | 6.29 | 470 | 7040 (1993) | 16 (1956) | 779 | 54 | 89 | 175 | 195 | 443 | 801 | 878 | 1370 | 3790 |
| 2026-04-03 04:30 | 6.22 | 454 | 7040 (1993) | 16 (1956) | 779 | 54 | 89 | 175 | 195 | 443 | 801 | 878 | 1370 | 3790 |
| 2026-04-03 03:30 | 6.15 | 439 | 7040 (1993) | 16 (1956) | 779 | 54 | 89 | 175 | 195 | 443 | 801 | 878 | 1370 | 3790 |
| 2026-04-03 02:30 | 6.07 | 422 | 7040 (1993) | 16 (1956) | 779 | 54 | 89 | 175 | 195 | 443 | 801 | 878 | 1370 | 3790 |
| 2026-04-03 01:30 | 6.02 | 412 | 7040 (1993) | 16 (1956) | 779 | 54 | 89 | 175 | 195 | 443 | 801 | 878 | 1370 | 3790 |
| 2026-04-03 00:30 | 5.99 | 406 | 7040 (1993) | 16 (1956) | 779 | 54 | 89 | 175 | 195 | 443 | 801 | 878 | 1370 | 3790 |
| 2026-04-02 23:30 | 6.02 | 412 | 7040 (1993) | 16 (1956) | 779 | 54 | 89 | 175 | 195 | 443 | 801 | 878 | 1370 | 3790 |
| 2026-04-02 22:30 | 6.03 | 414 | 8690 (1960) | 17 (1956) | 830 | 47 | 69 | 165 | 202 | 474 | 859 | 953 | 1480 | 3590 |
| 2026-04-02 21:30 | 6.05 | 418 | 8690 (1960) | 17 (1956) | 830 | 47 | 69 | 165 | 202 | 474 | 859 | 953 | 1480 | 3590 |
| 2026-04-02 20:30 | 6.03 | 414 | 8690 (1960) | 17 (1956) | 830 | 47 | 69 | 165 | 202 | 474 | 859 | 953 | 1480 | 3590 |
| 2026-04-02 19:30 | 5.91 | 389 | 8690 (1960) | 17 (1956) | 830 | 47 | 69 | 165 | 202 | 474 | 859 | 953 | 1480 | 3590 |
| 2026-04-02 18:30 | 5.69 | 346 | 8690 (1960) | 17 (1956) | 830 | 47 | 69 | 165 | 202 | 474 | 859 | 953 | 1480 | 3590 |
| 2026-04-02 17:30 | 5.56 | 321 | 8690 (1960) | 17 (1956) | 830 | 47 | 69 | 165 | 202 | 474 | 859 | 953 | 1480 | 3590 |
| 2026-04-02 16:30 | 5.43 | 297 | 8690 (1960) | 17 (1956) | 830 | 47 | 69 | 165 | 202 | 474 | 859 | 953 | 1480 | 3590 |
| 2026-04-02 15:30 | 5.31 | 276 | 8690 (1960) | 17 (1956) | 830 | 47 | 69 | 165 | 202 | 474 | 859 | 953 | 1480 | 3590 |
| 2026-04-02 14:30 | 5.22 | 260 | 8690 (1960) | 17 (1956) | 830 | 47 | 69 | 165 | 202 | 474 | 859 | 953 | 1480 | 3590 |
| 2026-04-02 13:30 | 5.13 | 244 | 8690 (1960) | 17 (1956) | 830 | 47 | 69 | 165 | 202 | 474 | 859 | 953 | 1480 | 3590 |
| 2026-04-02 12:30 | 5.04 | 228 | 8690 (1960) | 17 (1956) | 830 | 47 | 69 | 165 | 202 | 474 | 859 | 953 | 1480 | 3590 |
| 2026-04-02 11:30 | 4.97 | 216 | 8690 (1960) | 17 (1956) | 830 | 47 | 69 | 165 | 202 | 474 | 859 | 953 | 1480 | 3590 |
| 2026-04-02 09:30 | 4.87 | 200 | 8690 (1960) | 17 (1956) | 830 | 47 | 69 | 165 | 202 | 474 | 859 | 953 | 1480 | 3590 |
| 2026-04-02 08:30 | 4.84 | 195 | 8690 (1960) | 17 (1956) | 830 | 47 | 69 | 165 | 202 | 474 | 859 | 953 | 1480 | 3590 |
| 2026-04-02 07:30 | 4.81 | 190 | 8690 (1960) | 17 (1956) | 830 | 47 | 69 | 165 | 202 | 474 | 859 | 953 | 1480 | 3590 |
| 2026-04-02 06:30 | 4.77 | 184 | 8690 (1960) | 17 (1956) | 830 | 47 | 69 | 165 | 202 | 474 | 859 | 953 | 1480 | 3590 |
| 2026-04-02 05:30 | 4.75 | 180 | 8690 (1960) | 17 (1956) | 830 | 47 | 69 | 165 | 202 | 474 | 859 | 953 | 1480 | 3590 |
| 2026-04-02 04:30 | 4.72 | 176 | 8690 (1960) | 17 (1956) | 830 | 47 | 69 | 165 | 202 | 474 | 859 | 953 | 1480 | 3590 |
| 2026-04-02 03:30 | 4.70 | 173 | 8690 (1960) | 17 (1956) | 830 | 47 | 69 | 165 | 202 | 474 | 859 | 953 | 1480 | 3590 |
| 2026-04-02 02:30 | 4.68 | 170 | 8690 (1960) | 17 (1956) | 830 | 47 | 69 | 165 | 202 | 474 | 859 | 953 | 1480 | 3590 |
| 2026-04-02 01:30 | 4.66 | 167 | 8690 (1960) | 17 (1956) | 830 | 47 | 69 | 165 | 202 | 474 | 859 | 953 | 1480 | 3590 |
| 2026-04-02 00:30 | 4.64 | 164 | 8690 (1960) | 17 (1956) | 830 | 47 | 69 | 165 | 202 | 474 | 859 | 953 | 1480 | 3590 |
| 2026-04-01 23:30 | 4.64 | 164 | 8690 (1960) | 17 (1956) | 830 | 47 | 69 | 165 | 202 | 474 | 859 | 953 | 1480 | 3590 |
| 2026-04-01 22:30 | 4.64 | 164 | 18800 (1960) | 18 (1956) | 953 | 49 | 62 | 160 | 202 | 434 | 951 | 1060 | 1870 | 3590 |
| 2026-04-01 21:30 | 4.62 | 161 | 18800 (1960) | 18 (1956) | 953 | 49 | 62 | 160 | 202 | 434 | 951 | 1060 | 1870 | 3590 |
| 2026-04-01 20:30 | 4.63 | 162 | 18800 (1960) | 18 (1956) | 953 | 49 | 62 | 160 | 202 | 434 | 951 | 1060 | 1870 | 3590 |
| 2026-04-01 19:30 | 4.62 | 161 | 18800 (1960) | 18 (1956) | 953 | 49 | 62 | 160 | 202 | 434 | 951 | 1060 | 1870 | 3590 |
| 2026-04-01 18:30 | 4.63 | 162 | 18800 (1960) | 18 (1956) | 953 | 49 | 62 | 160 | 202 | 434 | 951 | 1060 | 1870 | 3590 |
| 2026-04-01 17:30 | 4.61 | 159 | 18800 (1960) | 18 (1956) | 953 | 49 | 62 | 160 | 202 | 434 | 951 | 1060 | 1870 | 3590 |
| 2026-04-01 16:30 | 4.63 | 162 | 18800 (1960) | 18 (1956) | 953 | 49 | 62 | 160 | 202 | 434 | 951 | 1060 | 1870 | 3590 |
| 2026-04-01 15:30 | 4.63 | 162 | 18800 (1960) | 18 (1956) | 953 | 49 | 62 | 160 | 202 | 434 | 951 | 1060 | 1870 | 3590 |
| 2026-04-01 14:30 | 4.62 | 161 | 18800 (1960) | 18 (1956) | 953 | 49 | 62 | 160 | 202 | 434 | 951 | 1060 | 1870 | 3590 |
| 2026-04-01 13:30 | 4.62 | 161 | 18800 (1960) | 18 (1956) | 953 | 49 | 62 | 160 | 202 | 434 | 951 | 1060 | 1870 | 3590 |
| 2026-04-01 12:30 | 4.62 | 161 | 18800 (1960) | 18 (1956) | 953 | 49 | 62 | 160 | 202 | 434 | 951 | 1060 | 1870 | 3590 |
| 2026-04-01 11:30 | 4.63 | 162 | 18800 (1960) | 18 (1956) | 953 | 49 | 62 | 160 | 202 | 434 | 951 | 1060 | 1870 | 3590 |
| 2026-04-01 10:30 | 4.63 | 162 | 18800 (1960) | 18 (1956) | 953 | 49 | 62 | 160 | 202 | 434 | 951 | 1060 | 1870 | 3590 |
| 2026-04-01 09:30 | 4.63 | 162 | 18800 (1960) | 18 (1956) | 953 | 49 | 62 | 160 | 202 | 434 | 951 | 1060 | 1870 | 3590 |
| 2026-04-01 08:30 | 4.64 | 164 | 18800 (1960) | 18 (1956) | 953 | 49 | 62 | 160 | 202 | 434 | 951 | 1060 | 1870 | 3590 |
| 2026-04-01 07:30 | 4.63 | 162 | 18800 (1960) | 18 (1956) | 953 | 49 | 62 | 160 | 202 | 434 | 951 | 1060 | 1870 | 3590 |
| 2026-04-01 06:30 | 4.63 | 162 | 18800 (1960) | 18 (1956) | 953 | 49 | 62 | 160 | 202 | 434 | 951 | 1060 | 1870 | 3590 |
| 2026-04-01 05:30 | 4.63 | 162 | 18800 (1960) | 18 (1956) | 953 | 49 | 62 | 160 | 202 | 434 | 951 | 1060 | 1870 | 3590 |
| 2026-04-01 04:30 | 4.63 | 162 | 18800 (1960) | 18 (1956) | 953 | 49 | 62 | 160 | 202 | 434 | 951 | 1060 | 1870 | 3590 |
| 2026-04-01 03:30 | 4.63 | 162 | 18800 (1960) | 18 (1956) | 953 | 49 | 62 | 160 | 202 | 434 | 951 | 1060 | 1870 | 3590 |
| 2026-04-01 02:30 | 4.62 | 161 | 18800 (1960) | 18 (1956) | 953 | 49 | 62 | 160 | 202 | 434 | 951 | 1060 | 1870 | 3590 |
| 2026-04-01 01:30 | 4.62 | 161 | 18800 (1960) | 18 (1956) | 953 | 49 | 62 | 160 | 202 | 434 | 951 | 1060 | 1870 | 3590 |
| 2026-04-01 00:30 | 4.63 | 162 | 18800 (1960) | 18 (1956) | 953 | 49 | 62 | 160 | 202 | 434 | 951 | 1060 | 1870 | 3590 |
| 2026-03-31 23:30 | 4.63 | 162 | 18800 (1960) | 18 (1956) | 953 | 49 | 62 | 160 | 202 | 434 | 951 | 1060 | 1870 | 3590 |
| 2026-03-31 22:30 | 4.63 | 162 | 23200 (1960) | 18 (1956) | 991 | 45 | 64 | 141 | 192 | 441 | 1030 | 1110 | 1420 | 3400 |
| 2026-03-31 21:30 | 4.63 | 162 | 23200 (1960) | 18 (1956) | 991 | 45 | 64 | 141 | 192 | 441 | 1030 | 1110 | 1420 | 3400 |
| 2026-03-31 20:30 | 4.63 | 162 | 23200 (1960) | 18 (1956) | 991 | 45 | 64 | 141 | 192 | 441 | 1030 | 1110 | 1420 | 3400 |
| 2026-03-31 19:30 | 4.63 | 162 | 23200 (1960) | 18 (1956) | 991 | 45 | 64 | 141 | 192 | 441 | 1030 | 1110 | 1420 | 3400 |
| 2026-03-31 18:30 | 4.63 | 162 | 23200 (1960) | 18 (1956) | 991 | 45 | 64 | 141 | 192 | 441 | 1030 | 1110 | 1420 | 3400 |
| 2026-03-31 17:30 | 4.62 | 161 | 23200 (1960) | 18 (1956) | 991 | 45 | 64 | 141 | 192 | 441 | 1030 | 1110 | 1420 | 3400 |
| 2026-03-31 16:30 | 4.63 | 162 | 23200 (1960) | 18 (1956) | 991 | 45 | 64 | 141 | 192 | 441 | 1030 | 1110 | 1420 | 3400 |
| 2026-03-31 15:30 | 4.63 | 162 | 23200 (1960) | 18 (1956) | 991 | 45 | 64 | 141 | 192 | 441 | 1030 | 1110 | 1420 | 3400 |
| 2026-03-31 14:30 | 4.63 | 162 | 23200 (1960) | 18 (1956) | 991 | 45 | 64 | 141 | 192 | 441 | 1030 | 1110 | 1420 | 3400 |
| 2026-03-31 13:30 | 4.64 | 164 | 23200 (1960) | 18 (1956) | 991 | 45 | 64 | 141 | 192 | 441 | 1030 | 1110 | 1420 | 3400 |
| 2026-03-31 12:30 | 4.65 | 165 | 23200 (1960) | 18 (1956) | 991 | 45 | 64 | 141 | 192 | 441 | 1030 | 1110 | 1420 | 3400 |
| 2026-03-31 11:30 | 4.65 | 165 | 23200 (1960) | 18 (1956) | 991 | 45 | 64 | 141 | 192 | 441 | 1030 | 1110 | 1420 | 3400 |
| 2026-03-31 10:30 | 4.63 | 162 | 23200 (1960) | 18 (1956) | 991 | 45 | 64 | 141 | 192 | 441 | 1030 | 1110 | 1420 | 3400 |
| 2026-03-31 09:30 | 4.63 | 162 | 23200 (1960) | 18 (1956) | 991 | 45 | 64 | 141 | 192 | 441 | 1030 | 1110 | 1420 | 3400 |
| 2026-03-31 08:30 | 4.63 | 162 | 23200 (1960) | 18 (1956) | 991 | 45 | 64 | 141 | 192 | 441 | 1030 | 1110 | 1420 | 3400 |
| 2026-03-31 07:30 | 4.62 | 161 | 23200 (1960) | 18 (1956) | 991 | 45 | 64 | 141 | 192 | 441 | 1030 | 1110 | 1420 | 3400 |
| 2026-03-31 06:30 | 4.62 | 161 | 23200 (1960) | 18 (1956) | 991 | 45 | 64 | 141 | 192 | 441 | 1030 | 1110 | 1420 | 3400 |
| 2026-03-31 05:30 | 4.60 | 158 | 23200 (1960) | 18 (1956) | 991 | 45 | 64 | 141 | 192 | 441 | 1030 | 1110 | 1420 | 3400 |
| 2026-03-31 04:30 | 4.59 | 156 | 23200 (1960) | 18 (1956) | 991 | 45 | 64 | 141 | 192 | 441 | 1030 | 1110 | 1420 | 3400 |
| 2026-03-31 03:30 | 4.59 | 156 | 23200 (1960) | 18 (1956) | 991 | 45 | 64 | 141 | 192 | 441 | 1030 | 1110 | 1420 | 3400 |
| 2026-03-31 02:30 | 4.59 | 156 | 23200 (1960) | 18 (1956) | 991 | 45 | 64 | 141 | 192 | 441 | 1030 | 1110 | 1420 | 3400 |
| 2026-03-31 01:30 | 4.59 | 156 | 23200 (1960) | 18 (1956) | 991 | 45 | 64 | 141 | 192 | 441 | 1030 | 1110 | 1420 | 3400 |
| 2026-03-31 00:30 | 4.58 | 155 | 23200 (1960) | 18 (1956) | 991 | 45 | 64 | 141 | 192 | 441 | 1030 | 1110 | 1420 | 3400 |
| 2026-03-30 23:30 | 4.58 | 155 | 23200 (1960) | 18 (1956) | 991 | 45 | 64 | 141 | 192 | 441 | 1030 | 1110 | 1420 | 3400 |
| 2026-03-30 22:30 | 4.58 | 155 | 6000 (1960) | 19 (1956) | 720 | 47 | 66 | 137 | 179 | 454 | 1000 | 1190 | 1460 | 2460 |
| 2026-03-30 21:30 | 4.58 | 155 | 6000 (1960) | 19 (1956) | 720 | 47 | 66 | 137 | 179 | 454 | 1000 | 1190 | 1460 | 2460 |
| 2026-03-30 20:30 | 4.59 | 156 | 6000 (1960) | 19 (1956) | 720 | 47 | 66 | 137 | 179 | 454 | 1000 | 1190 | 1460 | 2460 |
| 2026-03-30 19:30 | 4.58 | 155 | 6000 (1960) | 19 (1956) | 720 | 47 | 66 | 137 | 179 | 454 | 1000 | 1190 | 1460 | 2460 |
| 2026-03-30 18:30 | 4.59 | 156 | 6000 (1960) | 19 (1956) | 720 | 47 | 66 | 137 | 179 | 454 | 1000 | 1190 | 1460 | 2460 |
| 2026-03-30 17:30 | 4.59 | 156 | 6000 (1960) | 19 (1956) | 720 | 47 | 66 | 137 | 179 | 454 | 1000 | 1190 | 1460 | 2460 |
| 2026-03-30 16:30 | 4.59 | 156 | 6000 (1960) | 19 (1956) | 720 | 47 | 66 | 137 | 179 | 454 | 1000 | 1190 | 1460 | 2460 |
| 2026-03-30 15:30 | 4.59 | 156 | 6000 (1960) | 19 (1956) | 720 | 47 | 66 | 137 | 179 | 454 | 1000 | 1190 | 1460 | 2460 |
| 2026-03-30 14:30 | 4.59 | 156 | 6000 (1960) | 19 (1956) | 720 | 47 | 66 | 137 | 179 | 454 | 1000 | 1190 | 1460 | 2460 |
| 2026-03-30 13:30 | 4.59 | 156 | 6000 (1960) | 19 (1956) | 720 | 47 | 66 | 137 | 179 | 454 | 1000 | 1190 | 1460 | 2460 |
| 2026-03-30 12:30 | 4.59 | 156 | 6000 (1960) | 19 (1956) | 720 | 47 | 66 | 137 | 179 | 454 | 1000 | 1190 | 1460 | 2460 |
| 2026-03-30 11:30 | 4.60 | 158 | 6000 (1960) | 19 (1956) | 720 | 47 | 66 | 137 | 179 | 454 | 1000 | 1190 | 1460 | 2460 |
| 2026-03-30 10:30 | 4.60 | 158 | 6000 (1960) | 19 (1956) | 720 | 47 | 66 | 137 | 179 | 454 | 1000 | 1190 | 1460 | 2460 |
| 2026-03-30 09:30 | 4.59 | 156 | 6000 (1960) | 19 (1956) | 720 | 47 | 66 | 137 | 179 | 454 | 1000 | 1190 | 1460 | 2460 |
| 2026-03-30 08:30 | 4.60 | 158 | 6000 (1960) | 19 (1956) | 720 | 47 | 66 | 137 | 179 | 454 | 1000 | 1190 | 1460 | 2460 |
| 2026-03-30 07:30 | 4.59 | 156 | 6000 (1960) | 19 (1956) | 720 | 47 | 66 | 137 | 179 | 454 | 1000 | 1190 | 1460 | 2460 |
| 2026-03-30 06:30 | 4.59 | 156 | 6000 (1960) | 19 (1956) | 720 | 47 | 66 | 137 | 179 | 454 | 1000 | 1190 | 1460 | 2460 |
| 2026-03-30 05:30 | 4.59 | 156 | 6000 (1960) | 19 (1956) | 720 | 47 | 66 | 137 | 179 | 454 | 1000 | 1190 | 1460 | 2460 |
| 2026-03-30 04:30 | 4.59 | 156 | 6000 (1960) | 19 (1956) | 720 | 47 | 66 | 137 | 179 | 454 | 1000 | 1190 | 1460 | 2460 |
| 2026-03-30 03:30 | 4.59 | 156 | 6000 (1960) | 19 (1956) | 720 | 47 | 66 | 137 | 179 | 454 | 1000 | 1190 | 1460 | 2460 |
| 2026-03-30 02:30 | 4.59 | 156 | 6000 (1960) | 19 (1956) | 720 | 47 | 66 | 137 | 179 | 454 | 1000 | 1190 | 1460 | 2460 |
| 2026-03-30 01:30 | 4.58 | 155 | 6000 (1960) | 19 (1956) | 720 | 47 | 66 | 137 | 179 | 454 | 1000 | 1190 | 1460 | 2460 |
| 2026-03-30 00:30 | 4.58 | 155 | 6000 (1960) | 19 (1956) | 720 | 47 | 66 | 137 | 179 | 454 | 1000 | 1190 | 1460 | 2460 |
| 2026-03-29 23:30 | 4.59 | 156 | 6000 (1960) | 19 (1956) | 720 | 47 | 66 | 137 | 179 | 454 | 1000 | 1190 | 1460 | 2460 |
| 2026-03-29 22:30 | 4.59 | 156 | 3550 (1962) | 20 (1956) | 708 | 47 | 66 | 139 | 205 | 465 | 923 | 1100 | 1970 | 2640 |
| 2026-03-29 21:30 | 4.59 | 156 | 3550 (1962) | 20 (1956) | 708 | 47 | 66 | 139 | 205 | 465 | 923 | 1100 | 1970 | 2640 |
| 2026-03-29 20:30 | 4.60 | 158 | 3550 (1962) | 20 (1956) | 708 | 47 | 66 | 139 | 205 | 465 | 923 | 1100 | 1970 | 2640 |
| 2026-03-29 19:30 | 4.60 | 158 | 3550 (1962) | 20 (1956) | 708 | 47 | 66 | 139 | 205 | 465 | 923 | 1100 | 1970 | 2640 |
| 2026-03-29 18:30 | 4.61 | 159 | 3550 (1962) | 20 (1956) | 708 | 47 | 66 | 139 | 205 | 465 | 923 | 1100 | 1970 | 2640 |
| 2026-03-29 17:30 | 4.61 | 159 | 3550 (1962) | 20 (1956) | 708 | 47 | 66 | 139 | 205 | 465 | 923 | 1100 | 1970 | 2640 |
| 2026-03-29 16:30 | 4.62 | 161 | 3550 (1962) | 20 (1956) | 708 | 47 | 66 | 139 | 205 | 465 | 923 | 1100 | 1970 | 2640 |
| 2026-03-29 15:30 | 4.63 | 162 | 3550 (1962) | 20 (1956) | 708 | 47 | 66 | 139 | 205 | 465 | 923 | 1100 | 1970 | 2640 |
| 2026-03-29 14:30 | 4.64 | 164 | 3550 (1962) | 20 (1956) | 708 | 47 | 66 | 139 | 205 | 465 | 923 | 1100 | 1970 | 2640 |
| 2026-03-29 13:30 | 4.64 | 164 | 3550 (1962) | 20 (1956) | 708 | 47 | 66 | 139 | 205 | 465 | 923 | 1100 | 1970 | 2640 |
| 2026-03-29 12:30 | 4.65 | 165 | 3550 (1962) | 20 (1956) | 708 | 47 | 66 | 139 | 205 | 465 | 923 | 1100 | 1970 | 2640 |
| 2026-03-29 11:30 | 4.66 | 167 | 3550 (1962) | 20 (1956) | 708 | 47 | 66 | 139 | 205 | 465 | 923 | 1100 | 1970 | 2640 |
| 2026-03-29 10:30 | 4.67 | 168 | 3550 (1962) | 20 (1956) | 708 | 47 | 66 | 139 | 205 | 465 | 923 | 1100 | 1970 | 2640 |
| 2026-03-29 09:30 | 4.67 | 168 | 3550 (1962) | 20 (1956) | 708 | 47 | 66 | 139 | 205 | 465 | 923 | 1100 | 1970 | 2640 |
| 2026-03-29 08:30 | 4.67 | 168 | 3550 (1962) | 20 (1956) | 708 | 47 | 66 | 139 | 205 | 465 | 923 | 1100 | 1970 | 2640 |
| 2026-03-29 07:30 | 4.68 | 170 | 3550 (1962) | 20 (1956) | 708 | 47 | 66 | 139 | 205 | 465 | 923 | 1100 | 1970 | 2640 |
| 2026-03-29 06:30 | 4.69 | 171 | 3550 (1962) | 20 (1956) | 708 | 47 | 66 | 139 | 205 | 465 | 923 | 1100 | 1970 | 2640 |
| 2026-03-29 05:30 | 4.69 | 171 | 3550 (1962) | 20 (1956) | 708 | 47 | 66 | 139 | 205 | 465 | 923 | 1100 | 1970 | 2640 |
| 2026-03-29 04:30 | 4.70 | 173 | 3550 (1962) | 20 (1956) | 708 | 47 | 66 | 139 | 205 | 465 | 923 | 1100 | 1970 | 2640 |
| 2026-03-29 03:30 | 4.70 | 173 | 3550 (1962) | 20 (1956) | 708 | 47 | 66 | 139 | 205 | 465 | 923 | 1100 | 1970 | 2640 |
| 2026-03-29 02:30 | 4.70 | 173 | 3550 (1962) | 20 (1956) | 708 | 47 | 66 | 139 | 205 | 465 | 923 | 1100 | 1970 | 2640 |
| 2026-03-29 01:30 | 4.71 | 174 | 3550 (1962) | 20 (1956) | 708 | 47 | 66 | 139 | 205 | 465 | 923 | 1100 | 1970 | 2640 |
| 2026-03-29 00:30 | 4.71 | 174 | 3550 (1962) | 20 (1956) | 708 | 47 | 66 | 139 | 205 | 465 | 923 | 1100 | 1970 | 2640 |
| 2026-03-28 23:30 | 4.71 | 174 | 3550 (1962) | 20 (1956) | 708 | 47 | 66 | 139 | 205 | 465 | 923 | 1100 | 1970 | 2640 |
| 2026-03-28 22:30 | 4.71 | 174 | 4070 (1962) | 23 (1956) | 683 | 46 | 66 | 124 | 176 | 460 | 1030 | 1170 | 1770 | 2130 |
| 2026-03-28 21:30 | 4.71 | 174 | 4070 (1962) | 23 (1956) | 683 | 46 | 66 | 124 | 176 | 460 | 1030 | 1170 | 1770 | 2130 |
| 2026-03-28 20:30 | 4.71 | 174 | 4070 (1962) | 23 (1956) | 683 | 46 | 66 | 124 | 176 | 460 | 1030 | 1170 | 1770 | 2130 |
| 2026-03-28 19:30 | 4.71 | 174 | 4070 (1962) | 23 (1956) | 683 | 46 | 66 | 124 | 176 | 460 | 1030 | 1170 | 1770 | 2130 |
| 2026-03-28 18:30 | 4.72 | 176 | 4070 (1962) | 23 (1956) | 683 | 46 | 66 | 124 | 176 | 460 | 1030 | 1170 | 1770 | 2130 |
| 2026-03-28 17:30 | 4.72 | 176 | 4070 (1962) | 23 (1956) | 683 | 46 | 66 | 124 | 176 | 460 | 1030 | 1170 | 1770 | 2130 |
| 2026-03-28 16:30 | 4.72 | 176 | 4070 (1962) | 23 (1956) | 683 | 46 | 66 | 124 | 176 | 460 | 1030 | 1170 | 1770 | 2130 |
| 2026-03-28 15:30 | 4.73 | 177 | 4070 (1962) | 23 (1956) | 683 | 46 | 66 | 124 | 176 | 460 | 1030 | 1170 | 1770 | 2130 |
| 2026-03-28 14:30 | 4.73 | 177 | 4070 (1962) | 23 (1956) | 683 | 46 | 66 | 124 | 176 | 460 | 1030 | 1170 | 1770 | 2130 |
| 2026-03-28 13:30 | 4.73 | 177 | 4070 (1962) | 23 (1956) | 683 | 46 | 66 | 124 | 176 | 460 | 1030 | 1170 | 1770 | 2130 |
| 2026-03-28 12:30 | 4.74 | 179 | 4070 (1962) | 23 (1956) | 683 | 46 | 66 | 124 | 176 | 460 | 1030 | 1170 | 1770 | 2130 |
| 2026-03-28 11:30 | 4.75 | 180 | 4070 (1962) | 23 (1956) | 683 | 46 | 66 | 124 | 176 | 460 | 1030 | 1170 | 1770 | 2130 |
| 2026-03-28 10:30 | 4.75 | 180 | 4070 (1962) | 23 (1956) | 683 | 46 | 66 | 124 | 176 | 460 | 1030 | 1170 | 1770 | 2130 |
| 2026-03-28 09:30 | 4.76 | 182 | 4070 (1962) | 23 (1956) | 683 | 46 | 66 | 124 | 176 | 460 | 1030 | 1170 | 1770 | 2130 |
| 2026-03-28 08:30 | 4.77 | 184 | 4070 (1962) | 23 (1956) | 683 | 46 | 66 | 124 | 176 | 460 | 1030 | 1170 | 1770 | 2130 |
| 2026-03-28 07:30 | 4.77 | 184 | 4070 (1962) | 23 (1956) | 683 | 46 | 66 | 124 | 176 | 460 | 1030 | 1170 | 1770 | 2130 |
| 2026-03-28 06:30 | 4.77 | 184 | 4070 (1962) | 23 (1956) | 683 | 46 | 66 | 124 | 176 | 460 | 1030 | 1170 | 1770 | 2130 |
| 2026-03-28 05:30 | 4.77 | 184 | 4070 (1962) | 23 (1956) | 683 | 46 | 66 | 124 | 176 | 460 | 1030 | 1170 | 1770 | 2130 |
| 2026-03-28 04:30 | 4.78 | 185 | 4070 (1962) | 23 (1956) | 683 | 46 | 66 | 124 | 176 | 460 | 1030 | 1170 | 1770 | 2130 |
| 2026-03-28 03:30 | 4.77 | 184 | 4070 (1962) | 23 (1956) | 683 | 46 | 66 | 124 | 176 | 460 | 1030 | 1170 | 1770 | 2130 |
| 2026-03-28 02:30 | 4.77 | 184 | 4070 (1962) | 23 (1956) | 683 | 46 | 66 | 124 | 176 | 460 | 1030 | 1170 | 1770 | 2130 |
| 2026-03-28 01:30 | 4.78 | 185 | 4070 (1962) | 23 (1956) | 683 | 46 | 66 | 124 | 176 | 460 | 1030 | 1170 | 1770 | 2130 |
| 2026-03-28 00:30 | 4.77 | 184 | 4070 (1962) | 23 (1956) | 683 | 46 | 66 | 124 | 176 | 460 | 1030 | 1170 | 1770 | 2130 |
| 2026-03-27 23:30 | 4.78 | 185 | 4070 (1962) | 23 (1956) | 683 | 46 | 66 | 124 | 176 | 460 | 1030 | 1170 | 1770 | 2130 |
| 2026-03-27 22:30 | 4.77 | 184 | 4280 (1962) | 20 (1956) | 686 | 44 | 55 | 125 | 180 | 430 | 985 | 1140 | 1660 | 2240 |
| 2026-03-27 21:30 | 4.78 | 185 | 4280 (1962) | 20 (1956) | 686 | 44 | 55 | 125 | 180 | 430 | 985 | 1140 | 1660 | 2240 |
| 2026-03-27 20:30 | 4.78 | 185 | 4280 (1962) | 20 (1956) | 686 | 44 | 55 | 125 | 180 | 430 | 985 | 1140 | 1660 | 2240 |
| 2026-03-27 19:30 | 4.78 | 185 | 4280 (1962) | 20 (1956) | 686 | 44 | 55 | 125 | 180 | 430 | 985 | 1140 | 1660 | 2240 |
| 2026-03-27 18:30 | 4.80 | 188 | 4280 (1962) | 20 (1956) | 686 | 44 | 55 | 125 | 180 | 430 | 985 | 1140 | 1660 | 2240 |
| 2026-03-27 17:30 | 4.80 | 188 | 4280 (1962) | 20 (1956) | 686 | 44 | 55 | 125 | 180 | 430 | 985 | 1140 | 1660 | 2240 |
| 2026-03-27 16:30 | 4.81 | 190 | 4280 (1962) | 20 (1956) | 686 | 44 | 55 | 125 | 180 | 430 | 985 | 1140 | 1660 | 2240 |
| 2026-03-27 15:30 | 4.81 | 190 | 4280 (1962) | 20 (1956) | 686 | 44 | 55 | 125 | 180 | 430 | 985 | 1140 | 1660 | 2240 |
| 2026-03-27 14:30 | 4.81 | 190 | 4280 (1962) | 20 (1956) | 686 | 44 | 55 | 125 | 180 | 430 | 985 | 1140 | 1660 | 2240 |
| 2026-03-27 13:30 | 4.82 | 191 | 4280 (1962) | 20 (1956) | 686 | 44 | 55 | 125 | 180 | 430 | 985 | 1140 | 1660 | 2240 |
| 2026-03-27 12:30 | 4.82 | 191 | 4280 (1962) | 20 (1956) | 686 | 44 | 55 | 125 | 180 | 430 | 985 | 1140 | 1660 | 2240 |
| 2026-03-27 11:30 | 4.83 | 193 | 4280 (1962) | 20 (1956) | 686 | 44 | 55 | 125 | 180 | 430 | 985 | 1140 | 1660 | 2240 |
| 2026-03-27 10:30 | 4.83 | 193 | 4280 (1962) | 20 (1956) | 686 | 44 | 55 | 125 | 180 | 430 | 985 | 1140 | 1660 | 2240 |
| 2026-03-27 09:30 | 4.83 | 193 | 4280 (1962) | 20 (1956) | 686 | 44 | 55 | 125 | 180 | 430 | 985 | 1140 | 1660 | 2240 |
| 2026-03-27 08:30 | 4.83 | 193 | 4280 (1962) | 20 (1956) | 686 | 44 | 55 | 125 | 180 | 430 | 985 | 1140 | 1660 | 2240 |
| 2026-03-27 07:30 | 4.83 | 193 | 4280 (1962) | 20 (1956) | 686 | 44 | 55 | 125 | 180 | 430 | 985 | 1140 | 1660 | 2240 |
| 2026-03-27 06:30 | 4.83 | 193 | 4280 (1962) | 20 (1956) | 686 | 44 | 55 | 125 | 180 | 430 | 985 | 1140 | 1660 | 2240 |
| 2026-03-27 05:30 | 4.84 | 195 | 4280 (1962) | 20 (1956) | 686 | 44 | 55 | 125 | 180 | 430 | 985 | 1140 | 1660 | 2240 |
| 2026-03-27 04:30 | 4.84 | 195 | 4280 (1962) | 20 (1956) | 686 | 44 | 55 | 125 | 180 | 430 | 985 | 1140 | 1660 | 2240 |
| 2026-03-27 03:30 | 4.84 | 195 | 4280 (1962) | 20 (1956) | 686 | 44 | 55 | 125 | 180 | 430 | 985 | 1140 | 1660 | 2240 |
| 2026-03-27 02:30 | 4.83 | 193 | 4280 (1962) | 20 (1956) | 686 | 44 | 55 | 125 | 180 | 430 | 985 | 1140 | 1660 | 2240 |
| 2026-03-27 01:30 | 4.83 | 193 | 4280 (1962) | 20 (1956) | 686 | 44 | 55 | 125 | 180 | 430 | 985 | 1140 | 1660 | 2240 |
| 2026-03-27 00:30 | 4.83 | 193 | 4280 (1962) | 20 (1956) | 686 | 44 | 55 | 125 | 180 | 430 | 985 | 1140 | 1660 | 2240 |
| 2026-03-26 23:30 | 4.83 | 193 | 4280 (1962) | 20 (1956) | 686 | 44 | 55 | 125 | 180 | 430 | 985 | 1140 | 1660 | 2240 |
| 2026-03-26 22:30 | 4.85 | 196 | 4420 (1962) | 20 (1956) | 700 | 46 | 55 | 134 | 180 | 428 | 980 | 1200 | 1780 | 2160 |
| 2026-03-26 21:30 | 4.84 | 195 | 4420 (1962) | 20 (1956) | 700 | 46 | 55 | 134 | 180 | 428 | 980 | 1200 | 1780 | 2160 |
| 2026-03-26 20:30 | 4.85 | 196 | 4420 (1962) | 20 (1956) | 700 | 46 | 55 | 134 | 180 | 428 | 980 | 1200 | 1780 | 2160 |
| 2026-03-26 19:30 | 4.83 | 193 | 4420 (1962) | 20 (1956) | 700 | 46 | 55 | 134 | 180 | 428 | 980 | 1200 | 1780 | 2160 |
| 2026-03-26 18:30 | 4.84 | 195 | 4420 (1962) | 20 (1956) | 700 | 46 | 55 | 134 | 180 | 428 | 980 | 1200 | 1780 | 2160 |
| 2026-03-26 17:30 | 4.83 | 193 | 4420 (1962) | 20 (1956) | 700 | 46 | 55 | 134 | 180 | 428 | 980 | 1200 | 1780 | 2160 |
| 2026-03-26 16:30 | 4.83 | 193 | 4420 (1962) | 20 (1956) | 700 | 46 | 55 | 134 | 180 | 428 | 980 | 1200 | 1780 | 2160 |
| 2026-03-26 15:30 | 4.83 | 193 | 4420 (1962) | 20 (1956) | 700 | 46 | 55 | 134 | 180 | 428 | 980 | 1200 | 1780 | 2160 |
| 2026-03-26 14:30 | 4.83 | 193 | 4420 (1962) | 20 (1956) | 700 | 46 | 55 | 134 | 180 | 428 | 980 | 1200 | 1780 | 2160 |
| 2026-03-26 13:30 | 4.83 | 193 | 4420 (1962) | 20 (1956) | 700 | 46 | 55 | 134 | 180 | 428 | 980 | 1200 | 1780 | 2160 |
| 2026-03-26 12:30 | 4.83 | 193 | 4420 (1962) | 20 (1956) | 700 | 46 | 55 | 134 | 180 | 428 | 980 | 1200 | 1780 | 2160 |
| 2026-03-26 11:30 | 4.83 | 193 | 4420 (1962) | 20 (1956) | 700 | 46 | 55 | 134 | 180 | 428 | 980 | 1200 | 1780 | 2160 |
| 2026-03-26 10:30 | 4.83 | 193 | 4420 (1962) | 20 (1956) | 700 | 46 | 55 | 134 | 180 | 428 | 980 | 1200 | 1780 | 2160 |
| 2026-03-26 09:30 | 4.83 | 193 | 4420 (1962) | 20 (1956) | 700 | 46 | 55 | 134 | 180 | 428 | 980 | 1200 | 1780 | 2160 |
| 2026-03-26 08:30 | 4.84 | 195 | 4420 (1962) | 20 (1956) | 700 | 46 | 55 | 134 | 180 | 428 | 980 | 1200 | 1780 | 2160 |
| 2026-03-26 07:30 | 4.85 | 196 | 4420 (1962) | 20 (1956) | 700 | 46 | 55 | 134 | 180 | 428 | 980 | 1200 | 1780 | 2160 |
| 2026-03-26 06:30 | 4.85 | 196 | 4420 (1962) | 20 (1956) | 700 | 46 | 55 | 134 | 180 | 428 | 980 | 1200 | 1780 | 2160 |
| 2026-03-26 05:30 | 4.84 | 195 | 4420 (1962) | 20 (1956) | 700 | 46 | 55 | 134 | 180 | 428 | 980 | 1200 | 1780 | 2160 |
| 2026-03-26 04:30 | 4.84 | 195 | 4420 (1962) | 20 (1956) | 700 | 46 | 55 | 134 | 180 | 428 | 980 | 1200 | 1780 | 2160 |
| 2026-03-26 03:30 | 4.84 | 195 | 4420 (1962) | 20 (1956) | 700 | 46 | 55 | 134 | 180 | 428 | 980 | 1200 | 1780 | 2160 |
| 2026-03-26 02:30 | 4.85 | 196 | 4420 (1962) | 20 (1956) | 700 | 46 | 55 | 134 | 180 | 428 | 980 | 1200 | 1780 | 2160 |
| 2026-03-26 01:30 | 4.84 | 195 | 4420 (1962) | 20 (1956) | 700 | 46 | 55 | 134 | 180 | 428 | 980 | 1200 | 1780 | 2160 |
| 2026-03-26 00:30 | 4.84 | 195 | 4420 (1962) | 20 (1956) | 700 | 46 | 55 | 134 | 180 | 428 | 980 | 1200 | 1780 | 2160 |
| 2026-03-25 23:30 | 4.84 | 195 | 4420 (1962) | 20 (1956) | 700 | 46 | 55 | 134 | 180 | 428 | 980 | 1200 | 1780 | 2160 |
| 2026-03-25 22:30 | 4.84 | 195 | 4910 (1962) | 23 (1956) | 809 | 46 | 63 | 138 | 183 | 425 | 1030 | 1290 | 2380 | 3220 |
| 2026-03-25 21:30 | 4.85 | 196 | 4910 (1962) | 23 (1956) | 809 | 46 | 63 | 138 | 183 | 425 | 1030 | 1290 | 2380 | 3220 |
| 2026-03-25 20:30 | 4.85 | 196 | 4910 (1962) | 23 (1956) | 809 | 46 | 63 | 138 | 183 | 425 | 1030 | 1290 | 2380 | 3220 |
| 2026-03-25 19:30 | 4.85 | 196 | 4910 (1962) | 23 (1956) | 809 | 46 | 63 | 138 | 183 | 425 | 1030 | 1290 | 2380 | 3220 |
| 2026-03-25 18:30 | 4.86 | 198 | 4910 (1962) | 23 (1956) | 809 | 46 | 63 | 138 | 183 | 425 | 1030 | 1290 | 2380 | 3220 |
| 2026-03-25 17:30 | 4.86 | 198 | 4910 (1962) | 23 (1956) | 809 | 46 | 63 | 138 | 183 | 425 | 1030 | 1290 | 2380 | 3220 |
| 2026-03-25 16:30 | 4.86 | 198 | 4910 (1962) | 23 (1956) | 809 | 46 | 63 | 138 | 183 | 425 | 1030 | 1290 | 2380 | 3220 |
| 2026-03-25 15:30 | 4.86 | 198 | 4910 (1962) | 23 (1956) | 809 | 46 | 63 | 138 | 183 | 425 | 1030 | 1290 | 2380 | 3220 |
| 2026-03-25 14:30 | 4.87 | 200 | 4910 (1962) | 23 (1956) | 809 | 46 | 63 | 138 | 183 | 425 | 1030 | 1290 | 2380 | 3220 |
| 2026-03-25 13:30 | 4.87 | 200 | 4910 (1962) | 23 (1956) | 809 | 46 | 63 | 138 | 183 | 425 | 1030 | 1290 | 2380 | 3220 |
| 2026-03-25 12:30 | 4.88 | 201 | 4910 (1962) | 23 (1956) | 809 | 46 | 63 | 138 | 183 | 425 | 1030 | 1290 | 2380 | 3220 |
| 2026-03-25 11:30 | 4.89 | 203 | 4910 (1962) | 23 (1956) | 809 | 46 | 63 | 138 | 183 | 425 | 1030 | 1290 | 2380 | 3220 |
| 2026-03-25 10:30 | 4.89 | 203 | 4910 (1962) | 23 (1956) | 809 | 46 | 63 | 138 | 183 | 425 | 1030 | 1290 | 2380 | 3220 |
| 2026-03-25 09:30 | 4.89 | 203 | 4910 (1962) | 23 (1956) | 809 | 46 | 63 | 138 | 183 | 425 | 1030 | 1290 | 2380 | 3220 |
| 2026-03-25 08:30 | 4.90 | 204 | 4910 (1962) | 23 (1956) | 809 | 46 | 63 | 138 | 183 | 425 | 1030 | 1290 | 2380 | 3220 |
| 2026-03-25 07:30 | 4.90 | 204 | 4910 (1962) | 23 (1956) | 809 | 46 | 63 | 138 | 183 | 425 | 1030 | 1290 | 2380 | 3220 |
| 2026-03-25 06:30 | 4.91 | 206 | 4910 (1962) | 23 (1956) | 809 | 46 | 63 | 138 | 183 | 425 | 1030 | 1290 | 2380 | 3220 |
| 2026-03-25 05:30 | 4.91 | 206 | 4910 (1962) | 23 (1956) | 809 | 46 | 63 | 138 | 183 | 425 | 1030 | 1290 | 2380 | 3220 |
| 2026-03-25 04:30 | 4.92 | 208 | 4910 (1962) | 23 (1956) | 809 | 46 | 63 | 138 | 183 | 425 | 1030 | 1290 | 2380 | 3220 |
| 2026-03-25 03:30 | 4.92 | 208 | 4910 (1962) | 23 (1956) | 809 | 46 | 63 | 138 | 183 | 425 | 1030 | 1290 | 2380 | 3220 |
| 2026-03-25 02:30 | 4.93 | 209 | 4910 (1962) | 23 (1956) | 809 | 46 | 63 | 138 | 183 | 425 | 1030 | 1290 | 2380 | 3220 |
| 2026-03-25 01:30 | 4.94 | 211 | 4910 (1962) | 23 (1956) | 809 | 46 | 63 | 138 | 183 | 425 | 1030 | 1290 | 2380 | 3220 |
| 2026-03-25 00:30 | 4.94 | 211 | 4910 (1962) | 23 (1956) | 809 | 46 | 63 | 138 | 183 | 425 | 1030 | 1290 | 2380 | 3220 |
| 2026-03-24 23:30 | 4.95 | 213 | 4910 (1962) | 23 (1956) | 809 | 46 | 63 | 138 | 183 | 425 | 1030 | 1290 | 2380 | 3220 |
| 2026-03-24 22:30 | 4.96 | 214 | 6000 (1978) | 23 (1956) | 929 | 47 | 66 | 141 | 185 | 431 | 1200 | 1360 | 3000 | 3900 |
| 2026-03-24 21:30 | 4.96 | 214 | 6000 (1978) | 23 (1956) | 929 | 47 | 66 | 141 | 185 | 431 | 1200 | 1360 | 3000 | 3900 |
| 2026-03-24 20:30 | 4.97 | 216 | 6000 (1978) | 23 (1956) | 929 | 47 | 66 | 141 | 185 | 431 | 1200 | 1360 | 3000 | 3900 |
| 2026-03-24 19:30 | 4.98 | 218 | 6000 (1978) | 23 (1956) | 929 | 47 | 66 | 141 | 185 | 431 | 1200 | 1360 | 3000 | 3900 |
| 2026-03-24 18:30 | 4.98 | 218 | 6000 (1978) | 23 (1956) | 929 | 47 | 66 | 141 | 185 | 431 | 1200 | 1360 | 3000 | 3900 |
| 2026-03-24 17:30 | 4.99 | 220 | 6000 (1978) | 23 (1956) | 929 | 47 | 66 | 141 | 185 | 431 | 1200 | 1360 | 3000 | 3900 |
| 2026-03-24 16:30 | 4.99 | 220 | 6000 (1978) | 23 (1956) | 929 | 47 | 66 | 141 | 185 | 431 | 1200 | 1360 | 3000 | 3900 |
| 2026-03-24 15:30 | 5.00 | 221 | 6000 (1978) | 23 (1956) | 929 | 47 | 66 | 141 | 185 | 431 | 1200 | 1360 | 3000 | 3900 |
| 2026-03-24 14:30 | 5.01 | 223 | 6000 (1978) | 23 (1956) | 929 | 47 | 66 | 141 | 185 | 431 | 1200 | 1360 | 3000 | 3900 |
| 2026-03-24 13:30 | 5.01 | 223 | 6000 (1978) | 23 (1956) | 929 | 47 | 66 | 141 | 185 | 431 | 1200 | 1360 | 3000 | 3900 |
| 2026-03-24 12:30 | 5.03 | 226 | 6000 (1978) | 23 (1956) | 929 | 47 | 66 | 141 | 185 | 431 | 1200 | 1360 | 3000 | 3900 |
| 2026-03-24 11:30 | 5.03 | 226 | 6000 (1978) | 23 (1956) | 929 | 47 | 66 | 141 | 185 | 431 | 1200 | 1360 | 3000 | 3900 |
| 2026-03-24 10:30 | 5.04 | 228 | 6000 (1978) | 23 (1956) | 929 | 47 | 66 | 141 | 185 | 431 | 1200 | 1360 | 3000 | 3900 |
| 2026-03-24 09:30 | 5.04 | 228 | 6000 (1978) | 23 (1956) | 929 | 47 | 66 | 141 | 185 | 431 | 1200 | 1360 | 3000 | 3900 |
| 2026-03-24 08:30 | 5.05 | 230 | 6000 (1978) | 23 (1956) | 929 | 47 | 66 | 141 | 185 | 431 | 1200 | 1360 | 3000 | 3900 |
| 2026-03-24 07:30 | 5.06 | 232 | 6000 (1978) | 23 (1956) | 929 | 47 | 66 | 141 | 185 | 431 | 1200 | 1360 | 3000 | 3900 |
| 2026-03-24 06:30 | 5.06 | 232 | 6000 (1978) | 23 (1956) | 929 | 47 | 66 | 141 | 185 | 431 | 1200 | 1360 | 3000 | 3900 |
| 2026-03-24 05:30 | 5.07 | 233 | 6000 (1978) | 23 (1956) | 929 | 47 | 66 | 141 | 185 | 431 | 1200 | 1360 | 3000 | 3900 |
| 2026-03-24 04:30 | 5.08 | 235 | 6000 (1978) | 23 (1956) | 929 | 47 | 66 | 141 | 185 | 431 | 1200 | 1360 | 3000 | 3900 |
| 2026-03-24 03:30 | 5.08 | 235 | 6000 (1978) | 23 (1956) | 929 | 47 | 66 | 141 | 185 | 431 | 1200 | 1360 | 3000 | 3900 |
| 2026-03-24 02:30 | 5.09 | 237 | 6000 (1978) | 23 (1956) | 929 | 47 | 66 | 141 | 185 | 431 | 1200 | 1360 | 3000 | 3900 |
| 2026-03-24 01:30 | 5.10 | 239 | 6000 (1978) | 23 (1956) | 929 | 47 | 66 | 141 | 185 | 431 | 1200 | 1360 | 3000 | 3900 |
| 2026-03-24 00:30 | 5.11 | 240 | 6000 (1978) | 23 (1956) | 929 | 47 | 66 | 141 | 185 | 431 | 1200 | 1360 | 3000 | 3900 |
| 2026-03-23 23:30 | 5.11 | 240 | 6000 (1978) | 23 (1956) | 929 | 47 | 66 | 141 | 185 | 431 | 1200 | 1360 | 3000 | 3900 |
| 2026-03-23 22:30 | 5.11 | 240 | 5820 (1959) | 23 (1956) | 934 | 49 | 66 | 141 | 186 | 471 | 1170 | 1440 | 2150 | 4020 |
| 2026-03-23 21:30 | 5.13 | 244 | 5820 (1959) | 23 (1956) | 934 | 49 | 66 | 141 | 186 | 471 | 1170 | 1440 | 2150 | 4020 |
| 2026-03-23 20:30 | 5.13 | 244 | 5820 (1959) | 23 (1956) | 934 | 49 | 66 | 141 | 186 | 471 | 1170 | 1440 | 2150 | 4020 |
| 2026-03-23 19:30 | 5.14 | 246 | 5820 (1959) | 23 (1956) | 934 | 49 | 66 | 141 | 186 | 471 | 1170 | 1440 | 2150 | 4020 |
| 2026-03-23 18:30 | 5.15 | 248 | 5820 (1959) | 23 (1956) | 934 | 49 | 66 | 141 | 186 | 471 | 1170 | 1440 | 2150 | 4020 |
| 2026-03-23 17:30 | 5.16 | 249 | 5820 (1959) | 23 (1956) | 934 | 49 | 66 | 141 | 186 | 471 | 1170 | 1440 | 2150 | 4020 |
| 2026-03-23 16:30 | 5.18 | 253 | 5820 (1959) | 23 (1956) | 934 | 49 | 66 | 141 | 186 | 471 | 1170 | 1440 | 2150 | 4020 |
| 2026-03-23 15:30 | 5.17 | 251 | 5820 (1959) | 23 (1956) | 934 | 49 | 66 | 141 | 186 | 471 | 1170 | 1440 | 2150 | 4020 |
| 2026-03-23 14:30 | 5.19 | 255 | 5820 (1959) | 23 (1956) | 934 | 49 | 66 | 141 | 186 | 471 | 1170 | 1440 | 2150 | 4020 |
| 2026-03-23 13:30 | 5.21 | 258 | 5820 (1959) | 23 (1956) | 934 | 49 | 66 | 141 | 186 | 471 | 1170 | 1440 | 2150 | 4020 |
| 2026-03-23 12:30 | 5.22 | 260 | 5820 (1959) | 23 (1956) | 934 | 49 | 66 | 141 | 186 | 471 | 1170 | 1440 | 2150 | 4020 |
| 2026-03-23 11:30 | 5.23 | 262 | 5820 (1959) | 23 (1956) | 934 | 49 | 66 | 141 | 186 | 471 | 1170 | 1440 | 2150 | 4020 |
| 2026-03-23 10:30 | 5.24 | 263 | 5820 (1959) | 23 (1956) | 934 | 49 | 66 | 141 | 186 | 471 | 1170 | 1440 | 2150 | 4020 |
| 2026-03-23 09:30 | 5.26 | 267 | 5820 (1959) | 23 (1956) | 934 | 49 | 66 | 141 | 186 | 471 | 1170 | 1440 | 2150 | 4020 |
| 2026-03-23 08:30 | 5.27 | 269 | 5820 (1959) | 23 (1956) | 934 | 49 | 66 | 141 | 186 | 471 | 1170 | 1440 | 2150 | 4020 |
| 2026-03-23 07:30 | 5.28 | 270 | 5820 (1959) | 23 (1956) | 934 | 49 | 66 | 141 | 186 | 471 | 1170 | 1440 | 2150 | 4020 |
| 2026-03-23 06:30 | 5.29 | 272 | 5820 (1959) | 23 (1956) | 934 | 49 | 66 | 141 | 186 | 471 | 1170 | 1440 | 2150 | 4020 |
| 2026-03-23 05:30 | 5.30 | 274 | 5820 (1959) | 23 (1956) | 934 | 49 | 66 | 141 | 186 | 471 | 1170 | 1440 | 2150 | 4020 |
| 2026-03-23 04:30 | 5.32 | 277 | 5820 (1959) | 23 (1956) | 934 | 49 | 66 | 141 | 186 | 471 | 1170 | 1440 | 2150 | 4020 |
| 2026-03-23 03:30 | 5.33 | 279 | 5820 (1959) | 23 (1956) | 934 | 49 | 66 | 141 | 186 | 471 | 1170 | 1440 | 2150 | 4020 |
| 2026-03-23 02:30 | 5.34 | 281 | 5820 (1959) | 23 (1956) | 934 | 49 | 66 | 141 | 186 | 471 | 1170 | 1440 | 2150 | 4020 |
| 2026-03-23 01:30 | 5.35 | 283 | 5820 (1959) | 23 (1956) | 934 | 49 | 66 | 141 | 186 | 471 | 1170 | 1440 | 2150 | 4020 |
| 2026-03-23 00:30 | 5.36 | 284 | 5820 (1959) | 23 (1956) | 934 | 49 | 66 | 141 | 186 | 471 | 1170 | 1440 | 2150 | 4020 |
| 2026-03-22 23:30 | 5.38 | 288 | 5820 (1959) | 23 (1956) | 934 | 49 | 66 | 141 | 186 | 471 | 1170 | 1440 | 2150 | 4020 |
| 2026-03-22 22:30 | 5.39 | 290 | 7660 (1962) | 20 (1956) | 1000 | 52 | 69 | 150 | 194 | 486 | 1040 | 1190 | 3200 | 4510 |
| 2026-03-22 21:30 | 5.40 | 292 | 7660 (1962) | 20 (1956) | 1000 | 52 | 69 | 150 | 194 | 486 | 1040 | 1190 | 3200 | 4510 |
| 2026-03-22 20:30 | 5.42 | 295 | 7660 (1962) | 20 (1956) | 1000 | 52 | 69 | 150 | 194 | 486 | 1040 | 1190 | 3200 | 4510 |
| 2026-03-22 19:30 | 5.42 | 295 | 7660 (1962) | 20 (1956) | 1000 | 52 | 69 | 150 | 194 | 486 | 1040 | 1190 | 3200 | 4510 |
| 2026-03-22 18:30 | 5.45 | 301 | 7660 (1962) | 20 (1956) | 1000 | 52 | 69 | 150 | 194 | 486 | 1040 | 1190 | 3200 | 4510 |
| 2026-03-22 17:30 | 5.46 | 303 | 7660 (1962) | 20 (1956) | 1000 | 52 | 69 | 150 | 194 | 486 | 1040 | 1190 | 3200 | 4510 |
| 2026-03-22 16:30 | 5.47 | 304 | 7660 (1962) | 20 (1956) | 1000 | 52 | 69 | 150 | 194 | 486 | 1040 | 1190 | 3200 | 4510 |
| 2026-03-22 15:30 | 5.47 | 304 | 7660 (1962) | 20 (1956) | 1000 | 52 | 69 | 150 | 194 | 486 | 1040 | 1190 | 3200 | 4510 |
| 2026-03-22 14:30 | 5.48 | 306 | 7660 (1962) | 20 (1956) | 1000 | 52 | 69 | 150 | 194 | 486 | 1040 | 1190 | 3200 | 4510 |
| 2026-03-22 13:30 | 5.50 | 310 | 7660 (1962) | 20 (1956) | 1000 | 52 | 69 | 150 | 194 | 486 | 1040 | 1190 | 3200 | 4510 |
| 2026-03-22 12:30 | 5.52 | 314 | 7660 (1962) | 20 (1956) | 1000 | 52 | 69 | 150 | 194 | 486 | 1040 | 1190 | 3200 | 4510 |
| 2026-03-22 11:30 | 5.52 | 314 | 7660 (1962) | 20 (1956) | 1000 | 52 | 69 | 150 | 194 | 486 | 1040 | 1190 | 3200 | 4510 |
| 2026-03-22 10:30 | 5.53 | 315 | 7660 (1962) | 20 (1956) | 1000 | 52 | 69 | 150 | 194 | 486 | 1040 | 1190 | 3200 | 4510 |
| 2026-03-22 09:30 | 5.55 | 319 | 7660 (1962) | 20 (1956) | 1000 | 52 | 69 | 150 | 194 | 486 | 1040 | 1190 | 3200 | 4510 |
| 2026-03-22 08:30 | 5.56 | 321 | 7660 (1962) | 20 (1956) | 1000 | 52 | 69 | 150 | 194 | 486 | 1040 | 1190 | 3200 | 4510 |
| 2026-03-22 07:30 | 5.58 | 325 | 7660 (1962) | 20 (1956) | 1000 | 52 | 69 | 150 | 194 | 486 | 1040 | 1190 | 3200 | 4510 |
| 2026-03-22 06:30 | 5.59 | 327 | 7660 (1962) | 20 (1956) | 1000 | 52 | 69 | 150 | 194 | 486 | 1040 | 1190 | 3200 | 4510 |
| 2026-03-22 05:30 | 5.59 | 327 | 7660 (1962) | 20 (1956) | 1000 | 52 | 69 | 150 | 194 | 486 | 1040 | 1190 | 3200 | 4510 |
| 2026-03-22 04:30 | 5.60 | 329 | 7660 (1962) | 20 (1956) | 1000 | 52 | 69 | 150 | 194 | 486 | 1040 | 1190 | 3200 | 4510 |
| 2026-03-22 03:30 | 5.61 | 330 | 7660 (1962) | 20 (1956) | 1000 | 52 | 69 | 150 | 194 | 486 | 1040 | 1190 | 3200 | 4510 |
| 2026-03-22 02:30 | 5.62 | 332 | 7660 (1962) | 20 (1956) | 1000 | 52 | 69 | 150 | 194 | 486 | 1040 | 1190 | 3200 | 4510 |
| 2026-03-22 01:30 | 5.65 | 338 | 7660 (1962) | 20 (1956) | 1000 | 52 | 69 | 150 | 194 | 486 | 1040 | 1190 | 3200 | 4510 |
| 2026-03-22 00:30 | 5.66 | 340 | 7660 (1962) | 20 (1956) | 1000 | 52 | 69 | 150 | 194 | 486 | 1040 | 1190 | 3200 | 4510 |
| 2026-03-21 23:30 | 5.66 | 340 | 7660 (1962) | 20 (1956) | 1000 | 52 | 69 | 150 | 194 | 486 | 1040 | 1190 | 3200 | 4510 |
| 2026-03-21 22:30 | 5.68 | 344 | 9200 (1979) | 17 (1957) | 1010 | 54 | 70 | 168 | 201 | 399 | 1270 | 1400 | 3060 | 4230 |
| 2026-03-21 21:30 | 5.69 | 346 | 9200 (1979) | 17 (1957) | 1010 | 54 | 70 | 168 | 201 | 399 | 1270 | 1400 | 3060 | 4230 |
| 2026-03-21 20:30 | 5.70 | 348 | 9200 (1979) | 17 (1957) | 1010 | 54 | 70 | 168 | 201 | 399 | 1270 | 1400 | 3060 | 4230 |
| 2026-03-21 19:30 | 5.71 | 350 | 9200 (1979) | 17 (1957) | 1010 | 54 | 70 | 168 | 201 | 399 | 1270 | 1400 | 3060 | 4230 |
| 2026-03-21 18:30 | 5.72 | 352 | 9200 (1979) | 17 (1957) | 1010 | 54 | 70 | 168 | 201 | 399 | 1270 | 1400 | 3060 | 4230 |
| 2026-03-21 17:30 | 5.74 | 355 | 9200 (1979) | 17 (1957) | 1010 | 54 | 70 | 168 | 201 | 399 | 1270 | 1400 | 3060 | 4230 |
| 2026-03-21 16:30 | 5.76 | 359 | 9200 (1979) | 17 (1957) | 1010 | 54 | 70 | 168 | 201 | 399 | 1270 | 1400 | 3060 | 4230 |
| 2026-03-21 15:30 | 5.76 | 359 | 9200 (1979) | 17 (1957) | 1010 | 54 | 70 | 168 | 201 | 399 | 1270 | 1400 | 3060 | 4230 |
| 2026-03-21 14:30 | 5.77 | 361 | 9200 (1979) | 17 (1957) | 1010 | 54 | 70 | 168 | 201 | 399 | 1270 | 1400 | 3060 | 4230 |
| 2026-03-21 13:30 | 5.79 | 365 | 9200 (1979) | 17 (1957) | 1010 | 54 | 70 | 168 | 201 | 399 | 1270 | 1400 | 3060 | 4230 |
| 2026-03-21 12:30 | 5.79 | 365 | 9200 (1979) | 17 (1957) | 1010 | 54 | 70 | 168 | 201 | 399 | 1270 | 1400 | 3060 | 4230 |
| 2026-03-21 11:30 | 5.79 | 365 | 9200 (1979) | 17 (1957) | 1010 | 54 | 70 | 168 | 201 | 399 | 1270 | 1400 | 3060 | 4230 |
| 2026-03-21 10:30 | 5.81 | 369 | 9200 (1979) | 17 (1957) | 1010 | 54 | 70 | 168 | 201 | 399 | 1270 | 1400 | 3060 | 4230 |
| 2026-03-21 09:30 | 5.81 | 369 | 9200 (1979) | 17 (1957) | 1010 | 54 | 70 | 168 | 201 | 399 | 1270 | 1400 | 3060 | 4230 |
| 2026-03-21 08:30 | 5.83 | 373 | 9200 (1979) | 17 (1957) | 1010 | 54 | 70 | 168 | 201 | 399 | 1270 | 1400 | 3060 | 4230 |
| 2026-03-21 07:30 | 5.82 | 371 | 9200 (1979) | 17 (1957) | 1010 | 54 | 70 | 168 | 201 | 399 | 1270 | 1400 | 3060 | 4230 |
| 2026-03-21 06:30 | 5.83 | 373 | 9200 (1979) | 17 (1957) | 1010 | 54 | 70 | 168 | 201 | 399 | 1270 | 1400 | 3060 | 4230 |
| 2026-03-21 05:30 | 5.84 | 375 | 9200 (1979) | 17 (1957) | 1010 | 54 | 70 | 168 | 201 | 399 | 1270 | 1400 | 3060 | 4230 |
| 2026-03-21 04:30 | 5.85 | 377 | 9200 (1979) | 17 (1957) | 1010 | 54 | 70 | 168 | 201 | 399 | 1270 | 1400 | 3060 | 4230 |
| 2026-03-21 03:30 | 5.85 | 377 | 9200 (1979) | 17 (1957) | 1010 | 54 | 70 | 168 | 201 | 399 | 1270 | 1400 | 3060 | 4230 |
| 2026-03-21 02:30 | 5.86 | 379 | 9200 (1979) | 17 (1957) | 1010 | 54 | 70 | 168 | 201 | 399 | 1270 | 1400 | 3060 | 4230 |
| 2026-03-21 01:30 | 5.87 | 381 | 9200 (1979) | 17 (1957) | 1010 | 54 | 70 | 168 | 201 | 399 | 1270 | 1400 | 3060 | 4230 |
| 2026-03-21 00:30 | 5.88 | 383 | 9200 (1979) | 17 (1957) | 1010 | 54 | 70 | 168 | 201 | 399 | 1270 | 1400 | 3060 | 4230 |
| 2026-03-20 23:30 | 5.90 | 387 | 9200 (1979) | 17 (1957) | 1010 | 54 | 70 | 168 | 201 | 399 | 1270 | 1400 | 3060 | 4230 |
| 2026-03-20 22:30 | 5.91 | 389 | 11100 (1979) | 15 (1954) | 1060 | 48 | 72 | 167 | 196 | 422 | 1520 | 1990 | 2840 | 4470 |
| 2026-03-20 21:30 | 5.92 | 391 | 11100 (1979) | 15 (1954) | 1060 | 48 | 72 | 167 | 196 | 422 | 1520 | 1990 | 2840 | 4470 |
| 2026-03-20 20:30 | 5.93 | 393 | 11100 (1979) | 15 (1954) | 1060 | 48 | 72 | 167 | 196 | 422 | 1520 | 1990 | 2840 | 4470 |
| 2026-03-20 19:30 | 5.94 | 395 | 11100 (1979) | 15 (1954) | 1060 | 48 | 72 | 167 | 196 | 422 | 1520 | 1990 | 2840 | 4470 |
| 2026-03-20 18:30 | 5.95 | 398 | 11100 (1979) | 15 (1954) | 1060 | 48 | 72 | 167 | 196 | 422 | 1520 | 1990 | 2840 | 4470 |
| 2026-03-20 17:30 | 5.97 | 402 | 11100 (1979) | 15 (1954) | 1060 | 48 | 72 | 167 | 196 | 422 | 1520 | 1990 | 2840 | 4470 |
| 2026-03-20 16:30 | 5.98 | 404 | 11100 (1979) | 15 (1954) | 1060 | 48 | 72 | 167 | 196 | 422 | 1520 | 1990 | 2840 | 4470 |
| 2026-03-20 15:30 | 5.99 | 406 | 11100 (1979) | 15 (1954) | 1060 | 48 | 72 | 167 | 196 | 422 | 1520 | 1990 | 2840 | 4470 |
| 2026-03-20 14:30 | 5.99 | 406 | 11100 (1979) | 15 (1954) | 1060 | 48 | 72 | 167 | 196 | 422 | 1520 | 1990 | 2840 | 4470 |
| 2026-03-20 13:30 | 5.98 | 404 | 11100 (1979) | 15 (1954) | 1060 | 48 | 72 | 167 | 196 | 422 | 1520 | 1990 | 2840 | 4470 |
| 2026-03-20 12:30 | 5.97 | 402 | 11100 (1979) | 15 (1954) | 1060 | 48 | 72 | 167 | 196 | 422 | 1520 | 1990 | 2840 | 4470 |
| 2026-03-20 11:30 | 5.95 | 398 | 11100 (1979) | 15 (1954) | 1060 | 48 | 72 | 167 | 196 | 422 | 1520 | 1990 | 2840 | 4470 |
| 2026-03-20 10:30 | 5.92 | 391 | 11100 (1979) | 15 (1954) | 1060 | 48 | 72 | 167 | 196 | 422 | 1520 | 1990 | 2840 | 4470 |
| 2026-03-20 09:30 | 5.89 | 385 | 11100 (1979) | 15 (1954) | 1060 | 48 | 72 | 167 | 196 | 422 | 1520 | 1990 | 2840 | 4470 |
| 2026-03-20 08:30 | 5.85 | 377 | 11100 (1979) | 15 (1954) | 1060 | 48 | 72 | 167 | 196 | 422 | 1520 | 1990 | 2840 | 4470 |
| 2026-03-20 07:30 | 5.80 | 367 | 11100 (1979) | 15 (1954) | 1060 | 48 | 72 | 167 | 196 | 422 | 1520 | 1990 | 2840 | 4470 |
| 2026-03-20 06:30 | 5.75 | 357 | 11100 (1979) | 15 (1954) | 1060 | 48 | 72 | 167 | 196 | 422 | 1520 | 1990 | 2840 | 4470 |
| 2026-03-20 05:30 | 5.71 | 350 | 11100 (1979) | 15 (1954) | 1060 | 48 | 72 | 167 | 196 | 422 | 1520 | 1990 | 2840 | 4470 |
| 2026-03-20 04:30 | 5.65 | 338 | 11100 (1979) | 15 (1954) | 1060 | 48 | 72 | 167 | 196 | 422 | 1520 | 1990 | 2840 | 4470 |
| 2026-03-20 03:30 | 5.60 | 329 | 11100 (1979) | 15 (1954) | 1060 | 48 | 72 | 167 | 196 | 422 | 1520 | 1990 | 2840 | 4470 |
| 2026-03-20 02:30 | 5.58 | 325 | 11100 (1979) | 15 (1954) | 1060 | 48 | 72 | 167 | 196 | 422 | 1520 | 1990 | 2840 | 4470 |
| 2026-03-20 01:30 | 5.56 | 321 | 11100 (1979) | 15 (1954) | 1060 | 48 | 72 | 167 | 196 | 422 | 1520 | 1990 | 2840 | 4470 |
| 2026-03-20 00:30 | 5.54 | 317 | 11100 (1979) | 15 (1954) | 1060 | 48 | 72 | 167 | 196 | 422 | 1520 | 1990 | 2840 | 4470 |
| 2026-03-19 23:30 | 5.55 | 319 | 11100 (1979) | 15 (1954) | 1060 | 48 | 72 | 167 | 196 | 422 | 1520 | 1990 | 2840 | 4470 |
| 2026-03-19 22:30 | 5.53 | 315 | 8680 (1979) | 15 (1954) | 1010 | 48 | 74 | 157 | 192 | 476 | 1460 | 1710 | 2810 | 3020 |
| 2026-03-19 21:30 | 5.49 | 308 | 8680 (1979) | 15 (1954) | 1010 | 48 | 74 | 157 | 192 | 476 | 1460 | 1710 | 2810 | 3020 |
| 2026-03-19 20:30 | 5.47 | 304 | 8680 (1979) | 15 (1954) | 1010 | 48 | 74 | 157 | 192 | 476 | 1460 | 1710 | 2810 | 3020 |
| 2026-03-19 19:30 | 5.45 | 301 | 8680 (1979) | 15 (1954) | 1010 | 48 | 74 | 157 | 192 | 476 | 1460 | 1710 | 2810 | 3020 |
| 2026-03-19 18:30 | 5.42 | 295 | 8680 (1979) | 15 (1954) | 1010 | 48 | 74 | 157 | 192 | 476 | 1460 | 1710 | 2810 | 3020 |
| 2026-03-19 17:30 | 5.39 | 290 | 8680 (1979) | 15 (1954) | 1010 | 48 | 74 | 157 | 192 | 476 | 1460 | 1710 | 2810 | 3020 |
| 2026-03-19 16:30 | 5.34 | 281 | 8680 (1979) | 15 (1954) | 1010 | 48 | 74 | 157 | 192 | 476 | 1460 | 1710 | 2810 | 3020 |
| 2026-03-19 15:30 | 5.30 | 274 | 8680 (1979) | 15 (1954) | 1010 | 48 | 74 | 157 | 192 | 476 | 1460 | 1710 | 2810 | 3020 |
| 2026-03-19 14:30 | 5.26 | 267 | 8680 (1979) | 15 (1954) | 1010 | 48 | 74 | 157 | 192 | 476 | 1460 | 1710 | 2810 | 3020 |
| 2026-03-19 13:30 | 5.21 | 258 | 8680 (1979) | 15 (1954) | 1010 | 48 | 74 | 157 | 192 | 476 | 1460 | 1710 | 2810 | 3020 |
| 2026-03-19 12:30 | 5.16 | 249 | 8680 (1979) | 15 (1954) | 1010 | 48 | 74 | 157 | 192 | 476 | 1460 | 1710 | 2810 | 3020 |
| 2026-03-19 11:30 | 5.11 | 240 | 8680 (1979) | 15 (1954) | 1010 | 48 | 74 | 157 | 192 | 476 | 1460 | 1710 | 2810 | 3020 |
| 2026-03-19 10:30 | 5.05 | 230 | 8680 (1979) | 15 (1954) | 1010 | 48 | 74 | 157 | 192 | 476 | 1460 | 1710 | 2810 | 3020 |
| 2026-03-19 09:30 | 4.99 | 220 | 8680 (1979) | 15 (1954) | 1010 | 48 | 74 | 157 | 192 | 476 | 1460 | 1710 | 2810 | 3020 |
| 2026-03-19 08:30 | 4.91 | 206 | 8680 (1979) | 15 (1954) | 1010 | 48 | 74 | 157 | 192 | 476 | 1460 | 1710 | 2810 | 3020 |
| 2026-03-19 07:30 | 4.85 | 196 | 8680 (1979) | 15 (1954) | 1010 | 48 | 74 | 157 | 192 | 476 | 1460 | 1710 | 2810 | 3020 |
| 2026-03-19 06:30 | 4.78 | 185 | 8680 (1979) | 15 (1954) | 1010 | 48 | 74 | 157 | 192 | 476 | 1460 | 1710 | 2810 | 3020 |
| 2026-03-19 05:30 | 4.72 | 176 | 8680 (1979) | 15 (1954) | 1010 | 48 | 74 | 157 | 192 | 476 | 1460 | 1710 | 2810 | 3020 |
| 2026-03-19 04:30 | 4.67 | 168 | 8680 (1979) | 15 (1954) | 1010 | 48 | 74 | 157 | 192 | 476 | 1460 | 1710 | 2810 | 3020 |
| 2026-03-19 03:30 | 4.64 | 164 | 8680 (1979) | 15 (1954) | 1010 | 48 | 74 | 157 | 192 | 476 | 1460 | 1710 | 2810 | 3020 |
| 2026-03-19 02:30 | 4.62 | 161 | 8680 (1979) | 15 (1954) | 1010 | 48 | 74 | 157 | 192 | 476 | 1460 | 1710 | 2810 | 3020 |
| 2026-03-19 01:30 | 4.61 | 159 | 8680 (1979) | 15 (1954) | 1010 | 48 | 74 | 157 | 192 | 476 | 1460 | 1710 | 2810 | 3020 |
| 2026-03-19 00:30 | 4.60 | 158 | 8680 (1979) | 15 (1954) | 1010 | 48 | 74 | 157 | 192 | 476 | 1460 | 1710 | 2810 | 3020 |
| 2026-03-18 23:30 | 4.62 | 161 | 8680 (1979) | 15 (1954) | 1010 | 48 | 74 | 157 | 192 | 476 | 1460 | 1710 | 2810 | 3020 |
| 2026-03-18 22:30 | 4.63 | 162 | 6190 (1979) | 12 (1954) | 951 | 52 | 77 | 141 | 205 | 494 | 1020 | 1090 | 2490 | 5110 |
| 2026-03-18 21:30 | 4.65 | 165 | 6190 (1979) | 12 (1954) | 951 | 52 | 77 | 141 | 205 | 494 | 1020 | 1090 | 2490 | 5110 |
| 2026-03-18 20:30 | 4.68 | 170 | 6190 (1979) | 12 (1954) | 951 | 52 | 77 | 141 | 205 | 494 | 1020 | 1090 | 2490 | 5110 |
| 2026-03-18 19:30 | 4.68 | 170 | 6190 (1979) | 12 (1954) | 951 | 52 | 77 | 141 | 205 | 494 | 1020 | 1090 | 2490 | 5110 |
| 2026-03-18 18:30 | 4.68 | 170 | 6190 (1979) | 12 (1954) | 951 | 52 | 77 | 141 | 205 | 494 | 1020 | 1090 | 2490 | 5110 |
| 2026-03-18 17:30 | 4.68 | 170 | 6190 (1979) | 12 (1954) | 951 | 52 | 77 | 141 | 205 | 494 | 1020 | 1090 | 2490 | 5110 |
| 2026-03-18 16:30 | 4.65 | 165 | 6190 (1979) | 12 (1954) | 951 | 52 | 77 | 141 | 205 | 494 | 1020 | 1090 | 2490 | 5110 |
| 2026-03-18 15:30 | 4.64 | 164 | 6190 (1979) | 12 (1954) | 951 | 52 | 77 | 141 | 205 | 494 | 1020 | 1090 | 2490 | 5110 |
| 2026-03-18 14:30 | 4.61 | 159 | 6190 (1979) | 12 (1954) | 951 | 52 | 77 | 141 | 205 | 494 | 1020 | 1090 | 2490 | 5110 |
| 2026-03-18 13:30 | 4.60 | 158 | 6190 (1979) | 12 (1954) | 951 | 52 | 77 | 141 | 205 | 494 | 1020 | 1090 | 2490 | 5110 |
| 2026-03-18 12:30 | 4.57 | 153 | 6190 (1979) | 12 (1954) | 951 | 52 | 77 | 141 | 205 | 494 | 1020 | 1090 | 2490 | 5110 |
| 2026-03-18 11:30 | 4.56 | 152 | 6190 (1979) | 12 (1954) | 951 | 52 | 77 | 141 | 205 | 494 | 1020 | 1090 | 2490 | 5110 |
| 2026-03-18 10:30 | 4.55 | 150 | 6190 (1979) | 12 (1954) | 951 | 52 | 77 | 141 | 205 | 494 | 1020 | 1090 | 2490 | 5110 |
| 2026-03-18 09:30 | 4.55 | 150 | 6190 (1979) | 12 (1954) | 951 | 52 | 77 | 141 | 205 | 494 | 1020 | 1090 | 2490 | 5110 |
| 2026-03-18 08:30 | 4.56 | 152 | 6190 (1979) | 12 (1954) | 951 | 52 | 77 | 141 | 205 | 494 | 1020 | 1090 | 2490 | 5110 |
| 2026-03-18 07:30 | 4.58 | 155 | 6190 (1979) | 12 (1954) | 951 | 52 | 77 | 141 | 205 | 494 | 1020 | 1090 | 2490 | 5110 |
| 2026-03-18 06:30 | 4.61 | 159 | 6190 (1979) | 12 (1954) | 951 | 52 | 77 | 141 | 205 | 494 | 1020 | 1090 | 2490 | 5110 |
| 2026-03-18 05:30 | 4.63 | 162 | 6190 (1979) | 12 (1954) | 951 | 52 | 77 | 141 | 205 | 494 | 1020 | 1090 | 2490 | 5110 |
| 2026-03-18 04:30 | 4.67 | 168 | 6190 (1979) | 12 (1954) | 951 | 52 | 77 | 141 | 205 | 494 | 1020 | 1090 | 2490 | 5110 |
| 2026-03-18 03:30 | 4.71 | 174 | 6190 (1979) | 12 (1954) | 951 | 52 | 77 | 141 | 205 | 494 | 1020 | 1090 | 2490 | 5110 |
| 2026-03-18 02:30 | 4.74 | 179 | 6190 (1979) | 12 (1954) | 951 | 52 | 77 | 141 | 205 | 494 | 1020 | 1090 | 2490 | 5110 |
| 2026-03-18 01:30 | 4.78 | 185 | 6190 (1979) | 12 (1954) | 951 | 52 | 77 | 141 | 205 | 494 | 1020 | 1090 | 2490 | 5110 |
| 2026-03-18 00:30 | 4.81 | 190 | 6190 (1979) | 12 (1954) | 951 | 52 | 77 | 141 | 205 | 494 | 1020 | 1090 | 2490 | 5110 |
| 2026-03-17 23:30 | 4.85 | 196 | 6190 (1979) | 12 (1954) | 951 | 52 | 77 | 141 | 205 | 494 | 1020 | 1090 | 2490 | 5110 |
| 2026-03-17 22:30 | 4.88 | 201 | 7550 (2019) | 14 (1957) | 978 | 54 | 86 | 151 | 215 | 475 | 1040 | 1220 | 3070 | 5000 |
| 2026-03-17 21:30 | 4.91 | 206 | 7550 (2019) | 14 (1957) | 978 | 54 | 86 | 151 | 215 | 475 | 1040 | 1220 | 3070 | 5000 |
| 2026-03-17 20:30 | 4.93 | 209 | 7550 (2019) | 14 (1957) | 978 | 54 | 86 | 151 | 215 | 475 | 1040 | 1220 | 3070 | 5000 |
| 2026-03-17 19:30 | 4.95 | 213 | 7550 (2019) | 14 (1957) | 978 | 54 | 86 | 151 | 215 | 475 | 1040 | 1220 | 3070 | 5000 |
| 2026-03-17 18:30 | 4.98 | 218 | 7550 (2019) | 14 (1957) | 978 | 54 | 86 | 151 | 215 | 475 | 1040 | 1220 | 3070 | 5000 |
| 2026-03-17 17:30 | 5.00 | 221 | 7550 (2019) | 14 (1957) | 978 | 54 | 86 | 151 | 215 | 475 | 1040 | 1220 | 3070 | 5000 |
| 2026-03-17 16:30 | 5.01 | 223 | 7550 (2019) | 14 (1957) | 978 | 54 | 86 | 151 | 215 | 475 | 1040 | 1220 | 3070 | 5000 |
| 2026-03-17 15:30 | 5.02 | 225 | 7550 (2019) | 14 (1957) | 978 | 54 | 86 | 151 | 215 | 475 | 1040 | 1220 | 3070 | 5000 |
| 2026-03-17 14:30 | 5.03 | 226 | 7550 (2019) | 14 (1957) | 978 | 54 | 86 | 151 | 215 | 475 | 1040 | 1220 | 3070 | 5000 |
| 2026-03-17 13:30 | 5.04 | 228 | 7550 (2019) | 14 (1957) | 978 | 54 | 86 | 151 | 215 | 475 | 1040 | 1220 | 3070 | 5000 |
| 2026-03-17 12:30 | 5.06 | 232 | 7550 (2019) | 14 (1957) | 978 | 54 | 86 | 151 | 215 | 475 | 1040 | 1220 | 3070 | 5000 |
| 2026-03-17 11:30 | 5.06 | 232 | 7550 (2019) | 14 (1957) | 978 | 54 | 86 | 151 | 215 | 475 | 1040 | 1220 | 3070 | 5000 |
| 2026-03-17 10:30 | 5.06 | 232 | 7550 (2019) | 14 (1957) | 978 | 54 | 86 | 151 | 215 | 475 | 1040 | 1220 | 3070 | 5000 |
| 2026-03-17 09:30 | 5.07 | 233 | 7550 (2019) | 14 (1957) | 978 | 54 | 86 | 151 | 215 | 475 | 1040 | 1220 | 3070 | 5000 |
| 2026-03-17 08:30 | 5.07 | 233 | 7550 (2019) | 14 (1957) | 978 | 54 | 86 | 151 | 215 | 475 | 1040 | 1220 | 3070 | 5000 |
| 2026-03-17 07:30 | 5.07 | 233 | 7550 (2019) | 14 (1957) | 978 | 54 | 86 | 151 | 215 | 475 | 1040 | 1220 | 3070 | 5000 |
| 2026-03-17 06:30 | 5.07 | 233 | 7550 (2019) | 14 (1957) | 978 | 54 | 86 | 151 | 215 | 475 | 1040 | 1220 | 3070 | 5000 |
| 2026-03-17 05:30 | 5.07 | 233 | 7550 (2019) | 14 (1957) | 978 | 54 | 86 | 151 | 215 | 475 | 1040 | 1220 | 3070 | 5000 |
| 2026-03-17 04:30 | 5.06 | 232 | 7550 (2019) | 14 (1957) | 978 | 54 | 86 | 151 | 215 | 475 | 1040 | 1220 | 3070 | 5000 |
| 2026-03-17 03:30 | 5.06 | 232 | 7550 (2019) | 14 (1957) | 978 | 54 | 86 | 151 | 215 | 475 | 1040 | 1220 | 3070 | 5000 |
| 2026-03-17 02:30 | 5.07 | 233 | 7550 (2019) | 14 (1957) | 978 | 54 | 86 | 151 | 215 | 475 | 1040 | 1220 | 3070 | 5000 |
| 2026-03-17 01:30 | 5.07 | 233 | 7550 (2019) | 14 (1957) | 978 | 54 | 86 | 151 | 215 | 475 | 1040 | 1220 | 3070 | 5000 |
| 2026-03-17 00:30 | 5.07 | 233 | 7550 (2019) | 14 (1957) | 978 | 54 | 86 | 151 | 215 | 475 | 1040 | 1220 | 3070 | 5000 |
| 2026-03-16 23:30 | 5.08 | 235 | 7550 (2019) | 14 (1957) | 978 | 54 | 86 | 151 | 215 | 475 | 1040 | 1220 | 3070 | 5000 |
| 2026-03-16 22:30 | 5.08 | 235 | 11500 (2019) | 15 (1957) | 1080 | 56 | 95 | 156 | 216 | 456 | 1240 | 1360 | 2760 | 4380 |
| 2026-03-16 21:30 | 5.08 | 235 | 11500 (2019) | 15 (1957) | 1080 | 56 | 95 | 156 | 216 | 456 | 1240 | 1360 | 2760 | 4380 |
| 2026-03-16 20:30 | 5.10 | 239 | 11500 (2019) | 15 (1957) | 1080 | 56 | 95 | 156 | 216 | 456 | 1240 | 1360 | 2760 | 4380 |
| 2026-03-16 19:30 | 5.10 | 239 | 11500 (2019) | 15 (1957) | 1080 | 56 | 95 | 156 | 216 | 456 | 1240 | 1360 | 2760 | 4380 |
| 2026-03-16 18:30 | 5.10 | 239 | 11500 (2019) | 15 (1957) | 1080 | 56 | 95 | 156 | 216 | 456 | 1240 | 1360 | 2760 | 4380 |
| 2026-03-16 17:30 | 5.13 | 244 | 11500 (2019) | 15 (1957) | 1080 | 56 | 95 | 156 | 216 | 456 | 1240 | 1360 | 2760 | 4380 |
| 2026-03-16 16:30 | 5.14 | 246 | 11500 (2019) | 15 (1957) | 1080 | 56 | 95 | 156 | 216 | 456 | 1240 | 1360 | 2760 | 4380 |
| 2026-03-16 15:30 | 5.13 | 244 | 11500 (2019) | 15 (1957) | 1080 | 56 | 95 | 156 | 216 | 456 | 1240 | 1360 | 2760 | 4380 |
| 2026-03-16 14:30 | 5.16 | 249 | 11500 (2019) | 15 (1957) | 1080 | 56 | 95 | 156 | 216 | 456 | 1240 | 1360 | 2760 | 4380 |
| 2026-03-16 13:30 | 5.14 | 246 | 11500 (2019) | 15 (1957) | 1080 | 56 | 95 | 156 | 216 | 456 | 1240 | 1360 | 2760 | 4380 |
| 2026-03-16 12:30 | 5.16 | 249 | 11500 (2019) | 15 (1957) | 1080 | 56 | 95 | 156 | 216 | 456 | 1240 | 1360 | 2760 | 4380 |
| 2026-03-16 11:30 | 5.15 | 248 | 11500 (2019) | 15 (1957) | 1080 | 56 | 95 | 156 | 216 | 456 | 1240 | 1360 | 2760 | 4380 |
| 2026-03-16 10:30 | 5.15 | 248 | 11500 (2019) | 15 (1957) | 1080 | 56 | 95 | 156 | 216 | 456 | 1240 | 1360 | 2760 | 4380 |
| 2026-03-16 09:30 | 5.15 | 248 | 11500 (2019) | 15 (1957) | 1080 | 56 | 95 | 156 | 216 | 456 | 1240 | 1360 | 2760 | 4380 |
| 2026-03-16 08:30 | 5.16 | 249 | 11500 (2019) | 15 (1957) | 1080 | 56 | 95 | 156 | 216 | 456 | 1240 | 1360 | 2760 | 4380 |
| 2026-03-16 07:30 | 5.17 | 251 | 11500 (2019) | 15 (1957) | 1080 | 56 | 95 | 156 | 216 | 456 | 1240 | 1360 | 2760 | 4380 |
| 2026-03-16 06:30 | 5.18 | 253 | 11500 (2019) | 15 (1957) | 1080 | 56 | 95 | 156 | 216 | 456 | 1240 | 1360 | 2760 | 4380 |
| 2026-03-16 05:30 | 5.19 | 255 | 11500 (2019) | 15 (1957) | 1080 | 56 | 95 | 156 | 216 | 456 | 1240 | 1360 | 2760 | 4380 |
| 2026-03-16 04:30 | 5.20 | 257 | 11500 (2019) | 15 (1957) | 1080 | 56 | 95 | 156 | 216 | 456 | 1240 | 1360 | 2760 | 4380 |
| 2026-03-16 03:30 | 5.20 | 257 | 11500 (2019) | 15 (1957) | 1080 | 56 | 95 | 156 | 216 | 456 | 1240 | 1360 | 2760 | 4380 |
| 2026-03-16 02:30 | 5.22 | 260 | 11500 (2019) | 15 (1957) | 1080 | 56 | 95 | 156 | 216 | 456 | 1240 | 1360 | 2760 | 4380 |
| 2026-03-16 01:30 | 5.22 | 260 | 11500 (2019) | 15 (1957) | 1080 | 56 | 95 | 156 | 216 | 456 | 1240 | 1360 | 2760 | 4380 |
| 2026-03-16 00:30 | 5.24 | 263 | 11500 (2019) | 15 (1957) | 1080 | 56 | 95 | 156 | 216 | 456 | 1240 | 1360 | 2760 | 4380 |
| 2026-03-15 23:30 | 5.22 | 260 | 11500 (2019) | 15 (1957) | 1080 | 56 | 95 | 156 | 216 | 456 | 1240 | 1360 | 2760 | 4380 |
| 2026-03-15 22:30 | 5.23 | 262 | 10300 (2019) | 17 (1957) | 1100 | 56 | 109 | 162 | 200 | 422 | 1260 | 1600 | 3040 | 4390 |
| 2026-03-15 21:30 | 5.21 | 258 | 10300 (2019) | 17 (1957) | 1100 | 56 | 109 | 162 | 200 | 422 | 1260 | 1600 | 3040 | 4390 |
| 2026-03-15 20:30 | 5.22 | 260 | 10300 (2019) | 17 (1957) | 1100 | 56 | 109 | 162 | 200 | 422 | 1260 | 1600 | 3040 | 4390 |
| 2026-03-15 19:30 | 5.23 | 262 | 10300 (2019) | 17 (1957) | 1100 | 56 | 109 | 162 | 200 | 422 | 1260 | 1600 | 3040 | 4390 |
| 2026-03-15 18:30 | 5.24 | 263 | 10300 (2019) | 17 (1957) | 1100 | 56 | 109 | 162 | 200 | 422 | 1260 | 1600 | 3040 | 4390 |
| 2026-03-15 17:30 | 5.23 | 262 | 10300 (2019) | 17 (1957) | 1100 | 56 | 109 | 162 | 200 | 422 | 1260 | 1600 | 3040 | 4390 |
| 2026-03-15 16:30 | 5.23 | 262 | 10300 (2019) | 17 (1957) | 1100 | 56 | 109 | 162 | 200 | 422 | 1260 | 1600 | 3040 | 4390 |
| 2026-03-15 15:30 | 5.24 | 263 | 10300 (2019) | 17 (1957) | 1100 | 56 | 109 | 162 | 200 | 422 | 1260 | 1600 | 3040 | 4390 |
| 2026-03-15 14:30 | 5.25 | 265 | 10300 (2019) | 17 (1957) | 1100 | 56 | 109 | 162 | 200 | 422 | 1260 | 1600 | 3040 | 4390 |
| 2026-03-15 13:30 | 5.26 | 267 | 10300 (2019) | 17 (1957) | 1100 | 56 | 109 | 162 | 200 | 422 | 1260 | 1600 | 3040 | 4390 |
| 2026-03-15 12:30 | 5.25 | 265 | 10300 (2019) | 17 (1957) | 1100 | 56 | 109 | 162 | 200 | 422 | 1260 | 1600 | 3040 | 4390 |
| 2026-03-15 11:30 | 5.26 | 267 | 10300 (2019) | 17 (1957) | 1100 | 56 | 109 | 162 | 200 | 422 | 1260 | 1600 | 3040 | 4390 |
| 2026-03-15 10:30 | 5.25 | 265 | 10300 (2019) | 17 (1957) | 1100 | 56 | 109 | 162 | 200 | 422 | 1260 | 1600 | 3040 | 4390 |
| 2026-03-15 09:30 | 5.26 | 267 | 10300 (2019) | 17 (1957) | 1100 | 56 | 109 | 162 | 200 | 422 | 1260 | 1600 | 3040 | 4390 |
| 2026-03-15 08:30 | 5.24 | 263 | 10300 (2019) | 17 (1957) | 1100 | 56 | 109 | 162 | 200 | 422 | 1260 | 1600 | 3040 | 4390 |
| 2026-03-15 07:30 | 5.24 | 263 | 10300 (2019) | 17 (1957) | 1100 | 56 | 109 | 162 | 200 | 422 | 1260 | 1600 | 3040 | 4390 |
| 2026-03-15 06:30 | 5.25 | 265 | 10300 (2019) | 17 (1957) | 1100 | 56 | 109 | 162 | 200 | 422 | 1260 | 1600 | 3040 | 4390 |
| 2026-03-15 05:30 | 5.25 | 265 | 10300 (2019) | 17 (1957) | 1100 | 56 | 109 | 162 | 200 | 422 | 1260 | 1600 | 3040 | 4390 |
| 2026-03-15 04:30 | 5.25 | 265 | 10300 (2019) | 17 (1957) | 1100 | 56 | 109 | 162 | 200 | 422 | 1260 | 1600 | 3040 | 4390 |
| 2026-03-15 03:30 | 5.25 | 265 | 10300 (2019) | 17 (1957) | 1100 | 56 | 109 | 162 | 200 | 422 | 1260 | 1600 | 3040 | 4390 |
| 2026-03-15 02:30 | 5.25 | 265 | 10300 (2019) | 17 (1957) | 1100 | 56 | 109 | 162 | 200 | 422 | 1260 | 1600 | 3040 | 4390 |
| 2026-03-15 01:30 | 5.26 | 267 | 10300 (2019) | 17 (1957) | 1100 | 56 | 109 | 162 | 200 | 422 | 1260 | 1600 | 3040 | 4390 |
| 2026-03-15 00:30 | 5.26 | 267 | 10300 (2019) | 17 (1957) | 1100 | 56 | 109 | 162 | 200 | 422 | 1260 | 1600 | 3040 | 4390 |
| 2026-03-14 23:30 | 5.26 | 267 | 10300 (2019) | 17 (1957) | 1100 | 56 | 109 | 162 | 200 | 422 | 1260 | 1600 | 3040 | 4390 |
| 2026-03-14 22:30 | 5.27 | 269 | 7450 (2010) | 13 (1954) | 1080 | 56 | 106 | 172 | 207 | 427 | 1270 | 1780 | 3070 | 5170 |
| 2026-03-14 21:30 | 5.26 | 267 | 7450 (2010) | 13 (1954) | 1080 | 56 | 106 | 172 | 207 | 427 | 1270 | 1780 | 3070 | 5170 |
| 2026-03-14 20:30 | 5.27 | 269 | 7450 (2010) | 13 (1954) | 1080 | 56 | 106 | 172 | 207 | 427 | 1270 | 1780 | 3070 | 5170 |
| 2026-03-14 19:30 | 5.28 | 270 | 7450 (2010) | 13 (1954) | 1080 | 56 | 106 | 172 | 207 | 427 | 1270 | 1780 | 3070 | 5170 |
| 2026-03-14 18:30 | 5.28 | 270 | 7450 (2010) | 13 (1954) | 1080 | 56 | 106 | 172 | 207 | 427 | 1270 | 1780 | 3070 | 5170 |
| 2026-03-14 17:30 | 5.29 | 272 | 7450 (2010) | 13 (1954) | 1080 | 56 | 106 | 172 | 207 | 427 | 1270 | 1780 | 3070 | 5170 |
| 2026-03-14 16:30 | 5.30 | 274 | 7450 (2010) | 13 (1954) | 1080 | 56 | 106 | 172 | 207 | 427 | 1270 | 1780 | 3070 | 5170 |
| 2026-03-14 15:30 | 5.29 | 272 | 7450 (2010) | 13 (1954) | 1080 | 56 | 106 | 172 | 207 | 427 | 1270 | 1780 | 3070 | 5170 |
| 2026-03-14 14:30 | 5.29 | 272 | 7450 (2010) | 13 (1954) | 1080 | 56 | 106 | 172 | 207 | 427 | 1270 | 1780 | 3070 | 5170 |
| 2026-03-14 13:30 | 5.29 | 272 | 7450 (2010) | 13 (1954) | 1080 | 56 | 106 | 172 | 207 | 427 | 1270 | 1780 | 3070 | 5170 |
| 2026-03-14 12:30 | 5.30 | 274 | 7450 (2010) | 13 (1954) | 1080 | 56 | 106 | 172 | 207 | 427 | 1270 | 1780 | 3070 | 5170 |
| 2026-03-14 11:30 | 5.31 | 276 | 7450 (2010) | 13 (1954) | 1080 | 56 | 106 | 172 | 207 | 427 | 1270 | 1780 | 3070 | 5170 |
| 2026-03-14 10:30 | 5.31 | 276 | 7450 (2010) | 13 (1954) | 1080 | 56 | 106 | 172 | 207 | 427 | 1270 | 1780 | 3070 | 5170 |
| 2026-03-14 09:30 | 5.31 | 276 | 7450 (2010) | 13 (1954) | 1080 | 56 | 106 | 172 | 207 | 427 | 1270 | 1780 | 3070 | 5170 |
| 2026-03-14 08:30 | 5.31 | 276 | 7450 (2010) | 13 (1954) | 1080 | 56 | 106 | 172 | 207 | 427 | 1270 | 1780 | 3070 | 5170 |
| 2026-03-14 07:30 | 5.32 | 277 | 7450 (2010) | 13 (1954) | 1080 | 56 | 106 | 172 | 207 | 427 | 1270 | 1780 | 3070 | 5170 |
| 2026-03-14 06:30 | 5.32 | 277 | 7450 (2010) | 13 (1954) | 1080 | 56 | 106 | 172 | 207 | 427 | 1270 | 1780 | 3070 | 5170 |
| 2026-03-14 05:30 | 5.33 | 279 | 7450 (2010) | 13 (1954) | 1080 | 56 | 106 | 172 | 207 | 427 | 1270 | 1780 | 3070 | 5170 |
| 2026-03-14 04:30 | 5.33 | 279 | 7450 (2010) | 13 (1954) | 1080 | 56 | 106 | 172 | 207 | 427 | 1270 | 1780 | 3070 | 5170 |
| 2026-03-14 03:30 | 5.35 | 283 | 7450 (2010) | 13 (1954) | 1080 | 56 | 106 | 172 | 207 | 427 | 1270 | 1780 | 3070 | 5170 |
| 2026-03-14 02:30 | 5.35 | 283 | 7450 (2010) | 13 (1954) | 1080 | 56 | 106 | 172 | 207 | 427 | 1270 | 1780 | 3070 | 5170 |
| 2026-03-14 01:30 | 5.36 | 284 | 7450 (2010) | 13 (1954) | 1080 | 56 | 106 | 172 | 207 | 427 | 1270 | 1780 | 3070 | 5170 |
| 2026-03-14 00:30 | 5.36 | 284 | 7450 (2010) | 13 (1954) | 1080 | 56 | 106 | 172 | 207 | 427 | 1270 | 1780 | 3070 | 5170 |
| 2026-03-13 23:30 | 5.37 | 286 | 7450 (2010) | 13 (1954) | 1080 | 56 | 106 | 172 | 207 | 427 | 1270 | 1780 | 3070 | 5170 |
| 2026-03-13 22:30 | 5.38 | 288 | 6990 (2010) | 9 (1954) | 1090 | 56 | 87 | 175 | 223 | 443 | 1170 | 1620 | 2910 | 5270 |
| 2026-03-13 21:30 | 5.38 | 288 | 6990 (2010) | 9 (1954) | 1090 | 56 | 87 | 175 | 223 | 443 | 1170 | 1620 | 2910 | 5270 |
| 2026-03-13 20:30 | 5.40 | 292 | 6990 (2010) | 9 (1954) | 1090 | 56 | 87 | 175 | 223 | 443 | 1170 | 1620 | 2910 | 5270 |
| 2026-03-13 19:30 | 5.41 | 293 | 6990 (2010) | 9 (1954) | 1090 | 56 | 87 | 175 | 223 | 443 | 1170 | 1620 | 2910 | 5270 |
| 2026-03-13 18:30 | 5.42 | 295 | 6990 (2010) | 9 (1954) | 1090 | 56 | 87 | 175 | 223 | 443 | 1170 | 1620 | 2910 | 5270 |
| 2026-03-13 17:30 | 5.43 | 297 | 6990 (2010) | 9 (1954) | 1090 | 56 | 87 | 175 | 223 | 443 | 1170 | 1620 | 2910 | 5270 |
| 2026-03-13 16:30 | 5.43 | 297 | 6990 (2010) | 9 (1954) | 1090 | 56 | 87 | 175 | 223 | 443 | 1170 | 1620 | 2910 | 5270 |
| 2026-03-13 15:30 | 5.45 | 301 | 6990 (2010) | 9 (1954) | 1090 | 56 | 87 | 175 | 223 | 443 | 1170 | 1620 | 2910 | 5270 |
| 2026-03-13 14:30 | 5.47 | 304 | 6990 (2010) | 9 (1954) | 1090 | 56 | 87 | 175 | 223 | 443 | 1170 | 1620 | 2910 | 5270 |
| 2026-03-13 13:30 | 5.46 | 303 | 6990 (2010) | 9 (1954) | 1090 | 56 | 87 | 175 | 223 | 443 | 1170 | 1620 | 2910 | 5270 |
| 2026-03-13 12:30 | 5.49 | 308 | 6990 (2010) | 9 (1954) | 1090 | 56 | 87 | 175 | 223 | 443 | 1170 | 1620 | 2910 | 5270 |
| 2026-03-13 11:30 | 5.48 | 306 | 6990 (2010) | 9 (1954) | 1090 | 56 | 87 | 175 | 223 | 443 | 1170 | 1620 | 2910 | 5270 |
| 2026-03-13 10:30 | 5.49 | 308 | 6990 (2010) | 9 (1954) | 1090 | 56 | 87 | 175 | 223 | 443 | 1170 | 1620 | 2910 | 5270 |
| 2026-03-13 09:30 | 5.51 | 312 | 6990 (2010) | 9 (1954) | 1090 | 56 | 87 | 175 | 223 | 443 | 1170 | 1620 | 2910 | 5270 |
| 2026-03-13 08:30 | 5.52 | 314 | 6990 (2010) | 9 (1954) | 1090 | 56 | 87 | 175 | 223 | 443 | 1170 | 1620 | 2910 | 5270 |
| 2026-03-13 07:30 | 5.52 | 314 | 6990 (2010) | 9 (1954) | 1090 | 56 | 87 | 175 | 223 | 443 | 1170 | 1620 | 2910 | 5270 |
| 2026-03-13 06:30 | 5.53 | 315 | 6990 (2010) | 9 (1954) | 1090 | 56 | 87 | 175 | 223 | 443 | 1170 | 1620 | 2910 | 5270 |
| 2026-03-13 05:30 | 5.54 | 317 | 6990 (2010) | 9 (1954) | 1090 | 56 | 87 | 175 | 223 | 443 | 1170 | 1620 | 2910 | 5270 |
| 2026-03-13 04:30 | 5.55 | 319 | 6990 (2010) | 9 (1954) | 1090 | 56 | 87 | 175 | 223 | 443 | 1170 | 1620 | 2910 | 5270 |
| 2026-03-13 03:30 | 5.56 | 321 | 6990 (2010) | 9 (1954) | 1090 | 56 | 87 | 175 | 223 | 443 | 1170 | 1620 | 2910 | 5270 |
| 2026-03-13 02:30 | 5.56 | 321 | 6990 (2010) | 9 (1954) | 1090 | 56 | 87 | 175 | 223 | 443 | 1170 | 1620 | 2910 | 5270 |
| 2026-03-13 01:30 | 5.57 | 323 | 6990 (2010) | 9 (1954) | 1090 | 56 | 87 | 175 | 223 | 443 | 1170 | 1620 | 2910 | 5270 |
| 2026-03-13 00:30 | 5.59 | 327 | 6990 (2010) | 9 (1954) | 1090 | 56 | 87 | 175 | 223 | 443 | 1170 | 1620 | 2910 | 5270 |
| 2026-03-12 23:30 | 5.59 | 327 | 6990 (2010) | 9 (1954) | 1090 | 56 | 87 | 175 | 223 | 443 | 1170 | 1620 | 2910 | 5270 |
| 2026-03-12 22:30 | 5.61 | 330 | 7040 (2009) | 6 (1954) | 919 | 56 | 86 | 170 | 207 | 495 | 986 | 1100 | 2590 | 3670 |
| 2026-03-12 21:30 | 5.61 | 330 | 7040 (2009) | 6 (1954) | 919 | 56 | 86 | 170 | 207 | 495 | 986 | 1100 | 2590 | 3670 |
| 2026-03-12 20:30 | 5.62 | 332 | 7040 (2009) | 6 (1954) | 919 | 56 | 86 | 170 | 207 | 495 | 986 | 1100 | 2590 | 3670 |
| 2026-03-12 19:30 | 5.63 | 334 | 7040 (2009) | 6 (1954) | 919 | 56 | 86 | 170 | 207 | 495 | 986 | 1100 | 2590 | 3670 |
| 2026-03-12 18:30 | 5.64 | 336 | 7040 (2009) | 6 (1954) | 919 | 56 | 86 | 170 | 207 | 495 | 986 | 1100 | 2590 | 3670 |
| 2026-03-12 17:30 | 5.64 | 336 | 7040 (2009) | 6 (1954) | 919 | 56 | 86 | 170 | 207 | 495 | 986 | 1100 | 2590 | 3670 |
| 2026-03-12 16:30 | 5.66 | 340 | 7040 (2009) | 6 (1954) | 919 | 56 | 86 | 170 | 207 | 495 | 986 | 1100 | 2590 | 3670 |
| 2026-03-12 15:30 | 5.67 | 342 | 7040 (2009) | 6 (1954) | 919 | 56 | 86 | 170 | 207 | 495 | 986 | 1100 | 2590 | 3670 |
| 2026-03-12 14:30 | 5.67 | 342 | 7040 (2009) | 6 (1954) | 919 | 56 | 86 | 170 | 207 | 495 | 986 | 1100 | 2590 | 3670 |
| 2026-03-12 13:30 | 5.68 | 344 | 7040 (2009) | 6 (1954) | 919 | 56 | 86 | 170 | 207 | 495 | 986 | 1100 | 2590 | 3670 |
| 2026-03-12 12:30 | 5.70 | 348 | 7040 (2009) | 6 (1954) | 919 | 56 | 86 | 170 | 207 | 495 | 986 | 1100 | 2590 | 3670 |
| 2026-03-12 11:30 | 5.71 | 350 | 7040 (2009) | 6 (1954) | 919 | 56 | 86 | 170 | 207 | 495 | 986 | 1100 | 2590 | 3670 |
| 2026-03-12 10:30 | 5.74 | 355 | 7040 (2009) | 6 (1954) | 919 | 56 | 86 | 170 | 207 | 495 | 986 | 1100 | 2590 | 3670 |
| 2026-03-12 09:30 | 5.74 | 355 | 7040 (2009) | 6 (1954) | 919 | 56 | 86 | 170 | 207 | 495 | 986 | 1100 | 2590 | 3670 |
| 2026-03-12 08:30 | 5.74 | 355 | 7040 (2009) | 6 (1954) | 919 | 56 | 86 | 170 | 207 | 495 | 986 | 1100 | 2590 | 3670 |
| 2026-03-12 07:30 | 5.76 | 359 | 7040 (2009) | 6 (1954) | 919 | 56 | 86 | 170 | 207 | 495 | 986 | 1100 | 2590 | 3670 |
| 2026-03-12 06:30 | 5.77 | 361 | 7040 (2009) | 6 (1954) | 919 | 56 | 86 | 170 | 207 | 495 | 986 | 1100 | 2590 | 3670 |
| 2026-03-12 05:30 | 5.78 | 363 | 7040 (2009) | 6 (1954) | 919 | 56 | 86 | 170 | 207 | 495 | 986 | 1100 | 2590 | 3670 |
| 2026-03-12 04:30 | 5.80 | 367 | 7040 (2009) | 6 (1954) | 919 | 56 | 86 | 170 | 207 | 495 | 986 | 1100 | 2590 | 3670 |
| 2026-03-12 03:30 | 5.81 | 369 | 7040 (2009) | 6 (1954) | 919 | 56 | 86 | 170 | 207 | 495 | 986 | 1100 | 2590 | 3670 |
| 2026-03-12 02:30 | 5.82 | 371 | 7040 (2009) | 6 (1954) | 919 | 56 | 86 | 170 | 207 | 495 | 986 | 1100 | 2590 | 3670 |
| 2026-03-12 01:30 | 5.83 | 373 | 7040 (2009) | 6 (1954) | 919 | 56 | 86 | 170 | 207 | 495 | 986 | 1100 | 2590 | 3670 |
| 2026-03-12 00:30 | 5.84 | 375 | 7040 (2009) | 6 (1954) | 919 | 56 | 86 | 170 | 207 | 495 | 986 | 1100 | 2590 | 3670 |
| 2026-03-11 23:30 | 5.86 | 379 | 7040 (2009) | 6 (1954) | 919 | 56 | 86 | 170 | 207 | 495 | 986 | 1100 | 2590 | 3670 |
| 2026-03-11 22:30 | 5.87 | 381 | 9080 (2009) | 4 (1954) | 861 | 57 | 75 | 166 | 210 | 436 | 993 | 1190 | 2200 | 2900 |
| 2026-03-11 21:30 | 5.89 | 385 | 9080 (2009) | 4 (1954) | 861 | 57 | 75 | 166 | 210 | 436 | 993 | 1190 | 2200 | 2900 |
| 2026-03-11 20:30 | 5.90 | 387 | 9080 (2009) | 4 (1954) | 861 | 57 | 75 | 166 | 210 | 436 | 993 | 1190 | 2200 | 2900 |
| 2026-03-11 19:30 | 5.92 | 391 | 9080 (2009) | 4 (1954) | 861 | 57 | 75 | 166 | 210 | 436 | 993 | 1190 | 2200 | 2900 |
| 2026-03-11 18:30 | 5.93 | 393 | 9080 (2009) | 4 (1954) | 861 | 57 | 75 | 166 | 210 | 436 | 993 | 1190 | 2200 | 2900 |
| 2026-03-11 17:30 | 5.96 | 400 | 9080 (2009) | 4 (1954) | 861 | 57 | 75 | 166 | 210 | 436 | 993 | 1190 | 2200 | 2900 |
| 2026-03-11 16:30 | 5.97 | 402 | 9080 (2009) | 4 (1954) | 861 | 57 | 75 | 166 | 210 | 436 | 993 | 1190 | 2200 | 2900 |
| 2026-03-11 15:30 | 5.98 | 404 | 9080 (2009) | 4 (1954) | 861 | 57 | 75 | 166 | 210 | 436 | 993 | 1190 | 2200 | 2900 |
| 2026-03-11 14:30 | 6.00 | 408 | 9080 (2009) | 4 (1954) | 861 | 57 | 75 | 166 | 210 | 436 | 993 | 1190 | 2200 | 2900 |
| 2026-03-11 13:30 | 6.01 | 410 | 9080 (2009) | 4 (1954) | 861 | 57 | 75 | 166 | 210 | 436 | 993 | 1190 | 2200 | 2900 |
| 2026-03-11 12:30 | 6.03 | 414 | 9080 (2009) | 4 (1954) | 861 | 57 | 75 | 166 | 210 | 436 | 993 | 1190 | 2200 | 2900 |
| 2026-03-11 11:30 | 6.04 | 416 | 9080 (2009) | 4 (1954) | 861 | 57 | 75 | 166 | 210 | 436 | 993 | 1190 | 2200 | 2900 |
| 2026-03-11 10:30 | 6.04 | 416 | 9080 (2009) | 4 (1954) | 861 | 57 | 75 | 166 | 210 | 436 | 993 | 1190 | 2200 | 2900 |
| 2026-03-11 09:30 | 6.06 | 420 | 9080 (2009) | 4 (1954) | 861 | 57 | 75 | 166 | 210 | 436 | 993 | 1190 | 2200 | 2900 |
| 2026-03-11 08:30 | 6.09 | 427 | 9080 (2009) | 4 (1954) | 861 | 57 | 75 | 166 | 210 | 436 | 993 | 1190 | 2200 | 2900 |
| 2026-03-11 07:30 | 6.10 | 429 | 9080 (2009) | 4 (1954) | 861 | 57 | 75 | 166 | 210 | 436 | 993 | 1190 | 2200 | 2900 |
| 2026-03-11 06:30 | 6.11 | 431 | 9080 (2009) | 4 (1954) | 861 | 57 | 75 | 166 | 210 | 436 | 993 | 1190 | 2200 | 2900 |
| 2026-03-11 05:30 | 6.13 | 435 | 9080 (2009) | 4 (1954) | 861 | 57 | 75 | 166 | 210 | 436 | 993 | 1190 | 2200 | 2900 |
| 2026-03-11 04:30 | 6.14 | 437 | 9080 (2009) | 4 (1954) | 861 | 57 | 75 | 166 | 210 | 436 | 993 | 1190 | 2200 | 2900 |
| 2026-03-11 03:30 | 6.16 | 442 | 9080 (2009) | 4 (1954) | 861 | 57 | 75 | 166 | 210 | 436 | 993 | 1190 | 2200 | 2900 |
| 2026-03-11 02:30 | 6.17 | 444 | 9080 (2009) | 4 (1954) | 861 | 57 | 75 | 166 | 210 | 436 | 993 | 1190 | 2200 | 2900 |
| 2026-03-11 01:30 | 6.20 | 450 | 9080 (2009) | 4 (1954) | 861 | 57 | 75 | 166 | 210 | 436 | 993 | 1190 | 2200 | 2900 |
| 2026-03-11 00:30 | 6.21 | 452 | 9080 (2009) | 4 (1954) | 861 | 57 | 75 | 166 | 210 | 436 | 993 | 1190 | 2200 | 2900 |
| 2026-03-10 23:30 | 6.22 | 454 | 9080 (2009) | 4 (1954) | 861 | 57 | 75 | 166 | 210 | 436 | 993 | 1190 | 2200 | 2900 |
| 2026-03-10 22:30 | 6.27 | 465 | 8240 (2009) | 4 (1954) | 832 | 42 | 77 | 149 | 192 | 373 | 1000 | 1140 | 1850 | 3940 |
| 2026-03-10 21:30 | 6.29 | 470 | 8240 (2009) | 4 (1954) | 832 | 42 | 77 | 149 | 192 | 373 | 1000 | 1140 | 1850 | 3940 |
| 2026-03-10 20:30 | 6.31 | 474 | 8240 (2009) | 4 (1954) | 832 | 42 | 77 | 149 | 192 | 373 | 1000 | 1140 | 1850 | 3940 |
| 2026-03-10 19:30 | 6.31 | 474 | 8240 (2009) | 4 (1954) | 832 | 42 | 77 | 149 | 192 | 373 | 1000 | 1140 | 1850 | 3940 |
| 2026-03-10 18:30 | 6.32 | 476 | 8240 (2009) | 4 (1954) | 832 | 42 | 77 | 149 | 192 | 373 | 1000 | 1140 | 1850 | 3940 |
| 2026-03-10 17:30 | 6.33 | 479 | 8240 (2009) | 4 (1954) | 832 | 42 | 77 | 149 | 192 | 373 | 1000 | 1140 | 1850 | 3940 |
| 2026-03-10 16:30 | 6.36 | 485 | 8240 (2009) | 4 (1954) | 832 | 42 | 77 | 149 | 192 | 373 | 1000 | 1140 | 1850 | 3940 |
| 2026-03-10 15:30 | 6.39 | 492 | 8240 (2009) | 4 (1954) | 832 | 42 | 77 | 149 | 192 | 373 | 1000 | 1140 | 1850 | 3940 |
| 2026-03-10 14:30 | 6.41 | 496 | 8240 (2009) | 4 (1954) | 832 | 42 | 77 | 149 | 192 | 373 | 1000 | 1140 | 1850 | 3940 |
| 2026-03-10 13:30 | 6.43 | 501 | 8240 (2009) | 4 (1954) | 832 | 42 | 77 | 149 | 192 | 373 | 1000 | 1140 | 1850 | 3940 |
| 2026-03-10 12:30 | 6.45 | 505 | 8240 (2009) | 4 (1954) | 832 | 42 | 77 | 149 | 192 | 373 | 1000 | 1140 | 1850 | 3940 |
| 2026-03-10 11:30 | 6.48 | 512 | 8240 (2009) | 4 (1954) | 832 | 42 | 77 | 149 | 192 | 373 | 1000 | 1140 | 1850 | 3940 |
| 2026-03-10 10:30 | 6.50 | 517 | 8240 (2009) | 4 (1954) | 832 | 42 | 77 | 149 | 192 | 373 | 1000 | 1140 | 1850 | 3940 |
| 2026-03-10 09:30 | 6.52 | 521 | 8240 (2009) | 4 (1954) | 832 | 42 | 77 | 149 | 192 | 373 | 1000 | 1140 | 1850 | 3940 |
| 2026-03-10 08:30 | 6.55 | 528 | 8240 (2009) | 4 (1954) | 832 | 42 | 77 | 149 | 192 | 373 | 1000 | 1140 | 1850 | 3940 |
| 2026-03-10 07:30 | 6.57 | 533 | 8240 (2009) | 4 (1954) | 832 | 42 | 77 | 149 | 192 | 373 | 1000 | 1140 | 1850 | 3940 |
| 2026-03-10 06:30 | 6.60 | 540 | 8240 (2009) | 4 (1954) | 832 | 42 | 77 | 149 | 192 | 373 | 1000 | 1140 | 1850 | 3940 |
| 2026-03-10 05:30 | 6.62 | 544 | 8240 (2009) | 4 (1954) | 832 | 42 | 77 | 149 | 192 | 373 | 1000 | 1140 | 1850 | 3940 |
| 2026-03-10 04:30 | 6.66 | 554 | 8240 (2009) | 4 (1954) | 832 | 42 | 77 | 149 | 192 | 373 | 1000 | 1140 | 1850 | 3940 |
| 2026-03-10 03:30 | 6.68 | 559 | 8240 (2009) | 4 (1954) | 832 | 42 | 77 | 149 | 192 | 373 | 1000 | 1140 | 1850 | 3940 |
| 2026-03-10 02:30 | 6.71 | 566 | 8240 (2009) | 4 (1954) | 832 | 42 | 77 | 149 | 192 | 373 | 1000 | 1140 | 1850 | 3940 |
| 2026-03-10 01:30 | 6.75 | 575 | 8240 (2009) | 4 (1954) | 832 | 42 | 77 | 149 | 192 | 373 | 1000 | 1140 | 1850 | 3940 |
| 2026-03-10 00:30 | 6.79 | 585 | 8240 (2009) | 4 (1954) | 832 | 42 | 77 | 149 | 192 | 373 | 1000 | 1140 | 1850 | 3940 |
| 2026-03-09 23:30 | 6.83 | 594 | 8240 (2009) | 4 (1954) | 832 | 42 | 77 | 149 | 192 | 373 | 1000 | 1140 | 1850 | 3940 |
| 2026-03-09 22:30 | 6.87 | 604 | 6610 (2009) | 4 (1954) | 766 | 34 | 72 | 120 | 173 | 388 | 848 | 1080 | 1930 | 3520 |
| 2026-03-09 21:30 | 6.89 | 609 | 6610 (2009) | 4 (1954) | 766 | 34 | 72 | 120 | 173 | 388 | 848 | 1080 | 1930 | 3520 |
| 2026-03-09 20:30 | 6.93 | 619 | 6610 (2009) | 4 (1954) | 766 | 34 | 72 | 120 | 173 | 388 | 848 | 1080 | 1930 | 3520 |
| 2026-03-09 19:30 | 6.98 | 631 | 6610 (2009) | 4 (1954) | 766 | 34 | 72 | 120 | 173 | 388 | 848 | 1080 | 1930 | 3520 |
| 2026-03-09 18:30 | 7.02 | 641 | 6610 (2009) | 4 (1954) | 766 | 34 | 72 | 120 | 173 | 388 | 848 | 1080 | 1930 | 3520 |
| 2026-03-09 17:30 | 7.06 | 651 | 6610 (2009) | 4 (1954) | 766 | 34 | 72 | 120 | 173 | 388 | 848 | 1080 | 1930 | 3520 |
| 2026-03-09 16:30 | 7.11 | 664 | 6610 (2009) | 4 (1954) | 766 | 34 | 72 | 120 | 173 | 388 | 848 | 1080 | 1930 | 3520 |
| 2026-03-09 15:30 | 7.17 | 679 | 6610 (2009) | 4 (1954) | 766 | 34 | 72 | 120 | 173 | 388 | 848 | 1080 | 1930 | 3520 |
| 2026-03-09 14:30 | 7.23 | 695 | 6610 (2009) | 4 (1954) | 766 | 34 | 72 | 120 | 173 | 388 | 848 | 1080 | 1930 | 3520 |
| 2026-03-09 13:30 | 7.29 | 710 | 6610 (2009) | 4 (1954) | 766 | 34 | 72 | 120 | 173 | 388 | 848 | 1080 | 1930 | 3520 |
| 2026-03-09 12:30 | 7.32 | 718 | 6610 (2009) | 4 (1954) | 766 | 34 | 72 | 120 | 173 | 388 | 848 | 1080 | 1930 | 3520 |
| 2026-03-09 11:30 | 7.39 | 737 | 6610 (2009) | 4 (1954) | 766 | 34 | 72 | 120 | 173 | 388 | 848 | 1080 | 1930 | 3520 |
| 2026-03-09 10:30 | 7.43 | 747 | 6610 (2009) | 4 (1954) | 766 | 34 | 72 | 120 | 173 | 388 | 848 | 1080 | 1930 | 3520 |
| 2026-03-09 09:30 | 7.48 | 761 | 6610 (2009) | 4 (1954) | 766 | 34 | 72 | 120 | 173 | 388 | 848 | 1080 | 1930 | 3520 |
| 2026-03-09 08:30 | 7.51 | 769 | 6610 (2009) | 4 (1954) | 766 | 34 | 72 | 120 | 173 | 388 | 848 | 1080 | 1930 | 3520 |
| 2026-03-09 07:30 | 7.54 | 777 | 6610 (2009) | 4 (1954) | 766 | 34 | 72 | 120 | 173 | 388 | 848 | 1080 | 1930 | 3520 |
| 2026-03-09 06:30 | 7.54 | 777 | 6610 (2009) | 4 (1954) | 766 | 34 | 72 | 120 | 173 | 388 | 848 | 1080 | 1930 | 3520 |
| 2026-03-09 05:30 | 7.57 | 785 | 6610 (2009) | 4 (1954) | 766 | 34 | 72 | 120 | 173 | 388 | 848 | 1080 | 1930 | 3520 |
| 2026-03-09 04:30 | 7.57 | 785 | 6610 (2009) | 4 (1954) | 766 | 34 | 72 | 120 | 173 | 388 | 848 | 1080 | 1930 | 3520 |
| 2026-03-09 03:30 | 7.55 | 779 | 6610 (2009) | 4 (1954) | 766 | 34 | 72 | 120 | 173 | 388 | 848 | 1080 | 1930 | 3520 |
| 2026-03-09 02:30 | 7.54 | 777 | 6610 (2009) | 4 (1954) | 766 | 34 | 72 | 120 | 173 | 388 | 848 | 1080 | 1930 | 3520 |
| 2026-03-09 01:30 | 7.48 | 761 | 6610 (2009) | 4 (1954) | 766 | 34 | 72 | 120 | 173 | 388 | 848 | 1080 | 1930 | 3520 |
| 2026-03-09 00:30 | 7.43 | 747 | 6610 (2009) | 4 (1954) | 766 | 34 | 72 | 120 | 173 | 388 | 848 | 1080 | 1930 | 3520 |
| 2026-03-08 23:30 | 7.36 | 729 | 6610 (2009) | 4 (1954) | 766 | 34 | 72 | 120 | 173 | 388 | 848 | 1080 | 1930 | 3520 |
| 2026-03-08 22:30 | 7.26 | 702 | 6220 (1949) | 5 (1954) | 805 | 34 | 56 | 106 | 147 | 347 | 823 | 1070 | 1870 | 4730 |
| 2026-03-08 21:30 | 7.19 | 684 | 6220 (1949) | 5 (1954) | 805 | 34 | 56 | 106 | 147 | 347 | 823 | 1070 | 1870 | 4730 |
| 2026-03-08 20:30 | 7.05 | 649 | 6220 (1949) | 5 (1954) | 805 | 34 | 56 | 106 | 147 | 347 | 823 | 1070 | 1870 | 4730 |
| 2026-03-08 19:30 | 6.96 | 626 | 6220 (1949) | 5 (1954) | 805 | 34 | 56 | 106 | 147 | 347 | 823 | 1070 | 1870 | 4730 |
| 2026-03-08 18:30 | 6.84 | 597 | 6220 (1949) | 5 (1954) | 805 | 34 | 56 | 106 | 147 | 347 | 823 | 1070 | 1870 | 4730 |
| 2026-03-08 17:30 | 6.75 | 575 | 6220 (1949) | 5 (1954) | 805 | 34 | 56 | 106 | 147 | 347 | 823 | 1070 | 1870 | 4730 |
| 2026-03-08 16:30 | 6.66 | 554 | 6220 (1949) | 5 (1954) | 805 | 34 | 56 | 106 | 147 | 347 | 823 | 1070 | 1870 | 4730 |
| 2026-03-08 15:30 | 6.59 | 537 | 6220 (1949) | 5 (1954) | 805 | 34 | 56 | 106 | 147 | 347 | 823 | 1070 | 1870 | 4730 |
| 2026-03-08 14:30 | 6.50 | 517 | 6220 (1949) | 5 (1954) | 805 | 34 | 56 | 106 | 147 | 347 | 823 | 1070 | 1870 | 4730 |
| 2026-03-08 13:30 | 6.44 | 503 | 6220 (1949) | 5 (1954) | 805 | 34 | 56 | 106 | 147 | 347 | 823 | 1070 | 1870 | 4730 |
| 2026-03-08 12:30 | 6.40 | 494 | 6220 (1949) | 5 (1954) | 805 | 34 | 56 | 106 | 147 | 347 | 823 | 1070 | 1870 | 4730 |
| 2026-03-08 11:30 | 6.34 | 481 | 6220 (1949) | 5 (1954) | 805 | 34 | 56 | 106 | 147 | 347 | 823 | 1070 | 1870 | 4730 |
| 2026-03-08 10:30 | 6.31 | 474 | 6220 (1949) | 5 (1954) | 805 | 34 | 56 | 106 | 147 | 347 | 823 | 1070 | 1870 | 4730 |
| 2026-03-08 09:30 | 6.26 | 463 | 6220 (1949) | 5 (1954) | 805 | 34 | 56 | 106 | 147 | 347 | 823 | 1070 | 1870 | 4730 |
| 2026-03-08 08:30 | 6.20 | 450 | 6220 (1949) | 5 (1954) | 805 | 34 | 56 | 106 | 147 | 347 | 823 | 1070 | 1870 | 4730 |
| 2026-03-08 07:30 | 6.14 | 437 | 6220 (1949) | 5 (1954) | 805 | 34 | 56 | 106 | 147 | 347 | 823 | 1070 | 1870 | 4730 |
| 2026-03-08 06:30 | 6.10 | 429 | 6220 (1949) | 5 (1954) | 805 | 34 | 56 | 106 | 147 | 347 | 823 | 1070 | 1870 | 4730 |
| 2026-03-08 05:30 | 6.04 | 416 | 6220 (1949) | 5 (1954) | 805 | 34 | 56 | 106 | 147 | 347 | 823 | 1070 | 1870 | 4730 |
| 2026-03-08 04:30 | 5.98 | 404 | 6220 (1949) | 5 (1954) | 805 | 34 | 56 | 106 | 147 | 347 | 823 | 1070 | 1870 | 4730 |
| 2026-03-08 03:30 | 5.91 | 389 | 6220 (1949) | 5 (1954) | 805 | 34 | 56 | 106 | 147 | 347 | 823 | 1070 | 1870 | 4730 |
| 2026-03-08 01:30 | 5.86 | 379 | 6220 (1949) | 5 (1954) | 805 | 34 | 56 | 106 | 147 | 347 | 823 | 1070 | 1870 | 4730 |
| 2026-03-08 00:30 | 5.77 | 361 | 6220 (1949) | 5 (1954) | 805 | 34 | 56 | 106 | 147 | 347 | 823 | 1070 | 1870 | 4730 |
| 2026-03-07 23:30 | 5.68 | 344 | 6220 (1949) | 5 (1954) | 805 | 34 | 56 | 106 | 147 | 347 | 823 | 1070 | 1870 | 4730 |
| 2026-03-07 22:30 | 5.61 | 330 | 7380 (1993) | 4 (1954) | 765 | 32 | 52 | 93 | 152 | 355 | 752 | 1030 | 2220 | 3550 |
| 2026-03-07 21:30 | 5.51 | 312 | 7380 (1993) | 4 (1954) | 765 | 32 | 52 | 93 | 152 | 355 | 752 | 1030 | 2220 | 3550 |
| 2026-03-07 20:30 | 5.40 | 292 | 7380 (1993) | 4 (1954) | 765 | 32 | 52 | 93 | 152 | 355 | 752 | 1030 | 2220 | 3550 |
| 2026-03-07 19:30 | 5.30 | 274 | 7380 (1993) | 4 (1954) | 765 | 32 | 52 | 93 | 152 | 355 | 752 | 1030 | 2220 | 3550 |
| 2026-03-07 18:30 | 5.18 | 253 | 7380 (1993) | 4 (1954) | 765 | 32 | 52 | 93 | 152 | 355 | 752 | 1030 | 2220 | 3550 |
| 2026-03-07 17:30 | 5.06 | 232 | 7380 (1993) | 4 (1954) | 765 | 32 | 52 | 93 | 152 | 355 | 752 | 1030 | 2220 | 3550 |
| 2026-03-07 16:30 | 4.96 | 214 | 7380 (1993) | 4 (1954) | 765 | 32 | 52 | 93 | 152 | 355 | 752 | 1030 | 2220 | 3550 |
| 2026-03-07 15:30 | 4.84 | 195 | 7380 (1993) | 4 (1954) | 765 | 32 | 52 | 93 | 152 | 355 | 752 | 1030 | 2220 | 3550 |
| 2026-03-07 14:30 | 4.76 | 182 | 7380 (1993) | 4 (1954) | 765 | 32 | 52 | 93 | 152 | 355 | 752 | 1030 | 2220 | 3550 |
| 2026-03-07 13:30 | 4.70 | 173 | 7380 (1993) | 4 (1954) | 765 | 32 | 52 | 93 | 152 | 355 | 752 | 1030 | 2220 | 3550 |
| 2026-03-07 12:30 | 4.65 | 165 | 7380 (1993) | 4 (1954) | 765 | 32 | 52 | 93 | 152 | 355 | 752 | 1030 | 2220 | 3550 |
| 2026-03-07 11:30 | 4.62 | 161 | 7380 (1993) | 4 (1954) | 765 | 32 | 52 | 93 | 152 | 355 | 752 | 1030 | 2220 | 3550 |
| 2026-03-07 10:30 | 4.61 | 159 | 7380 (1993) | 4 (1954) | 765 | 32 | 52 | 93 | 152 | 355 | 752 | 1030 | 2220 | 3550 |
| 2026-03-07 09:30 | 4.59 | 156 | 7380 (1993) | 4 (1954) | 765 | 32 | 52 | 93 | 152 | 355 | 752 | 1030 | 2220 | 3550 |
| 2026-03-07 08:30 | 4.55 | 150 | 7380 (1993) | 4 (1954) | 765 | 32 | 52 | 93 | 152 | 355 | 752 | 1030 | 2220 | 3550 |
| 2026-03-07 07:30 | 4.54 | 149 | 7380 (1993) | 4 (1954) | 765 | 32 | 52 | 93 | 152 | 355 | 752 | 1030 | 2220 | 3550 |
| 2026-03-07 06:30 | 4.53 | 148 | 7380 (1993) | 4 (1954) | 765 | 32 | 52 | 93 | 152 | 355 | 752 | 1030 | 2220 | 3550 |
| 2026-03-07 05:30 | 4.51 | 145 | 7380 (1993) | 4 (1954) | 765 | 32 | 52 | 93 | 152 | 355 | 752 | 1030 | 2220 | 3550 |
| 2026-03-07 04:30 | 4.51 | 145 | 7380 (1993) | 4 (1954) | 765 | 32 | 52 | 93 | 152 | 355 | 752 | 1030 | 2220 | 3550 |
| 2026-03-07 03:30 | 4.50 | 143 | 7380 (1993) | 4 (1954) | 765 | 32 | 52 | 93 | 152 | 355 | 752 | 1030 | 2220 | 3550 |
| 2026-03-07 02:30 | 4.49 | 142 | 7380 (1993) | 4 (1954) | 765 | 32 | 52 | 93 | 152 | 355 | 752 | 1030 | 2220 | 3550 |
| 2026-03-07 01:30 | 4.47 | 139 | 7380 (1993) | 4 (1954) | 765 | 32 | 52 | 93 | 152 | 355 | 752 | 1030 | 2220 | 3550 |
| 2026-03-07 00:30 | 4.47 | 139 | 7380 (1993) | 4 (1954) | 765 | 32 | 52 | 93 | 152 | 355 | 752 | 1030 | 2220 | 3550 |
| 2026-03-06 23:30 | 4.46 | 138 | 7380 (1993) | 4 (1954) | 765 | 32 | 52 | 93 | 152 | 355 | 752 | 1030 | 2220 | 3550 |
| 2026-03-06 22:30 | 4.45 | 136 | 6560 (1993) | 4 (1954) | 776 | 33 | 54 | 92 | 160 | 360 | 807 | 935 | 2300 | 3380 |
| 2026-03-06 21:30 | 4.45 | 136 | 6560 (1993) | 4 (1954) | 776 | 33 | 54 | 92 | 160 | 360 | 807 | 935 | 2300 | 3380 |
| 2026-03-06 20:30 | 4.44 | 135 | 6560 (1993) | 4 (1954) | 776 | 33 | 54 | 92 | 160 | 360 | 807 | 935 | 2300 | 3380 |
| 2026-03-06 19:30 | 4.44 | 135 | 6560 (1993) | 4 (1954) | 776 | 33 | 54 | 92 | 160 | 360 | 807 | 935 | 2300 | 3380 |
| 2026-03-06 18:30 | 4.43 | 134 | 6560 (1993) | 4 (1954) | 776 | 33 | 54 | 92 | 160 | 360 | 807 | 935 | 2300 | 3380 |
| 2026-03-06 17:30 | 4.43 | 134 | 6560 (1993) | 4 (1954) | 776 | 33 | 54 | 92 | 160 | 360 | 807 | 935 | 2300 | 3380 |
| 2026-03-06 16:30 | 4.43 | 134 | 6560 (1993) | 4 (1954) | 776 | 33 | 54 | 92 | 160 | 360 | 807 | 935 | 2300 | 3380 |
| 2026-03-06 15:30 | 4.42 | 132 | 6560 (1993) | 4 (1954) | 776 | 33 | 54 | 92 | 160 | 360 | 807 | 935 | 2300 | 3380 |
| 2026-03-06 14:30 | 4.42 | 132 | 6560 (1993) | 4 (1954) | 776 | 33 | 54 | 92 | 160 | 360 | 807 | 935 | 2300 | 3380 |
| 2026-03-06 13:30 | 4.42 | 132 | 6560 (1993) | 4 (1954) | 776 | 33 | 54 | 92 | 160 | 360 | 807 | 935 | 2300 | 3380 |
| 2026-03-06 12:30 | 4.43 | 134 | 6560 (1993) | 4 (1954) | 776 | 33 | 54 | 92 | 160 | 360 | 807 | 935 | 2300 | 3380 |
| 2026-03-06 11:30 | 4.43 | 134 | 6560 (1993) | 4 (1954) | 776 | 33 | 54 | 92 | 160 | 360 | 807 | 935 | 2300 | 3380 |
| 2026-03-06 10:30 | 4.40 | 130 | 6560 (1993) | 4 (1954) | 776 | 33 | 54 | 92 | 160 | 360 | 807 | 935 | 2300 | 3380 |
| 2026-03-06 09:30 | 4.39 | 128 | 6560 (1993) | 4 (1954) | 776 | 33 | 54 | 92 | 160 | 360 | 807 | 935 | 2300 | 3380 |
| 2026-03-06 08:30 | 4.40 | 130 | 6560 (1993) | 4 (1954) | 776 | 33 | 54 | 92 | 160 | 360 | 807 | 935 | 2300 | 3380 |
| 2026-03-06 07:30 | 4.37 | 6560 (1993) | 4 (1954) | 776 | 33 | 54 | 92 | 160 | 360 | 807 | 935 | 2300 | 3380 | |
| 2026-03-06 06:30 | 4.38 | 6560 (1993) | 4 (1954) | 776 | 33 | 54 | 92 | 160 | 360 | 807 | 935 | 2300 | 3380 | |
| 2026-03-06 05:30 | 4.36 | 6560 (1993) | 4 (1954) | 776 | 33 | 54 | 92 | 160 | 360 | 807 | 935 | 2300 | 3380 | |
| 2026-03-06 04:30 | 4.34 | 6560 (1993) | 4 (1954) | 776 | 33 | 54 | 92 | 160 | 360 | 807 | 935 | 2300 | 3380 | |
| 2026-03-06 03:30 | 4.33 | 6560 (1993) | 4 (1954) | 776 | 33 | 54 | 92 | 160 | 360 | 807 | 935 | 2300 | 3380 | |
| 2026-03-06 02:30 | 4.32 | 6560 (1993) | 4 (1954) | 776 | 33 | 54 | 92 | 160 | 360 | 807 | 935 | 2300 | 3380 | |
| 2026-03-06 01:30 | 4.31 | 6560 (1993) | 4 (1954) | 776 | 33 | 54 | 92 | 160 | 360 | 807 | 935 | 2300 | 3380 | |
| 2026-03-06 00:30 | 4.31 | 6560 (1993) | 4 (1954) | 776 | 33 | 54 | 92 | 160 | 360 | 807 | 935 | 2300 | 3380 | |
| 2026-03-05 23:30 | 4.31 | 6560 (1993) | 4 (1954) | 776 | 33 | 54 | 92 | 160 | 360 | 807 | 935 | 2300 | 3380 | |
| 2026-03-05 22:30 | 4.31 | 6630 (1970) | 3 (1954) | 800 | 34 | 54 | 92 | 165 | 406 | 733 | 1170 | 2520 | 3400 | |
| 2026-03-05 21:30 | 4.31 | 6630 (1970) | 3 (1954) | 800 | 34 | 54 | 92 | 165 | 406 | 733 | 1170 | 2520 | 3400 | |
| 2026-03-05 20:30 | 4.31 | 6630 (1970) | 3 (1954) | 800 | 34 | 54 | 92 | 165 | 406 | 733 | 1170 | 2520 | 3400 | |
| 2026-03-05 19:30 | 4.30 | 6630 (1970) | 3 (1954) | 800 | 34 | 54 | 92 | 165 | 406 | 733 | 1170 | 2520 | 3400 | |
| 2026-03-05 18:30 | 4.31 | 6630 (1970) | 3 (1954) | 800 | 34 | 54 | 92 | 165 | 406 | 733 | 1170 | 2520 | 3400 | |
| 2026-03-05 17:30 | 4.32 | 6630 (1970) | 3 (1954) | 800 | 34 | 54 | 92 | 165 | 406 | 733 | 1170 | 2520 | 3400 | |
| 2026-03-05 16:30 | 4.32 | 6630 (1970) | 3 (1954) | 800 | 34 | 54 | 92 | 165 | 406 | 733 | 1170 | 2520 | 3400 | |
| 2026-03-05 15:30 | 4.32 | 6630 (1970) | 3 (1954) | 800 | 34 | 54 | 92 | 165 | 406 | 733 | 1170 | 2520 | 3400 | |
| 2026-03-05 14:30 | 4.32 | 6630 (1970) | 3 (1954) | 800 | 34 | 54 | 92 | 165 | 406 | 733 | 1170 | 2520 | 3400 | |
| 2026-03-05 13:30 | 4.32 | 6630 (1970) | 3 (1954) | 800 | 34 | 54 | 92 | 165 | 406 | 733 | 1170 | 2520 | 3400 | |
| 2026-03-05 12:30 | 4.32 | 6630 (1970) | 3 (1954) | 800 | 34 | 54 | 92 | 165 | 406 | 733 | 1170 | 2520 | 3400 | |
| 2026-03-05 11:30 | 4.31 | 6630 (1970) | 3 (1954) | 800 | 34 | 54 | 92 | 165 | 406 | 733 | 1170 | 2520 | 3400 | |
| 2026-03-05 10:30 | 4.30 | 6630 (1970) | 3 (1954) | 800 | 34 | 54 | 92 | 165 | 406 | 733 | 1170 | 2520 | 3400 | |
| 2026-03-05 09:30 | 4.30 | 6630 (1970) | 3 (1954) | 800 | 34 | 54 | 92 | 165 | 406 | 733 | 1170 | 2520 | 3400 | |
| 2026-03-05 08:30 | 4.30 | 6630 (1970) | 3 (1954) | 800 | 34 | 54 | 92 | 165 | 406 | 733 | 1170 | 2520 | 3400 | |
| 2026-03-05 07:30 | 4.31 | 6630 (1970) | 3 (1954) | 800 | 34 | 54 | 92 | 165 | 406 | 733 | 1170 | 2520 | 3400 | |
| 2026-03-05 06:30 | 4.31 | 6630 (1970) | 3 (1954) | 800 | 34 | 54 | 92 | 165 | 406 | 733 | 1170 | 2520 | 3400 | |
| 2026-03-05 05:30 | 4.31 | 6630 (1970) | 3 (1954) | 800 | 34 | 54 | 92 | 165 | 406 | 733 | 1170 | 2520 | 3400 | |
| 2026-03-05 04:30 | 4.31 | 6630 (1970) | 3 (1954) | 800 | 34 | 54 | 92 | 165 | 406 | 733 | 1170 | 2520 | 3400 | |
| 2026-03-05 03:30 | 4.31 | 6630 (1970) | 3 (1954) | 800 | 34 | 54 | 92 | 165 | 406 | 733 | 1170 | 2520 | 3400 | |
| 2026-03-05 02:30 | 4.31 | 6630 (1970) | 3 (1954) | 800 | 34 | 54 | 92 | 165 | 406 | 733 | 1170 | 2520 | 3400 | |
| 2026-03-05 01:30 | 4.31 | 6630 (1970) | 3 (1954) | 800 | 34 | 54 | 92 | 165 | 406 | 733 | 1170 | 2520 | 3400 | |
| 2026-03-05 00:30 | 4.31 | 6630 (1970) | 3 (1954) | 800 | 34 | 54 | 92 | 165 | 406 | 733 | 1170 | 2520 | 3400 | |
| 2026-03-04 23:30 | 4.31 | 6630 (1970) | 3 (1954) | 800 | 34 | 54 | 92 | 165 | 406 | 733 | 1170 | 2520 | 3400 | |
| 2026-03-04 22:30 | 4.31 | 4740 (1993) | 3 (1954) | 706 | 31 | 59 | 96 | 171 | 327 | 771 | 892 | 1810 | 3340 | |
| 2026-03-04 21:30 | 4.31 | 4740 (1993) | 3 (1954) | 706 | 31 | 59 | 96 | 171 | 327 | 771 | 892 | 1810 | 3340 | |
| 2026-03-04 20:30 | 4.32 | 4740 (1993) | 3 (1954) | 706 | 31 | 59 | 96 | 171 | 327 | 771 | 892 | 1810 | 3340 | |
| 2026-03-04 19:30 | 4.32 | 4740 (1993) | 3 (1954) | 706 | 31 | 59 | 96 | 171 | 327 | 771 | 892 | 1810 | 3340 | |
| 2026-03-04 18:30 | 4.34 | 4740 (1993) | 3 (1954) | 706 | 31 | 59 | 96 | 171 | 327 | 771 | 892 | 1810 | 3340 | |
| 2026-03-04 17:30 | 4.33 | 4740 (1993) | 3 (1954) | 706 | 31 | 59 | 96 | 171 | 327 | 771 | 892 | 1810 | 3340 | |
| 2026-03-04 16:30 | 4.33 | 4740 (1993) | 3 (1954) | 706 | 31 | 59 | 96 | 171 | 327 | 771 | 892 | 1810 | 3340 | |
| 2026-03-04 15:30 | 4.34 | 4740 (1993) | 3 (1954) | 706 | 31 | 59 | 96 | 171 | 327 | 771 | 892 | 1810 | 3340 | |
| 2026-03-04 14:30 | 4.34 | 4740 (1993) | 3 (1954) | 706 | 31 | 59 | 96 | 171 | 327 | 771 | 892 | 1810 | 3340 | |
| 2026-03-04 13:30 | 4.33 | 4740 (1993) | 3 (1954) | 706 | 31 | 59 | 96 | 171 | 327 | 771 | 892 | 1810 | 3340 | |
| 2026-03-04 12:30 | 4.33 | 4740 (1993) | 3 (1954) | 706 | 31 | 59 | 96 | 171 | 327 | 771 | 892 | 1810 | 3340 | |
| 2026-03-04 11:30 | 4.33 | 4740 (1993) | 3 (1954) | 706 | 31 | 59 | 96 | 171 | 327 | 771 | 892 | 1810 | 3340 | |
| 2026-03-04 10:30 | 4.32 | 4740 (1993) | 3 (1954) | 706 | 31 | 59 | 96 | 171 | 327 | 771 | 892 | 1810 | 3340 | |
| 2026-03-04 09:30 | 4.32 | 4740 (1993) | 3 (1954) | 706 | 31 | 59 | 96 | 171 | 327 | 771 | 892 | 1810 | 3340 | |
| 2026-03-04 08:30 | 4.32 | 4740 (1993) | 3 (1954) | 706 | 31 | 59 | 96 | 171 | 327 | 771 | 892 | 1810 | 3340 | |
| 2026-03-04 07:30 | 4.31 | 4740 (1993) | 3 (1954) | 706 | 31 | 59 | 96 | 171 | 327 | 771 | 892 | 1810 | 3340 | |
| 2026-03-04 06:30 | 4.31 | 4740 (1993) | 3 (1954) | 706 | 31 | 59 | 96 | 171 | 327 | 771 | 892 | 1810 | 3340 | |
| 2026-03-04 05:30 | 4.30 | 4740 (1993) | 3 (1954) | 706 | 31 | 59 | 96 | 171 | 327 | 771 | 892 | 1810 | 3340 | |
| 2026-03-04 04:30 | 4.30 | 4740 (1993) | 3 (1954) | 706 | 31 | 59 | 96 | 171 | 327 | 771 | 892 | 1810 | 3340 | |
| 2026-03-04 03:30 | 4.29 | 4740 (1993) | 3 (1954) | 706 | 31 | 59 | 96 | 171 | 327 | 771 | 892 | 1810 | 3340 | |
| 2026-03-04 02:30 | 4.29 | 4740 (1993) | 3 (1954) | 706 | 31 | 59 | 96 | 171 | 327 | 771 | 892 | 1810 | 3340 | |
| 2026-03-04 01:30 | 4.29 | 4740 (1993) | 3 (1954) | 706 | 31 | 59 | 96 | 171 | 327 | 771 | 892 | 1810 | 3340 | |
| 2026-03-04 00:30 | 4.29 | 4740 (1993) | 3 (1954) | 706 | 31 | 59 | 96 | 171 | 327 | 771 | 892 | 1810 | 3340 | |
| 2026-03-03 23:30 | 4.29 | 4740 (1993) | 3 (1954) | 706 | 31 | 59 | 96 | 171 | 327 | 771 | 892 | 1810 | 3340 | |
| 2026-03-03 22:30 | 4.29 | 3620 (1993) | 3 (1954) | 591 | 28 | 51 | 102 | 168 | 328 | 711 | 981 | 1690 | 1900 | |
| 2026-03-03 21:30 | 4.29 | 3620 (1993) | 3 (1954) | 591 | 28 | 51 | 102 | 168 | 328 | 711 | 981 | 1690 | 1900 | |
| 2026-03-03 20:30 | 4.29 | 3620 (1993) | 3 (1954) | 591 | 28 | 51 | 102 | 168 | 328 | 711 | 981 | 1690 | 1900 | |
| 2026-03-03 19:30 | 4.30 | 3620 (1993) | 3 (1954) | 591 | 28 | 51 | 102 | 168 | 328 | 711 | 981 | 1690 | 1900 | |
| 2026-03-03 18:30 | 4.29 | 3620 (1993) | 3 (1954) | 591 | 28 | 51 | 102 | 168 | 328 | 711 | 981 | 1690 | 1900 | |
| 2026-03-03 17:30 | 4.30 | 3620 (1993) | 3 (1954) | 591 | 28 | 51 | 102 | 168 | 328 | 711 | 981 | 1690 | 1900 | |
| 2026-03-03 16:30 | 4.30 | 3620 (1993) | 3 (1954) | 591 | 28 | 51 | 102 | 168 | 328 | 711 | 981 | 1690 | 1900 | |
| 2026-03-03 15:30 | 4.30 | 3620 (1993) | 3 (1954) | 591 | 28 | 51 | 102 | 168 | 328 | 711 | 981 | 1690 | 1900 | |
| 2026-03-03 14:30 | 4.30 | 3620 (1993) | 3 (1954) | 591 | 28 | 51 | 102 | 168 | 328 | 711 | 981 | 1690 | 1900 | |
| 2026-03-03 13:30 | 4.30 | 3620 (1993) | 3 (1954) | 591 | 28 | 51 | 102 | 168 | 328 | 711 | 981 | 1690 | 1900 | |
| 2026-03-03 12:30 | 4.30 | 3620 (1993) | 3 (1954) | 591 | 28 | 51 | 102 | 168 | 328 | 711 | 981 | 1690 | 1900 | |
| 2026-03-03 11:30 | 4.30 | 3620 (1993) | 3 (1954) | 591 | 28 | 51 | 102 | 168 | 328 | 711 | 981 | 1690 | 1900 | |
| 2026-03-03 10:30 | 4.31 | 3620 (1993) | 3 (1954) | 591 | 28 | 51 | 102 | 168 | 328 | 711 | 981 | 1690 | 1900 | |
| 2026-03-03 09:30 | 4.31 | 3620 (1993) | 3 (1954) | 591 | 28 | 51 | 102 | 168 | 328 | 711 | 981 | 1690 | 1900 | |
| 2026-03-03 08:30 | 4.32 | 3620 (1993) | 3 (1954) | 591 | 28 | 51 | 102 | 168 | 328 | 711 | 981 | 1690 | 1900 | |
| 2026-03-03 07:30 | 4.33 | 3620 (1993) | 3 (1954) | 591 | 28 | 51 | 102 | 168 | 328 | 711 | 981 | 1690 | 1900 | |
| 2026-03-03 06:30 | 4.34 | 3620 (1993) | 3 (1954) | 591 | 28 | 51 | 102 | 168 | 328 | 711 | 981 | 1690 | 1900 | |
| 2026-03-03 05:30 | 4.35 | 3620 (1993) | 3 (1954) | 591 | 28 | 51 | 102 | 168 | 328 | 711 | 981 | 1690 | 1900 | |
| 2026-03-03 04:30 | 4.35 | 3620 (1993) | 3 (1954) | 591 | 28 | 51 | 102 | 168 | 328 | 711 | 981 | 1690 | 1900 | |
| 2026-03-03 03:30 | 4.36 | 3620 (1993) | 3 (1954) | 591 | 28 | 51 | 102 | 168 | 328 | 711 | 981 | 1690 | 1900 | |
| 2026-03-03 02:30 | 4.37 | 3620 (1993) | 3 (1954) | 591 | 28 | 51 | 102 | 168 | 328 | 711 | 981 | 1690 | 1900 | |
| 2026-03-03 01:30 | 4.38 | 3620 (1993) | 3 (1954) | 591 | 28 | 51 | 102 | 168 | 328 | 711 | 981 | 1690 | 1900 | |
| 2026-03-03 00:30 | 4.38 | 3620 (1993) | 3 (1954) | 591 | 28 | 51 | 102 | 168 | 328 | 711 | 981 | 1690 | 1900 | |
| 2026-03-02 23:30 | 4.39 | 3620 (1993) | 3 (1954) | 591 | 28 | 51 | 102 | 168 | 328 | 711 | 981 | 1690 | 1900 | |
| 2026-03-02 22:30 | 4.39 | 2980 (1948) | 4 (1954) | 574 | 26 | 47 | 96 | 166 | 371 | 781 | 952 | 1580 | 1990 | |
| 2026-03-02 21:30 | 4.39 | 2980 (1948) | 4 (1954) | 574 | 26 | 47 | 96 | 166 | 371 | 781 | 952 | 1580 | 1990 | |
| 2026-03-02 20:30 | 4.39 | 2980 (1948) | 4 (1954) | 574 | 26 | 47 | 96 | 166 | 371 | 781 | 952 | 1580 | 1990 | |
| 2026-03-02 19:30 | 4.38 | 2980 (1948) | 4 (1954) | 574 | 26 | 47 | 96 | 166 | 371 | 781 | 952 | 1580 | 1990 | |
| 2026-03-02 18:30 | 4.37 | 2980 (1948) | 4 (1954) | 574 | 26 | 47 | 96 | 166 | 371 | 781 | 952 | 1580 | 1990 | |
| 2026-03-02 17:30 | 4.37 | 2980 (1948) | 4 (1954) | 574 | 26 | 47 | 96 | 166 | 371 | 781 | 952 | 1580 | 1990 | |
| 2026-03-02 16:30 | 4.37 | 2980 (1948) | 4 (1954) | 574 | 26 | 47 | 96 | 166 | 371 | 781 | 952 | 1580 | 1990 | |
| 2026-03-02 15:30 | 4.37 | 2980 (1948) | 4 (1954) | 574 | 26 | 47 | 96 | 166 | 371 | 781 | 952 | 1580 | 1990 | |
| 2026-03-02 14:30 | 4.37 | 2980 (1948) | 4 (1954) | 574 | 26 | 47 | 96 | 166 | 371 | 781 | 952 | 1580 | 1990 | |
| 2026-03-02 13:30 | 4.37 | 2980 (1948) | 4 (1954) | 574 | 26 | 47 | 96 | 166 | 371 | 781 | 952 | 1580 | 1990 | |
| 2026-03-02 12:30 | 4.37 | 2980 (1948) | 4 (1954) | 574 | 26 | 47 | 96 | 166 | 371 | 781 | 952 | 1580 | 1990 | |
| 2026-03-02 11:30 | 4.37 | 2980 (1948) | 4 (1954) | 574 | 26 | 47 | 96 | 166 | 371 | 781 | 952 | 1580 | 1990 | |
| 2026-03-02 10:30 | 4.37 | 2980 (1948) | 4 (1954) | 574 | 26 | 47 | 96 | 166 | 371 | 781 | 952 | 1580 | 1990 | |
| 2026-03-02 09:30 | 4.38 | 2980 (1948) | 4 (1954) | 574 | 26 | 47 | 96 | 166 | 371 | 781 | 952 | 1580 | 1990 | |
| 2026-03-02 08:30 | 4.38 | 2980 (1948) | 4 (1954) | 574 | 26 | 47 | 96 | 166 | 371 | 781 | 952 | 1580 | 1990 | |
| 2026-03-02 07:30 | 4.38 | 2980 (1948) | 4 (1954) | 574 | 26 | 47 | 96 | 166 | 371 | 781 | 952 | 1580 | 1990 | |
| 2026-03-02 06:30 | 4.38 | 2980 (1948) | 4 (1954) | 574 | 26 | 47 | 96 | 166 | 371 | 781 | 952 | 1580 | 1990 | |
| 2026-03-02 05:30 | 4.38 | 2980 (1948) | 4 (1954) | 574 | 26 | 47 | 96 | 166 | 371 | 781 | 952 | 1580 | 1990 | |
| 2026-03-02 04:30 | 4.38 | 2980 (1948) | 4 (1954) | 574 | 26 | 47 | 96 | 166 | 371 | 781 | 952 | 1580 | 1990 | |
| 2026-03-02 03:30 | 4.39 | 2980 (1948) | 4 (1954) | 574 | 26 | 47 | 96 | 166 | 371 | 781 | 952 | 1580 | 1990 | |
| 2026-03-02 02:30 | 4.39 | 2980 (1948) | 4 (1954) | 574 | 26 | 47 | 96 | 166 | 371 | 781 | 952 | 1580 | 1990 | |
| 2026-03-02 01:30 | 4.39 | 2980 (1948) | 4 (1954) | 574 | 26 | 47 | 96 | 166 | 371 | 781 | 952 | 1580 | 1990 | |
| 2026-03-02 00:30 | 4.40 | 2980 (1948) | 4 (1954) | 574 | 26 | 47 | 96 | 166 | 371 | 781 | 952 | 1580 | 1990 | |
| 2026-03-01 23:30 | 4.40 | 2980 (1948) | 4 (1954) | 574 | 26 | 47 | 96 | 166 | 371 | 781 | 952 | 1580 | 1990 | |
| 2026-03-01 22:30 | 4.41 | 6250 (1948) | 5 (1954) | 614 | 26 | 49 | 114 | 182 | 380 | 666 | 845 | 1680 | 2000 | |
| 2026-03-01 21:30 | 4.40 | 6250 (1948) | 5 (1954) | 614 | 26 | 49 | 114 | 182 | 380 | 666 | 845 | 1680 | 2000 | |
| 2026-03-01 20:30 | 4.40 | 6250 (1948) | 5 (1954) | 614 | 26 | 49 | 114 | 182 | 380 | 666 | 845 | 1680 | 2000 | |
| 2026-03-01 19:30 | 4.40 | 6250 (1948) | 5 (1954) | 614 | 26 | 49 | 114 | 182 | 380 | 666 | 845 | 1680 | 2000 | |
| 2026-03-01 18:30 | 4.41 | 6250 (1948) | 5 (1954) | 614 | 26 | 49 | 114 | 182 | 380 | 666 | 845 | 1680 | 2000 | |
| 2026-03-01 17:30 | 4.41 | 6250 (1948) | 5 (1954) | 614 | 26 | 49 | 114 | 182 | 380 | 666 | 845 | 1680 | 2000 | |
| 2026-03-01 16:30 | 4.42 | 6250 (1948) | 5 (1954) | 614 | 26 | 49 | 114 | 182 | 380 | 666 | 845 | 1680 | 2000 | |
| 2026-03-01 15:30 | 4.43 | 6250 (1948) | 5 (1954) | 614 | 26 | 49 | 114 | 182 | 380 | 666 | 845 | 1680 | 2000 | |
| 2026-03-01 14:30 | 4.43 | 6250 (1948) | 5 (1954) | 614 | 26 | 49 | 114 | 182 | 380 | 666 | 845 | 1680 | 2000 | |
| 2026-03-01 13:30 | 4.44 | 6250 (1948) | 5 (1954) | 614 | 26 | 49 | 114 | 182 | 380 | 666 | 845 | 1680 | 2000 | |
| 2026-03-01 12:30 | 4.44 | 6250 (1948) | 5 (1954) | 614 | 26 | 49 | 114 | 182 | 380 | 666 | 845 | 1680 | 2000 | |
| 2026-03-01 11:30 | 4.43 | 6250 (1948) | 5 (1954) | 614 | 26 | 49 | 114 | 182 | 380 | 666 | 845 | 1680 | 2000 | |
| 2026-03-01 10:30 | 4.41 | 6250 (1948) | 5 (1954) | 614 | 26 | 49 | 114 | 182 | 380 | 666 | 845 | 1680 | 2000 | |
| 2026-03-01 09:30 | 4.39 | 6250 (1948) | 5 (1954) | 614 | 26 | 49 | 114 | 182 | 380 | 666 | 845 | 1680 | 2000 | |
| 2026-03-01 08:30 | 4.39 | 6250 (1948) | 5 (1954) | 614 | 26 | 49 | 114 | 182 | 380 | 666 | 845 | 1680 | 2000 | |
| 2026-03-01 07:30 | 4.40 | 6250 (1948) | 5 (1954) | 614 | 26 | 49 | 114 | 182 | 380 | 666 | 845 | 1680 | 2000 | |
| 2026-03-01 06:30 | 4.41 | 6250 (1948) | 5 (1954) | 614 | 26 | 49 | 114 | 182 | 380 | 666 | 845 | 1680 | 2000 | |
| 2026-03-01 05:30 | 4.43 | 6250 (1948) | 5 (1954) | 614 | 26 | 49 | 114 | 182 | 380 | 666 | 845 | 1680 | 2000 | |
| 2026-03-01 04:30 | 4.44 | 6250 (1948) | 5 (1954) | 614 | 26 | 49 | 114 | 182 | 380 | 666 | 845 | 1680 | 2000 | |
| 2026-03-01 03:30 | 4.46 | 6250 (1948) | 5 (1954) | 614 | 26 | 49 | 114 | 182 | 380 | 666 | 845 | 1680 | 2000 | |
| 2026-03-01 02:30 | 4.47 | 6250 (1948) | 5 (1954) | 614 | 26 | 49 | 114 | 182 | 380 | 666 | 845 | 1680 | 2000 | |
| 2026-03-01 01:30 | 4.48 | 6250 (1948) | 5 (1954) | 614 | 26 | 49 | 114 | 182 | 380 | 666 | 845 | 1680 | 2000 | |
| 2026-03-01 00:30 | 4.49 | 6250 (1948) | 5 (1954) | 614 | 26 | 49 | 114 | 182 | 380 | 666 | 845 | 1680 | 2000 | |
| 2026-02-28 23:30 | 4.49 | 6250 (1948) | 5 (1954) | 614 | 26 | 49 | 114 | 182 | 380 | 666 | 845 | 1680 | 2000 | |
| 2026-02-28 22:30 | 4.49 | 3440 (1948) | 8 (1954) | 587 | 28 | 45 | 151 | 203 | 350 | 695 | 835 | 1390 | 2010 | |
| 2026-02-28 21:30 | 4.49 | 3440 (1948) | 8 (1954) | 587 | 28 | 45 | 151 | 203 | 350 | 695 | 835 | 1390 | 2010 | |
| 2026-02-28 20:30 | 4.47 | 3440 (1948) | 8 (1954) | 587 | 28 | 45 | 151 | 203 | 350 | 695 | 835 | 1390 | 2010 | |
| 2026-02-28 19:30 | 4.45 | 3440 (1948) | 8 (1954) | 587 | 28 | 45 | 151 | 203 | 350 | 695 | 835 | 1390 | 2010 | |
| 2026-02-28 18:30 | 4.42 | 3440 (1948) | 8 (1954) | 587 | 28 | 45 | 151 | 203 | 350 | 695 | 835 | 1390 | 2010 | |
| 2026-02-28 17:30 | 4.42 | 3440 (1948) | 8 (1954) | 587 | 28 | 45 | 151 | 203 | 350 | 695 | 835 | 1390 | 2010 | |
| 2026-02-28 16:30 | 4.40 | 3440 (1948) | 8 (1954) | 587 | 28 | 45 | 151 | 203 | 350 | 695 | 835 | 1390 | 2010 | |
| 2026-02-28 15:30 | 4.37 | 3440 (1948) | 8 (1954) | 587 | 28 | 45 | 151 | 203 | 350 | 695 | 835 | 1390 | 2010 | |
| 2026-02-28 14:30 | 4.35 | 3440 (1948) | 8 (1954) | 587 | 28 | 45 | 151 | 203 | 350 | 695 | 835 | 1390 | 2010 | |
| 2026-02-28 13:30 | 4.34 | 3440 (1948) | 8 (1954) | 587 | 28 | 45 | 151 | 203 | 350 | 695 | 835 | 1390 | 2010 | |
| 2026-02-28 12:30 | 4.32 | 3440 (1948) | 8 (1954) | 587 | 28 | 45 | 151 | 203 | 350 | 695 | 835 | 1390 | 2010 | |
| 2026-02-28 11:30 | 4.32 | 3440 (1948) | 8 (1954) | 587 | 28 | 45 | 151 | 203 | 350 | 695 | 835 | 1390 | 2010 | |
| 2026-02-28 10:30 | 4.32 | 3440 (1948) | 8 (1954) | 587 | 28 | 45 | 151 | 203 | 350 | 695 | 835 | 1390 | 2010 | |
| 2026-02-28 09:30 | 4.31 | 3440 (1948) | 8 (1954) | 587 | 28 | 45 | 151 | 203 | 350 | 695 | 835 | 1390 | 2010 | |
| 2026-02-28 08:30 | 4.32 | 3440 (1948) | 8 (1954) | 587 | 28 | 45 | 151 | 203 | 350 | 695 | 835 | 1390 | 2010 | |
| 2026-02-28 07:30 | 4.34 | 3440 (1948) | 8 (1954) | 587 | 28 | 45 | 151 | 203 | 350 | 695 | 835 | 1390 | 2010 | |
| 2026-02-28 06:30 | 4.35 | 3440 (1948) | 8 (1954) | 587 | 28 | 45 | 151 | 203 | 350 | 695 | 835 | 1390 | 2010 | |
| 2026-02-28 05:30 | 4.36 | 3440 (1948) | 8 (1954) | 587 | 28 | 45 | 151 | 203 | 350 | 695 | 835 | 1390 | 2010 | |
| 2026-02-28 04:30 | 4.36 | 3440 (1948) | 8 (1954) | 587 | 28 | 45 | 151 | 203 | 350 | 695 | 835 | 1390 | 2010 | |
| 2026-02-28 03:30 | 4.37 | 3440 (1948) | 8 (1954) | 587 | 28 | 45 | 151 | 203 | 350 | 695 | 835 | 1390 | 2010 | |
| 2026-02-28 02:30 | 4.38 | 3440 (1948) | 8 (1954) | 587 | 28 | 45 | 151 | 203 | 350 | 695 | 835 | 1390 | 2010 | |
| 2026-02-28 01:30 | 4.39 | 3440 (1948) | 8 (1954) | 587 | 28 | 45 | 151 | 203 | 350 | 695 | 835 | 1390 | 2010 | |
| 2026-02-28 00:30 | 4.40 | 3440 (1948) | 8 (1954) | 587 | 28 | 45 | 151 | 203 | 350 | 695 | 835 | 1390 | 2010 | |
| 2026-02-27 23:30 | 4.41 | 3440 (1948) | 8 (1954) | 587 | 28 | 45 | 151 | 203 | 350 | 695 | 835 | 1390 | 2010 | |
| 2026-02-27 22:30 | 4.43 | 4010 (2001) | 11 (1989) | 582 | 30 | 49 | 145 | 211 | 340 | 697 | 762 | 1450 | 2090 | |
| 2026-02-27 21:30 | 4.44 | 4010 (2001) | 11 (1989) | 582 | 30 | 49 | 145 | 211 | 340 | 697 | 762 | 1450 | 2090 | |
| 2026-02-27 20:30 | 4.43 | 4010 (2001) | 11 (1989) | 582 | 30 | 49 | 145 | 211 | 340 | 697 | 762 | 1450 | 2090 | |
| 2026-02-27 19:30 | 4.46 | 4010 (2001) | 11 (1989) | 582 | 30 | 49 | 145 | 211 | 340 | 697 | 762 | 1450 | 2090 | |
| 2026-02-27 18:30 | 4.43 | 4010 (2001) | 11 (1989) | 582 | 30 | 49 | 145 | 211 | 340 | 697 | 762 | 1450 | 2090 | |
| 2026-02-27 17:30 | 4.42 | 4010 (2001) | 11 (1989) | 582 | 30 | 49 | 145 | 211 | 340 | 697 | 762 | 1450 | 2090 | |
| 2026-02-27 16:30 | 4.42 | 4010 (2001) | 11 (1989) | 582 | 30 | 49 | 145 | 211 | 340 | 697 | 762 | 1450 | 2090 | |
| 2026-02-27 15:30 | 4.43 | 4010 (2001) | 11 (1989) | 582 | 30 | 49 | 145 | 211 | 340 | 697 | 762 | 1450 | 2090 | |
| 2026-02-27 14:30 | 4.44 | 4010 (2001) | 11 (1989) | 582 | 30 | 49 | 145 | 211 | 340 | 697 | 762 | 1450 | 2090 | |
| 2026-02-27 13:30 | 4.44 | 4010 (2001) | 11 (1989) | 582 | 30 | 49 | 145 | 211 | 340 | 697 | 762 | 1450 | 2090 | |
| 2026-02-27 12:30 | 4.43 | 4010 (2001) | 11 (1989) | 582 | 30 | 49 | 145 | 211 | 340 | 697 | 762 | 1450 | 2090 | |
| 2026-02-27 11:30 | 4.43 | 4010 (2001) | 11 (1989) | 582 | 30 | 49 | 145 | 211 | 340 | 697 | 762 | 1450 | 2090 | |
| 2026-02-27 10:30 | 4.42 | 4010 (2001) | 11 (1989) | 582 | 30 | 49 | 145 | 211 | 340 | 697 | 762 | 1450 | 2090 | |
| 2026-02-27 09:30 | 4.40 | 4010 (2001) | 11 (1989) | 582 | 30 | 49 | 145 | 211 | 340 | 697 | 762 | 1450 | 2090 | |
| 2026-02-27 08:30 | 4.41 | 4010 (2001) | 11 (1989) | 582 | 30 | 49 | 145 | 211 | 340 | 697 | 762 | 1450 | 2090 | |
| 2026-02-27 07:30 | 4.41 | 4010 (2001) | 11 (1989) | 582 | 30 | 49 | 145 | 211 | 340 | 697 | 762 | 1450 | 2090 | |
| 2026-02-27 06:30 | 4.41 | 4010 (2001) | 11 (1989) | 582 | 30 | 49 | 145 | 211 | 340 | 697 | 762 | 1450 | 2090 | |
| 2026-02-27 05:30 | 4.41 | 4010 (2001) | 11 (1989) | 582 | 30 | 49 | 145 | 211 | 340 | 697 | 762 | 1450 | 2090 | |
| 2026-02-27 04:30 | 4.42 | 4010 (2001) | 11 (1989) | 582 | 30 | 49 | 145 | 211 | 340 | 697 | 762 | 1450 | 2090 | |
| 2026-02-27 03:30 | 4.42 | 4010 (2001) | 11 (1989) | 582 | 30 | 49 | 145 | 211 | 340 | 697 | 762 | 1450 | 2090 | |
| 2026-02-27 02:30 | 4.42 | 4010 (2001) | 11 (1989) | 582 | 30 | 49 | 145 | 211 | 340 | 697 | 762 | 1450 | 2090 | |
| 2026-02-27 01:30 | 4.42 | 4010 (2001) | 11 (1989) | 582 | 30 | 49 | 145 | 211 | 340 | 697 | 762 | 1450 | 2090 | |
| 2026-02-27 00:30 | 4.43 | 4010 (2001) | 11 (1989) | 582 | 30 | 49 | 145 | 211 | 340 | 697 | 762 | 1450 | 2090 | |
| 2026-02-26 23:30 | 4.44 | 4010 (2001) | 11 (1989) | 582 | 30 | 49 | 145 | 211 | 340 | 697 | 762 | 1450 | 2090 | |
| 2026-02-26 22:30 | 4.44 | 4850 (2001) | 12 (1954) | 622 | 23 | 46 | 101 | 190 | 350 | 714 | 792 | 1540 | 2600 | |
| 2026-02-26 21:30 | 4.45 | 4850 (2001) | 12 (1954) | 622 | 23 | 46 | 101 | 190 | 350 | 714 | 792 | 1540 | 2600 | |
| 2026-02-26 20:30 | 4.46 | 4850 (2001) | 12 (1954) | 622 | 23 | 46 | 101 | 190 | 350 | 714 | 792 | 1540 | 2600 | |
| 2026-02-26 19:30 | 4.46 | 4850 (2001) | 12 (1954) | 622 | 23 | 46 | 101 | 190 | 350 | 714 | 792 | 1540 | 2600 | |
| 2026-02-26 18:30 | 4.47 | 4850 (2001) | 12 (1954) | 622 | 23 | 46 | 101 | 190 | 350 | 714 | 792 | 1540 | 2600 | |
| 2026-02-26 17:30 | 4.47 | 4850 (2001) | 12 (1954) | 622 | 23 | 46 | 101 | 190 | 350 | 714 | 792 | 1540 | 2600 | |
| 2026-02-26 16:30 | 4.47 | 4850 (2001) | 12 (1954) | 622 | 23 | 46 | 101 | 190 | 350 | 714 | 792 | 1540 | 2600 | |
| 2026-02-26 15:30 | 4.48 | 4850 (2001) | 12 (1954) | 622 | 23 | 46 | 101 | 190 | 350 | 714 | 792 | 1540 | 2600 | |
| 2026-02-26 14:30 | 4.46 | 4850 (2001) | 12 (1954) | 622 | 23 | 46 | 101 | 190 | 350 | 714 | 792 | 1540 | 2600 | |
| 2026-02-26 13:30 | 4.46 | 4850 (2001) | 12 (1954) | 622 | 23 | 46 | 101 | 190 | 350 | 714 | 792 | 1540 | 2600 | |
| 2026-02-26 12:30 | 4.48 | 4850 (2001) | 12 (1954) | 622 | 23 | 46 | 101 | 190 | 350 | 714 | 792 | 1540 | 2600 | |
| 2026-02-26 11:30 | 4.47 | 4850 (2001) | 12 (1954) | 622 | 23 | 46 | 101 | 190 | 350 | 714 | 792 | 1540 | 2600 | |
| 2026-02-26 10:30 | 4.47 | 4850 (2001) | 12 (1954) | 622 | 23 | 46 | 101 | 190 | 350 | 714 | 792 | 1540 | 2600 | |
| 2026-02-26 09:30 | 4.44 | 4850 (2001) | 12 (1954) | 622 | 23 | 46 | 101 | 190 | 350 | 714 | 792 | 1540 | 2600 | |
| 2026-02-26 08:30 | 4.42 | 4850 (2001) | 12 (1954) | 622 | 23 | 46 | 101 | 190 | 350 | 714 | 792 | 1540 | 2600 | |
| 2026-02-26 07:30 | 4.42 | 4850 (2001) | 12 (1954) | 622 | 23 | 46 | 101 | 190 | 350 | 714 | 792 | 1540 | 2600 | |
| 2026-02-26 06:30 | 4.43 | 4850 (2001) | 12 (1954) | 622 | 23 | 46 | 101 | 190 | 350 | 714 | 792 | 1540 | 2600 | |
| 2026-02-26 05:30 | 4.43 | 4850 (2001) | 12 (1954) | 622 | 23 | 46 | 101 | 190 | 350 | 714 | 792 | 1540 | 2600 | |
| 2026-02-26 04:30 | 4.44 | 4850 (2001) | 12 (1954) | 622 | 23 | 46 | 101 | 190 | 350 | 714 | 792 | 1540 | 2600 | |
| 2026-02-26 03:30 | 4.45 | 4850 (2001) | 12 (1954) | 622 | 23 | 46 | 101 | 190 | 350 | 714 | 792 | 1540 | 2600 | |
| 2026-02-26 02:30 | 4.45 | 4850 (2001) | 12 (1954) | 622 | 23 | 46 | 101 | 190 | 350 | 714 | 792 | 1540 | 2600 | |
| 2026-02-26 01:30 | 4.44 | 4850 (2001) | 12 (1954) | 622 | 23 | 46 | 101 | 190 | 350 | 714 | 792 | 1540 | 2600 | |
| 2026-02-26 00:30 | 4.44 | 4850 (2001) | 12 (1954) | 622 | 23 | 46 | 101 | 190 | 350 | 714 | 792 | 1540 | 2600 | |
| 2026-02-25 23:30 | 4.44 | 4850 (2001) | 12 (1954) | 622 | 23 | 46 | 101 | 190 | 350 | 714 | 792 | 1540 | 2600 | |
| 2026-02-25 22:30 | 4.43 | 4870 (2001) | 12 (1989) | 664 | 23 | 43 | 101 | 178 | 355 | 763 | 939 | 1790 | 2490 | |
| 2026-02-25 21:30 | 4.44 | 4870 (2001) | 12 (1989) | 664 | 23 | 43 | 101 | 178 | 355 | 763 | 939 | 1790 | 2490 | |
| 2026-02-25 20:30 | 4.44 | 4870 (2001) | 12 (1989) | 664 | 23 | 43 | 101 | 178 | 355 | 763 | 939 | 1790 | 2490 | |
| 2026-02-25 19:30 | 4.43 | 4870 (2001) | 12 (1989) | 664 | 23 | 43 | 101 | 178 | 355 | 763 | 939 | 1790 | 2490 | |
| 2026-02-25 18:30 | 4.41 | 4870 (2001) | 12 (1989) | 664 | 23 | 43 | 101 | 178 | 355 | 763 | 939 | 1790 | 2490 | |
| 2026-02-25 17:30 | 4.41 | 4870 (2001) | 12 (1989) | 664 | 23 | 43 | 101 | 178 | 355 | 763 | 939 | 1790 | 2490 | |
| 2026-02-25 16:30 | 4.38 | 4870 (2001) | 12 (1989) | 664 | 23 | 43 | 101 | 178 | 355 | 763 | 939 | 1790 | 2490 | |
| 2026-02-25 15:30 | 4.37 | 4870 (2001) | 12 (1989) | 664 | 23 | 43 | 101 | 178 | 355 | 763 | 939 | 1790 | 2490 | |
| 2026-02-25 14:30 | 4.37 | 4870 (2001) | 12 (1989) | 664 | 23 | 43 | 101 | 178 | 355 | 763 | 939 | 1790 | 2490 | |
| 2026-02-25 13:30 | 4.35 | 4870 (2001) | 12 (1989) | 664 | 23 | 43 | 101 | 178 | 355 | 763 | 939 | 1790 | 2490 | |
| 2026-02-25 12:30 | 4.35 | 4870 (2001) | 12 (1989) | 664 | 23 | 43 | 101 | 178 | 355 | 763 | 939 | 1790 | 2490 | |
| 2026-02-25 11:30 | 4.37 | 4870 (2001) | 12 (1989) | 664 | 23 | 43 | 101 | 178 | 355 | 763 | 939 | 1790 | 2490 | |
| 2026-02-25 10:30 | 4.34 | 4870 (2001) | 12 (1989) | 664 | 23 | 43 | 101 | 178 | 355 | 763 | 939 | 1790 | 2490 | |
| 2026-02-25 09:30 | 4.33 | 4870 (2001) | 12 (1989) | 664 | 23 | 43 | 101 | 178 | 355 | 763 | 939 | 1790 | 2490 | |
| 2026-02-25 08:30 | 4.32 | 4870 (2001) | 12 (1989) | 664 | 23 | 43 | 101 | 178 | 355 | 763 | 939 | 1790 | 2490 | |
| 2026-02-25 07:30 | 4.33 | 4870 (2001) | 12 (1989) | 664 | 23 | 43 | 101 | 178 | 355 | 763 | 939 | 1790 | 2490 | |
| 2026-02-25 06:30 | 4.33 | 4870 (2001) | 12 (1989) | 664 | 23 | 43 | 101 | 178 | 355 | 763 | 939 | 1790 | 2490 | |
| 2026-02-25 05:30 | 4.34 | 4870 (2001) | 12 (1989) | 664 | 23 | 43 | 101 | 178 | 355 | 763 | 939 | 1790 | 2490 | |
| 2026-02-25 04:30 | 4.36 | 4870 (2001) | 12 (1989) | 664 | 23 | 43 | 101 | 178 | 355 | 763 | 939 | 1790 | 2490 | |
| 2026-02-25 03:30 | 4.37 | 4870 (2001) | 12 (1989) | 664 | 23 | 43 | 101 | 178 | 355 | 763 | 939 | 1790 | 2490 | |
| 2026-02-25 02:30 | 4.39 | 4870 (2001) | 12 (1989) | 664 | 23 | 43 | 101 | 178 | 355 | 763 | 939 | 1790 | 2490 | |
| 2026-02-25 01:30 | 4.41 | 4870 (2001) | 12 (1989) | 664 | 23 | 43 | 101 | 178 | 355 | 763 | 939 | 1790 | 2490 | |
| 2026-02-25 00:30 | 4.42 | 4870 (2001) | 12 (1989) | 664 | 23 | 43 | 101 | 178 | 355 | 763 | 939 | 1790 | 2490 | |
| 2026-02-24 23:30 | 4.43 | 4870 (2001) | 12 (1989) | 664 | 23 | 43 | 101 | 178 | 355 | 763 | 939 | 1790 | 2490 | |
| 2026-02-24 22:30 | 4.43 | 4010 (1997) | 11 (1989) | 661 | 29 | 51 | 100 | 155 | 349 | 792 | 853 | 1600 | 3470 | |
| 2026-02-24 21:30 | 4.44 | 4010 (1997) | 11 (1989) | 661 | 29 | 51 | 100 | 155 | 349 | 792 | 853 | 1600 | 3470 | |
| 2026-02-24 20:30 | 4.44 | 4010 (1997) | 11 (1989) | 661 | 29 | 51 | 100 | 155 | 349 | 792 | 853 | 1600 | 3470 | |
| 2026-02-24 19:30 | 4.45 | 4010 (1997) | 11 (1989) | 661 | 29 | 51 | 100 | 155 | 349 | 792 | 853 | 1600 | 3470 | |
| 2026-02-24 18:30 | 4.45 | 4010 (1997) | 11 (1989) | 661 | 29 | 51 | 100 | 155 | 349 | 792 | 853 | 1600 | 3470 | |
| 2026-02-24 17:30 | 4.46 | 4010 (1997) | 11 (1989) | 661 | 29 | 51 | 100 | 155 | 349 | 792 | 853 | 1600 | 3470 | |
| 2026-02-24 16:30 | 4.44 | 4010 (1997) | 11 (1989) | 661 | 29 | 51 | 100 | 155 | 349 | 792 | 853 | 1600 | 3470 | |
| 2026-02-24 15:30 | 4.45 | 4010 (1997) | 11 (1989) | 661 | 29 | 51 | 100 | 155 | 349 | 792 | 853 | 1600 | 3470 | |
| 2026-02-24 14:30 | 4.45 | 4010 (1997) | 11 (1989) | 661 | 29 | 51 | 100 | 155 | 349 | 792 | 853 | 1600 | 3470 | |
| 2026-02-24 13:30 | 4.45 | 4010 (1997) | 11 (1989) | 661 | 29 | 51 | 100 | 155 | 349 | 792 | 853 | 1600 | 3470 | |
| 2026-02-24 12:30 | 4.41 | 4010 (1997) | 11 (1989) | 661 | 29 | 51 | 100 | 155 | 349 | 792 | 853 | 1600 | 3470 | |
| 2026-02-24 11:30 | 4.36 | 4010 (1997) | 11 (1989) | 661 | 29 | 51 | 100 | 155 | 349 | 792 | 853 | 1600 | 3470 | |
| 2026-02-24 10:30 | 4.31 | 4010 (1997) | 11 (1989) | 661 | 29 | 51 | 100 | 155 | 349 | 792 | 853 | 1600 | 3470 | |
| 2026-02-24 09:30 | 4.28 | 4010 (1997) | 11 (1989) | 661 | 29 | 51 | 100 | 155 | 349 | 792 | 853 | 1600 | 3470 | |
| 2026-02-24 08:30 | 4.27 | 4010 (1997) | 11 (1989) | 661 | 29 | 51 | 100 | 155 | 349 | 792 | 853 | 1600 | 3470 | |
| 2026-02-24 07:30 | 4.25 | 4010 (1997) | 11 (1989) | 661 | 29 | 51 | 100 | 155 | 349 | 792 | 853 | 1600 | 3470 | |
| 2026-02-24 06:30 | 4.24 | 4010 (1997) | 11 (1989) | 661 | 29 | 51 | 100 | 155 | 349 | 792 | 853 | 1600 | 3470 | |
| 2026-02-24 05:30 | 4.24 | 4010 (1997) | 11 (1989) | 661 | 29 | 51 | 100 | 155 | 349 | 792 | 853 | 1600 | 3470 | |
| 2026-02-24 04:30 | 4.24 | 4010 (1997) | 11 (1989) | 661 | 29 | 51 | 100 | 155 | 349 | 792 | 853 | 1600 | 3470 | |
| 2026-02-24 03:30 | 4.24 | 4010 (1997) | 11 (1989) | 661 | 29 | 51 | 100 | 155 | 349 | 792 | 853 | 1600 | 3470 | |
| 2026-02-24 02:30 | 4.25 | 4010 (1997) | 11 (1989) | 661 | 29 | 51 | 100 | 155 | 349 | 792 | 853 | 1600 | 3470 | |
| 2026-02-24 01:30 | 4.27 | 4010 (1997) | 11 (1989) | 661 | 29 | 51 | 100 | 155 | 349 | 792 | 853 | 1600 | 3470 | |
| 2026-02-24 00:30 | 4.29 | 4010 (1997) | 11 (1989) | 661 | 29 | 51 | 100 | 155 | 349 | 792 | 853 | 1600 | 3470 | |
| 2026-02-23 23:30 | 4.33 | 4010 (1997) | 11 (1989) | 661 | 29 | 51 | 100 | 155 | 349 | 792 | 853 | 1600 | 3470 | |
| 2026-02-23 22:30 | 4.38 | 4800 (1997) | 7 (1956) | 668 | 22 | 42 | 90 | 121 | 330 | 867 | 1000 | 1740 | 3240 | |
| 2026-02-23 21:30 | 4.42 | 4800 (1997) | 7 (1956) | 668 | 22 | 42 | 90 | 121 | 330 | 867 | 1000 | 1740 | 3240 | |
| 2026-02-23 20:30 | 4.45 | 4800 (1997) | 7 (1956) | 668 | 22 | 42 | 90 | 121 | 330 | 867 | 1000 | 1740 | 3240 | |
| 2026-02-23 19:30 | 4.47 | 4800 (1997) | 7 (1956) | 668 | 22 | 42 | 90 | 121 | 330 | 867 | 1000 | 1740 | 3240 | |
| 2026-02-23 18:30 | 4.47 | 4800 (1997) | 7 (1956) | 668 | 22 | 42 | 90 | 121 | 330 | 867 | 1000 | 1740 | 3240 | |
| 2026-02-23 17:30 | 4.47 | 4800 (1997) | 7 (1956) | 668 | 22 | 42 | 90 | 121 | 330 | 867 | 1000 | 1740 | 3240 | |
| 2026-02-23 16:30 | 4.47 | 4800 (1997) | 7 (1956) | 668 | 22 | 42 | 90 | 121 | 330 | 867 | 1000 | 1740 | 3240 | |
| 2026-02-23 15:30 | 4.46 | 4800 (1997) | 7 (1956) | 668 | 22 | 42 | 90 | 121 | 330 | 867 | 1000 | 1740 | 3240 | |
| 2026-02-23 14:30 | 4.45 | 4800 (1997) | 7 (1956) | 668 | 22 | 42 | 90 | 121 | 330 | 867 | 1000 | 1740 | 3240 | |
| 2026-02-23 13:30 | 4.40 | 4800 (1997) | 7 (1956) | 668 | 22 | 42 | 90 | 121 | 330 | 867 | 1000 | 1740 | 3240 | |
| 2026-02-23 12:30 | 4.35 | 4800 (1997) | 7 (1956) | 668 | 22 | 42 | 90 | 121 | 330 | 867 | 1000 | 1740 | 3240 | |
| 2026-02-23 11:30 | 4.34 | 4800 (1997) | 7 (1956) | 668 | 22 | 42 | 90 | 121 | 330 | 867 | 1000 | 1740 | 3240 | |
| 2026-02-23 10:30 | 4.44 | 4800 (1997) | 7 (1956) | 668 | 22 | 42 | 90 | 121 | 330 | 867 | 1000 | 1740 | 3240 | |
| 2026-02-23 09:30 | 4.54 | 4800 (1997) | 7 (1956) | 668 | 22 | 42 | 90 | 121 | 330 | 867 | 1000 | 1740 | 3240 | |
| 2026-02-23 08:30 | 4.55 | 4800 (1997) | 7 (1956) | 668 | 22 | 42 | 90 | 121 | 330 | 867 | 1000 | 1740 | 3240 | |
| 2026-02-23 07:30 | 4.56 | 4800 (1997) | 7 (1956) | 668 | 22 | 42 | 90 | 121 | 330 | 867 | 1000 | 1740 | 3240 | |
| 2026-02-23 06:30 | 4.57 | 4800 (1997) | 7 (1956) | 668 | 22 | 42 | 90 | 121 | 330 | 867 | 1000 | 1740 | 3240 | |
| 2026-02-23 05:30 | 4.58 | 4800 (1997) | 7 (1956) | 668 | 22 | 42 | 90 | 121 | 330 | 867 | 1000 | 1740 | 3240 | |
| 2026-02-23 04:30 | 4.60 | 4800 (1997) | 7 (1956) | 668 | 22 | 42 | 90 | 121 | 330 | 867 | 1000 | 1740 | 3240 | |
| 2026-02-23 03:30 | 4.62 | 4800 (1997) | 7 (1956) | 668 | 22 | 42 | 90 | 121 | 330 | 867 | 1000 | 1740 | 3240 | |
| 2026-02-23 02:30 | 4.63 | 4800 (1997) | 7 (1956) | 668 | 22 | 42 | 90 | 121 | 330 | 867 | 1000 | 1740 | 3240 | |
| 2026-02-23 01:30 | 4.62 | 4800 (1997) | 7 (1956) | 668 | 22 | 42 | 90 | 121 | 330 | 867 | 1000 | 1740 | 3240 | |
| 2026-02-23 00:30 | 4.62 | 4800 (1997) | 7 (1956) | 668 | 22 | 42 | 90 | 121 | 330 | 867 | 1000 | 1740 | 3240 | |
| 2026-02-22 23:30 | 4.62 | 4800 (1997) | 7 (1956) | 668 | 22 | 42 | 90 | 121 | 330 | 867 | 1000 | 1740 | 3240 | |
| 2026-02-22 22:30 | 4.62 | 5000 (1994) | 10 (1956) | 728 | 18 | 38 | 99 | 117 | 350 | 903 | 996 | 1980 | 3470 | |
| 2026-02-22 21:30 | 4.62 | 5000 (1994) | 10 (1956) | 728 | 18 | 38 | 99 | 117 | 350 | 903 | 996 | 1980 | 3470 | |
| 2026-02-22 20:30 | 4.63 | 5000 (1994) | 10 (1956) | 728 | 18 | 38 | 99 | 117 | 350 | 903 | 996 | 1980 | 3470 | |
| 2026-02-22 19:30 | 4.64 | 5000 (1994) | 10 (1956) | 728 | 18 | 38 | 99 | 117 | 350 | 903 | 996 | 1980 | 3470 | |
| 2026-02-22 18:30 | 4.63 | 5000 (1994) | 10 (1956) | 728 | 18 | 38 | 99 | 117 | 350 | 903 | 996 | 1980 | 3470 | |
| 2026-02-22 17:30 | 4.62 | 5000 (1994) | 10 (1956) | 728 | 18 | 38 | 99 | 117 | 350 | 903 | 996 | 1980 | 3470 | |
| 2026-02-22 16:30 | 4.62 | 5000 (1994) | 10 (1956) | 728 | 18 | 38 | 99 | 117 | 350 | 903 | 996 | 1980 | 3470 | |
| 2026-02-22 15:30 | 4.58 | 5000 (1994) | 10 (1956) | 728 | 18 | 38 | 99 | 117 | 350 | 903 | 996 | 1980 | 3470 | |
| 2026-02-22 14:30 | 4.53 | 5000 (1994) | 10 (1956) | 728 | 18 | 38 | 99 | 117 | 350 | 903 | 996 | 1980 | 3470 | |
| 2026-02-22 13:30 | 4.50 | 5000 (1994) | 10 (1956) | 728 | 18 | 38 | 99 | 117 | 350 | 903 | 996 | 1980 | 3470 | |
| 2026-02-22 12:30 | 4.48 | 5000 (1994) | 10 (1956) | 728 | 18 | 38 | 99 | 117 | 350 | 903 | 996 | 1980 | 3470 | |
| 2026-02-22 11:30 | 4.52 | 5000 (1994) | 10 (1956) | 728 | 18 | 38 | 99 | 117 | 350 | 903 | 996 | 1980 | 3470 | |
| 2026-02-22 10:30 | 4.63 | 5000 (1994) | 10 (1956) | 728 | 18 | 38 | 99 | 117 | 350 | 903 | 996 | 1980 | 3470 | |
| 2026-02-22 09:30 | 4.67 | 5000 (1994) | 10 (1956) | 728 | 18 | 38 | 99 | 117 | 350 | 903 | 996 | 1980 | 3470 | |
| 2026-02-22 08:30 | 4.65 | 5000 (1994) | 10 (1956) | 728 | 18 | 38 | 99 | 117 | 350 | 903 | 996 | 1980 | 3470 | |
| 2026-02-22 07:30 | 4.64 | 5000 (1994) | 10 (1956) | 728 | 18 | 38 | 99 | 117 | 350 | 903 | 996 | 1980 | 3470 | |
| 2026-02-22 06:30 | 4.65 | 5000 (1994) | 10 (1956) | 728 | 18 | 38 | 99 | 117 | 350 | 903 | 996 | 1980 | 3470 | |
| 2026-02-22 05:30 | 4.65 | 5000 (1994) | 10 (1956) | 728 | 18 | 38 | 99 | 117 | 350 | 903 | 996 | 1980 | 3470 | |
| 2026-02-22 04:30 | 4.65 | 5000 (1994) | 10 (1956) | 728 | 18 | 38 | 99 | 117 | 350 | 903 | 996 | 1980 | 3470 | |
| 2026-02-22 03:30 | 4.65 | 5000 (1994) | 10 (1956) | 728 | 18 | 38 | 99 | 117 | 350 | 903 | 996 | 1980 | 3470 | |
| 2026-02-22 02:30 | 4.65 | 5000 (1994) | 10 (1956) | 728 | 18 | 38 | 99 | 117 | 350 | 903 | 996 | 1980 | 3470 | |
| 2026-02-22 01:30 | 4.67 | 5000 (1994) | 10 (1956) | 728 | 18 | 38 | 99 | 117 | 350 | 903 | 996 | 1980 | 3470 | |
| 2026-02-22 00:30 | 4.68 | 5000 (1994) | 10 (1956) | 728 | 18 | 38 | 99 | 117 | 350 | 903 | 996 | 1980 | 3470 | |
| 2026-02-21 23:30 | 4.68 | 5000 (1994) | 10 (1956) | 728 | 18 | 38 | 99 | 117 | 350 | 903 | 996 | 1980 | 3470 | |
| 2026-02-21 22:30 | 4.63 | 3700 (2014) | 10 (1958) | 683 | 17 | 41 | 93 | 139 | 325 | 850 | 1070 | 2390 | 2940 | |
| 2026-02-21 21:30 | 4.56 | 3700 (2014) | 10 (1958) | 683 | 17 | 41 | 93 | 139 | 325 | 850 | 1070 | 2390 | 2940 | |
| 2026-02-21 20:30 | 4.53 | 3700 (2014) | 10 (1958) | 683 | 17 | 41 | 93 | 139 | 325 | 850 | 1070 | 2390 | 2940 | |
| 2026-02-21 19:30 | 4.57 | 3700 (2014) | 10 (1958) | 683 | 17 | 41 | 93 | 139 | 325 | 850 | 1070 | 2390 | 2940 | |
| 2026-02-21 18:30 | 4.59 | 3700 (2014) | 10 (1958) | 683 | 17 | 41 | 93 | 139 | 325 | 850 | 1070 | 2390 | 2940 | |
| 2026-02-21 17:30 | 4.62 | 3700 (2014) | 10 (1958) | 683 | 17 | 41 | 93 | 139 | 325 | 850 | 1070 | 2390 | 2940 | |
| 2026-02-21 16:30 | 4.64 | 3700 (2014) | 10 (1958) | 683 | 17 | 41 | 93 | 139 | 325 | 850 | 1070 | 2390 | 2940 | |
| 2026-02-21 15:30 | 4.65 | 3700 (2014) | 10 (1958) | 683 | 17 | 41 | 93 | 139 | 325 | 850 | 1070 | 2390 | 2940 | |
| 2026-02-21 14:30 | 4.65 | 3700 (2014) | 10 (1958) | 683 | 17 | 41 | 93 | 139 | 325 | 850 | 1070 | 2390 | 2940 | |
| 2026-02-21 13:30 | 4.63 | 3700 (2014) | 10 (1958) | 683 | 17 | 41 | 93 | 139 | 325 | 850 | 1070 | 2390 | 2940 | |
| 2026-02-21 12:30 | 4.55 | 3700 (2014) | 10 (1958) | 683 | 17 | 41 | 93 | 139 | 325 | 850 | 1070 | 2390 | 2940 | |
| 2026-02-21 11:30 | 4.55 | 3700 (2014) | 10 (1958) | 683 | 17 | 41 | 93 | 139 | 325 | 850 | 1070 | 2390 | 2940 | |
| 2026-02-21 10:30 | 4.59 | 3700 (2014) | 10 (1958) | 683 | 17 | 41 | 93 | 139 | 325 | 850 | 1070 | 2390 | 2940 | |
| 2026-02-21 09:30 | 4.60 | 3700 (2014) | 10 (1958) | 683 | 17 | 41 | 93 | 139 | 325 | 850 | 1070 | 2390 | 2940 | |
| 2026-02-21 08:30 | 4.58 | 3700 (2014) | 10 (1958) | 683 | 17 | 41 | 93 | 139 | 325 | 850 | 1070 | 2390 | 2940 | |
| 2026-02-21 07:30 | 4.56 | 3700 (2014) | 10 (1958) | 683 | 17 | 41 | 93 | 139 | 325 | 850 | 1070 | 2390 | 2940 | |
| 2026-02-21 06:30 | 4.57 | 3700 (2014) | 10 (1958) | 683 | 17 | 41 | 93 | 139 | 325 | 850 | 1070 | 2390 | 2940 | |
| 2026-02-21 05:30 | 4.56 | 3700 (2014) | 10 (1958) | 683 | 17 | 41 | 93 | 139 | 325 | 850 | 1070 | 2390 | 2940 | |
| 2026-02-21 04:30 | 4.57 | 3700 (2014) | 10 (1958) | 683 | 17 | 41 | 93 | 139 | 325 | 850 | 1070 | 2390 | 2940 | |
| 2026-02-21 03:30 | 4.58 | 3700 (2014) | 10 (1958) | 683 | 17 | 41 | 93 | 139 | 325 | 850 | 1070 | 2390 | 2940 | |
| 2026-02-21 02:30 | 4.60 | 3700 (2014) | 10 (1958) | 683 | 17 | 41 | 93 | 139 | 325 | 850 | 1070 | 2390 | 2940 | |
| 2026-02-21 01:30 | 4.62 | 3700 (2014) | 10 (1958) | 683 | 17 | 41 | 93 | 139 | 325 | 850 | 1070 | 2390 | 2940 | |
| 2026-02-21 00:30 | 4.64 | 3700 (2014) | 10 (1958) | 683 | 17 | 41 | 93 | 139 | 325 | 850 | 1070 | 2390 | 2940 | |
| 2026-02-20 23:30 | 4.67 | 3700 (2014) | 10 (1958) | 683 | 17 | 41 | 93 | 139 | 325 | 850 | 1070 | 2390 | 2940 | |
| 2026-02-20 22:30 | 4.68 | 3450 (2011) | 10 (1958) | 606 | 19 | 42 | 89 | 115 | 289 | 618 | 761 | 1790 | 2700 | |
| 2026-02-20 21:30 | 4.66 | 3450 (2011) | 10 (1958) | 606 | 19 | 42 | 89 | 115 | 289 | 618 | 761 | 1790 | 2700 | |
| 2026-02-20 20:30 | 4.67 | 3450 (2011) | 10 (1958) | 606 | 19 | 42 | 89 | 115 | 289 | 618 | 761 | 1790 | 2700 | |
| 2026-02-20 19:30 | 4.70 | 3450 (2011) | 10 (1958) | 606 | 19 | 42 | 89 | 115 | 289 | 618 | 761 | 1790 | 2700 | |
| 2026-02-20 18:30 | 4.72 | 3450 (2011) | 10 (1958) | 606 | 19 | 42 | 89 | 115 | 289 | 618 | 761 | 1790 | 2700 | |
| 2026-02-20 17:30 | 4.74 | 3450 (2011) | 10 (1958) | 606 | 19 | 42 | 89 | 115 | 289 | 618 | 761 | 1790 | 2700 | |
| 2026-02-20 16:30 | 4.74 | 3450 (2011) | 10 (1958) | 606 | 19 | 42 | 89 | 115 | 289 | 618 | 761 | 1790 | 2700 | |
| 2026-02-20 15:30 | 4.72 | 3450 (2011) | 10 (1958) | 606 | 19 | 42 | 89 | 115 | 289 | 618 | 761 | 1790 | 2700 | |
| 2026-02-20 14:30 | 4.71 | 3450 (2011) | 10 (1958) | 606 | 19 | 42 | 89 | 115 | 289 | 618 | 761 | 1790 | 2700 | |
| 2026-02-20 13:30 | 4.71 | 3450 (2011) | 10 (1958) | 606 | 19 | 42 | 89 | 115 | 289 | 618 | 761 | 1790 | 2700 | |
| 2026-02-20 12:30 | 4.73 | 3450 (2011) | 10 (1958) | 606 | 19 | 42 | 89 | 115 | 289 | 618 | 761 | 1790 | 2700 | |
| 2026-02-20 11:30 | 4.73 | 3450 (2011) | 10 (1958) | 606 | 19 | 42 | 89 | 115 | 289 | 618 | 761 | 1790 | 2700 | |
| 2026-02-20 10:30 | 4.76 | 3450 (2011) | 10 (1958) | 606 | 19 | 42 | 89 | 115 | 289 | 618 | 761 | 1790 | 2700 | |
| 2026-02-20 09:30 | 4.81 | 3450 (2011) | 10 (1958) | 606 | 19 | 42 | 89 | 115 | 289 | 618 | 761 | 1790 | 2700 | |
| 2026-02-20 08:30 | 4.83 | 3450 (2011) | 10 (1958) | 606 | 19 | 42 | 89 | 115 | 289 | 618 | 761 | 1790 | 2700 | |
| 2026-02-20 07:30 | 4.80 | 3450 (2011) | 10 (1958) | 606 | 19 | 42 | 89 | 115 | 289 | 618 | 761 | 1790 | 2700 | |
| 2026-02-20 06:30 | 4.76 | 3450 (2011) | 10 (1958) | 606 | 19 | 42 | 89 | 115 | 289 | 618 | 761 | 1790 | 2700 | |
| 2026-02-20 05:30 | 4.77 | 3450 (2011) | 10 (1958) | 606 | 19 | 42 | 89 | 115 | 289 | 618 | 761 | 1790 | 2700 | |
| 2026-02-20 04:30 | 4.78 | 3450 (2011) | 10 (1958) | 606 | 19 | 42 | 89 | 115 | 289 | 618 | 761 | 1790 | 2700 | |
| 2026-02-20 03:30 | 4.80 | 3450 (2011) | 10 (1958) | 606 | 19 | 42 | 89 | 115 | 289 | 618 | 761 | 1790 | 2700 | |
| 2026-02-20 02:30 | 4.84 | 3450 (2011) | 10 (1958) | 606 | 19 | 42 | 89 | 115 | 289 | 618 | 761 | 1790 | 2700 | |
| 2026-02-20 01:30 | 4.88 | 3450 (2011) | 10 (1958) | 606 | 19 | 42 | 89 | 115 | 289 | 618 | 761 | 1790 | 2700 | |
| 2026-02-20 00:30 | 4.92 | 3450 (2011) | 10 (1958) | 606 | 19 | 42 | 89 | 115 | 289 | 618 | 761 | 1790 | 2700 | |
| 2026-02-19 23:30 | 4.97 | 3450 (2011) | 10 (1958) | 606 | 19 | 42 | 89 | 115 | 289 | 618 | 761 | 1790 | 2700 | |
| 2026-02-19 22:30 | 5.02 | 3570 (2011) | 9 (1956) | 494 | 14 | 39 | 87 | 99 | 242 | 485 | 667 | 1520 | 2390 | |
| 2026-02-19 21:30 | 5.07 | 3570 (2011) | 9 (1956) | 494 | 14 | 39 | 87 | 99 | 242 | 485 | 667 | 1520 | 2390 | |
| 2026-02-19 20:30 | 5.13 | 3570 (2011) | 9 (1956) | 494 | 14 | 39 | 87 | 99 | 242 | 485 | 667 | 1520 | 2390 | |
| 2026-02-19 19:30 | 5.17 | 3570 (2011) | 9 (1956) | 494 | 14 | 39 | 87 | 99 | 242 | 485 | 667 | 1520 | 2390 | |
| 2026-02-19 18:30 | 5.19 | 3570 (2011) | 9 (1956) | 494 | 14 | 39 | 87 | 99 | 242 | 485 | 667 | 1520 | 2390 | |
| 2026-02-19 17:30 | 5.19 | 3570 (2011) | 9 (1956) | 494 | 14 | 39 | 87 | 99 | 242 | 485 | 667 | 1520 | 2390 | |
| 2026-02-19 16:30 | 5.14 | 3570 (2011) | 9 (1956) | 494 | 14 | 39 | 87 | 99 | 242 | 485 | 667 | 1520 | 2390 | |
| 2026-02-19 15:30 | 5.10 | 3570 (2011) | 9 (1956) | 494 | 14 | 39 | 87 | 99 | 242 | 485 | 667 | 1520 | 2390 | |
| 2026-02-19 14:30 | 5.06 | 3570 (2011) | 9 (1956) | 494 | 14 | 39 | 87 | 99 | 242 | 485 | 667 | 1520 | 2390 | |
| 2026-02-19 13:30 | 5.02 | 3570 (2011) | 9 (1956) | 494 | 14 | 39 | 87 | 99 | 242 | 485 | 667 | 1520 | 2390 | |
| 2026-02-19 12:30 | 4.99 | 3570 (2011) | 9 (1956) | 494 | 14 | 39 | 87 | 99 | 242 | 485 | 667 | 1520 | 2390 | |
| 2026-02-19 11:30 | 4.98 | 3570 (2011) | 9 (1956) | 494 | 14 | 39 | 87 | 99 | 242 | 485 | 667 | 1520 | 2390 | |
| 2026-02-19 10:30 | 4.95 | 3570 (2011) | 9 (1956) | 494 | 14 | 39 | 87 | 99 | 242 | 485 | 667 | 1520 | 2390 | |
| 2026-02-19 09:30 | 5.02 | 3570 (2011) | 9 (1956) | 494 | 14 | 39 | 87 | 99 | 242 | 485 | 667 | 1520 | 2390 | |
| 2026-02-19 08:30 | 5.07 | 3570 (2011) | 9 (1956) | 494 | 14 | 39 | 87 | 99 | 242 | 485 | 667 | 1520 | 2390 | |
| 2026-02-19 07:30 | 5.13 | 3570 (2011) | 9 (1956) | 494 | 14 | 39 | 87 | 99 | 242 | 485 | 667 | 1520 | 2390 | |
| 2026-02-19 06:30 | 5.17 | 3570 (2011) | 9 (1956) | 494 | 14 | 39 | 87 | 99 | 242 | 485 | 667 | 1520 | 2390 | |
| 2026-02-19 05:30 | 5.21 | 3570 (2011) | 9 (1956) | 494 | 14 | 39 | 87 | 99 | 242 | 485 | 667 | 1520 | 2390 | |
| 2026-02-19 04:30 | 5.19 | 3570 (2011) | 9 (1956) | 494 | 14 | 39 | 87 | 99 | 242 | 485 | 667 | 1520 | 2390 | |
| 2026-02-19 03:30 | 5.16 | 3570 (2011) | 9 (1956) | 494 | 14 | 39 | 87 | 99 | 242 | 485 | 667 | 1520 | 2390 | |
| 2026-02-19 02:30 | 5.15 | 3570 (2011) | 9 (1956) | 494 | 14 | 39 | 87 | 99 | 242 | 485 | 667 | 1520 | 2390 | |
| 2026-02-19 01:30 | 5.14 | 3570 (2011) | 9 (1956) | 494 | 14 | 39 | 87 | 99 | 242 | 485 | 667 | 1520 | 2390 | |
| 2026-02-19 00:30 | 5.15 | 3570 (2011) | 9 (1956) | 494 | 14 | 39 | 87 | 99 | 242 | 485 | 667 | 1520 | 2390 | |
| 2026-02-18 23:30 | 5.16 | 3570 (2011) | 9 (1956) | 494 | 14 | 39 | 87 | 99 | 242 | 485 | 667 | 1520 | 2390 | |
| 2026-02-18 22:30 | 5.15 | 3770 (2011) | 7 (1956) | 431 | 12 | 35 | 79 | 87 | 190 | 437 | 570 | 1000 | 2250 | |
| 2026-02-18 21:30 | 5.16 | 3770 (2011) | 7 (1956) | 431 | 12 | 35 | 79 | 87 | 190 | 437 | 570 | 1000 | 2250 | |
| 2026-02-18 20:30 | 5.16 | 3770 (2011) | 7 (1956) | 431 | 12 | 35 | 79 | 87 | 190 | 437 | 570 | 1000 | 2250 | |
| 2026-02-18 19:30 | 5.17 | 3770 (2011) | 7 (1956) | 431 | 12 | 35 | 79 | 87 | 190 | 437 | 570 | 1000 | 2250 | |
| 2026-02-18 18:30 | 5.17 | 3770 (2011) | 7 (1956) | 431 | 12 | 35 | 79 | 87 | 190 | 437 | 570 | 1000 | 2250 | |
| 2026-02-18 17:30 | 5.16 | 3770 (2011) | 7 (1956) | 431 | 12 | 35 | 79 | 87 | 190 | 437 | 570 | 1000 | 2250 | |
| 2026-02-18 16:30 | 5.16 | 3770 (2011) | 7 (1956) | 431 | 12 | 35 | 79 | 87 | 190 | 437 | 570 | 1000 | 2250 | |
| 2026-02-18 15:30 | 5.14 | 3770 (2011) | 7 (1956) | 431 | 12 | 35 | 79 | 87 | 190 | 437 | 570 | 1000 | 2250 | |
| 2026-02-18 14:30 | 5.13 | 3770 (2011) | 7 (1956) | 431 | 12 | 35 | 79 | 87 | 190 | 437 | 570 | 1000 | 2250 | |
| 2026-02-18 13:30 | 5.11 | 3770 (2011) | 7 (1956) | 431 | 12 | 35 | 79 | 87 | 190 | 437 | 570 | 1000 | 2250 | |
| 2026-02-18 12:30 | 5.14 | 3770 (2011) | 7 (1956) | 431 | 12 | 35 | 79 | 87 | 190 | 437 | 570 | 1000 | 2250 | |
| 2026-02-18 11:30 | 5.14 | 3770 (2011) | 7 (1956) | 431 | 12 | 35 | 79 | 87 | 190 | 437 | 570 | 1000 | 2250 | |
| 2026-02-18 10:30 | 5.10 | 3770 (2011) | 7 (1956) | 431 | 12 | 35 | 79 | 87 | 190 | 437 | 570 | 1000 | 2250 | |
| 2026-02-18 09:30 | 5.12 | 3770 (2011) | 7 (1956) | 431 | 12 | 35 | 79 | 87 | 190 | 437 | 570 | 1000 | 2250 | |
| 2026-02-18 08:30 | 5.12 | 3770 (2011) | 7 (1956) | 431 | 12 | 35 | 79 | 87 | 190 | 437 | 570 | 1000 | 2250 | |
| 2026-02-18 07:30 | 5.11 | 3770 (2011) | 7 (1956) | 431 | 12 | 35 | 79 | 87 | 190 | 437 | 570 | 1000 | 2250 | |
| 2026-02-18 06:30 | 5.12 | 3770 (2011) | 7 (1956) | 431 | 12 | 35 | 79 | 87 | 190 | 437 | 570 | 1000 | 2250 | |
| 2026-02-18 05:30 | 5.12 | 3770 (2011) | 7 (1956) | 431 | 12 | 35 | 79 | 87 | 190 | 437 | 570 | 1000 | 2250 | |
| 2026-02-18 04:30 | 5.10 | 3770 (2011) | 7 (1956) | 431 | 12 | 35 | 79 | 87 | 190 | 437 | 570 | 1000 | 2250 | |
| 2026-02-18 03:30 | 5.08 | 3770 (2011) | 7 (1956) | 431 | 12 | 35 | 79 | 87 | 190 | 437 | 570 | 1000 | 2250 | |
| 2026-02-18 02:30 | 5.08 | 3770 (2011) | 7 (1956) | 431 | 12 | 35 | 79 | 87 | 190 | 437 | 570 | 1000 | 2250 | |
| 2026-02-18 01:30 | 5.08 | 3770 (2011) | 7 (1956) | 431 | 12 | 35 | 79 | 87 | 190 | 437 | 570 | 1000 | 2250 | |
| 2026-02-18 00:30 | 5.06 | 3770 (2011) | 7 (1956) | 431 | 12 | 35 | 79 | 87 | 190 | 437 | 570 | 1000 | 2250 | |
| 2026-02-17 23:30 | 5.05 | 3770 (2011) | 7 (1956) | 431 | 12 | 35 | 79 | 87 | 190 | 437 | 570 | 1000 | 2250 | |
| 2026-02-17 22:30 | 5.06 | 3180 (2011) | 8 (2014) | 352 | 13 | 33 | 65 | 77 | 165 | 365 | 478 | 767 | 1590 | |
| 2026-02-17 21:30 | 5.05 | 3180 (2011) | 8 (2014) | 352 | 13 | 33 | 65 | 77 | 165 | 365 | 478 | 767 | 1590 | |
| 2026-02-17 20:30 | 5.04 | 3180 (2011) | 8 (2014) | 352 | 13 | 33 | 65 | 77 | 165 | 365 | 478 | 767 | 1590 | |
| 2026-02-17 19:30 | 5.04 | 3180 (2011) | 8 (2014) | 352 | 13 | 33 | 65 | 77 | 165 | 365 | 478 | 767 | 1590 | |
| 2026-02-17 18:30 | 5.02 | 3180 (2011) | 8 (2014) | 352 | 13 | 33 | 65 | 77 | 165 | 365 | 478 | 767 | 1590 | |
| 2026-02-17 17:30 | 5.03 | 3180 (2011) | 8 (2014) | 352 | 13 | 33 | 65 | 77 | 165 | 365 | 478 | 767 | 1590 | |
| 2026-02-17 16:30 | 5.03 | 3180 (2011) | 8 (2014) | 352 | 13 | 33 | 65 | 77 | 165 | 365 | 478 | 767 | 1590 | |
| 2026-02-17 15:30 | 5.02 | 3180 (2011) | 8 (2014) | 352 | 13 | 33 | 65 | 77 | 165 | 365 | 478 | 767 | 1590 | |
| 2026-02-17 14:30 | 5.03 | 3180 (2011) | 8 (2014) | 352 | 13 | 33 | 65 | 77 | 165 | 365 | 478 | 767 | 1590 | |
| 2026-02-17 13:30 | 5.05 | 3180 (2011) | 8 (2014) | 352 | 13 | 33 | 65 | 77 | 165 | 365 | 478 | 767 | 1590 | |
| 2026-02-17 12:30 | 5.04 | 3180 (2011) | 8 (2014) | 352 | 13 | 33 | 65 | 77 | 165 | 365 | 478 | 767 | 1590 | |
| 2026-02-17 11:30 | 5.04 | 3180 (2011) | 8 (2014) | 352 | 13 | 33 | 65 | 77 | 165 | 365 | 478 | 767 | 1590 | |
| 2026-02-17 10:30 | 5.04 | 3180 (2011) | 8 (2014) | 352 | 13 | 33 | 65 | 77 | 165 | 365 | 478 | 767 | 1590 | |
| 2026-02-17 09:30 | 5.04 | 3180 (2011) | 8 (2014) | 352 | 13 | 33 | 65 | 77 | 165 | 365 | 478 | 767 | 1590 | |
| 2026-02-17 08:30 | 5.05 | 3180 (2011) | 8 (2014) | 352 | 13 | 33 | 65 | 77 | 165 | 365 | 478 | 767 | 1590 | |
| 2026-02-17 07:30 | 5.05 | 3180 (2011) | 8 (2014) | 352 | 13 | 33 | 65 | 77 | 165 | 365 | 478 | 767 | 1590 | |
| 2026-02-17 06:30 | 5.05 | 3180 (2011) | 8 (2014) | 352 | 13 | 33 | 65 | 77 | 165 | 365 | 478 | 767 | 1590 | |
| 2026-02-17 05:30 | 5.05 | 3180 (2011) | 8 (2014) | 352 | 13 | 33 | 65 | 77 | 165 | 365 | 478 | 767 | 1590 | |
| 2026-02-17 04:30 | 5.06 | 3180 (2011) | 8 (2014) | 352 | 13 | 33 | 65 | 77 | 165 | 365 | 478 | 767 | 1590 | |
| 2026-02-17 03:30 | 5.07 | 3180 (2011) | 8 (2014) | 352 | 13 | 33 | 65 | 77 | 165 | 365 | 478 | 767 | 1590 | |
| 2026-02-17 02:30 | 5.06 | 3180 (2011) | 8 (2014) | 352 | 13 | 33 | 65 | 77 | 165 | 365 | 478 | 767 | 1590 | |
| 2026-02-17 01:30 | 5.07 | 3180 (2011) | 8 (2014) | 352 | 13 | 33 | 65 | 77 | 165 | 365 | 478 | 767 | 1590 | |
| 2026-02-17 00:30 | 5.07 | 3180 (2011) | 8 (2014) | 352 | 13 | 33 | 65 | 77 | 165 | 365 | 478 | 767 | 1590 | |
| 2026-02-16 23:30 | 5.07 | 3180 (2011) | 8 (2014) | 352 | 13 | 33 | 65 | 77 | 165 | 365 | 478 | 767 | 1590 | |
| 2026-02-16 22:30 | 5.06 | 2320 (2011) | 5 (1948) | 319 | 13 | 21 | 54 | 69 | 158 | 358 | 396 | 597 | 1800 | |
| 2026-02-16 21:30 | 5.05 | 2320 (2011) | 5 (1948) | 319 | 13 | 21 | 54 | 69 | 158 | 358 | 396 | 597 | 1800 | |
| 2026-02-16 20:30 | 5.04 | 2320 (2011) | 5 (1948) | 319 | 13 | 21 | 54 | 69 | 158 | 358 | 396 | 597 | 1800 | |
| 2026-02-16 19:30 | 5.04 | 2320 (2011) | 5 (1948) | 319 | 13 | 21 | 54 | 69 | 158 | 358 | 396 | 597 | 1800 | |
| 2026-02-16 18:30 | 5.02 | 2320 (2011) | 5 (1948) | 319 | 13 | 21 | 54 | 69 | 158 | 358 | 396 | 597 | 1800 | |
| 2026-02-16 17:30 | 5.01 | 2320 (2011) | 5 (1948) | 319 | 13 | 21 | 54 | 69 | 158 | 358 | 396 | 597 | 1800 | |
| 2026-02-16 16:30 | 5.00 | 2320 (2011) | 5 (1948) | 319 | 13 | 21 | 54 | 69 | 158 | 358 | 396 | 597 | 1800 | |
| 2026-02-16 15:30 | 5.00 | 2320 (2011) | 5 (1948) | 319 | 13 | 21 | 54 | 69 | 158 | 358 | 396 | 597 | 1800 | |
| 2026-02-16 14:30 | 5.00 | 2320 (2011) | 5 (1948) | 319 | 13 | 21 | 54 | 69 | 158 | 358 | 396 | 597 | 1800 | |
| 2026-02-16 13:30 | 5.00 | 2320 (2011) | 5 (1948) | 319 | 13 | 21 | 54 | 69 | 158 | 358 | 396 | 597 | 1800 | |
| 2026-02-16 12:30 | 5.00 | 2320 (2011) | 5 (1948) | 319 | 13 | 21 | 54 | 69 | 158 | 358 | 396 | 597 | 1800 | |
| 2026-02-16 11:30 | 5.02 | 2320 (2011) | 5 (1948) | 319 | 13 | 21 | 54 | 69 | 158 | 358 | 396 | 597 | 1800 | |
| 2026-02-16 10:30 | 5.01 | 2320 (2011) | 5 (1948) | 319 | 13 | 21 | 54 | 69 | 158 | 358 | 396 | 597 | 1800 | |
| 2026-02-16 09:30 | 5.02 | 2320 (2011) | 5 (1948) | 319 | 13 | 21 | 54 | 69 | 158 | 358 | 396 | 597 | 1800 | |
| 2026-02-16 08:30 | 5.02 | 2320 (2011) | 5 (1948) | 319 | 13 | 21 | 54 | 69 | 158 | 358 | 396 | 597 | 1800 | |
| 2026-02-16 07:30 | 5.03 | 2320 (2011) | 5 (1948) | 319 | 13 | 21 | 54 | 69 | 158 | 358 | 396 | 597 | 1800 | |
| 2026-02-16 06:30 | 5.03 | 2320 (2011) | 5 (1948) | 319 | 13 | 21 | 54 | 69 | 158 | 358 | 396 | 597 | 1800 | |
| 2026-02-16 05:30 | 5.03 | 2320 (2011) | 5 (1948) | 319 | 13 | 21 | 54 | 69 | 158 | 358 | 396 | 597 | 1800 | |
| 2026-02-16 04:30 | 5.03 | 2320 (2011) | 5 (1948) | 319 | 13 | 21 | 54 | 69 | 158 | 358 | 396 | 597 | 1800 | |
| 2026-02-16 03:30 | 5.04 | 2320 (2011) | 5 (1948) | 319 | 13 | 21 | 54 | 69 | 158 | 358 | 396 | 597 | 1800 | |
| 2026-02-16 02:30 | 5.04 | 2320 (2011) | 5 (1948) | 319 | 13 | 21 | 54 | 69 | 158 | 358 | 396 | 597 | 1800 | |
| 2026-02-16 01:30 | 5.04 | 2320 (2011) | 5 (1948) | 319 | 13 | 21 | 54 | 69 | 158 | 358 | 396 | 597 | 1800 | |
| 2026-02-16 00:30 | 5.04 | 2320 (2011) | 5 (1948) | 319 | 13 | 21 | 54 | 69 | 158 | 358 | 396 | 597 | 1800 | |
| 2026-02-15 23:30 | 5.04 | 2320 (2011) | 5 (1948) | 319 | 13 | 21 | 54 | 69 | 158 | 358 | 396 | 597 | 1800 | |
| 2026-02-15 22:30 | 5.04 | 2670 (2005) | 7 (1948) | 301 | 14 | 21 | 57 | 69 | 154 | 403 | 449 | 761 | 1280 | |
| 2026-02-15 21:30 | 5.04 | 2670 (2005) | 7 (1948) | 301 | 14 | 21 | 57 | 69 | 154 | 403 | 449 | 761 | 1280 | |
| 2026-02-15 20:30 | 5.05 | 2670 (2005) | 7 (1948) | 301 | 14 | 21 | 57 | 69 | 154 | 403 | 449 | 761 | 1280 | |
| 2026-02-15 19:30 | 5.04 | 2670 (2005) | 7 (1948) | 301 | 14 | 21 | 57 | 69 | 154 | 403 | 449 | 761 | 1280 | |
| 2026-02-15 18:30 | 5.03 | 2670 (2005) | 7 (1948) | 301 | 14 | 21 | 57 | 69 | 154 | 403 | 449 | 761 | 1280 | |
| 2026-02-15 17:30 | 5.03 | 2670 (2005) | 7 (1948) | 301 | 14 | 21 | 57 | 69 | 154 | 403 | 449 | 761 | 1280 | |
| 2026-02-15 16:30 | 5.03 | 2670 (2005) | 7 (1948) | 301 | 14 | 21 | 57 | 69 | 154 | 403 | 449 | 761 | 1280 | |
| 2026-02-15 15:30 | 5.03 | 2670 (2005) | 7 (1948) | 301 | 14 | 21 | 57 | 69 | 154 | 403 | 449 | 761 | 1280 | |
| 2026-02-15 14:30 | 5.04 | 2670 (2005) | 7 (1948) | 301 | 14 | 21 | 57 | 69 | 154 | 403 | 449 | 761 | 1280 | |
| 2026-02-15 13:30 | 5.04 | 2670 (2005) | 7 (1948) | 301 | 14 | 21 | 57 | 69 | 154 | 403 | 449 | 761 | 1280 | |
| 2026-02-15 12:30 | 5.05 | 2670 (2005) | 7 (1948) | 301 | 14 | 21 | 57 | 69 | 154 | 403 | 449 | 761 | 1280 | |
| 2026-02-15 11:30 | 5.05 | 2670 (2005) | 7 (1948) | 301 | 14 | 21 | 57 | 69 | 154 | 403 | 449 | 761 | 1280 | |
| 2026-02-15 10:30 | 5.05 | 2670 (2005) | 7 (1948) | 301 | 14 | 21 | 57 | 69 | 154 | 403 | 449 | 761 | 1280 | |
| 2026-02-15 09:30 | 5.05 | 2670 (2005) | 7 (1948) | 301 | 14 | 21 | 57 | 69 | 154 | 403 | 449 | 761 | 1280 | |
| 2026-02-15 08:30 | 5.06 | 2670 (2005) | 7 (1948) | 301 | 14 | 21 | 57 | 69 | 154 | 403 | 449 | 761 | 1280 | |
| 2026-02-15 07:30 | 5.06 | 2670 (2005) | 7 (1948) | 301 | 14 | 21 | 57 | 69 | 154 | 403 | 449 | 761 | 1280 | |
| 2026-02-15 06:30 | 5.07 | 2670 (2005) | 7 (1948) | 301 | 14 | 21 | 57 | 69 | 154 | 403 | 449 | 761 | 1280 | |
| 2026-02-15 05:30 | 5.07 | 2670 (2005) | 7 (1948) | 301 | 14 | 21 | 57 | 69 | 154 | 403 | 449 | 761 | 1280 | |
| 2026-02-15 04:30 | 5.07 | 2670 (2005) | 7 (1948) | 301 | 14 | 21 | 57 | 69 | 154 | 403 | 449 | 761 | 1280 | |
| 2026-02-15 03:30 | 5.08 | 2670 (2005) | 7 (1948) | 301 | 14 | 21 | 57 | 69 | 154 | 403 | 449 | 761 | 1280 | |
| 2026-02-15 02:30 | 5.08 | 2670 (2005) | 7 (1948) | 301 | 14 | 21 | 57 | 69 | 154 | 403 | 449 | 761 | 1280 | |
| 2026-02-15 01:30 | 5.08 | 2670 (2005) | 7 (1948) | 301 | 14 | 21 | 57 | 69 | 154 | 403 | 449 | 761 | 1280 | |
| 2026-02-15 00:30 | 5.08 | 2670 (2005) | 7 (1948) | 301 | 14 | 21 | 57 | 69 | 154 | 403 | 449 | 761 | 1280 | |
| 2026-02-14 23:30 | 5.09 | 2670 (2005) | 7 (1948) | 301 | 14 | 21 | 57 | 69 | 154 | 403 | 449 | 761 | 1280 | |
| 2026-02-14 22:30 | 5.09 | 1830 (2005) | 7 (1954) | 271 | 13 | 20 | 53 | 70 | 166 | 418 | 446 | 594 | 804 | |
| 2026-02-14 21:30 | 5.08 | 1830 (2005) | 7 (1954) | 271 | 13 | 20 | 53 | 70 | 166 | 418 | 446 | 594 | 804 | |
| 2026-02-14 20:30 | 5.08 | 1830 (2005) | 7 (1954) | 271 | 13 | 20 | 53 | 70 | 166 | 418 | 446 | 594 | 804 | |
| 2026-02-14 19:30 | 5.08 | 1830 (2005) | 7 (1954) | 271 | 13 | 20 | 53 | 70 | 166 | 418 | 446 | 594 | 804 | |
| 2026-02-14 18:30 | 5.09 | 1830 (2005) | 7 (1954) | 271 | 13 | 20 | 53 | 70 | 166 | 418 | 446 | 594 | 804 | |
| 2026-02-14 17:30 | 5.09 | 1830 (2005) | 7 (1954) | 271 | 13 | 20 | 53 | 70 | 166 | 418 | 446 | 594 | 804 | |
| 2026-02-14 16:30 | 5.08 | 1830 (2005) | 7 (1954) | 271 | 13 | 20 | 53 | 70 | 166 | 418 | 446 | 594 | 804 | |
| 2026-02-14 15:30 | 5.09 | 1830 (2005) | 7 (1954) | 271 | 13 | 20 | 53 | 70 | 166 | 418 | 446 | 594 | 804 | |
| 2026-02-14 14:30 | 5.09 | 1830 (2005) | 7 (1954) | 271 | 13 | 20 | 53 | 70 | 166 | 418 | 446 | 594 | 804 | |
| 2026-02-14 13:30 | 5.08 | 1830 (2005) | 7 (1954) | 271 | 13 | 20 | 53 | 70 | 166 | 418 | 446 | 594 | 804 | |
| 2026-02-14 12:30 | 5.08 | 1830 (2005) | 7 (1954) | 271 | 13 | 20 | 53 | 70 | 166 | 418 | 446 | 594 | 804 | |
| 2026-02-14 11:30 | 5.08 | 1830 (2005) | 7 (1954) | 271 | 13 | 20 | 53 | 70 | 166 | 418 | 446 | 594 | 804 | |
| 2026-02-14 10:30 | 5.08 | 1830 (2005) | 7 (1954) | 271 | 13 | 20 | 53 | 70 | 166 | 418 | 446 | 594 | 804 | |
| 2026-02-14 09:30 | 5.09 | 1830 (2005) | 7 (1954) | 271 | 13 | 20 | 53 | 70 | 166 | 418 | 446 | 594 | 804 | |
| 2026-02-14 08:30 | 5.09 | 1830 (2005) | 7 (1954) | 271 | 13 | 20 | 53 | 70 | 166 | 418 | 446 | 594 | 804 | |
| 2026-02-14 07:30 | 5.10 | 1830 (2005) | 7 (1954) | 271 | 13 | 20 | 53 | 70 | 166 | 418 | 446 | 594 | 804 | |
| 2026-02-14 06:30 | 5.09 | 1830 (2005) | 7 (1954) | 271 | 13 | 20 | 53 | 70 | 166 | 418 | 446 | 594 | 804 | |
| 2026-02-14 05:30 | 5.11 | 1830 (2005) | 7 (1954) | 271 | 13 | 20 | 53 | 70 | 166 | 418 | 446 | 594 | 804 | |
| 2026-02-14 04:30 | 5.11 | 1830 (2005) | 7 (1954) | 271 | 13 | 20 | 53 | 70 | 166 | 418 | 446 | 594 | 804 | |
| 2026-02-14 03:30 | 5.11 | 1830 (2005) | 7 (1954) | 271 | 13 | 20 | 53 | 70 | 166 | 418 | 446 | 594 | 804 | |
| 2026-02-14 02:30 | 5.11 | 1830 (2005) | 7 (1954) | 271 | 13 | 20 | 53 | 70 | 166 | 418 | 446 | 594 | 804 | |
| 2026-02-14 01:30 | 5.12 | 1830 (2005) | 7 (1954) | 271 | 13 | 20 | 53 | 70 | 166 | 418 | 446 | 594 | 804 | |
| 2026-02-14 00:30 | 5.12 | 1830 (2005) | 7 (1954) | 271 | 13 | 20 | 53 | 70 | 166 | 418 | 446 | 594 | 804 | |
| 2026-02-13 23:30 | 5.12 | 1830 (2005) | 7 (1954) | 271 | 13 | 20 | 53 | 70 | 166 | 418 | 446 | 594 | 804 | |
| 2026-02-13 22:30 | 5.12 | 1000 (1984) | 4 (1954) | 264 | 14 | 20 | 49 | 71 | 160 | 350 | 424 | 699 | 847 | |
| 2026-02-13 21:30 | 5.12 | 1000 (1984) | 4 (1954) | 264 | 14 | 20 | 49 | 71 | 160 | 350 | 424 | 699 | 847 | |
| 2026-02-13 20:30 | 5.12 | 1000 (1984) | 4 (1954) | 264 | 14 | 20 | 49 | 71 | 160 | 350 | 424 | 699 | 847 | |
| 2026-02-13 19:30 | 5.14 | 1000 (1984) | 4 (1954) | 264 | 14 | 20 | 49 | 71 | 160 | 350 | 424 | 699 | 847 | |
| 2026-02-13 18:30 | 5.12 | 1000 (1984) | 4 (1954) | 264 | 14 | 20 | 49 | 71 | 160 | 350 | 424 | 699 | 847 | |
| 2026-02-13 17:30 | 5.12 | 1000 (1984) | 4 (1954) | 264 | 14 | 20 | 49 | 71 | 160 | 350 | 424 | 699 | 847 | |
| 2026-02-13 16:30 | 5.12 | 1000 (1984) | 4 (1954) | 264 | 14 | 20 | 49 | 71 | 160 | 350 | 424 | 699 | 847 | |
| 2026-02-13 15:30 | 5.13 | 1000 (1984) | 4 (1954) | 264 | 14 | 20 | 49 | 71 | 160 | 350 | 424 | 699 | 847 | |
| 2026-02-13 14:30 | 5.13 | 1000 (1984) | 4 (1954) | 264 | 14 | 20 | 49 | 71 | 160 | 350 | 424 | 699 | 847 | |
| 2026-02-13 13:30 | 5.13 | 1000 (1984) | 4 (1954) | 264 | 14 | 20 | 49 | 71 | 160 | 350 | 424 | 699 | 847 | |
| 2026-02-13 12:30 | 5.15 | 1000 (1984) | 4 (1954) | 264 | 14 | 20 | 49 | 71 | 160 | 350 | 424 | 699 | 847 | |
| 2026-02-13 11:30 | 5.13 | 1000 (1984) | 4 (1954) | 264 | 14 | 20 | 49 | 71 | 160 | 350 | 424 | 699 | 847 | |
| 2026-02-13 10:30 | 5.13 | 1000 (1984) | 4 (1954) | 264 | 14 | 20 | 49 | 71 | 160 | 350 | 424 | 699 | 847 | |
| 2026-02-13 09:30 | 5.13 | 1000 (1984) | 4 (1954) | 264 | 14 | 20 | 49 | 71 | 160 | 350 | 424 | 699 | 847 | |
| 2026-02-13 08:30 | 5.14 | 1000 (1984) | 4 (1954) | 264 | 14 | 20 | 49 | 71 | 160 | 350 | 424 | 699 | 847 | |
| 2026-02-13 07:30 | 5.14 | 1000 (1984) | 4 (1954) | 264 | 14 | 20 | 49 | 71 | 160 | 350 | 424 | 699 | 847 | |
| 2026-02-13 06:30 | 5.15 | 1000 (1984) | 4 (1954) | 264 | 14 | 20 | 49 | 71 | 160 | 350 | 424 | 699 | 847 | |
| 2026-02-13 05:30 | 5.15 | 1000 (1984) | 4 (1954) | 264 | 14 | 20 | 49 | 71 | 160 | 350 | 424 | 699 | 847 | |
| 2026-02-13 04:30 | 5.15 | 1000 (1984) | 4 (1954) | 264 | 14 | 20 | 49 | 71 | 160 | 350 | 424 | 699 | 847 | |
| 2026-02-13 03:30 | 5.16 | 1000 (1984) | 4 (1954) | 264 | 14 | 20 | 49 | 71 | 160 | 350 | 424 | 699 | 847 | |
| 2026-02-13 02:30 | 5.16 | 1000 (1984) | 4 (1954) | 264 | 14 | 20 | 49 | 71 | 160 | 350 | 424 | 699 | 847 | |
| 2026-02-13 01:30 | 5.16 | 1000 (1984) | 4 (1954) | 264 | 14 | 20 | 49 | 71 | 160 | 350 | 424 | 699 | 847 | |
| 2026-02-13 00:30 | 5.16 | 1000 (1984) | 4 (1954) | 264 | 14 | 20 | 49 | 71 | 160 | 350 | 424 | 699 | 847 | |
| 2026-02-12 23:30 | 5.16 | 1000 (1984) | 4 (1954) | 264 | 14 | 20 | 49 | 71 | 160 | 350 | 424 | 699 | 847 | |
| 2026-02-12 22:30 | 5.16 | 1500 (1993) | 4 (1954) | 294 | 10 | 20 | 45 | 71 | 158 | 400 | 497 | 810 | 1000 | |
| 2026-02-12 21:30 | 5.16 | 1500 (1993) | 4 (1954) | 294 | 10 | 20 | 45 | 71 | 158 | 400 | 497 | 810 | 1000 | |
| 2026-02-12 20:30 | 5.16 | 1500 (1993) | 4 (1954) | 294 | 10 | 20 | 45 | 71 | 158 | 400 | 497 | 810 | 1000 | |
| 2026-02-12 19:30 | 5.16 | 1500 (1993) | 4 (1954) | 294 | 10 | 20 | 45 | 71 | 158 | 400 | 497 | 810 | 1000 | |
| 2026-02-12 18:30 | 5.16 | 1500 (1993) | 4 (1954) | 294 | 10 | 20 | 45 | 71 | 158 | 400 | 497 | 810 | 1000 | |
| 2026-02-12 17:30 | 5.15 | 1500 (1993) | 4 (1954) | 294 | 10 | 20 | 45 | 71 | 158 | 400 | 497 | 810 | 1000 | |
| 2026-02-12 16:30 | 5.15 | 1500 (1993) | 4 (1954) | 294 | 10 | 20 | 45 | 71 | 158 | 400 | 497 | 810 | 1000 | |
| 2026-02-12 15:30 | 5.15 | 1500 (1993) | 4 (1954) | 294 | 10 | 20 | 45 | 71 | 158 | 400 | 497 | 810 | 1000 | |
| 2026-02-12 14:30 | 5.15 | 1500 (1993) | 4 (1954) | 294 | 10 | 20 | 45 | 71 | 158 | 400 | 497 | 810 | 1000 | |
| 2026-02-12 13:30 | 5.16 | 1500 (1993) | 4 (1954) | 294 | 10 | 20 | 45 | 71 | 158 | 400 | 497 | 810 | 1000 | |
| 2026-02-12 12:30 | 5.15 | 1500 (1993) | 4 (1954) | 294 | 10 | 20 | 45 | 71 | 158 | 400 | 497 | 810 | 1000 | |
| 2026-02-12 11:30 | 5.15 | 1500 (1993) | 4 (1954) | 294 | 10 | 20 | 45 | 71 | 158 | 400 | 497 | 810 | 1000 | |
| 2026-02-12 10:30 | 5.15 | 1500 (1993) | 4 (1954) | 294 | 10 | 20 | 45 | 71 | 158 | 400 | 497 | 810 | 1000 | |
| 2026-02-12 09:30 | 5.15 | 1500 (1993) | 4 (1954) | 294 | 10 | 20 | 45 | 71 | 158 | 400 | 497 | 810 | 1000 | |
| 2026-02-12 08:30 | 5.15 | 1500 (1993) | 4 (1954) | 294 | 10 | 20 | 45 | 71 | 158 | 400 | 497 | 810 | 1000 | |
| 2026-02-12 07:30 | 5.15 | 1500 (1993) | 4 (1954) | 294 | 10 | 20 | 45 | 71 | 158 | 400 | 497 | 810 | 1000 | |
| 2026-02-12 06:30 | 5.15 | 1500 (1993) | 4 (1954) | 294 | 10 | 20 | 45 | 71 | 158 | 400 | 497 | 810 | 1000 | |
| 2026-02-12 05:30 | 5.15 | 1500 (1993) | 4 (1954) | 294 | 10 | 20 | 45 | 71 | 158 | 400 | 497 | 810 | 1000 | |
| 2026-02-12 04:30 | 5.15 | 1500 (1993) | 4 (1954) | 294 | 10 | 20 | 45 | 71 | 158 | 400 | 497 | 810 | 1000 | |
| 2026-02-12 03:30 | 5.15 | 1500 (1993) | 4 (1954) | 294 | 10 | 20 | 45 | 71 | 158 | 400 | 497 | 810 | 1000 | |
| 2026-02-12 02:30 | 5.15 | 1500 (1993) | 4 (1954) | 294 | 10 | 20 | 45 | 71 | 158 | 400 | 497 | 810 | 1000 | |
| 2026-02-12 01:30 | 5.14 | 1500 (1993) | 4 (1954) | 294 | 10 | 20 | 45 | 71 | 158 | 400 | 497 | 810 | 1000 | |
| 2026-02-12 00:30 | 5.15 | 1500 (1993) | 4 (1954) | 294 | 10 | 20 | 45 | 71 | 158 | 400 | 497 | 810 | 1000 | |
| 2026-02-11 23:30 | 5.15 | 1500 (1993) | 4 (1954) | 294 | 10 | 20 | 45 | 71 | 158 | 400 | 497 | 810 | 1000 | |
| 2026-02-11 22:30 | 5.14 | 2200 (1950) | 4 (1954) | 319 | 7 | 17 | 47 | 68 | 158 | 399 | 519 | 899 | 1140 | |
| 2026-02-11 21:30 | 5.14 | 2200 (1950) | 4 (1954) | 319 | 7 | 17 | 47 | 68 | 158 | 399 | 519 | 899 | 1140 | |
| 2026-02-11 20:30 | 5.14 | 2200 (1950) | 4 (1954) | 319 | 7 | 17 | 47 | 68 | 158 | 399 | 519 | 899 | 1140 | |
| 2026-02-11 19:30 | 5.14 | 2200 (1950) | 4 (1954) | 319 | 7 | 17 | 47 | 68 | 158 | 399 | 519 | 899 | 1140 | |
| 2026-02-11 18:30 | 5.14 | 2200 (1950) | 4 (1954) | 319 | 7 | 17 | 47 | 68 | 158 | 399 | 519 | 899 | 1140 | |
| 2026-02-11 17:30 | 5.13 | 2200 (1950) | 4 (1954) | 319 | 7 | 17 | 47 | 68 | 158 | 399 | 519 | 899 | 1140 | |
| 2026-02-11 16:30 | 5.13 | 2200 (1950) | 4 (1954) | 319 | 7 | 17 | 47 | 68 | 158 | 399 | 519 | 899 | 1140 | |
| 2026-02-11 15:30 | 5.13 | 2200 (1950) | 4 (1954) | 319 | 7 | 17 | 47 | 68 | 158 | 399 | 519 | 899 | 1140 | |
| 2026-02-11 14:30 | 5.13 | 2200 (1950) | 4 (1954) | 319 | 7 | 17 | 47 | 68 | 158 | 399 | 519 | 899 | 1140 | |
| 2026-02-11 13:30 | 5.13 | 2200 (1950) | 4 (1954) | 319 | 7 | 17 | 47 | 68 | 158 | 399 | 519 | 899 | 1140 | |
| 2026-02-11 12:30 | 5.14 | 2200 (1950) | 4 (1954) | 319 | 7 | 17 | 47 | 68 | 158 | 399 | 519 | 899 | 1140 | |
| 2026-02-11 11:30 | 5.14 | 2200 (1950) | 4 (1954) | 319 | 7 | 17 | 47 | 68 | 158 | 399 | 519 | 899 | 1140 | |
| 2026-02-11 10:30 | 5.14 | 2200 (1950) | 4 (1954) | 319 | 7 | 17 | 47 | 68 | 158 | 399 | 519 | 899 | 1140 | |
| 2026-02-11 08:30 | 5.15 | 2200 (1950) | 4 (1954) | 319 | 7 | 17 | 47 | 68 | 158 | 399 | 519 | 899 | 1140 | |
| 2026-02-11 07:30 | 5.15 | 2200 (1950) | 4 (1954) | 319 | 7 | 17 | 47 | 68 | 158 | 399 | 519 | 899 | 1140 | |
| 2026-02-11 06:30 | 5.15 | 2200 (1950) | 4 (1954) | 319 | 7 | 17 | 47 | 68 | 158 | 399 | 519 | 899 | 1140 | |
| 2026-02-11 05:30 | 5.15 | 2200 (1950) | 4 (1954) | 319 | 7 | 17 | 47 | 68 | 158 | 399 | 519 | 899 | 1140 | |
| 2026-02-11 04:30 | 5.16 | 2200 (1950) | 4 (1954) | 319 | 7 | 17 | 47 | 68 | 158 | 399 | 519 | 899 | 1140 | |
| 2026-02-11 03:30 | 5.16 | 2200 (1950) | 4 (1954) | 319 | 7 | 17 | 47 | 68 | 158 | 399 | 519 | 899 | 1140 | |
| 2026-02-11 02:30 | 5.16 | 2200 (1950) | 4 (1954) | 319 | 7 | 17 | 47 | 68 | 158 | 399 | 519 | 899 | 1140 | |
| 2026-02-11 01:30 | 5.15 | 2200 (1950) | 4 (1954) | 319 | 7 | 17 | 47 | 68 | 158 | 399 | 519 | 899 | 1140 | |
| 2026-02-11 00:30 | 5.16 | 2200 (1950) | 4 (1954) | 319 | 7 | 17 | 47 | 68 | 158 | 399 | 519 | 899 | 1140 | |
| 2026-02-10 23:30 | 5.16 | 2200 (1950) | 4 (1954) | 319 | 7 | 17 | 47 | 68 | 158 | 399 | 519 | 899 | 1140 | |
| 2026-02-10 22:30 | 5.15 | 2000 (1950) | 3 (1977) | 315 | 5 | 18 | 46 | 55 | 156 | 377 | 591 | 737 | 1200 | |
| 2026-02-10 21:30 | 5.15 | 2000 (1950) | 3 (1977) | 315 | 5 | 18 | 46 | 55 | 156 | 377 | 591 | 737 | 1200 | |
| 2026-02-10 20:30 | 5.16 | 2000 (1950) | 3 (1977) | 315 | 5 | 18 | 46 | 55 | 156 | 377 | 591 | 737 | 1200 | |
| 2026-02-10 19:30 | 5.15 | 2000 (1950) | 3 (1977) | 315 | 5 | 18 | 46 | 55 | 156 | 377 | 591 | 737 | 1200 | |
| 2026-02-10 18:30 | 5.15 | 2000 (1950) | 3 (1977) | 315 | 5 | 18 | 46 | 55 | 156 | 377 | 591 | 737 | 1200 | |
| 2026-02-10 17:30 | 5.15 | 2000 (1950) | 3 (1977) | 315 | 5 | 18 | 46 | 55 | 156 | 377 | 591 | 737 | 1200 | |
| 2026-02-10 16:30 | 5.15 | 2000 (1950) | 3 (1977) | 315 | 5 | 18 | 46 | 55 | 156 | 377 | 591 | 737 | 1200 | |
| 2026-02-10 15:30 | 5.16 | 2000 (1950) | 3 (1977) | 315 | 5 | 18 | 46 | 55 | 156 | 377 | 591 | 737 | 1200 | |
| 2026-02-10 14:30 | 5.16 | 2000 (1950) | 3 (1977) | 315 | 5 | 18 | 46 | 55 | 156 | 377 | 591 | 737 | 1200 | |
| 2026-02-10 13:30 | 5.16 | 2000 (1950) | 3 (1977) | 315 | 5 | 18 | 46 | 55 | 156 | 377 | 591 | 737 | 1200 | |
| 2026-02-10 12:30 | 5.16 | 2000 (1950) | 3 (1977) | 315 | 5 | 18 | 46 | 55 | 156 | 377 | 591 | 737 | 1200 | |
| 2026-02-10 11:30 | 5.16 | 2000 (1950) | 3 (1977) | 315 | 5 | 18 | 46 | 55 | 156 | 377 | 591 | 737 | 1200 | |
| 2026-02-10 10:30 | 5.16 | 2000 (1950) | 3 (1977) | 315 | 5 | 18 | 46 | 55 | 156 | 377 | 591 | 737 | 1200 | |
| 2026-02-10 09:30 | 5.16 | 2000 (1950) | 3 (1977) | 315 | 5 | 18 | 46 | 55 | 156 | 377 | 591 | 737 | 1200 | |
| 2026-02-10 08:30 | 5.17 | 2000 (1950) | 3 (1977) | 315 | 5 | 18 | 46 | 55 | 156 | 377 | 591 | 737 | 1200 | |
| 2026-02-10 07:30 | 5.17 | 2000 (1950) | 3 (1977) | 315 | 5 | 18 | 46 | 55 | 156 | 377 | 591 | 737 | 1200 | |
| 2026-02-10 06:30 | 5.17 | 2000 (1950) | 3 (1977) | 315 | 5 | 18 | 46 | 55 | 156 | 377 | 591 | 737 | 1200 | |
| 2026-02-10 05:30 | 5.17 | 2000 (1950) | 3 (1977) | 315 | 5 | 18 | 46 | 55 | 156 | 377 | 591 | 737 | 1200 | |
| 2026-02-10 04:30 | 5.17 | 2000 (1950) | 3 (1977) | 315 | 5 | 18 | 46 | 55 | 156 | 377 | 591 | 737 | 1200 | |
| 2026-02-10 03:30 | 5.17 | 2000 (1950) | 3 (1977) | 315 | 5 | 18 | 46 | 55 | 156 | 377 | 591 | 737 | 1200 | |
| 2026-02-10 02:30 | 5.17 | 2000 (1950) | 3 (1977) | 315 | 5 | 18 | 46 | 55 | 156 | 377 | 591 | 737 | 1200 | |
| 2026-02-10 01:30 | 5.17 | 2000 (1950) | 3 (1977) | 315 | 5 | 18 | 46 | 55 | 156 | 377 | 591 | 737 | 1200 | |
| 2026-02-10 00:30 | 5.17 | 2000 (1950) | 3 (1977) | 315 | 5 | 18 | 46 | 55 | 156 | 377 | 591 | 737 | 1200 | |
| 2026-02-09 23:30 | 5.18 | 2000 (1950) | 3 (1977) | 315 | 5 | 18 | 46 | 55 | 156 | 377 | 591 | 737 | 1200 | |
| 2026-02-09 22:30 | 5.18 | 1800 (1950) | 3 (1956) | 301 | 4 | 18 | 35 | 51 | 160 | 398 | 488 | 868 | 1130 | |
| 2026-02-09 21:30 | 5.17 | 1800 (1950) | 3 (1956) | 301 | 4 | 18 | 35 | 51 | 160 | 398 | 488 | 868 | 1130 | |
| 2026-02-09 20:30 | 5.17 | 1800 (1950) | 3 (1956) | 301 | 4 | 18 | 35 | 51 | 160 | 398 | 488 | 868 | 1130 | |
| 2026-02-09 19:30 | 5.17 | 1800 (1950) | 3 (1956) | 301 | 4 | 18 | 35 | 51 | 160 | 398 | 488 | 868 | 1130 | |
| 2026-02-09 18:30 | 5.17 | 1800 (1950) | 3 (1956) | 301 | 4 | 18 | 35 | 51 | 160 | 398 | 488 | 868 | 1130 | |
| 2026-02-09 17:30 | 5.16 | 1800 (1950) | 3 (1956) | 301 | 4 | 18 | 35 | 51 | 160 | 398 | 488 | 868 | 1130 | |
| 2026-02-09 16:30 | 5.17 | 1800 (1950) | 3 (1956) | 301 | 4 | 18 | 35 | 51 | 160 | 398 | 488 | 868 | 1130 | |
| 2026-02-09 15:30 | 5.16 | 1800 (1950) | 3 (1956) | 301 | 4 | 18 | 35 | 51 | 160 | 398 | 488 | 868 | 1130 | |
| 2026-02-09 14:30 | 5.16 | 1800 (1950) | 3 (1956) | 301 | 4 | 18 | 35 | 51 | 160 | 398 | 488 | 868 | 1130 | |
| 2026-02-09 13:30 | 5.16 | 1800 (1950) | 3 (1956) | 301 | 4 | 18 | 35 | 51 | 160 | 398 | 488 | 868 | 1130 | |
| 2026-02-09 12:30 | 5.16 | 1800 (1950) | 3 (1956) | 301 | 4 | 18 | 35 | 51 | 160 | 398 | 488 | 868 | 1130 | |
| 2026-02-09 11:30 | 5.15 | 1800 (1950) | 3 (1956) | 301 | 4 | 18 | 35 | 51 | 160 | 398 | 488 | 868 | 1130 | |
| 2026-02-09 10:30 | 5.16 | 1800 (1950) | 3 (1956) | 301 | 4 | 18 | 35 | 51 | 160 | 398 | 488 | 868 | 1130 | |
| 2026-02-09 09:30 | 5.16 | 1800 (1950) | 3 (1956) | 301 | 4 | 18 | 35 | 51 | 160 | 398 | 488 | 868 | 1130 | |
| 2026-02-09 08:30 | 5.16 | 1800 (1950) | 3 (1956) | 301 | 4 | 18 | 35 | 51 | 160 | 398 | 488 | 868 | 1130 | |
| 2026-02-09 07:30 | 5.16 | 1800 (1950) | 3 (1956) | 301 | 4 | 18 | 35 | 51 | 160 | 398 | 488 | 868 | 1130 | |
| 2026-02-09 06:30 | 5.16 | 1800 (1950) | 3 (1956) | 301 | 4 | 18 | 35 | 51 | 160 | 398 | 488 | 868 | 1130 | |
| 2026-02-09 05:30 | 5.16 | 1800 (1950) | 3 (1956) | 301 | 4 | 18 | 35 | 51 | 160 | 398 | 488 | 868 | 1130 | |
| 2026-02-09 04:30 | 5.15 | 1800 (1950) | 3 (1956) | 301 | 4 | 18 | 35 | 51 | 160 | 398 | 488 | 868 | 1130 | |
| 2026-02-09 03:30 | 5.15 | 1800 (1950) | 3 (1956) | 301 | 4 | 18 | 35 | 51 | 160 | 398 | 488 | 868 | 1130 | |
| 2026-02-09 02:30 | 5.15 | 1800 (1950) | 3 (1956) | 301 | 4 | 18 | 35 | 51 | 160 | 398 | 488 | 868 | 1130 | |
| 2026-02-09 01:30 | 5.15 | 1800 (1950) | 3 (1956) | 301 | 4 | 18 | 35 | 51 | 160 | 398 | 488 | 868 | 1130 | |
| 2026-02-09 00:30 | 5.15 | 1800 (1950) | 3 (1956) | 301 | 4 | 18 | 35 | 51 | 160 | 398 | 488 | 868 | 1130 | |
| 2026-02-08 23:30 | 5.14 | 1800 (1950) | 3 (1956) | 301 | 4 | 18 | 35 | 51 | 160 | 398 | 488 | 868 | 1130 | |
| 2026-02-08 22:30 | 5.13 | 2000 (1950) | 3 (1956) | 293 | 5 | 14 | 34 | 48 | 152 | 409 | 486 | 754 | 1280 | |
| 2026-02-08 21:30 | 5.13 | 2000 (1950) | 3 (1956) | 293 | 5 | 14 | 34 | 48 | 152 | 409 | 486 | 754 | 1280 | |
| 2026-02-08 20:30 | 5.13 | 2000 (1950) | 3 (1956) | 293 | 5 | 14 | 34 | 48 | 152 | 409 | 486 | 754 | 1280 | |
| 2026-02-08 19:30 | 5.12 | 2000 (1950) | 3 (1956) | 293 | 5 | 14 | 34 | 48 | 152 | 409 | 486 | 754 | 1280 | |
| 2026-02-08 18:30 | 5.12 | 2000 (1950) | 3 (1956) | 293 | 5 | 14 | 34 | 48 | 152 | 409 | 486 | 754 | 1280 | |
| 2026-02-08 17:30 | 5.12 | 2000 (1950) | 3 (1956) | 293 | 5 | 14 | 34 | 48 | 152 | 409 | 486 | 754 | 1280 | |
| 2026-02-08 16:30 | 5.11 | 2000 (1950) | 3 (1956) | 293 | 5 | 14 | 34 | 48 | 152 | 409 | 486 | 754 | 1280 | |
| 2026-02-08 15:30 | 5.11 | 2000 (1950) | 3 (1956) | 293 | 5 | 14 | 34 | 48 | 152 | 409 | 486 | 754 | 1280 | |
| 2026-02-08 14:30 | 5.11 | 2000 (1950) | 3 (1956) | 293 | 5 | 14 | 34 | 48 | 152 | 409 | 486 | 754 | 1280 | |
| 2026-02-08 13:30 | 5.10 | 2000 (1950) | 3 (1956) | 293 | 5 | 14 | 34 | 48 | 152 | 409 | 486 | 754 | 1280 | |
| 2026-02-08 12:30 | 5.10 | 2000 (1950) | 3 (1956) | 293 | 5 | 14 | 34 | 48 | 152 | 409 | 486 | 754 | 1280 | |
| 2026-02-08 11:30 | 5.10 | 2000 (1950) | 3 (1956) | 293 | 5 | 14 | 34 | 48 | 152 | 409 | 486 | 754 | 1280 | |
| 2026-02-08 10:30 | 5.11 | 2000 (1950) | 3 (1956) | 293 | 5 | 14 | 34 | 48 | 152 | 409 | 486 | 754 | 1280 | |
| 2026-02-08 09:30 | 5.11 | 2000 (1950) | 3 (1956) | 293 | 5 | 14 | 34 | 48 | 152 | 409 | 486 | 754 | 1280 | |
| 2026-02-08 08:30 | 5.10 | 2000 (1950) | 3 (1956) | 293 | 5 | 14 | 34 | 48 | 152 | 409 | 486 | 754 | 1280 | |
| 2026-02-08 07:30 | 5.10 | 2000 (1950) | 3 (1956) | 293 | 5 | 14 | 34 | 48 | 152 | 409 | 486 | 754 | 1280 | |
| 2026-02-08 06:30 | 5.10 | 2000 (1950) | 3 (1956) | 293 | 5 | 14 | 34 | 48 | 152 | 409 | 486 | 754 | 1280 | |
| 2026-02-08 05:30 | 5.09 | 2000 (1950) | 3 (1956) | 293 | 5 | 14 | 34 | 48 | 152 | 409 | 486 | 754 | 1280 | |
| 2026-02-08 04:30 | 5.09 | 2000 (1950) | 3 (1956) | 293 | 5 | 14 | 34 | 48 | 152 | 409 | 486 | 754 | 1280 | |
| 2026-02-08 03:30 | 5.09 | 2000 (1950) | 3 (1956) | 293 | 5 | 14 | 34 | 48 | 152 | 409 | 486 | 754 | 1280 | |
| 2026-02-08 02:30 | 5.09 | 2000 (1950) | 3 (1956) | 293 | 5 | 14 | 34 | 48 | 152 | 409 | 486 | 754 | 1280 | |
| 2026-02-08 01:30 | 5.08 | 2000 (1950) | 3 (1956) | 293 | 5 | 14 | 34 | 48 | 152 | 409 | 486 | 754 | 1280 | |
| 2026-02-08 00:30 | 5.08 | 2000 (1950) | 3 (1956) | 293 | 5 | 14 | 34 | 48 | 152 | 409 | 486 | 754 | 1280 | |
| 2026-02-07 23:30 | 5.08 | 2000 (1950) | 3 (1956) | 293 | 5 | 14 | 34 | 48 | 152 | 409 | 486 | 754 | 1280 |
A total of 2190 rows are displayed for years 1946 through 2025.